﻿<?xml version="1.0" encoding="UTF-8" standalone="no" ?><gpx xmlns="http://www.topografix.com/GPX/1/1" xmlns:gpxx="http://www.garmin.com/xmlschemas/WaypointExtension/v1" xmlns:gpxtrx="http://www.garmin.com/xmlschemas/GpxExtensions/v3" xmlns:gpxtpx="http://www.garmin.com/xmlschemas/TrackPointExtension/v1" creator="GPSMAP 62s" version="1.1" xmlns:xsi="http://www.w3.org/2001/XMLSchema-instance" xsi:schemaLocation="http://www.topografix.com/GPX/1/1 http://www.topografix.com/GPX/1/1/gpx.xsd http://www.garmin.com/xmlschemas/WaypointExtension/v1 http://www8.garmin.com/xmlschemas/WaypointExtensionv1.xsd http://www.garmin.com/xmlschemas/TrackPointExtension/v1 http://www.garmin.com/xmlschemas/TrackPointExtensionv1.xsd"><metadata><link href="http://www.garmin.com"><text>Garmin International</text></link><time>2011-03-20T23:51:32Z</time></metadata><trk><name>21-МАРТ-11 01:51:27 AM</name><extensions><gpxtrx:TrackExtension><gpxtrx:DisplayColor>Cyan</gpxtrx:DisplayColor></gpxtrx:TrackExtension></extensions><trkseg><trkpt lat="52.651577" lon="25.221169"><ele>148.18</ele><time>2011-03-20T03:30:14Z</time></trkpt><trkpt lat="52.651577" lon="25.221161"><ele>149.62</ele><time>2011-03-20T03:30:30Z</time></trkpt><trkpt lat="52.651573" lon="25.221169"><ele>151.06</ele><time>2011-03-20T03:30:35Z</time></trkpt><trkpt lat="52.651573" lon="25.221176"><ele>151.06</ele><time>2011-03-20T03:30:40Z</time></trkpt><trkpt lat="52.651585" lon="25.221149"><ele>150.58</ele><time>2011-03-20T03:31:15Z</time></trkpt><trkpt lat="52.651585" lon="25.221149"><ele>153.95</ele><time>2011-03-20T03:31:24Z</time></trkpt><trkpt lat="52.651585" lon="25.221149"><ele>151.06</ele><time>2011-03-20T03:31:25Z</time></trkpt><trkpt lat="52.651585" lon="25.221149"><ele>151.06</ele><time>2011-03-20T03:31:35Z</time></trkpt><trkpt lat="52.651585" lon="25.221146"><ele>150.58</ele><time>2011-03-20T03:31:47Z</time></trkpt><trkpt lat="52.651630" lon="25.221083"><ele>151.06</ele><time>2011-03-20T03:31:52Z</time></trkpt><trkpt lat="52.651840" lon="25.220804"><ele>151.06</ele><time>2011-03-20T03:32:06Z</time></trkpt><trkpt lat="52.652195" lon="25.220495"><ele>150.58</ele><time>2011-03-20T03:32:21Z</time></trkpt><trkpt lat="52.652679" lon="25.220085"><ele>151.54</ele><time>2011-03-20T03:32:39Z</time></trkpt><trkpt lat="52.653198" lon="25.219603"><ele>152.03</ele><time>2011-03-20T03:32:58Z</time></trkpt><trkpt lat="52.653805" lon="25.219059"><ele>152.51</ele><time>2011-03-20T03:33:19Z</time></trkpt><trkpt lat="52.654419" lon="25.218466"><ele>152.51</ele><time>2011-03-20T03:33:40Z</time></trkpt><trkpt lat="52.654648" lon="25.218260"><ele>152.03</ele><time>2011-03-20T03:33:53Z</time></trkpt><trkpt lat="52.654934" lon="25.218018"><ele>151.54</ele><time>2011-03-20T03:34:05Z</time></trkpt><trkpt lat="52.655453" lon="25.217607"><ele>152.03</ele><time>2011-03-20T03:34:23Z</time></trkpt><trkpt lat="52.656216" lon="25.217068"><ele>152.03</ele><time>2011-03-20T03:34:45Z</time></trkpt><trkpt lat="52.656723" lon="25.216747"><ele>152.03</ele><time>2011-03-20T03:35:01Z</time></trkpt><trkpt lat="52.657246" lon="25.216465"><ele>152.03</ele><time>2011-03-20T03:35:16Z</time></trkpt><trkpt lat="52.657764" lon="25.216206"><ele>152.03</ele><time>2011-03-20T03:35:31Z</time></trkpt><trkpt lat="52.658417" lon="25.216057"><ele>152.51</ele><time>2011-03-20T03:35:49Z</time></trkpt><trkpt lat="52.659069" lon="25.215921"><ele>152.51</ele><time>2011-03-20T03:36:07Z</time></trkpt><trkpt lat="52.659813" lon="25.215807"><ele>153.47</ele><time>2011-03-20T03:36:27Z</time></trkpt><trkpt lat="52.660484" lon="25.215734"><ele>152.51</ele><time>2011-03-20T03:36:45Z</time></trkpt><trkpt lat="52.661232" lon="25.215544"><ele>152.51</ele><time>2011-03-20T03:37:04Z</time></trkpt><trkpt lat="52.661842" lon="25.215260"><ele>152.99</ele><time>2011-03-20T03:37:21Z</time></trkpt><trkpt lat="52.662418" lon="25.214973"><ele>152.03</ele><time>2011-03-20T03:37:36Z</time></trkpt><trkpt lat="52.662994" lon="25.214666"><ele>152.03</ele><time>2011-03-20T03:37:51Z</time></trkpt><trkpt lat="52.663631" lon="25.214319"><ele>152.51</ele><time>2011-03-20T03:38:08Z</time></trkpt><trkpt lat="52.664368" lon="25.213900"><ele>152.51</ele><time>2011-03-20T03:38:26Z</time></trkpt><trkpt lat="52.665073" lon="25.213476"><ele>152.03</ele><time>2011-03-20T03:38:44Z</time></trkpt><trkpt lat="52.665646" lon="25.212816"><ele>152.51</ele><time>2011-03-20T03:39:01Z</time></trkpt><trkpt lat="52.666157" lon="25.212042"><ele>152.03</ele><time>2011-03-20T03:39:17Z</time></trkpt><trkpt lat="52.666641" lon="25.211332"><ele>152.03</ele><time>2011-03-20T03:39:33Z</time></trkpt><trkpt lat="52.667088" lon="25.210670"><ele>152.51</ele><time>2011-03-20T03:39:48Z</time></trkpt><trkpt lat="52.667545" lon="25.209919"><ele>153.47</ele><time>2011-03-20T03:40:04Z</time></trkpt><trkpt lat="52.668129" lon="25.209045"><ele>152.99</ele><time>2011-03-20T03:40:21Z</time></trkpt><trkpt lat="52.668648" lon="25.208292"><ele>152.51</ele><time>2011-03-20T03:40:37Z</time></trkpt><trkpt lat="52.669094" lon="25.207609"><ele>153.47</ele><time>2011-03-20T03:40:53Z</time></trkpt><trkpt lat="52.669575" lon="25.206892"><ele>152.99</ele><time>2011-03-20T03:41:09Z</time></trkpt><trkpt lat="52.670139" lon="25.206177"><ele>152.03</ele><time>2011-03-20T03:41:26Z</time></trkpt><trkpt lat="52.670536" lon="25.205729"><ele>151.54</ele><time>2011-03-20T03:41:37Z</time></trkpt><trkpt lat="52.671131" lon="25.205011"><ele>151.54</ele><time>2011-03-20T03:41:53Z</time></trkpt><trkpt lat="52.671551" lon="25.204567"><ele>151.54</ele><time>2011-03-20T03:42:04Z</time></trkpt><trkpt lat="52.672127" lon="25.204000"><ele>152.03</ele><time>2011-03-20T03:42:21Z</time></trkpt><trkpt lat="52.672710" lon="25.203453"><ele>150.58</ele><time>2011-03-20T03:42:38Z</time></trkpt><trkpt lat="52.673271" lon="25.202808"><ele>151.06</ele><time>2011-03-20T03:42:54Z</time></trkpt><trkpt lat="52.673923" lon="25.202030"><ele>151.06</ele><time>2011-03-20T03:43:13Z</time></trkpt><trkpt lat="52.674095" lon="25.201820"><ele>151.54</ele><time>2011-03-20T03:43:25Z</time></trkpt><trkpt lat="52.674107" lon="25.201830"><ele>151.06</ele><time>2011-03-20T03:43:26Z</time></trkpt><trkpt lat="52.674122" lon="25.201849"><ele>151.54</ele><time>2011-03-20T03:43:37Z</time></trkpt><trkpt lat="52.674122" lon="25.201849"><ele>150.58</ele><time>2011-03-20T03:43:48Z</time></trkpt><trkpt lat="52.674114" lon="25.201859"><ele>150.58</ele><time>2011-03-20T03:44:19Z</time></trkpt><trkpt lat="52.674114" lon="25.201836"><ele>150.58</ele><time>2011-03-20T03:44:32Z</time></trkpt><trkpt lat="52.674114" lon="25.201836"><ele>150.58</ele><time>2011-03-20T03:44:48Z</time></trkpt><trkpt lat="52.674110" lon="25.201775"><ele>150.58</ele><time>2011-03-20T03:44:55Z</time></trkpt><trkpt lat="52.674149" lon="25.201708"><ele>151.06</ele><time>2011-03-20T03:45:07Z</time></trkpt><trkpt lat="52.674164" lon="25.201693"><ele>150.58</ele><time>2011-03-20T03:45:08Z</time></trkpt><trkpt lat="52.674179" lon="25.201675"><ele>150.58</ele><time>2011-03-20T03:45:09Z</time></trkpt><trkpt lat="52.674522" lon="25.201313"><ele>150.58</ele><time>2011-03-20T03:45:23Z</time></trkpt><trkpt lat="52.675011" lon="25.200790"><ele>149.62</ele><time>2011-03-20T03:45:40Z</time></trkpt><trkpt lat="52.675583" lon="25.200241"><ele>150.10</ele><time>2011-03-20T03:45:58Z</time></trkpt><trkpt lat="52.676170" lon="25.199934"><ele>150.10</ele><time>2011-03-20T03:46:15Z</time></trkpt><trkpt lat="52.676872" lon="25.199987"><ele>150.58</ele><time>2011-03-20T03:46:34Z</time></trkpt><trkpt lat="52.677517" lon="25.200352"><ele>150.58</ele><time>2011-03-20T03:46:52Z</time></trkpt><trkpt lat="52.678223" lon="25.200840"><ele>151.54</ele><time>2011-03-20T03:47:12Z</time></trkpt><trkpt lat="52.678822" lon="25.201189"><ele>152.03</ele><time>2011-03-20T03:47:28Z</time></trkpt><trkpt lat="52.679527" lon="25.201384"><ele>152.03</ele><time>2011-03-20T03:47:47Z</time></trkpt><trkpt lat="52.680267" lon="25.201441"><ele>150.58</ele><time>2011-03-20T03:48:06Z</time></trkpt><trkpt lat="52.680347" lon="25.201435"><ele>152.03</ele><time>2011-03-20T03:48:08Z</time></trkpt><trkpt lat="52.680550" lon="25.201420"><ele>150.58</ele><time>2011-03-20T03:48:13Z</time></trkpt><trkpt lat="52.680672" lon="25.201406"><ele>152.03</ele><time>2011-03-20T03:48:16Z</time></trkpt><trkpt lat="52.681374" lon="25.201284"><ele>151.54</ele><time>2011-03-20T03:48:34Z</time></trkpt><trkpt lat="52.681412" lon="25.201277"><ele>151.54</ele><time>2011-03-20T03:48:35Z</time></trkpt><trkpt lat="52.681568" lon="25.201252"><ele>150.58</ele><time>2011-03-20T03:48:39Z</time></trkpt><trkpt lat="52.682106" lon="25.201166"><ele>150.58</ele><time>2011-03-20T03:48:52Z</time></trkpt><trkpt lat="52.682983" lon="25.201014"><ele>150.58</ele><time>2011-03-20T03:49:13Z</time></trkpt><trkpt lat="52.683800" lon="25.200865"><ele>151.06</ele><time>2011-03-20T03:49:33Z</time></trkpt><trkpt lat="52.684158" lon="25.200804"><ele>152.51</ele><time>2011-03-20T03:49:42Z</time></trkpt><trkpt lat="52.684414" lon="25.200768"><ele>152.51</ele><time>2011-03-20T03:49:48Z</time></trkpt><trkpt lat="52.684673" lon="25.200718"><ele>150.58</ele><time>2011-03-20T03:49:54Z</time></trkpt><trkpt lat="52.685253" lon="25.200624"><ele>152.51</ele><time>2011-03-20T03:50:08Z</time></trkpt><trkpt lat="52.685970" lon="25.200502"><ele>152.03</ele><time>2011-03-20T03:50:25Z</time></trkpt><trkpt lat="52.686058" lon="25.200491"><ele>151.06</ele><time>2011-03-20T03:50:27Z</time></trkpt><trkpt lat="52.686142" lon="25.200474"><ele>152.51</ele><time>2011-03-20T03:50:29Z</time></trkpt><trkpt lat="52.686897" lon="25.200331"><ele>151.54</ele><time>2011-03-20T03:50:47Z</time></trkpt><trkpt lat="52.687187" lon="25.200283"><ele>152.51</ele><time>2011-03-20T03:50:54Z</time></trkpt><trkpt lat="52.687832" lon="25.200186"><ele>151.54</ele><time>2011-03-20T03:51:10Z</time></trkpt><trkpt lat="52.688244" lon="25.200109"><ele>153.47</ele><time>2011-03-20T03:51:20Z</time></trkpt><trkpt lat="52.688988" lon="25.199989"><ele>154.43</ele><time>2011-03-20T03:51:38Z</time></trkpt><trkpt lat="52.689110" lon="25.199970"><ele>152.99</ele><time>2011-03-20T03:51:41Z</time></trkpt><trkpt lat="52.689789" lon="25.199823"><ele>154.91</ele><time>2011-03-20T03:52:00Z</time></trkpt><trkpt lat="52.690048" lon="25.199760"><ele>154.91</ele><time>2011-03-20T03:52:13Z</time></trkpt><trkpt lat="52.690292" lon="25.199558"><ele>155.39</ele><time>2011-03-20T03:52:26Z</time></trkpt><trkpt lat="52.690704" lon="25.198807"><ele>155.87</ele><time>2011-03-20T03:52:45Z</time></trkpt><trkpt lat="52.691177" lon="25.197878"><ele>154.91</ele><time>2011-03-20T03:53:06Z</time></trkpt><trkpt lat="52.691574" lon="25.197109"><ele>155.87</ele><time>2011-03-20T03:53:23Z</time></trkpt><trkpt lat="52.692062" lon="25.196177"><ele>155.39</ele><time>2011-03-20T03:53:43Z</time></trkpt><trkpt lat="52.692520" lon="25.195292"><ele>155.39</ele><time>2011-03-20T03:54:02Z</time></trkpt><trkpt lat="52.692574" lon="25.195204"><ele>156.35</ele><time>2011-03-20T03:54:04Z</time></trkpt><trkpt lat="52.693035" lon="25.194262"><ele>156.35</ele><time>2011-03-20T03:54:24Z</time></trkpt><trkpt lat="52.693272" lon="25.193649"><ele>157.31</ele><time>2011-03-20T03:54:39Z</time></trkpt><trkpt lat="52.693504" lon="25.192806"><ele>158.75</ele><time>2011-03-20T03:54:57Z</time></trkpt><trkpt lat="52.693581" lon="25.192331"><ele>157.79</ele><time>2011-03-20T03:55:08Z</time></trkpt><trkpt lat="52.693748" lon="25.191511"><ele>158.75</ele><time>2011-03-20T03:55:25Z</time></trkpt><trkpt lat="52.693966" lon="25.190510"><ele>158.27</ele><time>2011-03-20T03:55:43Z</time></trkpt><trkpt lat="52.694237" lon="25.189508"><ele>156.83</ele><time>2011-03-20T03:56:01Z</time></trkpt><trkpt lat="52.694599" lon="25.189049"><ele>156.83</ele><time>2011-03-20T03:56:13Z</time></trkpt><trkpt lat="52.695190" lon="25.188444"><ele>157.31</ele><time>2011-03-20T03:56:31Z</time></trkpt><trkpt lat="52.695671" lon="25.188141"><ele>156.83</ele><time>2011-03-20T03:56:47Z</time></trkpt><trkpt lat="52.695698" lon="25.188133"><ele>156.83</ele><time>2011-03-20T03:57:03Z</time></trkpt><trkpt lat="52.695713" lon="25.188120"><ele>157.31</ele><time>2011-03-20T03:57:19Z</time></trkpt><trkpt lat="52.695728" lon="25.188108"><ele>156.83</ele><time>2011-03-20T03:57:20Z</time></trkpt><trkpt lat="52.695744" lon="25.188097"><ele>156.83</ele><time>2011-03-20T03:57:21Z</time></trkpt><trkpt lat="52.696156" lon="25.187860"><ele>156.83</ele><time>2011-03-20T03:57:36Z</time></trkpt><trkpt lat="52.696758" lon="25.187506"><ele>156.83</ele><time>2011-03-20T03:57:54Z</time></trkpt><trkpt lat="52.697300" lon="25.187202"><ele>157.31</ele><time>2011-03-20T03:58:10Z</time></trkpt><trkpt lat="52.697979" lon="25.186831"><ele>156.35</ele><time>2011-03-20T03:58:29Z</time></trkpt><trkpt lat="52.698685" lon="25.186417"><ele>156.35</ele><time>2011-03-20T03:58:47Z</time></trkpt><trkpt lat="52.699284" lon="25.186054"><ele>157.31</ele><time>2011-03-20T03:59:04Z</time></trkpt><trkpt lat="52.699955" lon="25.185675"><ele>158.27</ele><time>2011-03-20T03:59:23Z</time></trkpt><trkpt lat="52.700478" lon="25.185352"><ele>158.75</ele><time>2011-03-20T03:59:38Z</time></trkpt><trkpt lat="52.701214" lon="25.184902"><ele>158.75</ele><time>2011-03-20T03:59:57Z</time></trkpt><trkpt lat="52.701988" lon="25.184422"><ele>159.24</ele><time>2011-03-20T04:00:17Z</time></trkpt><trkpt lat="52.702801" lon="25.183956"><ele>160.68</ele><time>2011-03-20T04:00:39Z</time></trkpt><trkpt lat="52.703312" lon="25.183645"><ele>163.08</ele><time>2011-03-20T04:00:54Z</time></trkpt><trkpt lat="52.703861" lon="25.183329"><ele>164.04</ele><time>2011-03-20T04:01:11Z</time></trkpt><trkpt lat="52.704418" lon="25.182997"><ele>166.45</ele><time>2011-03-20T04:01:28Z</time></trkpt><trkpt lat="52.704964" lon="25.182676"><ele>167.89</ele><time>2011-03-20T04:01:45Z</time></trkpt><trkpt lat="52.705475" lon="25.182356"><ele>168.37</ele><time>2011-03-20T04:02:00Z</time></trkpt><trkpt lat="52.706097" lon="25.181982"><ele>168.85</ele><time>2011-03-20T04:02:18Z</time></trkpt><trkpt lat="52.706688" lon="25.181648"><ele>167.89</ele><time>2011-03-20T04:02:33Z</time></trkpt><trkpt lat="52.707249" lon="25.181307"><ele>169.81</ele><time>2011-03-20T04:02:48Z</time></trkpt><trkpt lat="52.707668" lon="25.181053"><ele>169.81</ele><time>2011-03-20T04:02:59Z</time></trkpt><trkpt lat="52.707706" lon="25.181026"><ele>169.81</ele><time>2011-03-20T04:03:00Z</time></trkpt><trkpt lat="52.708313" lon="25.180660"><ele>170.29</ele><time>2011-03-20T04:03:16Z</time></trkpt><trkpt lat="52.708878" lon="25.180342"><ele>170.29</ele><time>2011-03-20T04:03:31Z</time></trkpt><trkpt lat="52.709461" lon="25.179991"><ele>171.25</ele><time>2011-03-20T04:03:47Z</time></trkpt><trkpt lat="52.710041" lon="25.179659"><ele>172.69</ele><time>2011-03-20T04:04:04Z</time></trkpt><trkpt lat="52.710621" lon="25.179335"><ele>173.17</ele><time>2011-03-20T04:04:19Z</time></trkpt><trkpt lat="52.711193" lon="25.178959"><ele>173.66</ele><time>2011-03-20T04:04:35Z</time></trkpt><trkpt lat="52.711784" lon="25.178558"><ele>174.14</ele><time>2011-03-20T04:04:52Z</time></trkpt><trkpt lat="52.712315" lon="25.178207"><ele>175.10</ele><time>2011-03-20T04:05:08Z</time></trkpt><trkpt lat="52.712837" lon="25.177860"><ele>177.50</ele><time>2011-03-20T04:05:24Z</time></trkpt><trkpt lat="52.713341" lon="25.177546"><ele>177.98</ele><time>2011-03-20T04:05:40Z</time></trkpt><trkpt lat="52.713814" lon="25.177223"><ele>178.94</ele><time>2011-03-20T04:05:55Z</time></trkpt><trkpt lat="52.714291" lon="25.176908"><ele>180.38</ele><time>2011-03-20T04:06:09Z</time></trkpt><trkpt lat="52.714897" lon="25.176493"><ele>181.35</ele><time>2011-03-20T04:06:26Z</time></trkpt><trkpt lat="52.715477" lon="25.176004"><ele>181.83</ele><time>2011-03-20T04:06:43Z</time></trkpt><trkpt lat="52.716015" lon="25.175516"><ele>181.83</ele><time>2011-03-20T04:06:59Z</time></trkpt><trkpt lat="52.716629" lon="25.174929"><ele>181.35</ele><time>2011-03-20T04:07:18Z</time></trkpt><trkpt lat="52.717247" lon="25.174314"><ele>180.38</ele><time>2011-03-20T04:07:38Z</time></trkpt><trkpt lat="52.717812" lon="25.173756"><ele>180.38</ele><time>2011-03-20T04:07:55Z</time></trkpt><trkpt lat="52.718369" lon="25.173222"><ele>180.38</ele><time>2011-03-20T04:08:12Z</time></trkpt><trkpt lat="52.718884" lon="25.172739"><ele>180.87</ele><time>2011-03-20T04:08:28Z</time></trkpt><trkpt lat="52.719364" lon="25.172262"><ele>180.87</ele><time>2011-03-20T04:08:44Z</time></trkpt><trkpt lat="52.719902" lon="25.171759"><ele>180.87</ele><time>2011-03-20T04:09:02Z</time></trkpt><trkpt lat="52.720409" lon="25.171284"><ele>180.38</ele><time>2011-03-20T04:09:18Z</time></trkpt><trkpt lat="52.720978" lon="25.170725"><ele>178.94</ele><time>2011-03-20T04:09:35Z</time></trkpt><trkpt lat="52.721554" lon="25.170170"><ele>177.02</ele><time>2011-03-20T04:09:52Z</time></trkpt><trkpt lat="52.722172" lon="25.169569"><ele>175.10</ele><time>2011-03-20T04:10:10Z</time></trkpt><trkpt lat="52.722725" lon="25.169033"><ele>174.14</ele><time>2011-03-20T04:10:26Z</time></trkpt><trkpt lat="52.723286" lon="25.168482"><ele>173.17</ele><time>2011-03-20T04:10:42Z</time></trkpt><trkpt lat="52.723866" lon="25.167927"><ele>171.25</ele><time>2011-03-20T04:10:58Z</time></trkpt><trkpt lat="52.724194" lon="25.167604"><ele>171.25</ele><time>2011-03-20T04:11:07Z</time></trkpt><trkpt lat="52.724480" lon="25.167324"><ele>170.77</ele><time>2011-03-20T04:11:15Z</time></trkpt><trkpt lat="52.725105" lon="25.166737"><ele>169.81</ele><time>2011-03-20T04:11:32Z</time></trkpt><trkpt lat="52.725666" lon="25.166193"><ele>169.33</ele><time>2011-03-20T04:11:48Z</time></trkpt><trkpt lat="52.726315" lon="25.165543"><ele>168.85</ele><time>2011-03-20T04:12:07Z</time></trkpt><trkpt lat="52.726906" lon="25.164970"><ele>168.37</ele><time>2011-03-20T04:12:23Z</time></trkpt><trkpt lat="52.727501" lon="25.164417"><ele>167.89</ele><time>2011-03-20T04:12:39Z</time></trkpt><trkpt lat="52.728081" lon="25.163868"><ele>167.89</ele><time>2011-03-20T04:12:55Z</time></trkpt><trkpt lat="52.728619" lon="25.163338"><ele>167.89</ele><time>2011-03-20T04:13:10Z</time></trkpt><trkpt lat="52.729221" lon="25.162731"><ele>167.89</ele><time>2011-03-20T04:13:27Z</time></trkpt><trkpt lat="52.729759" lon="25.162203"><ele>166.93</ele><time>2011-03-20T04:13:42Z</time></trkpt><trkpt lat="52.730255" lon="25.161694"><ele>167.41</ele><time>2011-03-20T04:13:57Z</time></trkpt><trkpt lat="52.730804" lon="25.161194"><ele>167.41</ele><time>2011-03-20T04:14:12Z</time></trkpt><trkpt lat="52.731438" lon="25.160625"><ele>167.41</ele><time>2011-03-20T04:14:30Z</time></trkpt><trkpt lat="52.732006" lon="25.160223"><ele>167.41</ele><time>2011-03-20T04:14:46Z</time></trkpt><trkpt lat="52.732666" lon="25.159864"><ele>168.37</ele><time>2011-03-20T04:15:04Z</time></trkpt><trkpt lat="52.733360" lon="25.159479"><ele>167.41</ele><time>2011-03-20T04:15:22Z</time></trkpt><trkpt lat="52.733982" lon="25.159157"><ele>166.93</ele><time>2011-03-20T04:15:37Z</time></trkpt><trkpt lat="52.734447" lon="25.158924"><ele>166.93</ele><time>2011-03-20T04:15:52Z</time></trkpt><trkpt lat="52.735004" lon="25.158621"><ele>166.93</ele><time>2011-03-20T04:16:10Z</time></trkpt><trkpt lat="52.735462" lon="25.158381"><ele>166.45</ele><time>2011-03-20T04:16:26Z</time></trkpt><trkpt lat="52.735950" lon="25.158123"><ele>167.41</ele><time>2011-03-20T04:16:41Z</time></trkpt><trkpt lat="52.736443" lon="25.157877"><ele>167.41</ele><time>2011-03-20T04:16:55Z</time></trkpt><trkpt lat="52.736889" lon="25.157635"><ele>167.41</ele><time>2011-03-20T04:17:09Z</time></trkpt><trkpt lat="52.737370" lon="25.157370"><ele>168.37</ele><time>2011-03-20T04:17:22Z</time></trkpt><trkpt lat="52.737881" lon="25.156870"><ele>167.41</ele><time>2011-03-20T04:17:38Z</time></trkpt><trkpt lat="52.738445" lon="25.156019"><ele>166.45</ele><time>2011-03-20T04:17:58Z</time></trkpt><trkpt lat="52.738918" lon="25.155188"><ele>165.48</ele><time>2011-03-20T04:18:16Z</time></trkpt><trkpt lat="52.739407" lon="25.154505"><ele>165.00</ele><time>2011-03-20T04:18:33Z</time></trkpt><trkpt lat="52.739914" lon="25.154154"><ele>164.52</ele><time>2011-03-20T04:18:48Z</time></trkpt><trkpt lat="52.740486" lon="25.153879"><ele>164.04</ele><time>2011-03-20T04:19:03Z</time></trkpt><trkpt lat="52.740654" lon="25.153811"><ele>163.56</ele><time>2011-03-20T04:19:07Z</time></trkpt><trkpt lat="52.740700" lon="25.153790"><ele>163.08</ele><time>2011-03-20T04:19:08Z</time></trkpt><trkpt lat="52.741261" lon="25.153517"><ele>162.60</ele><time>2011-03-20T04:19:22Z</time></trkpt><trkpt lat="52.741776" lon="25.153280"><ele>163.08</ele><time>2011-03-20T04:19:37Z</time></trkpt><trkpt lat="52.742393" lon="25.153040"><ele>162.60</ele><time>2011-03-20T04:19:53Z</time></trkpt><trkpt lat="52.743114" lon="25.153065"><ele>164.04</ele><time>2011-03-20T04:20:12Z</time></trkpt><trkpt lat="52.743412" lon="25.153175"><ele>163.56</ele><time>2011-03-20T04:20:20Z</time></trkpt><trkpt lat="52.743446" lon="25.153193"><ele>164.04</ele><time>2011-03-20T04:20:21Z</time></trkpt><trkpt lat="52.744091" lon="25.153521"><ele>162.60</ele><time>2011-03-20T04:20:38Z</time></trkpt><trkpt lat="52.744446" lon="25.153671"><ele>162.12</ele><time>2011-03-20T04:20:47Z</time></trkpt><trkpt lat="52.745125" lon="25.153961"><ele>162.60</ele><time>2011-03-20T04:21:04Z</time></trkpt><trkpt lat="52.745827" lon="25.154039"><ele>160.68</ele><time>2011-03-20T04:21:23Z</time></trkpt><trkpt lat="52.746326" lon="25.153900"><ele>160.20</ele><time>2011-03-20T04:21:39Z</time></trkpt><trkpt lat="52.746387" lon="25.153908"><ele>162.12</ele><time>2011-03-20T04:21:42Z</time></trkpt><trkpt lat="52.746643" lon="25.153788"><ele>160.20</ele><time>2011-03-20T04:21:55Z</time></trkpt><trkpt lat="52.747028" lon="25.153482"><ele>159.24</ele><time>2011-03-20T04:22:10Z</time></trkpt><trkpt lat="52.747284" lon="25.153204"><ele>157.79</ele><time>2011-03-20T04:22:22Z</time></trkpt><trkpt lat="52.747208" lon="25.153152"><ele>158.75</ele><time>2011-03-20T04:22:28Z</time></trkpt><trkpt lat="52.747105" lon="25.153215"><ele>159.24</ele><time>2011-03-20T04:22:32Z</time></trkpt><trkpt lat="52.747169" lon="25.153351"><ele>158.27</ele><time>2011-03-20T04:22:38Z</time></trkpt><trkpt lat="52.747265" lon="25.153202"><ele>158.27</ele><time>2011-03-20T04:22:42Z</time></trkpt><trkpt lat="52.747860" lon="25.152569"><ele>152.99</ele><time>2011-03-20T04:25:50Z</time></trkpt><trkpt lat="52.747864" lon="25.152523"><ele>152.99</ele><time>2011-03-20T04:25:51Z</time></trkpt><trkpt lat="52.747864" lon="25.152531"><ele>155.87</ele><time>2011-03-20T04:25:55Z</time></trkpt><trkpt lat="52.747860" lon="25.152563"><ele>157.31</ele><time>2011-03-20T04:26:02Z</time></trkpt><trkpt lat="52.747868" lon="25.152569"><ele>158.75</ele><time>2011-03-20T04:26:11Z</time></trkpt><trkpt lat="52.747860" lon="25.152563"><ele>161.64</ele><time>2011-03-20T04:26:31Z</time></trkpt><trkpt lat="52.747841" lon="25.152576"><ele>161.64</ele><time>2011-03-20T04:26:46Z</time></trkpt><trkpt lat="52.747799" lon="25.152611"><ele>161.64</ele><time>2011-03-20T04:26:55Z</time></trkpt><trkpt lat="52.747688" lon="25.153126"><ele>161.16</ele><time>2011-03-20T04:27:08Z</time></trkpt><trkpt lat="52.747677" lon="25.153856"><ele>159.72</ele><time>2011-03-20T04:27:21Z</time></trkpt><trkpt lat="52.747700" lon="25.154877"><ele>159.24</ele><time>2011-03-20T04:27:35Z</time></trkpt><trkpt lat="52.747738" lon="25.156130"><ele>158.27</ele><time>2011-03-20T04:27:52Z</time></trkpt><trkpt lat="52.747780" lon="25.157505"><ele>157.31</ele><time>2011-03-20T04:28:10Z</time></trkpt><trkpt lat="52.747791" lon="25.158012"><ele>157.79</ele><time>2011-03-20T04:28:17Z</time></trkpt><trkpt lat="52.747833" lon="25.159260"><ele>157.31</ele><time>2011-03-20T04:28:34Z</time></trkpt><trkpt lat="52.747879" lon="25.160734"><ele>156.83</ele><time>2011-03-20T04:28:54Z</time></trkpt><trkpt lat="52.747917" lon="25.161890"><ele>156.35</ele><time>2011-03-20T04:29:10Z</time></trkpt><trkpt lat="52.747952" lon="25.163092"><ele>156.35</ele><time>2011-03-20T04:29:26Z</time></trkpt><trkpt lat="52.748005" lon="25.164486"><ele>156.35</ele><time>2011-03-20T04:29:46Z</time></trkpt><trkpt lat="52.748043" lon="25.165771"><ele>156.83</ele><time>2011-03-20T04:30:05Z</time></trkpt><trkpt lat="52.748081" lon="25.166918"><ele>158.75</ele><time>2011-03-20T04:30:22Z</time></trkpt><trkpt lat="52.748127" lon="25.168041"><ele>158.27</ele><time>2011-03-20T04:30:38Z</time></trkpt><trkpt lat="52.748154" lon="25.169041"><ele>158.75</ele><time>2011-03-20T04:30:53Z</time></trkpt><trkpt lat="52.748138" lon="25.170156"><ele>160.68</ele><time>2011-03-20T04:31:11Z</time></trkpt><trkpt lat="52.748028" lon="25.171358"><ele>160.20</ele><time>2011-03-20T04:31:29Z</time></trkpt><trkpt lat="52.747810" lon="25.172380"><ele>160.68</ele><time>2011-03-20T04:31:46Z</time></trkpt><trkpt lat="52.747616" lon="25.173044"><ele>161.64</ele><time>2011-03-20T04:31:57Z</time></trkpt><trkpt lat="52.747494" lon="25.173595"><ele>161.16</ele><time>2011-03-20T04:32:10Z</time></trkpt><trkpt lat="52.747471" lon="25.173670"><ele>161.16</ele><time>2011-03-20T04:32:13Z</time></trkpt><trkpt lat="52.747463" lon="25.173761"><ele>160.68</ele><time>2011-03-20T04:32:26Z</time></trkpt><trkpt lat="52.747471" lon="25.173819"><ele>160.20</ele><time>2011-03-20T04:32:35Z</time></trkpt><trkpt lat="52.747498" lon="25.173964"><ele>160.68</ele><time>2011-03-20T04:32:49Z</time></trkpt><trkpt lat="52.747494" lon="25.174076"><ele>160.20</ele><time>2011-03-20T04:33:04Z</time></trkpt><trkpt lat="52.747494" lon="25.174076"><ele>160.20</ele><time>2011-03-20T04:33:29Z</time></trkpt><trkpt lat="52.747494" lon="25.174082"><ele>160.20</ele><time>2011-03-20T04:33:55Z</time></trkpt><trkpt lat="52.747505" lon="25.174139"><ele>160.68</ele><time>2011-03-20T04:34:16Z</time></trkpt><trkpt lat="52.747509" lon="25.174137"><ele>160.68</ele><time>2011-03-20T04:34:51Z</time></trkpt><trkpt lat="52.747509" lon="25.174137"><ele>160.20</ele><time>2011-03-20T04:35:14Z</time></trkpt><trkpt lat="52.747570" lon="25.174265"><ele>160.20</ele><time>2011-03-20T04:35:28Z</time></trkpt><trkpt lat="52.747578" lon="25.174280"><ele>159.72</ele><time>2011-03-20T04:35:29Z</time></trkpt><trkpt lat="52.747669" lon="25.174442"><ele>159.72</ele><time>2011-03-20T04:35:39Z</time></trkpt><trkpt lat="52.747677" lon="25.174475"><ele>159.72</ele><time>2011-03-20T04:35:56Z</time></trkpt><trkpt lat="52.747658" lon="25.174435"><ele>160.20</ele><time>2011-03-20T04:36:10Z</time></trkpt><trkpt lat="52.747646" lon="25.174400"><ele>159.24</ele><time>2011-03-20T04:36:12Z</time></trkpt><trkpt lat="52.747543" lon="25.174189"><ele>159.72</ele><time>2011-03-20T04:36:23Z</time></trkpt><trkpt lat="52.747505" lon="25.174164"><ele>160.20</ele><time>2011-03-20T04:36:34Z</time></trkpt><trkpt lat="52.747505" lon="25.174164"><ele>160.68</ele><time>2011-03-20T04:36:54Z</time></trkpt><trkpt lat="52.747509" lon="25.174166"><ele>159.24</ele><time>2011-03-20T04:37:13Z</time></trkpt><trkpt lat="52.747509" lon="25.174166"><ele>159.72</ele><time>2011-03-20T04:37:34Z</time></trkpt><trkpt lat="52.747505" lon="25.174124"><ele>159.72</ele><time>2011-03-20T04:38:02Z</time></trkpt><trkpt lat="52.747505" lon="25.174109"><ele>159.72</ele><time>2011-03-20T04:38:21Z</time></trkpt><trkpt lat="52.747505" lon="25.174091"><ele>159.24</ele><time>2011-03-20T04:38:30Z</time></trkpt><trkpt lat="52.747509" lon="25.173910"><ele>158.75</ele><time>2011-03-20T04:38:44Z</time></trkpt><trkpt lat="52.747536" lon="25.173840"><ele>158.75</ele><time>2011-03-20T04:38:48Z</time></trkpt><trkpt lat="52.747543" lon="25.173819"><ele>158.75</ele><time>2011-03-20T04:38:49Z</time></trkpt><trkpt lat="52.747555" lon="25.173800"><ele>158.27</ele><time>2011-03-20T04:38:50Z</time></trkpt><trkpt lat="52.747601" lon="25.173666"><ele>158.27</ele><time>2011-03-20T04:39:06Z</time></trkpt><trkpt lat="52.747559" lon="25.173668"><ele>157.79</ele><time>2011-03-20T04:39:14Z</time></trkpt><trkpt lat="52.747524" lon="25.173668"><ele>158.75</ele><time>2011-03-20T04:39:17Z</time></trkpt><trkpt lat="52.747513" lon="25.173670"><ele>159.72</ele><time>2011-03-20T04:39:18Z</time></trkpt><trkpt lat="52.747501" lon="25.173674"><ele>159.72</ele><time>2011-03-20T04:39:19Z</time></trkpt><trkpt lat="52.747471" lon="25.173689"><ele>159.72</ele><time>2011-03-20T04:39:22Z</time></trkpt><trkpt lat="52.747459" lon="25.173683"><ele>159.72</ele><time>2011-03-20T04:39:23Z</time></trkpt><trkpt lat="52.747486" lon="25.173605"><ele>159.72</ele><time>2011-03-20T04:39:29Z</time></trkpt><trkpt lat="52.747494" lon="25.173592"><ele>159.72</ele><time>2011-03-20T04:39:30Z</time></trkpt><trkpt lat="52.747719" lon="25.173014"><ele>161.16</ele><time>2011-03-20T04:39:46Z</time></trkpt><trkpt lat="52.747948" lon="25.172264"><ele>158.75</ele><time>2011-03-20T04:40:03Z</time></trkpt><trkpt lat="52.748272" lon="25.171631"><ele>159.24</ele><time>2011-03-20T04:40:19Z</time></trkpt><trkpt lat="52.748676" lon="25.171366"><ele>157.31</ele><time>2011-03-20T04:40:32Z</time></trkpt><trkpt lat="52.749115" lon="25.170485"><ele>158.27</ele><time>2011-03-20T04:40:51Z</time></trkpt><trkpt lat="52.749271" lon="25.170170"><ele>158.75</ele><time>2011-03-20T04:40:58Z</time></trkpt><trkpt lat="52.749680" lon="25.169338"><ele>157.79</ele><time>2011-03-20T04:41:15Z</time></trkpt><trkpt lat="52.750042" lon="25.168598"><ele>157.79</ele><time>2011-03-20T04:41:31Z</time></trkpt><trkpt lat="52.750221" lon="25.168249"><ele>157.79</ele><time>2011-03-20T04:41:38Z</time></trkpt><trkpt lat="52.750622" lon="25.167484"><ele>155.87</ele><time>2011-03-20T04:41:54Z</time></trkpt><trkpt lat="52.751003" lon="25.166739"><ele>155.39</ele><time>2011-03-20T04:42:10Z</time></trkpt><trkpt lat="52.751148" lon="25.166433"><ele>154.91</ele><time>2011-03-20T04:42:16Z</time></trkpt><trkpt lat="52.751469" lon="25.165628"><ele>154.43</ele><time>2011-03-20T04:42:30Z</time></trkpt><trkpt lat="52.751579" lon="25.165335"><ele>154.91</ele><time>2011-03-20T04:42:35Z</time></trkpt><trkpt lat="52.751629" lon="25.165224"><ele>153.95</ele><time>2011-03-20T04:42:37Z</time></trkpt><trkpt lat="52.751675" lon="25.165113"><ele>154.43</ele><time>2011-03-20T04:42:39Z</time></trkpt><trkpt lat="52.751724" lon="25.165001"><ele>153.47</ele><time>2011-03-20T04:42:41Z</time></trkpt><trkpt lat="52.752140" lon="25.163980"><ele>152.03</ele><time>2011-03-20T04:43:00Z</time></trkpt><trkpt lat="52.752293" lon="25.163633"><ele>152.51</ele><time>2011-03-20T04:43:07Z</time></trkpt><trkpt lat="52.752312" lon="25.163576"><ele>152.51</ele><time>2011-03-20T04:43:08Z</time></trkpt><trkpt lat="52.752495" lon="25.163059"><ele>153.95</ele><time>2011-03-20T04:43:20Z</time></trkpt><trkpt lat="52.752541" lon="25.162966"><ele>152.03</ele><time>2011-03-20T04:43:23Z</time></trkpt><trkpt lat="52.752655" lon="25.162756"><ele>152.51</ele><time>2011-03-20T04:43:35Z</time></trkpt><trkpt lat="52.752655" lon="25.162756"><ele>153.47</ele><time>2011-03-20T04:44:08Z</time></trkpt><trkpt lat="52.752651" lon="25.162754"><ele>152.99</ele><time>2011-03-20T04:44:48Z</time></trkpt><trkpt lat="52.752659" lon="25.162745"><ele>153.47</ele><time>2011-03-20T04:44:55Z</time></trkpt><trkpt lat="52.752701" lon="25.162643"><ele>152.99</ele><time>2011-03-20T04:44:59Z</time></trkpt><trkpt lat="52.752941" lon="25.162090"><ele>153.47</ele><time>2011-03-20T04:45:13Z</time></trkpt><trkpt lat="52.752975" lon="25.162006"><ele>154.91</ele><time>2011-03-20T04:45:15Z</time></trkpt><trkpt lat="52.753025" lon="25.161884"><ele>152.51</ele><time>2011-03-20T04:45:18Z</time></trkpt><trkpt lat="52.753098" lon="25.161716"><ele>154.91</ele><time>2011-03-20T04:45:22Z</time></trkpt><trkpt lat="52.753395" lon="25.160894"><ele>154.43</ele><time>2011-03-20T04:45:40Z</time></trkpt><trkpt lat="52.753757" lon="25.159962"><ele>154.43</ele><time>2011-03-20T04:46:00Z</time></trkpt><trkpt lat="52.754040" lon="25.159307"><ele>155.39</ele><time>2011-03-20T04:46:15Z</time></trkpt><trkpt lat="52.754086" lon="25.159203"><ele>155.39</ele><time>2011-03-20T04:46:26Z</time></trkpt><trkpt lat="52.754086" lon="25.159203"><ele>155.39</ele><time>2011-03-20T04:47:00Z</time></trkpt><trkpt lat="52.754082" lon="25.159195"><ele>155.39</ele><time>2011-03-20T04:47:20Z</time></trkpt><trkpt lat="52.754078" lon="25.159164"><ele>155.87</ele><time>2011-03-20T04:47:22Z</time></trkpt><trkpt lat="52.754086" lon="25.159115"><ele>155.87</ele><time>2011-03-20T04:47:39Z</time></trkpt><trkpt lat="52.754105" lon="25.159079"><ele>156.35</ele><time>2011-03-20T04:47:58Z</time></trkpt><trkpt lat="52.754166" lon="25.158905"><ele>156.83</ele><time>2011-03-20T04:48:17Z</time></trkpt><trkpt lat="52.754204" lon="25.158876"><ele>157.31</ele><time>2011-03-20T04:48:37Z</time></trkpt><trkpt lat="52.754238" lon="25.158838"><ele>156.83</ele><time>2011-03-20T04:48:54Z</time></trkpt><trkpt lat="52.754238" lon="25.158838"><ele>156.35</ele><time>2011-03-20T04:49:18Z</time></trkpt><trkpt lat="52.754238" lon="25.158838"><ele>155.39</ele><time>2011-03-20T04:49:54Z</time></trkpt><trkpt lat="52.754391" lon="25.158653"><ele>156.35</ele><time>2011-03-20T04:50:10Z</time></trkpt><trkpt lat="52.754478" lon="25.158470"><ele>156.83</ele><time>2011-03-20T04:50:28Z</time></trkpt><trkpt lat="52.754681" lon="25.158066"><ele>156.83</ele><time>2011-03-20T04:50:43Z</time></trkpt><trkpt lat="52.754868" lon="25.157635"><ele>156.35</ele><time>2011-03-20T04:50:55Z</time></trkpt><trkpt lat="52.755260" lon="25.156862"><ele>155.39</ele><time>2011-03-20T04:51:13Z</time></trkpt><trkpt lat="52.755283" lon="25.156813"><ele>155.39</ele><time>2011-03-20T04:51:14Z</time></trkpt><trkpt lat="52.755447" lon="25.156380"><ele>156.83</ele><time>2011-03-20T04:51:28Z</time></trkpt><trkpt lat="52.755447" lon="25.156380"><ele>155.39</ele><time>2011-03-20T04:51:44Z</time></trkpt><trkpt lat="52.755447" lon="25.156380"><ele>155.87</ele><time>2011-03-20T04:52:07Z</time></trkpt><trkpt lat="52.755436" lon="25.156370"><ele>155.87</ele><time>2011-03-20T04:52:24Z</time></trkpt><trkpt lat="52.755646" lon="25.155983"><ele>156.83</ele><time>2011-03-20T04:52:39Z</time></trkpt><trkpt lat="52.755993" lon="25.155249"><ele>157.79</ele><time>2011-03-20T04:52:56Z</time></trkpt><trkpt lat="52.756344" lon="25.154463"><ele>158.27</ele><time>2011-03-20T04:53:14Z</time></trkpt><trkpt lat="52.756416" lon="25.154293"><ele>160.20</ele><time>2011-03-20T04:53:18Z</time></trkpt><trkpt lat="52.756714" lon="25.153639"><ele>160.20</ele><time>2011-03-20T04:53:34Z</time></trkpt><trkpt lat="52.756992" lon="25.153086"><ele>161.64</ele><time>2011-03-20T04:53:48Z</time></trkpt><trkpt lat="52.757191" lon="25.152637"><ele>162.60</ele><time>2011-03-20T04:54:02Z</time></trkpt><trkpt lat="52.757355" lon="25.152287"><ele>163.56</ele><time>2011-03-20T04:54:15Z</time></trkpt><trkpt lat="52.757607" lon="25.151789"><ele>164.04</ele><time>2011-03-20T04:54:31Z</time></trkpt><trkpt lat="52.757755" lon="25.151878"><ele>164.52</ele><time>2011-03-20T04:54:42Z</time></trkpt><trkpt lat="52.757759" lon="25.151903"><ele>165.00</ele><time>2011-03-20T04:54:47Z</time></trkpt><trkpt lat="52.757763" lon="25.151949"><ele>164.52</ele><time>2011-03-20T04:55:06Z</time></trkpt><trkpt lat="52.757767" lon="25.151941"><ele>164.52</ele><time>2011-03-20T04:55:39Z</time></trkpt><trkpt lat="52.757767" lon="25.151941"><ele>165.48</ele><time>2011-03-20T04:56:10Z</time></trkpt><trkpt lat="52.757774" lon="25.151974"><ele>164.52</ele><time>2011-03-20T04:56:12Z</time></trkpt><trkpt lat="52.757778" lon="25.152063"><ele>164.52</ele><time>2011-03-20T04:56:29Z</time></trkpt><trkpt lat="52.757778" lon="25.152063"><ele>164.52</ele><time>2011-03-20T04:57:04Z</time></trkpt><trkpt lat="52.757778" lon="25.152063"><ele>164.52</ele><time>2011-03-20T04:57:36Z</time></trkpt><trkpt lat="52.757778" lon="25.152061"><ele>165.00</ele><time>2011-03-20T04:57:55Z</time></trkpt><trkpt lat="52.757782" lon="25.152040"><ele>165.00</ele><time>2011-03-20T04:57:56Z</time></trkpt><trkpt lat="52.757690" lon="25.151730"><ele>165.00</ele><time>2011-03-20T04:58:11Z</time></trkpt><trkpt lat="52.757675" lon="25.151613"><ele>164.52</ele><time>2011-03-20T04:58:28Z</time></trkpt><trkpt lat="52.757675" lon="25.151604"><ele>165.00</ele><time>2011-03-20T04:58:59Z</time></trkpt><trkpt lat="52.757675" lon="25.151604"><ele>165.00</ele><time>2011-03-20T04:59:28Z</time></trkpt><trkpt lat="52.757675" lon="25.151615"><ele>161.64</ele><time>2011-03-20T04:59:35Z</time></trkpt><trkpt lat="52.757675" lon="25.151615"><ele>165.96</ele><time>2011-03-20T04:59:36Z</time></trkpt><trkpt lat="52.757675" lon="25.151615"><ele>164.52</ele><time>2011-03-20T04:59:37Z</time></trkpt><trkpt lat="52.757675" lon="25.151615"><ele>168.37</ele><time>2011-03-20T04:59:57Z</time></trkpt><trkpt lat="52.757675" lon="25.151615"><ele>165.00</ele><time>2011-03-20T04:59:58Z</time></trkpt><trkpt lat="52.757675" lon="25.151617"><ele>164.04</ele><time>2011-03-20T05:00:17Z</time></trkpt><trkpt lat="52.757675" lon="25.151617"><ele>165.48</ele><time>2011-03-20T05:00:41Z</time></trkpt><trkpt lat="52.757683" lon="25.151638"><ele>165.96</ele><time>2011-03-20T05:01:09Z</time></trkpt><trkpt lat="52.757687" lon="25.151640"><ele>164.52</ele><time>2011-03-20T05:01:40Z</time></trkpt><trkpt lat="52.757687" lon="25.151640"><ele>165.48</ele><time>2011-03-20T05:01:54Z</time></trkpt><trkpt lat="52.757786" lon="25.151878"><ele>165.00</ele><time>2011-03-20T05:02:02Z</time></trkpt><trkpt lat="52.758156" lon="25.152378"><ele>164.52</ele><time>2011-03-20T05:02:18Z</time></trkpt><trkpt lat="52.758465" lon="25.152792"><ele>164.52</ele><time>2011-03-20T05:02:32Z</time></trkpt><trkpt lat="52.758694" lon="25.152815"><ele>163.56</ele><time>2011-03-20T05:02:43Z</time></trkpt><trkpt lat="52.758911" lon="25.153082"><ele>163.08</ele><time>2011-03-20T05:02:56Z</time></trkpt><trkpt lat="52.759205" lon="25.153437"><ele>162.12</ele><time>2011-03-20T05:03:11Z</time></trkpt><trkpt lat="52.759552" lon="25.153879"><ele>161.16</ele><time>2011-03-20T05:03:25Z</time></trkpt><trkpt lat="52.759857" lon="25.154345"><ele>160.20</ele><time>2011-03-20T05:03:38Z</time></trkpt><trkpt lat="52.759628" lon="25.154884"><ele>161.16</ele><time>2011-03-20T05:03:49Z</time></trkpt><trkpt lat="52.759293" lon="25.155619"><ele>160.68</ele><time>2011-03-20T05:04:04Z</time></trkpt><trkpt lat="52.759190" lon="25.156042"><ele>160.68</ele><time>2011-03-20T05:04:16Z</time></trkpt><trkpt lat="52.759487" lon="25.156368"><ele>160.68</ele><time>2011-03-20T05:04:29Z</time></trkpt><trkpt lat="52.759777" lon="25.156708"><ele>160.68</ele><time>2011-03-20T05:04:42Z</time></trkpt><trkpt lat="52.760044" lon="25.157036"><ele>160.68</ele><time>2011-03-20T05:04:56Z</time></trkpt><trkpt lat="52.760338" lon="25.157347"><ele>160.20</ele><time>2011-03-20T05:05:11Z</time></trkpt><trkpt lat="52.760551" lon="25.157673"><ele>160.20</ele><time>2011-03-20T05:05:25Z</time></trkpt><trkpt lat="52.760517" lon="25.157827"><ele>160.68</ele><time>2011-03-20T05:05:36Z</time></trkpt><trkpt lat="52.760517" lon="25.157827"><ele>160.68</ele><time>2011-03-20T05:06:08Z</time></trkpt><trkpt lat="52.760513" lon="25.157827"><ele>160.20</ele><time>2011-03-20T05:06:43Z</time></trkpt><trkpt lat="52.760517" lon="25.157827"><ele>160.68</ele><time>2011-03-20T05:07:14Z</time></trkpt><trkpt lat="52.760426" lon="25.157440"><ele>160.20</ele><time>2011-03-20T05:07:27Z</time></trkpt><trkpt lat="52.760399" lon="25.157413"><ele>160.20</ele><time>2011-03-20T05:07:43Z</time></trkpt><trkpt lat="52.760319" lon="25.157330"><ele>160.68</ele><time>2011-03-20T05:07:48Z</time></trkpt><trkpt lat="52.760174" lon="25.157137"><ele>160.20</ele><time>2011-03-20T05:08:03Z</time></trkpt><trkpt lat="52.760174" lon="25.157137"><ele>160.20</ele><time>2011-03-20T05:08:31Z</time></trkpt><trkpt lat="52.760174" lon="25.157133"><ele>160.68</ele><time>2011-03-20T05:08:48Z</time></trkpt><trkpt lat="52.759869" lon="25.156784"><ele>161.16</ele><time>2011-03-20T05:09:00Z</time></trkpt><trkpt lat="52.759373" lon="25.156179"><ele>161.16</ele><time>2011-03-20T05:09:16Z</time></trkpt><trkpt lat="52.758862" lon="25.155525"><ele>161.16</ele><time>2011-03-20T05:09:32Z</time></trkpt><trkpt lat="52.758190" lon="25.154680"><ele>161.16</ele><time>2011-03-20T05:09:53Z</time></trkpt><trkpt lat="52.757771" lon="25.154228"><ele>161.16</ele><time>2011-03-20T05:10:08Z</time></trkpt><trkpt lat="52.757301" lon="25.153612"><ele>162.60</ele><time>2011-03-20T05:10:25Z</time></trkpt><trkpt lat="52.756943" lon="25.153131"><ele>161.64</ele><time>2011-03-20T05:10:39Z</time></trkpt><trkpt lat="52.756477" lon="25.152552"><ele>159.72</ele><time>2011-03-20T05:10:54Z</time></trkpt><trkpt lat="52.755886" lon="25.151787"><ele>156.83</ele><time>2011-03-20T05:11:09Z</time></trkpt><trkpt lat="52.755348" lon="25.151125"><ele>155.87</ele><time>2011-03-20T05:11:24Z</time></trkpt><trkpt lat="52.755089" lon="25.150801"><ele>155.39</ele><time>2011-03-20T05:11:37Z</time></trkpt><trkpt lat="52.755058" lon="25.150763"><ele>154.91</ele><time>2011-03-20T05:11:40Z</time></trkpt><trkpt lat="52.755066" lon="25.150793"><ele>154.91</ele><time>2011-03-20T05:11:41Z</time></trkpt><trkpt lat="52.755196" lon="25.151060"><ele>154.91</ele><time>2011-03-20T05:11:49Z</time></trkpt><trkpt lat="52.754951" lon="25.151621"><ele>154.43</ele><time>2011-03-20T05:12:04Z</time></trkpt><trkpt lat="52.754940" lon="25.151663"><ele>153.95</ele><time>2011-03-20T05:12:06Z</time></trkpt><trkpt lat="52.755096" lon="25.151398"><ele>154.43</ele><time>2011-03-20T05:12:17Z</time></trkpt><trkpt lat="52.755127" lon="25.150881"><ele>155.39</ele><time>2011-03-20T05:12:30Z</time></trkpt><trkpt lat="52.754715" lon="25.150320"><ele>155.87</ele><time>2011-03-20T05:12:46Z</time></trkpt><trkpt lat="52.754330" lon="25.149803"><ele>155.87</ele><time>2011-03-20T05:13:01Z</time></trkpt><trkpt lat="52.753941" lon="25.149290"><ele>156.83</ele><time>2011-03-20T05:13:16Z</time></trkpt><trkpt lat="52.753632" lon="25.148773"><ele>156.35</ele><time>2011-03-20T05:13:33Z</time></trkpt><trkpt lat="52.753292" lon="25.148252"><ele>156.83</ele><time>2011-03-20T05:13:49Z</time></trkpt><trkpt lat="52.752991" lon="25.147778"><ele>158.27</ele><time>2011-03-20T05:14:05Z</time></trkpt><trkpt lat="52.752872" lon="25.147594"><ele>158.27</ele><time>2011-03-20T05:14:19Z</time></trkpt><trkpt lat="52.752819" lon="25.147526"><ele>158.75</ele><time>2011-03-20T05:14:24Z</time></trkpt><trkpt lat="52.752525" lon="25.147079"><ele>160.20</ele><time>2011-03-20T05:14:40Z</time></trkpt><trkpt lat="52.752312" lon="25.146742"><ele>160.68</ele><time>2011-03-20T05:14:54Z</time></trkpt><trkpt lat="52.752373" lon="25.146770"><ele>160.20</ele><time>2011-03-20T05:15:08Z</time></trkpt><trkpt lat="52.752411" lon="25.146887"><ele>159.72</ele><time>2011-03-20T05:15:12Z</time></trkpt><trkpt lat="52.752899" lon="25.147728"><ele>157.79</ele><time>2011-03-20T05:15:27Z</time></trkpt><trkpt lat="52.753330" lon="25.148243"><ele>157.31</ele><time>2011-03-20T05:15:42Z</time></trkpt><trkpt lat="52.753551" lon="25.148106"><ele>157.31</ele><time>2011-03-20T05:15:54Z</time></trkpt><trkpt lat="52.753757" lon="25.147549"><ele>158.27</ele><time>2011-03-20T05:16:09Z</time></trkpt><trkpt lat="52.754181" lon="25.146860"><ele>157.79</ele><time>2011-03-20T05:16:27Z</time></trkpt><trkpt lat="52.754597" lon="25.146152"><ele>158.27</ele><time>2011-03-20T05:16:43Z</time></trkpt><trkpt lat="52.755085" lon="25.145370"><ele>159.72</ele><time>2011-03-20T05:17:02Z</time></trkpt><trkpt lat="52.755585" lon="25.144569"><ele>159.72</ele><time>2011-03-20T05:17:21Z</time></trkpt><trkpt lat="52.755997" lon="25.143888"><ele>160.20</ele><time>2011-03-20T05:17:37Z</time></trkpt><trkpt lat="52.756447" lon="25.143190"><ele>161.16</ele><time>2011-03-20T05:17:56Z</time></trkpt><trkpt lat="52.756859" lon="25.142517"><ele>161.64</ele><time>2011-03-20T05:18:13Z</time></trkpt><trkpt lat="52.757339" lon="25.141739"><ele>163.08</ele><time>2011-03-20T05:18:32Z</time></trkpt><trkpt lat="52.757797" lon="25.141024"><ele>162.12</ele><time>2011-03-20T05:18:49Z</time></trkpt><trkpt lat="52.758312" lon="25.140219"><ele>161.16</ele><time>2011-03-20T05:19:07Z</time></trkpt><trkpt lat="52.758804" lon="25.139391"><ele>161.64</ele><time>2011-03-20T05:19:25Z</time></trkpt><trkpt lat="52.759342" lon="25.138550"><ele>162.12</ele><time>2011-03-20T05:19:45Z</time></trkpt><trkpt lat="52.759796" lon="25.137808"><ele>161.16</ele><time>2011-03-20T05:20:01Z</time></trkpt><trkpt lat="52.760265" lon="25.137047"><ele>162.12</ele><time>2011-03-20T05:20:18Z</time></trkpt><trkpt lat="52.760708" lon="25.136322"><ele>162.60</ele><time>2011-03-20T05:20:36Z</time></trkpt><trkpt lat="52.761192" lon="25.135542"><ele>164.04</ele><time>2011-03-20T05:20:56Z</time></trkpt><trkpt lat="52.761658" lon="25.134790"><ele>164.52</ele><time>2011-03-20T05:21:15Z</time></trkpt><trkpt lat="52.762035" lon="25.134199"><ele>163.56</ele><time>2011-03-20T05:21:30Z</time></trkpt><trkpt lat="52.762508" lon="25.133451"><ele>164.52</ele><time>2011-03-20T05:21:48Z</time></trkpt><trkpt lat="52.762890" lon="25.132820"><ele>163.08</ele><time>2011-03-20T05:22:02Z</time></trkpt><trkpt lat="52.763287" lon="25.132206"><ele>164.52</ele><time>2011-03-20T05:22:16Z</time></trkpt><trkpt lat="52.763832" lon="25.131296"><ele>162.12</ele><time>2011-03-20T05:22:34Z</time></trkpt><trkpt lat="52.764160" lon="25.130518"><ele>162.60</ele><time>2011-03-20T05:22:47Z</time></trkpt><trkpt lat="52.764416" lon="25.129522"><ele>162.60</ele><time>2011-03-20T05:23:03Z</time></trkpt><trkpt lat="52.764496" lon="25.129042"><ele>164.04</ele><time>2011-03-20T05:23:11Z</time></trkpt><trkpt lat="52.764538" lon="25.128365"><ele>164.52</ele><time>2011-03-20T05:23:23Z</time></trkpt><trkpt lat="52.764828" lon="25.128021"><ele>165.48</ele><time>2011-03-20T05:23:35Z</time></trkpt><trkpt lat="52.765259" lon="25.127651"><ele>167.89</ele><time>2011-03-20T05:23:52Z</time></trkpt><trkpt lat="52.765568" lon="25.126825"><ele>168.85</ele><time>2011-03-20T05:24:10Z</time></trkpt><trkpt lat="52.765957" lon="25.125881"><ele>169.81</ele><time>2011-03-20T05:24:32Z</time></trkpt><trkpt lat="52.766335" lon="25.125051"><ele>170.29</ele><time>2011-03-20T05:24:52Z</time></trkpt><trkpt lat="52.766556" lon="25.125019"><ele>168.85</ele><time>2011-03-20T05:25:03Z</time></trkpt><trkpt lat="52.766769" lon="25.125233"><ele>168.85</ele><time>2011-03-20T05:25:17Z</time></trkpt><trkpt lat="52.766804" lon="25.125242"><ele>168.85</ele><time>2011-03-20T05:25:30Z</time></trkpt><trkpt lat="52.766846" lon="25.125277"><ele>168.37</ele><time>2011-03-20T05:25:41Z</time></trkpt><trkpt lat="52.766865" lon="25.125278"><ele>167.89</ele><time>2011-03-20T05:25:43Z</time></trkpt><trkpt lat="52.766941" lon="25.125179"><ele>167.89</ele><time>2011-03-20T05:25:58Z</time></trkpt><trkpt lat="52.766891" lon="25.125195"><ele>168.37</ele><time>2011-03-20T05:26:06Z</time></trkpt><trkpt lat="52.766792" lon="25.125221"><ele>168.85</ele><time>2011-03-20T05:26:22Z</time></trkpt><trkpt lat="52.766792" lon="25.125221"><ele>169.33</ele><time>2011-03-20T05:26:35Z</time></trkpt><trkpt lat="52.766808" lon="25.125248"><ele>169.81</ele><time>2011-03-20T05:26:49Z</time></trkpt><trkpt lat="52.766808" lon="25.125248"><ele>169.33</ele><time>2011-03-20T05:27:06Z</time></trkpt><trkpt lat="52.766808" lon="25.125248"><ele>168.85</ele><time>2011-03-20T05:27:27Z</time></trkpt><trkpt lat="52.766808" lon="25.125248"><ele>168.37</ele><time>2011-03-20T05:27:34Z</time></trkpt><trkpt lat="52.767036" lon="25.125587"><ele>167.89</ele><time>2011-03-20T05:27:49Z</time></trkpt><trkpt lat="52.767361" lon="25.125526"><ele>167.41</ele><time>2011-03-20T05:28:04Z</time></trkpt><trkpt lat="52.767605" lon="25.125584"><ele>166.45</ele><time>2011-03-20T05:28:19Z</time></trkpt><trkpt lat="52.767620" lon="25.125591"><ele>166.93</ele><time>2011-03-20T05:28:35Z</time></trkpt><trkpt lat="52.767620" lon="25.125591"><ele>166.45</ele><time>2011-03-20T05:29:08Z</time></trkpt><trkpt lat="52.767616" lon="25.125578"><ele>166.93</ele><time>2011-03-20T05:29:15Z</time></trkpt><trkpt lat="52.767536" lon="25.125397"><ele>167.41</ele><time>2011-03-20T05:29:22Z</time></trkpt><trkpt lat="52.767517" lon="25.125351"><ele>168.37</ele><time>2011-03-20T05:29:35Z</time></trkpt><trkpt lat="52.767517" lon="25.125351"><ele>167.89</ele><time>2011-03-20T05:30:02Z</time></trkpt><trkpt lat="52.767509" lon="25.125360"><ele>167.89</ele><time>2011-03-20T05:30:18Z</time></trkpt><trkpt lat="52.767490" lon="25.125355"><ele>167.41</ele><time>2011-03-20T05:30:32Z</time></trkpt><trkpt lat="52.767471" lon="25.125345"><ele>167.89</ele><time>2011-03-20T05:30:48Z</time></trkpt><trkpt lat="52.767387" lon="25.125450"><ele>167.41</ele><time>2011-03-20T05:30:54Z</time></trkpt><trkpt lat="52.766979" lon="25.125521"><ele>168.37</ele><time>2011-03-20T05:31:09Z</time></trkpt><trkpt lat="52.766582" lon="25.124981"><ele>169.33</ele><time>2011-03-20T05:31:25Z</time></trkpt><trkpt lat="52.766483" lon="25.124516"><ele>169.33</ele><time>2011-03-20T05:31:37Z</time></trkpt><trkpt lat="52.766880" lon="25.123709"><ele>169.33</ele><time>2011-03-20T05:31:55Z</time></trkpt><trkpt lat="52.766823" lon="25.123390"><ele>170.77</ele><time>2011-03-20T05:32:07Z</time></trkpt><trkpt lat="52.766666" lon="25.123207"><ele>171.25</ele><time>2011-03-20T05:32:22Z</time></trkpt><trkpt lat="52.766514" lon="25.122990"><ele>173.17</ele><time>2011-03-20T05:32:38Z</time></trkpt><trkpt lat="52.766384" lon="25.122814"><ele>174.62</ele><time>2011-03-20T05:32:52Z</time></trkpt><trkpt lat="52.766335" lon="25.122736"><ele>176.54</ele><time>2011-03-20T05:33:09Z</time></trkpt><trkpt lat="52.766335" lon="25.122736"><ele>177.02</ele><time>2011-03-20T05:33:10Z</time></trkpt><trkpt lat="52.766315" lon="25.122709"><ele>177.02</ele><time>2011-03-20T05:33:13Z</time></trkpt><trkpt lat="52.766212" lon="25.122576"><ele>177.98</ele><time>2011-03-20T05:33:24Z</time></trkpt><trkpt lat="52.766197" lon="25.122551"><ele>177.98</ele><time>2011-03-20T05:33:26Z</time></trkpt><trkpt lat="52.766014" lon="25.122349"><ele>178.46</ele><time>2011-03-20T05:33:44Z</time></trkpt><trkpt lat="52.765919" lon="25.122240"><ele>180.38</ele><time>2011-03-20T05:33:59Z</time></trkpt><trkpt lat="52.765903" lon="25.122189"><ele>183.75</ele><time>2011-03-20T05:34:12Z</time></trkpt><trkpt lat="52.765900" lon="25.122181"><ele>183.75</ele><time>2011-03-20T05:34:13Z</time></trkpt><trkpt lat="52.765877" lon="25.122122"><ele>186.63</ele><time>2011-03-20T05:34:28Z</time></trkpt><trkpt lat="52.765884" lon="25.122019"><ele>186.15</ele><time>2011-03-20T05:34:41Z</time></trkpt><trkpt lat="52.765842" lon="25.122078"><ele>185.67</ele><time>2011-03-20T05:34:54Z</time></trkpt><trkpt lat="52.765804" lon="25.122110"><ele>185.67</ele><time>2011-03-20T05:35:09Z</time></trkpt><trkpt lat="52.765789" lon="25.122131"><ele>185.19</ele><time>2011-03-20T05:35:27Z</time></trkpt><trkpt lat="52.765694" lon="25.122263"><ele>184.71</ele><time>2011-03-20T05:35:39Z</time></trkpt><trkpt lat="52.765636" lon="25.122347"><ele>185.19</ele><time>2011-03-20T05:35:46Z</time></trkpt><trkpt lat="52.765572" lon="25.122450"><ele>184.71</ele><time>2011-03-20T05:35:59Z</time></trkpt><trkpt lat="52.765572" lon="25.122452"><ele>184.71</ele><time>2011-03-20T05:36:22Z</time></trkpt><trkpt lat="52.765553" lon="25.122459"><ele>185.19</ele><time>2011-03-20T05:36:54Z</time></trkpt><trkpt lat="52.765556" lon="25.122442"><ele>184.71</ele><time>2011-03-20T05:37:20Z</time></trkpt><trkpt lat="52.765583" lon="25.122395"><ele>185.19</ele><time>2011-03-20T05:37:27Z</time></trkpt><trkpt lat="52.765743" lon="25.122198"><ele>185.19</ele><time>2011-03-20T05:37:47Z</time></trkpt><trkpt lat="52.765842" lon="25.122084"><ele>185.19</ele><time>2011-03-20T05:38:01Z</time></trkpt><trkpt lat="52.765862" lon="25.122065"><ele>185.67</ele><time>2011-03-20T05:38:22Z</time></trkpt><trkpt lat="52.765862" lon="25.122065"><ele>184.23</ele><time>2011-03-20T05:38:42Z</time></trkpt><trkpt lat="52.765862" lon="25.122065"><ele>185.67</ele><time>2011-03-20T05:39:16Z</time></trkpt><trkpt lat="52.765919" lon="25.122112"><ele>182.31</ele><time>2011-03-20T05:39:28Z</time></trkpt><trkpt lat="52.765976" lon="25.122190"><ele>179.90</ele><time>2011-03-20T05:39:45Z</time></trkpt><trkpt lat="52.765976" lon="25.122190"><ele>179.90</ele><time>2011-03-20T05:40:10Z</time></trkpt><trkpt lat="52.766037" lon="25.122263"><ele>179.42</ele><time>2011-03-20T05:40:23Z</time></trkpt><trkpt lat="52.766232" lon="25.122435"><ele>177.98</ele><time>2011-03-20T05:40:39Z</time></trkpt><trkpt lat="52.766239" lon="25.122444"><ele>177.98</ele><time>2011-03-20T05:40:40Z</time></trkpt><trkpt lat="52.766277" lon="25.122509"><ele>178.46</ele><time>2011-03-20T05:40:45Z</time></trkpt><trkpt lat="52.766323" lon="25.122576"><ele>177.98</ele><time>2011-03-20T05:40:49Z</time></trkpt><trkpt lat="52.766418" lon="25.122808"><ele>175.10</ele><time>2011-03-20T05:41:08Z</time></trkpt><trkpt lat="52.766445" lon="25.122860"><ele>174.14</ele><time>2011-03-20T05:41:13Z</time></trkpt><trkpt lat="52.766464" lon="25.122896"><ele>177.98</ele><time>2011-03-20T05:41:25Z</time></trkpt><trkpt lat="52.766464" lon="25.122896"><ele>174.14</ele><time>2011-03-20T05:41:26Z</time></trkpt><trkpt lat="52.766464" lon="25.122896"><ele>172.69</ele><time>2011-03-20T05:41:29Z</time></trkpt><trkpt lat="52.766460" lon="25.122892"><ele>174.14</ele><time>2011-03-20T05:42:04Z</time></trkpt><trkpt lat="52.766460" lon="25.122892"><ele>175.10</ele><time>2011-03-20T05:42:41Z</time></trkpt><trkpt lat="52.766460" lon="25.122890"><ele>174.62</ele><time>2011-03-20T05:42:57Z</time></trkpt><trkpt lat="52.766460" lon="25.122890"><ele>174.14</ele><time>2011-03-20T05:43:04Z</time></trkpt><trkpt lat="52.766754" lon="25.123312"><ele>172.21</ele><time>2011-03-20T05:43:16Z</time></trkpt><trkpt lat="52.766857" lon="25.123457"><ele>170.77</ele><time>2011-03-20T05:43:19Z</time></trkpt><trkpt lat="52.766899" lon="25.123878"><ele>169.81</ele><time>2011-03-20T05:43:29Z</time></trkpt><trkpt lat="52.766861" lon="25.123930"><ele>169.81</ele><time>2011-03-20T05:43:30Z</time></trkpt><trkpt lat="52.766502" lon="25.124685"><ele>169.33</ele><time>2011-03-20T05:43:45Z</time></trkpt><trkpt lat="52.766590" lon="25.125132"><ele>168.85</ele><time>2011-03-20T05:43:55Z</time></trkpt><trkpt lat="52.767170" lon="25.125879"><ele>167.41</ele><time>2011-03-20T05:44:13Z</time></trkpt><trkpt lat="52.767414" lon="25.126141"><ele>166.45</ele><time>2011-03-20T05:44:19Z</time></trkpt><trkpt lat="52.767502" lon="25.126236"><ele>165.48</ele><time>2011-03-20T05:44:21Z</time></trkpt><trkpt lat="52.768024" lon="25.126755"><ele>162.60</ele><time>2011-03-20T05:44:32Z</time></trkpt><trkpt lat="52.768295" lon="25.126978"><ele>161.64</ele><time>2011-03-20T05:44:38Z</time></trkpt><trkpt lat="52.768375" lon="25.127050"><ele>161.64</ele><time>2011-03-20T05:44:40Z</time></trkpt><trkpt lat="52.768852" lon="25.127472"><ele>159.72</ele><time>2011-03-20T05:44:54Z</time></trkpt><trkpt lat="52.769382" lon="25.127888"><ele>158.27</ele><time>2011-03-20T05:45:09Z</time></trkpt><trkpt lat="52.769958" lon="25.128309"><ele>157.79</ele><time>2011-03-20T05:45:26Z</time></trkpt><trkpt lat="52.770340" lon="25.128595"><ele>156.83</ele><time>2011-03-20T05:45:41Z</time></trkpt><trkpt lat="52.770626" lon="25.128910"><ele>157.31</ele><time>2011-03-20T05:45:54Z</time></trkpt><trkpt lat="52.770920" lon="25.129444"><ele>157.31</ele><time>2011-03-20T05:46:11Z</time></trkpt><trkpt lat="52.771179" lon="25.129930"><ele>156.35</ele><time>2011-03-20T05:46:27Z</time></trkpt><trkpt lat="52.771381" lon="25.130396"><ele>155.87</ele><time>2011-03-20T05:46:42Z</time></trkpt><trkpt lat="52.771591" lon="25.130821"><ele>156.35</ele><time>2011-03-20T05:46:57Z</time></trkpt><trkpt lat="52.771786" lon="25.131248"><ele>156.35</ele><time>2011-03-20T05:47:11Z</time></trkpt><trkpt lat="52.771984" lon="25.131645"><ele>156.35</ele><time>2011-03-20T05:47:24Z</time></trkpt><trkpt lat="52.772247" lon="25.132217"><ele>157.31</ele><time>2011-03-20T05:47:39Z</time></trkpt><trkpt lat="52.772469" lon="25.132965"><ele>157.31</ele><time>2011-03-20T05:47:55Z</time></trkpt><trkpt lat="52.772610" lon="25.134106"><ele>158.75</ele><time>2011-03-20T05:48:16Z</time></trkpt><trkpt lat="52.772758" lon="25.135414"><ele>160.68</ele><time>2011-03-20T05:48:40Z</time></trkpt><trkpt lat="52.772915" lon="25.136457"><ele>161.64</ele><time>2011-03-20T05:48:59Z</time></trkpt><trkpt lat="52.773048" lon="25.137693"><ele>163.08</ele><time>2011-03-20T05:49:20Z</time></trkpt><trkpt lat="52.773170" lon="25.138594"><ele>165.00</ele><time>2011-03-20T05:49:38Z</time></trkpt><trkpt lat="52.773247" lon="25.139383"><ele>164.52</ele><time>2011-03-20T05:49:53Z</time></trkpt><trkpt lat="52.773380" lon="25.140072"><ele>164.04</ele><time>2011-03-20T05:50:09Z</time></trkpt><trkpt lat="52.773438" lon="25.140131"><ele>164.52</ele><time>2011-03-20T05:50:22Z</time></trkpt><trkpt lat="52.773438" lon="25.140131"><ele>165.48</ele><time>2011-03-20T05:50:39Z</time></trkpt><trkpt lat="52.773438" lon="25.140131"><ele>165.00</ele><time>2011-03-20T05:50:53Z</time></trkpt><trkpt lat="52.773434" lon="25.140133"><ele>165.00</ele><time>2011-03-20T05:51:29Z</time></trkpt><trkpt lat="52.779240" lon="25.144979"><ele>160.20</ele><time>2011-03-20T06:04:44Z</time></trkpt><trkpt lat="52.779240" lon="25.144981"><ele>155.87</ele><time>2011-03-20T06:04:45Z</time></trkpt><trkpt lat="52.779240" lon="25.144989"><ele>159.72</ele><time>2011-03-20T06:04:46Z</time></trkpt><trkpt lat="52.779240" lon="25.144995"><ele>161.64</ele><time>2011-03-20T06:04:59Z</time></trkpt><trkpt lat="52.779236" lon="25.144995"><ele>164.52</ele><time>2011-03-20T06:05:09Z</time></trkpt><trkpt lat="52.779232" lon="25.144989"><ele>167.89</ele><time>2011-03-20T06:05:17Z</time></trkpt><trkpt lat="52.779232" lon="25.144989"><ele>167.89</ele><time>2011-03-20T06:05:18Z</time></trkpt><trkpt lat="52.779243" lon="25.144976"><ele>171.73</ele><time>2011-03-20T06:05:31Z</time></trkpt><trkpt lat="52.779247" lon="25.144976"><ele>170.29</ele><time>2011-03-20T06:05:32Z</time></trkpt><trkpt lat="52.779243" lon="25.144979"><ele>171.25</ele><time>2011-03-20T06:05:50Z</time></trkpt><trkpt lat="52.779243" lon="25.144995"><ele>170.29</ele><time>2011-03-20T06:06:10Z</time></trkpt><trkpt lat="52.779255" lon="25.145023"><ele>170.29</ele><time>2011-03-20T06:06:12Z</time></trkpt><trkpt lat="52.779343" lon="25.145206"><ele>170.29</ele><time>2011-03-20T06:06:26Z</time></trkpt><trkpt lat="52.779343" lon="25.145206"><ele>169.81</ele><time>2011-03-20T06:06:28Z</time></trkpt><trkpt lat="52.779522" lon="25.145683"><ele>170.29</ele><time>2011-03-20T06:06:43Z</time></trkpt><trkpt lat="52.779758" lon="25.146286"><ele>169.81</ele><time>2011-03-20T06:07:01Z</time></trkpt><trkpt lat="52.779922" lon="25.146683"><ele>168.85</ele><time>2011-03-20T06:07:12Z</time></trkpt><trkpt lat="52.780144" lon="25.147240"><ele>169.81</ele><time>2011-03-20T06:07:29Z</time></trkpt><trkpt lat="52.780247" lon="25.147623"><ele>168.37</ele><time>2011-03-20T06:07:41Z</time></trkpt><trkpt lat="52.780262" lon="25.147652"><ele>168.85</ele><time>2011-03-20T06:07:47Z</time></trkpt><trkpt lat="52.780449" lon="25.148144"><ele>167.89</ele><time>2011-03-20T06:08:03Z</time></trkpt><trkpt lat="52.780602" lon="25.148600"><ele>167.41</ele><time>2011-03-20T06:08:16Z</time></trkpt><trkpt lat="52.780636" lon="25.148689"><ele>167.41</ele><time>2011-03-20T06:08:19Z</time></trkpt><trkpt lat="52.780712" lon="25.148903"><ele>165.96</ele><time>2011-03-20T06:08:30Z</time></trkpt><trkpt lat="52.780739" lon="25.148891"><ele>165.96</ele><time>2011-03-20T06:08:31Z</time></trkpt><trkpt lat="52.780766" lon="25.148880"><ele>167.41</ele><time>2011-03-20T06:08:32Z</time></trkpt><trkpt lat="52.780849" lon="25.148836"><ele>165.96</ele><time>2011-03-20T06:08:35Z</time></trkpt><trkpt lat="52.781387" lon="25.148560"><ele>165.96</ele><time>2011-03-20T06:08:52Z</time></trkpt><trkpt lat="52.781727" lon="25.148390"><ele>166.45</ele><time>2011-03-20T06:09:02Z</time></trkpt><trkpt lat="52.782482" lon="25.148029"><ele>166.45</ele><time>2011-03-20T06:09:24Z</time></trkpt><trkpt lat="52.783146" lon="25.147715"><ele>166.45</ele><time>2011-03-20T06:09:43Z</time></trkpt><trkpt lat="52.783817" lon="25.147413"><ele>166.45</ele><time>2011-03-20T06:10:03Z</time></trkpt><trkpt lat="52.784569" lon="25.147049"><ele>164.52</ele><time>2011-03-20T06:10:27Z</time></trkpt><trkpt lat="52.785439" lon="25.146624"><ele>164.52</ele><time>2011-03-20T06:10:51Z</time></trkpt><trkpt lat="52.786140" lon="25.146330"><ele>162.60</ele><time>2011-03-20T06:11:09Z</time></trkpt><trkpt lat="52.786983" lon="25.146036"><ele>161.16</ele><time>2011-03-20T06:11:31Z</time></trkpt><trkpt lat="52.787521" lon="25.145897"><ele>159.72</ele><time>2011-03-20T06:11:46Z</time></trkpt><trkpt lat="52.788139" lon="25.145781"><ele>159.24</ele><time>2011-03-20T06:12:03Z</time></trkpt><trkpt lat="52.788906" lon="25.145761"><ele>159.24</ele><time>2011-03-20T06:12:23Z</time></trkpt><trkpt lat="52.789661" lon="25.145802"><ele>158.75</ele><time>2011-03-20T06:12:42Z</time></trkpt><trkpt lat="52.790348" lon="25.145857"><ele>159.24</ele><time>2011-03-20T06:13:00Z</time></trkpt><trkpt lat="52.791142" lon="25.145758"><ele>159.24</ele><time>2011-03-20T06:13:21Z</time></trkpt><trkpt lat="52.791817" lon="25.145498"><ele>159.24</ele><time>2011-03-20T06:13:41Z</time></trkpt><trkpt lat="52.792591" lon="25.145187"><ele>159.72</ele><time>2011-03-20T06:14:03Z</time></trkpt><trkpt lat="52.793297" lon="25.144888"><ele>160.20</ele><time>2011-03-20T06:14:23Z</time></trkpt><trkpt lat="52.793903" lon="25.144655"><ele>161.64</ele><time>2011-03-20T06:14:42Z</time></trkpt><trkpt lat="52.794605" lon="25.144363"><ele>161.64</ele><time>2011-03-20T06:15:04Z</time></trkpt><trkpt lat="52.795345" lon="25.144045"><ele>161.16</ele><time>2011-03-20T06:15:27Z</time></trkpt><trkpt lat="52.796162" lon="25.143702"><ele>162.12</ele><time>2011-03-20T06:15:52Z</time></trkpt><trkpt lat="52.796879" lon="25.143394"><ele>163.08</ele><time>2011-03-20T06:16:13Z</time></trkpt><trkpt lat="52.797535" lon="25.143139"><ele>162.12</ele><time>2011-03-20T06:16:31Z</time></trkpt><trkpt lat="52.798260" lon="25.142834"><ele>161.16</ele><time>2011-03-20T06:16:53Z</time></trkpt><trkpt lat="52.798893" lon="25.142544"><ele>159.24</ele><time>2011-03-20T06:17:11Z</time></trkpt><trkpt lat="52.799648" lon="25.142204"><ele>157.79</ele><time>2011-03-20T06:17:32Z</time></trkpt><trkpt lat="52.800255" lon="25.141939"><ele>157.79</ele><time>2011-03-20T06:17:50Z</time></trkpt><trkpt lat="52.800812" lon="25.141703"><ele>158.75</ele><time>2011-03-20T06:18:08Z</time></trkpt><trkpt lat="52.801331" lon="25.141497"><ele>160.20</ele><time>2011-03-20T06:18:26Z</time></trkpt><trkpt lat="52.801914" lon="25.141251"><ele>162.12</ele><time>2011-03-20T06:18:46Z</time></trkpt><trkpt lat="52.802509" lon="25.140995"><ele>162.60</ele><time>2011-03-20T06:19:06Z</time></trkpt><trkpt lat="52.803112" lon="25.140770"><ele>161.64</ele><time>2011-03-20T06:19:23Z</time></trkpt><trkpt lat="52.803829" lon="25.140493"><ele>161.64</ele><time>2011-03-20T06:19:43Z</time></trkpt><trkpt lat="52.804405" lon="25.140259"><ele>161.64</ele><time>2011-03-20T06:19:59Z</time></trkpt><trkpt lat="52.805157" lon="25.139952"><ele>161.64</ele><time>2011-03-20T06:20:19Z</time></trkpt><trkpt lat="52.805496" lon="25.139811"><ele>160.20</ele><time>2011-03-20T06:20:28Z</time></trkpt><trkpt lat="52.805763" lon="25.139704"><ele>160.68</ele><time>2011-03-20T06:20:35Z</time></trkpt><trkpt lat="52.806465" lon="25.139412"><ele>161.16</ele><time>2011-03-20T06:20:55Z</time></trkpt><trkpt lat="52.807236" lon="25.139107"><ele>162.12</ele><time>2011-03-20T06:21:19Z</time></trkpt><trkpt lat="52.808094" lon="25.138771"><ele>161.64</ele><time>2011-03-20T06:21:44Z</time></trkpt><trkpt lat="52.809002" lon="25.138390"><ele>161.16</ele><time>2011-03-20T06:22:09Z</time></trkpt><trkpt lat="52.809765" lon="25.138050"><ele>160.68</ele><time>2011-03-20T06:22:30Z</time></trkpt><trkpt lat="52.810444" lon="25.137732"><ele>162.12</ele><time>2011-03-20T06:22:51Z</time></trkpt><trkpt lat="52.811192" lon="25.137463"><ele>162.60</ele><time>2011-03-20T06:23:14Z</time></trkpt><trkpt lat="52.811821" lon="25.137436"><ele>163.56</ele><time>2011-03-20T06:23:33Z</time></trkpt><trkpt lat="52.812550" lon="25.137524"><ele>161.64</ele><time>2011-03-20T06:23:54Z</time></trkpt><trkpt lat="52.813343" lon="25.137642"><ele>160.20</ele><time>2011-03-20T06:24:16Z</time></trkpt><trkpt lat="52.813942" lon="25.137705"><ele>160.20</ele><time>2011-03-20T06:24:35Z</time></trkpt><trkpt lat="52.814396" lon="25.137756"><ele>160.20</ele><time>2011-03-20T06:24:51Z</time></trkpt><trkpt lat="52.814941" lon="25.137823"><ele>161.16</ele><time>2011-03-20T06:25:10Z</time></trkpt><trkpt lat="52.815624" lon="25.137957"><ele>158.75</ele><time>2011-03-20T06:25:30Z</time></trkpt><trkpt lat="52.816074" lon="25.138103"><ele>159.72</ele><time>2011-03-20T06:25:47Z</time></trkpt><trkpt lat="52.816513" lon="25.138287"><ele>158.75</ele><time>2011-03-20T06:26:03Z</time></trkpt><trkpt lat="52.816853" lon="25.138441"><ele>159.72</ele><time>2011-03-20T06:26:17Z</time></trkpt><trkpt lat="52.817451" lon="25.138683"><ele>160.20</ele><time>2011-03-20T06:26:38Z</time></trkpt><trkpt lat="52.818031" lon="25.138968"><ele>159.72</ele><time>2011-03-20T06:26:57Z</time></trkpt><trkpt lat="52.818550" lon="25.139271"><ele>158.75</ele><time>2011-03-20T06:27:13Z</time></trkpt><trkpt lat="52.819084" lon="25.139717"><ele>157.79</ele><time>2011-03-20T06:27:29Z</time></trkpt><trkpt lat="52.819599" lon="25.140337"><ele>156.35</ele><time>2011-03-20T06:27:47Z</time></trkpt><trkpt lat="52.820076" lon="25.140902"><ele>155.87</ele><time>2011-03-20T06:28:04Z</time></trkpt><trkpt lat="52.820660" lon="25.141367"><ele>156.83</ele><time>2011-03-20T06:28:24Z</time></trkpt><trkpt lat="52.821037" lon="25.141394"><ele>158.75</ele><time>2011-03-20T06:28:38Z</time></trkpt><trkpt lat="52.821499" lon="25.141285"><ele>159.72</ele><time>2011-03-20T06:28:56Z</time></trkpt><trkpt lat="52.821739" lon="25.141285"><ele>159.72</ele><time>2011-03-20T06:29:12Z</time></trkpt><trkpt lat="52.821766" lon="25.141273"><ele>159.72</ele><time>2011-03-20T06:29:26Z</time></trkpt><trkpt lat="52.821774" lon="25.141268"><ele>160.20</ele><time>2011-03-20T06:29:40Z</time></trkpt><trkpt lat="52.821774" lon="25.141268"><ele>159.72</ele><time>2011-03-20T06:30:04Z</time></trkpt><trkpt lat="52.821774" lon="25.141268"><ele>159.72</ele><time>2011-03-20T06:30:10Z</time></trkpt><trkpt lat="52.821857" lon="25.141266"><ele>159.72</ele><time>2011-03-20T06:30:18Z</time></trkpt><trkpt lat="52.821869" lon="25.141268"><ele>159.24</ele><time>2011-03-20T06:30:19Z</time></trkpt><trkpt lat="52.821880" lon="25.141268"><ele>159.72</ele><time>2011-03-20T06:30:20Z</time></trkpt><trkpt lat="52.822128" lon="25.141283"><ele>159.24</ele><time>2011-03-20T06:30:37Z</time></trkpt><trkpt lat="52.822208" lon="25.141302"><ele>159.72</ele><time>2011-03-20T06:30:44Z</time></trkpt><trkpt lat="52.822319" lon="25.141426"><ele>160.20</ele><time>2011-03-20T06:30:57Z</time></trkpt><trkpt lat="52.822342" lon="25.141401"><ele>159.72</ele><time>2011-03-20T06:31:12Z</time></trkpt><trkpt lat="52.822342" lon="25.141401"><ele>159.72</ele><time>2011-03-20T06:31:37Z</time></trkpt><trkpt lat="52.822353" lon="25.141388"><ele>159.72</ele><time>2011-03-20T06:31:56Z</time></trkpt><trkpt lat="52.822372" lon="25.141363"><ele>159.72</ele><time>2011-03-20T06:31:58Z</time></trkpt><trkpt lat="52.822544" lon="25.141226"><ele>160.20</ele><time>2011-03-20T06:32:13Z</time></trkpt><trkpt lat="52.822704" lon="25.141188"><ele>159.72</ele><time>2011-03-20T06:32:28Z</time></trkpt><trkpt lat="52.822746" lon="25.141197"><ele>160.20</ele><time>2011-03-20T06:32:33Z</time></trkpt><trkpt lat="52.822777" lon="25.141174"><ele>159.72</ele><time>2011-03-20T06:32:36Z</time></trkpt><trkpt lat="52.822845" lon="25.141064"><ele>159.72</ele><time>2011-03-20T06:32:51Z</time></trkpt><trkpt lat="52.822853" lon="25.141068"><ele>159.24</ele><time>2011-03-20T06:33:00Z</time></trkpt><trkpt lat="52.822872" lon="25.141108"><ele>158.75</ele><time>2011-03-20T06:33:03Z</time></trkpt><trkpt lat="52.822895" lon="25.141178"><ele>160.20</ele><time>2011-03-20T06:33:20Z</time></trkpt><trkpt lat="52.822895" lon="25.141178"><ele>159.72</ele><time>2011-03-20T06:33:57Z</time></trkpt><trkpt lat="52.822887" lon="25.141167"><ele>159.72</ele><time>2011-03-20T06:33:58Z</time></trkpt><trkpt lat="52.822887" lon="25.141085"><ele>159.24</ele><time>2011-03-20T06:34:02Z</time></trkpt><trkpt lat="52.822937" lon="25.140882"><ele>158.75</ele><time>2011-03-20T06:34:16Z</time></trkpt><trkpt lat="52.822937" lon="25.140882"><ele>159.24</ele><time>2011-03-20T06:34:18Z</time></trkpt><trkpt lat="52.822918" lon="25.140800"><ele>159.24</ele><time>2011-03-20T06:34:23Z</time></trkpt><trkpt lat="52.822811" lon="25.140532"><ele>159.24</ele><time>2011-03-20T06:34:40Z</time></trkpt><trkpt lat="52.822803" lon="25.140497"><ele>159.24</ele><time>2011-03-20T06:34:42Z</time></trkpt><trkpt lat="52.822754" lon="25.140387"><ele>158.27</ele><time>2011-03-20T06:34:56Z</time></trkpt><trkpt lat="52.822754" lon="25.140383"><ele>159.24</ele><time>2011-03-20T06:35:15Z</time></trkpt><trkpt lat="52.822754" lon="25.140383"><ele>159.24</ele><time>2011-03-20T06:35:22Z</time></trkpt><trkpt lat="52.822723" lon="25.140381"><ele>158.75</ele><time>2011-03-20T06:35:25Z</time></trkpt><trkpt lat="52.822651" lon="25.140284"><ele>158.75</ele><time>2011-03-20T06:35:38Z</time></trkpt><trkpt lat="52.822651" lon="25.140284"><ele>159.24</ele><time>2011-03-20T06:35:45Z</time></trkpt><trkpt lat="52.822601" lon="25.140291"><ele>159.24</ele><time>2011-03-20T06:35:50Z</time></trkpt><trkpt lat="52.822517" lon="25.140436"><ele>158.75</ele><time>2011-03-20T06:36:00Z</time></trkpt><trkpt lat="52.822495" lon="25.140451"><ele>158.75</ele><time>2011-03-20T06:36:04Z</time></trkpt><trkpt lat="52.822342" lon="25.140678"><ele>158.27</ele><time>2011-03-20T06:36:23Z</time></trkpt><trkpt lat="52.822140" lon="25.140932"><ele>158.27</ele><time>2011-03-20T06:36:42Z</time></trkpt><trkpt lat="52.822010" lon="25.141111"><ele>158.27</ele><time>2011-03-20T06:36:55Z</time></trkpt><trkpt lat="52.821808" lon="25.141201"><ele>158.27</ele><time>2011-03-20T06:37:13Z</time></trkpt><trkpt lat="52.821812" lon="25.141224"><ele>158.75</ele><time>2011-03-20T06:37:14Z</time></trkpt><trkpt lat="52.821754" lon="25.141302"><ele>158.75</ele><time>2011-03-20T06:37:27Z</time></trkpt><trkpt lat="52.821747" lon="25.141308"><ele>157.79</ele><time>2011-03-20T06:37:48Z</time></trkpt><trkpt lat="52.821747" lon="25.141308"><ele>158.75</ele><time>2011-03-20T06:38:02Z</time></trkpt><trkpt lat="52.821747" lon="25.141308"><ele>155.87</ele><time>2011-03-20T06:38:03Z</time></trkpt><trkpt lat="52.821747" lon="25.141308"><ele>160.68</ele><time>2011-03-20T06:38:04Z</time></trkpt><trkpt lat="52.821743" lon="25.141312"><ele>157.79</ele><time>2011-03-20T06:38:09Z</time></trkpt><trkpt lat="52.821743" lon="25.141312"><ele>157.79</ele><time>2011-03-20T06:38:10Z</time></trkpt><trkpt lat="52.821747" lon="25.141323"><ele>159.24</ele><time>2011-03-20T06:38:26Z</time></trkpt><trkpt lat="52.821751" lon="25.141281"><ele>158.75</ele><time>2011-03-20T06:38:52Z</time></trkpt><trkpt lat="52.821751" lon="25.141275"><ele>158.27</ele><time>2011-03-20T06:38:53Z</time></trkpt><trkpt lat="52.821598" lon="25.141325"><ele>158.27</ele><time>2011-03-20T06:39:01Z</time></trkpt><trkpt lat="52.821430" lon="25.141994"><ele>158.75</ele><time>2011-03-20T06:39:15Z</time></trkpt><trkpt lat="52.821445" lon="25.142849"><ele>158.27</ele><time>2011-03-20T06:39:29Z</time></trkpt><trkpt lat="52.821354" lon="25.143826"><ele>157.79</ele><time>2011-03-20T06:39:42Z</time></trkpt><trkpt lat="52.821255" lon="25.144772"><ele>157.31</ele><time>2011-03-20T06:39:54Z</time></trkpt><trkpt lat="52.821159" lon="25.145452"><ele>156.83</ele><time>2011-03-20T06:40:05Z</time></trkpt><trkpt lat="52.821098" lon="25.146139"><ele>156.35</ele><time>2011-03-20T06:40:15Z</time></trkpt><trkpt lat="52.820961" lon="25.147150"><ele>156.35</ele><time>2011-03-20T06:40:29Z</time></trkpt><trkpt lat="52.820950" lon="25.147224"><ele>156.83</ele><time>2011-03-20T06:40:30Z</time></trkpt><trkpt lat="52.820816" lon="25.148464"><ele>154.91</ele><time>2011-03-20T06:40:46Z</time></trkpt><trkpt lat="52.820721" lon="25.149332"><ele>156.35</ele><time>2011-03-20T06:41:00Z</time></trkpt><trkpt lat="52.820614" lon="25.150139"><ele>155.87</ele><time>2011-03-20T06:41:15Z</time></trkpt><trkpt lat="52.820511" lon="25.150934"><ele>157.31</ele><time>2011-03-20T06:41:29Z</time></trkpt><trkpt lat="52.820389" lon="25.152056"><ele>157.79</ele><time>2011-03-20T06:41:46Z</time></trkpt><trkpt lat="52.820351" lon="25.152397"><ele>157.31</ele><time>2011-03-20T06:41:51Z</time></trkpt><trkpt lat="52.820324" lon="25.153439"><ele>157.79</ele><time>2011-03-20T06:42:07Z</time></trkpt><trkpt lat="52.820564" lon="25.154465"><ele>158.75</ele><time>2011-03-20T06:42:24Z</time></trkpt><trkpt lat="52.820919" lon="25.155708"><ele>159.24</ele><time>2011-03-20T06:42:45Z</time></trkpt><trkpt lat="52.821228" lon="25.156782"><ele>159.24</ele><time>2011-03-20T06:43:02Z</time></trkpt><trkpt lat="52.821522" lon="25.157820"><ele>160.20</ele><time>2011-03-20T06:43:19Z</time></trkpt><trkpt lat="52.821846" lon="25.158928"><ele>160.20</ele><time>2011-03-20T06:43:37Z</time></trkpt><trkpt lat="52.822132" lon="25.159916"><ele>159.72</ele><time>2011-03-20T06:43:53Z</time></trkpt><trkpt lat="52.822514" lon="25.161186"><ele>159.72</ele><time>2011-03-20T06:44:14Z</time></trkpt><trkpt lat="52.822842" lon="25.162277"><ele>160.68</ele><time>2011-03-20T06:44:33Z</time></trkpt><trkpt lat="52.823181" lon="25.163448"><ele>160.68</ele><time>2011-03-20T06:44:51Z</time></trkpt><trkpt lat="52.823551" lon="25.164707"><ele>160.68</ele><time>2011-03-20T06:45:10Z</time></trkpt><trkpt lat="52.823856" lon="25.165751"><ele>160.68</ele><time>2011-03-20T06:45:25Z</time></trkpt><trkpt lat="52.824242" lon="25.167040"><ele>160.20</ele><time>2011-03-20T06:45:44Z</time></trkpt><trkpt lat="52.824589" lon="25.168266"><ele>160.68</ele><time>2011-03-20T06:46:01Z</time></trkpt><trkpt lat="52.824898" lon="25.169392"><ele>160.68</ele><time>2011-03-20T06:46:17Z</time></trkpt><trkpt lat="52.825218" lon="25.170406"><ele>161.64</ele><time>2011-03-20T06:46:32Z</time></trkpt><trkpt lat="52.825573" lon="25.171642"><ele>161.16</ele><time>2011-03-20T06:46:48Z</time></trkpt><trkpt lat="52.825977" lon="25.173054"><ele>161.64</ele><time>2011-03-20T06:47:07Z</time></trkpt><trkpt lat="52.826481" lon="25.174685"><ele>161.64</ele><time>2011-03-20T06:47:28Z</time></trkpt><trkpt lat="52.826843" lon="25.176094"><ele>161.16</ele><time>2011-03-20T06:47:46Z</time></trkpt><trkpt lat="52.827236" lon="25.177483"><ele>161.64</ele><time>2011-03-20T06:48:05Z</time></trkpt><trkpt lat="52.827541" lon="25.178699"><ele>163.56</ele><time>2011-03-20T06:48:24Z</time></trkpt><trkpt lat="52.827881" lon="25.179949"><ele>162.60</ele><time>2011-03-20T06:48:41Z</time></trkpt><trkpt lat="52.828182" lon="25.181204"><ele>162.12</ele><time>2011-03-20T06:48:58Z</time></trkpt><trkpt lat="52.828281" lon="25.182301"><ele>162.12</ele><time>2011-03-20T06:49:12Z</time></trkpt><trkpt lat="52.828293" lon="25.183502"><ele>161.16</ele><time>2011-03-20T06:49:27Z</time></trkpt><trkpt lat="52.828281" lon="25.184229"><ele>161.64</ele><time>2011-03-20T06:49:36Z</time></trkpt><trkpt lat="52.828281" lon="25.185692"><ele>160.68</ele><time>2011-03-20T06:49:53Z</time></trkpt><trkpt lat="52.828285" lon="25.186728"><ele>160.20</ele><time>2011-03-20T06:50:08Z</time></trkpt><trkpt lat="52.828297" lon="25.188053"><ele>159.72</ele><time>2011-03-20T06:50:25Z</time></trkpt><trkpt lat="52.828312" lon="25.189194"><ele>159.24</ele><time>2011-03-20T06:50:41Z</time></trkpt><trkpt lat="52.828312" lon="25.189493"><ele>159.72</ele><time>2011-03-20T06:50:45Z</time></trkpt><trkpt lat="52.828312" lon="25.190712"><ele>159.72</ele><time>2011-03-20T06:51:02Z</time></trkpt><trkpt lat="52.828312" lon="25.191275"><ele>159.24</ele><time>2011-03-20T06:51:10Z</time></trkpt><trkpt lat="52.828346" lon="25.192482"><ele>158.75</ele><time>2011-03-20T06:51:27Z</time></trkpt><trkpt lat="52.828381" lon="25.193594"><ele>159.72</ele><time>2011-03-20T06:51:43Z</time></trkpt><trkpt lat="52.828377" lon="25.194677"><ele>159.72</ele><time>2011-03-20T06:51:58Z</time></trkpt><trkpt lat="52.828396" lon="25.195709"><ele>159.24</ele><time>2011-03-20T06:52:14Z</time></trkpt><trkpt lat="52.828392" lon="25.196156"><ele>158.75</ele><time>2011-03-20T06:52:24Z</time></trkpt><trkpt lat="52.828461" lon="25.196217"><ele>157.79</ele><time>2011-03-20T06:52:38Z</time></trkpt><trkpt lat="52.828472" lon="25.196218"><ele>157.31</ele><time>2011-03-20T06:52:40Z</time></trkpt><trkpt lat="52.828537" lon="25.196226"><ele>158.27</ele><time>2011-03-20T06:52:56Z</time></trkpt><trkpt lat="52.828537" lon="25.196226"><ele>157.79</ele><time>2011-03-20T06:53:28Z</time></trkpt><trkpt lat="52.828472" lon="25.196198"><ele>157.79</ele><time>2011-03-20T06:53:42Z</time></trkpt><trkpt lat="52.828453" lon="25.196171"><ele>158.27</ele><time>2011-03-20T06:54:01Z</time></trkpt><trkpt lat="52.828453" lon="25.196171"><ele>158.27</ele><time>2011-03-20T06:54:35Z</time></trkpt><trkpt lat="52.828453" lon="25.196171"><ele>157.79</ele><time>2011-03-20T06:54:59Z</time></trkpt><trkpt lat="52.828453" lon="25.196171"><ele>158.27</ele><time>2011-03-20T06:55:25Z</time></trkpt><trkpt lat="52.828453" lon="25.196171"><ele>157.79</ele><time>2011-03-20T06:56:02Z</time></trkpt><trkpt lat="52.828438" lon="25.196180"><ele>157.79</ele><time>2011-03-20T06:56:27Z</time></trkpt><trkpt lat="52.828388" lon="25.196306"><ele>158.27</ele><time>2011-03-20T06:56:37Z</time></trkpt><trkpt lat="52.828384" lon="25.196909"><ele>158.27</ele><time>2011-03-20T06:56:50Z</time></trkpt><trkpt lat="52.828384" lon="25.198154"><ele>157.31</ele><time>2011-03-20T06:57:08Z</time></trkpt><trkpt lat="52.828392" lon="25.199427"><ele>157.31</ele><time>2011-03-20T06:57:24Z</time></trkpt><trkpt lat="52.828373" lon="25.199728"><ele>157.79</ele><time>2011-03-20T06:57:28Z</time></trkpt><trkpt lat="52.828377" lon="25.200384"><ele>158.27</ele><time>2011-03-20T06:57:36Z</time></trkpt><trkpt lat="52.828384" lon="25.200542"><ele>159.24</ele><time>2011-03-20T06:57:38Z</time></trkpt><trkpt lat="52.828400" lon="25.201078"><ele>158.75</ele><time>2011-03-20T06:57:45Z</time></trkpt><trkpt lat="52.828400" lon="25.201385"><ele>158.27</ele><time>2011-03-20T06:57:49Z</time></trkpt><trkpt lat="52.828403" lon="25.202665"><ele>158.27</ele><time>2011-03-20T06:58:06Z</time></trkpt><trkpt lat="52.828411" lon="25.204145"><ele>158.27</ele><time>2011-03-20T06:58:24Z</time></trkpt><trkpt lat="52.828423" lon="25.205420"><ele>157.31</ele><time>2011-03-20T06:58:38Z</time></trkpt><trkpt lat="52.828426" lon="25.205652"><ele>157.79</ele><time>2011-03-20T06:58:41Z</time></trkpt><trkpt lat="52.828434" lon="25.207123"><ele>156.83</ele><time>2011-03-20T06:58:59Z</time></trkpt><trkpt lat="52.828434" lon="25.207611"><ele>156.35</ele><time>2011-03-20T06:59:05Z</time></trkpt><trkpt lat="52.828438" lon="25.208969"><ele>156.35</ele><time>2011-03-20T06:59:23Z</time></trkpt><trkpt lat="52.828465" lon="25.209612"><ele>156.35</ele><time>2011-03-20T06:59:33Z</time></trkpt><trkpt lat="52.828518" lon="25.209881"><ele>156.35</ele><time>2011-03-20T06:59:37Z</time></trkpt><trkpt lat="52.828953" lon="25.211094"><ele>156.35</ele><time>2011-03-20T06:59:56Z</time></trkpt><trkpt lat="52.829266" lon="25.211985"><ele>156.35</ele><time>2011-03-20T07:00:11Z</time></trkpt><trkpt lat="52.829678" lon="25.213036"><ele>156.83</ele><time>2011-03-20T07:00:29Z</time></trkpt><trkpt lat="52.829937" lon="25.213724"><ele>156.35</ele><time>2011-03-20T07:00:40Z</time></trkpt><trkpt lat="52.830238" lon="25.214468"><ele>156.83</ele><time>2011-03-20T07:00:55Z</time></trkpt><trkpt lat="52.830528" lon="25.215252"><ele>155.87</ele><time>2011-03-20T07:01:12Z</time></trkpt><trkpt lat="52.830868" lon="25.216198"><ele>155.87</ele><time>2011-03-20T07:01:30Z</time></trkpt><trkpt lat="52.830929" lon="25.216440"><ele>155.87</ele><time>2011-03-20T07:01:34Z</time></trkpt><trkpt lat="52.830940" lon="25.216511"><ele>155.39</ele><time>2011-03-20T07:01:35Z</time></trkpt><trkpt lat="52.830952" lon="25.216652"><ele>154.91</ele><time>2011-03-20T07:01:37Z</time></trkpt><trkpt lat="52.830952" lon="25.216722"><ele>155.39</ele><time>2011-03-20T07:01:38Z</time></trkpt><trkpt lat="52.830948" lon="25.216793"><ele>155.87</ele><time>2011-03-20T07:01:39Z</time></trkpt><trkpt lat="52.830940" lon="25.216864"><ele>155.39</ele><time>2011-03-20T07:01:40Z</time></trkpt><trkpt lat="52.830925" lon="25.216932"><ele>154.91</ele><time>2011-03-20T07:01:41Z</time></trkpt><trkpt lat="52.830902" lon="25.216999"><ele>155.87</ele><time>2011-03-20T07:01:42Z</time></trkpt><trkpt lat="52.830879" lon="25.217062"><ele>155.39</ele><time>2011-03-20T07:01:43Z</time></trkpt><trkpt lat="52.830853" lon="25.217123"><ele>155.39</ele><time>2011-03-20T07:01:44Z</time></trkpt><trkpt lat="52.830826" lon="25.217182"><ele>155.39</ele><time>2011-03-20T07:01:45Z</time></trkpt><trkpt lat="52.830566" lon="25.217800"><ele>154.91</ele><time>2011-03-20T07:01:59Z</time></trkpt><trkpt lat="52.830265" lon="25.218513"><ele>154.91</ele><time>2011-03-20T07:02:14Z</time></trkpt><trkpt lat="52.829971" lon="25.219187"><ele>155.39</ele><time>2011-03-20T07:02:29Z</time></trkpt><trkpt lat="52.829838" lon="25.219398"><ele>155.39</ele><time>2011-03-20T07:02:36Z</time></trkpt><trkpt lat="52.829796" lon="25.219398"><ele>154.91</ele><time>2011-03-20T07:02:49Z</time></trkpt><trkpt lat="52.829796" lon="25.219398"><ele>159.24</ele><time>2011-03-20T07:02:51Z</time></trkpt><trkpt lat="52.829796" lon="25.219398"><ele>156.83</ele><time>2011-03-20T07:02:52Z</time></trkpt><trkpt lat="52.829788" lon="25.219404"><ele>156.35</ele><time>2011-03-20T07:03:03Z</time></trkpt><trkpt lat="52.829788" lon="25.219404"><ele>155.87</ele><time>2011-03-20T07:03:18Z</time></trkpt><trkpt lat="52.829784" lon="25.219410"><ele>156.35</ele><time>2011-03-20T07:03:49Z</time></trkpt><trkpt lat="52.829788" lon="25.219419"><ele>155.39</ele><time>2011-03-20T07:04:07Z</time></trkpt><trkpt lat="52.829788" lon="25.219419"><ele>155.87</ele><time>2011-03-20T07:04:12Z</time></trkpt><trkpt lat="52.829762" lon="25.219683"><ele>156.83</ele><time>2011-03-20T07:04:20Z</time></trkpt><trkpt lat="52.829365" lon="25.220413"><ele>155.39</ele><time>2011-03-20T07:04:35Z</time></trkpt><trkpt lat="52.828899" lon="25.221180"><ele>155.39</ele><time>2011-03-20T07:04:52Z</time></trkpt><trkpt lat="52.828453" lon="25.221952"><ele>155.87</ele><time>2011-03-20T07:05:07Z</time></trkpt><trkpt lat="52.828392" lon="25.222061"><ele>155.39</ele><time>2011-03-20T07:05:09Z</time></trkpt><trkpt lat="52.828365" lon="25.222115"><ele>156.35</ele><time>2011-03-20T07:05:10Z</time></trkpt><trkpt lat="52.827919" lon="25.222889"><ele>155.87</ele><time>2011-03-20T07:05:24Z</time></trkpt><trkpt lat="52.827496" lon="25.223637"><ele>156.35</ele><time>2011-03-20T07:05:38Z</time></trkpt><trkpt lat="52.827461" lon="25.223684"><ele>156.83</ele><time>2011-03-20T07:05:39Z</time></trkpt><trkpt lat="52.827278" lon="25.224268"><ele>156.35</ele><time>2011-03-20T07:05:51Z</time></trkpt><trkpt lat="52.827492" lon="25.224731"><ele>156.35</ele><time>2011-03-20T07:06:03Z</time></trkpt><trkpt lat="52.827724" lon="25.224981"><ele>155.87</ele><time>2011-03-20T07:06:14Z</time></trkpt><trkpt lat="52.827774" lon="25.224947"><ele>155.87</ele><time>2011-03-20T07:06:18Z</time></trkpt><trkpt lat="52.827980" lon="25.224583"><ele>154.91</ele><time>2011-03-20T07:06:27Z</time></trkpt><trkpt lat="52.828430" lon="25.223896"><ele>153.95</ele><time>2011-03-20T07:06:44Z</time></trkpt><trkpt lat="52.828560" lon="25.223686"><ele>153.95</ele><time>2011-03-20T07:06:57Z</time></trkpt><trkpt lat="52.828560" lon="25.223692"><ele>154.43</ele><time>2011-03-20T07:07:09Z</time></trkpt><trkpt lat="52.828560" lon="25.223692"><ele>151.06</ele><time>2011-03-20T07:07:36Z</time></trkpt><trkpt lat="52.828560" lon="25.223692"><ele>153.95</ele><time>2011-03-20T07:07:37Z</time></trkpt><trkpt lat="52.828560" lon="25.223692"><ele>153.95</ele><time>2011-03-20T07:07:42Z</time></trkpt><trkpt lat="52.828541" lon="25.223679"><ele>154.43</ele><time>2011-03-20T07:07:53Z</time></trkpt><trkpt lat="52.828526" lon="25.223694"><ele>153.95</ele><time>2011-03-20T07:07:55Z</time></trkpt><trkpt lat="52.828510" lon="25.223713"><ele>154.43</ele><time>2011-03-20T07:07:56Z</time></trkpt><trkpt lat="52.828175" lon="25.224277"><ele>153.95</ele><time>2011-03-20T07:08:09Z</time></trkpt><trkpt lat="52.827755" lon="25.224955"><ele>155.39</ele><time>2011-03-20T07:08:25Z</time></trkpt><trkpt lat="52.827915" lon="25.225426"><ele>153.47</ele><time>2011-03-20T07:08:35Z</time></trkpt><trkpt lat="52.827953" lon="25.225473"><ele>153.47</ele><time>2011-03-20T07:08:36Z</time></trkpt><trkpt lat="52.828545" lon="25.226311"><ele>152.51</ele><time>2011-03-20T07:08:52Z</time></trkpt><trkpt lat="52.828941" lon="25.226892"><ele>152.03</ele><time>2011-03-20T07:09:05Z</time></trkpt><trkpt lat="52.829269" lon="25.227430"><ele>152.03</ele><time>2011-03-20T07:09:20Z</time></trkpt><trkpt lat="52.829285" lon="25.227448"><ele>152.03</ele><time>2011-03-20T07:09:21Z</time></trkpt><trkpt lat="52.829300" lon="25.227455"><ele>152.03</ele><time>2011-03-20T07:09:22Z</time></trkpt><trkpt lat="52.829311" lon="25.227453"><ele>152.03</ele><time>2011-03-20T07:09:23Z</time></trkpt><trkpt lat="52.829327" lon="25.227421"><ele>151.06</ele><time>2011-03-20T07:09:25Z</time></trkpt><trkpt lat="52.829334" lon="25.227386"><ele>151.54</ele><time>2011-03-20T07:09:26Z</time></trkpt><trkpt lat="52.829334" lon="25.227343"><ele>151.06</ele><time>2011-03-20T07:09:27Z</time></trkpt><trkpt lat="52.829441" lon="25.226807"><ele>149.62</ele><time>2011-03-20T07:09:39Z</time></trkpt><trkpt lat="52.829597" lon="25.226435"><ele>150.10</ele><time>2011-03-20T07:09:51Z</time></trkpt><trkpt lat="52.829815" lon="25.225977"><ele>150.10</ele><time>2011-03-20T07:10:04Z</time></trkpt><trkpt lat="52.829967" lon="25.225386"><ele>150.10</ele><time>2011-03-20T07:10:18Z</time></trkpt><trkpt lat="52.830051" lon="25.224932"><ele>150.10</ele><time>2011-03-20T07:10:30Z</time></trkpt><trkpt lat="52.830189" lon="25.224327"><ele>150.58</ele><time>2011-03-20T07:10:45Z</time></trkpt><trkpt lat="52.830311" lon="25.223797"><ele>150.10</ele><time>2011-03-20T07:10:58Z</time></trkpt><trkpt lat="52.830410" lon="25.223255"><ele>150.10</ele><time>2011-03-20T07:11:12Z</time></trkpt><trkpt lat="52.830570" lon="25.222708"><ele>150.58</ele><time>2011-03-20T07:11:26Z</time></trkpt><trkpt lat="52.830669" lon="25.222141"><ele>150.10</ele><time>2011-03-20T07:11:40Z</time></trkpt><trkpt lat="52.830727" lon="25.221859"><ele>151.06</ele><time>2011-03-20T07:11:53Z</time></trkpt><trkpt lat="52.830727" lon="25.221848"><ele>149.62</ele><time>2011-03-20T07:11:54Z</time></trkpt><trkpt lat="52.830814" lon="25.221329"><ele>150.58</ele><time>2011-03-20T07:12:09Z</time></trkpt><trkpt lat="52.830959" lon="25.220600"><ele>152.03</ele><time>2011-03-20T07:12:25Z</time></trkpt><trkpt lat="52.831104" lon="25.219818"><ele>151.54</ele><time>2011-03-20T07:12:39Z</time></trkpt><trkpt lat="52.831352" lon="25.218889"><ele>152.03</ele><time>2011-03-20T07:12:56Z</time></trkpt><trkpt lat="52.831680" lon="25.218220"><ele>153.95</ele><time>2011-03-20T07:13:12Z</time></trkpt><trkpt lat="52.831978" lon="25.217665"><ele>154.91</ele><time>2011-03-20T07:13:26Z</time></trkpt><trkpt lat="52.832260" lon="25.216726"><ele>154.91</ele><time>2011-03-20T07:13:42Z</time></trkpt><trkpt lat="52.832561" lon="25.215797"><ele>154.43</ele><time>2011-03-20T07:13:58Z</time></trkpt><trkpt lat="52.832634" lon="25.215569"><ele>153.47</ele><time>2011-03-20T07:14:02Z</time></trkpt><trkpt lat="52.832733" lon="25.215282"><ele>154.43</ele><time>2011-03-20T07:14:07Z</time></trkpt><trkpt lat="52.833073" lon="25.214142"><ele>153.47</ele><time>2011-03-20T07:14:24Z</time></trkpt><trkpt lat="52.833195" lon="25.213739"><ele>153.47</ele><time>2011-03-20T07:14:30Z</time></trkpt><trkpt lat="52.833256" lon="25.213560"><ele>153.47</ele><time>2011-03-20T07:14:33Z</time></trkpt><trkpt lat="52.833496" lon="25.212688"><ele>153.47</ele><time>2011-03-20T07:14:46Z</time></trkpt><trkpt lat="52.833530" lon="25.212553"><ele>152.99</ele><time>2011-03-20T07:14:48Z</time></trkpt><trkpt lat="52.833839" lon="25.211555"><ele>153.95</ele><time>2011-03-20T07:15:05Z</time></trkpt><trkpt lat="52.834156" lon="25.210514"><ele>153.95</ele><time>2011-03-20T07:15:24Z</time></trkpt><trkpt lat="52.834412" lon="25.209627"><ele>154.43</ele><time>2011-03-20T07:15:38Z</time></trkpt><trkpt lat="52.834705" lon="25.208702"><ele>153.95</ele><time>2011-03-20T07:15:53Z</time></trkpt><trkpt lat="52.835041" lon="25.207960"><ele>153.47</ele><time>2011-03-20T07:16:09Z</time></trkpt><trkpt lat="52.835320" lon="25.207333"><ele>153.47</ele><time>2011-03-20T07:16:25Z</time></trkpt><trkpt lat="52.835587" lon="25.206810"><ele>153.47</ele><time>2011-03-20T07:16:39Z</time></trkpt><trkpt lat="52.835804" lon="25.206148"><ele>153.95</ele><time>2011-03-20T07:16:55Z</time></trkpt><trkpt lat="52.835941" lon="25.205725"><ele>154.91</ele><time>2011-03-20T07:17:06Z</time></trkpt><trkpt lat="52.836243" lon="25.204950"><ele>155.39</ele><time>2011-03-20T07:17:24Z</time></trkpt><trkpt lat="52.836456" lon="25.204378"><ele>154.91</ele><time>2011-03-20T07:17:37Z</time></trkpt><trkpt lat="52.836803" lon="25.203501"><ele>154.91</ele><time>2011-03-20T07:17:56Z</time></trkpt><trkpt lat="52.837109" lon="25.202745"><ele>154.91</ele><time>2011-03-20T07:18:12Z</time></trkpt><trkpt lat="52.837402" lon="25.202082"><ele>155.39</ele><time>2011-03-20T07:18:26Z</time></trkpt><trkpt lat="52.837826" lon="25.201441"><ele>153.95</ele><time>2011-03-20T07:18:41Z</time></trkpt><trkpt lat="52.838009" lon="25.200975"><ele>153.95</ele><time>2011-03-20T07:18:53Z</time></trkpt><trkpt lat="52.838253" lon="25.200478"><ele>153.95</ele><time>2011-03-20T07:19:06Z</time></trkpt><trkpt lat="52.838562" lon="25.199648"><ele>155.39</ele><time>2011-03-20T07:19:24Z</time></trkpt><trkpt lat="52.838863" lon="25.198925"><ele>155.39</ele><time>2011-03-20T07:19:43Z</time></trkpt><trkpt lat="52.839211" lon="25.198370"><ele>156.35</ele><time>2011-03-20T07:20:00Z</time></trkpt><trkpt lat="52.839561" lon="25.197727"><ele>156.83</ele><time>2011-03-20T07:20:18Z</time></trkpt><trkpt lat="52.839859" lon="25.197031"><ele>156.83</ele><time>2011-03-20T07:20:35Z</time></trkpt><trkpt lat="52.840069" lon="25.196476"><ele>156.35</ele><time>2011-03-20T07:20:50Z</time></trkpt><trkpt lat="52.840355" lon="25.195826"><ele>156.35</ele><time>2011-03-20T07:21:07Z</time></trkpt><trkpt lat="52.840572" lon="25.195374"><ele>156.35</ele><time>2011-03-20T07:21:23Z</time></trkpt><trkpt lat="52.840572" lon="25.195374"><ele>155.39</ele><time>2011-03-20T07:21:27Z</time></trkpt><trkpt lat="52.840572" lon="25.195374"><ele>155.87</ele><time>2011-03-20T07:22:00Z</time></trkpt><trkpt lat="52.840549" lon="25.195396"><ele>155.87</ele><time>2011-03-20T07:22:11Z</time></trkpt><trkpt lat="52.840519" lon="25.195436"><ele>156.35</ele><time>2011-03-20T07:22:18Z</time></trkpt><trkpt lat="52.840549" lon="25.195377"><ele>154.91</ele><time>2011-03-20T07:22:30Z</time></trkpt><trkpt lat="52.840572" lon="25.195316"><ele>155.87</ele><time>2011-03-20T07:22:47Z</time></trkpt><trkpt lat="52.840580" lon="25.195309"><ele>155.87</ele><time>2011-03-20T07:22:48Z</time></trkpt><trkpt lat="52.840752" lon="25.194971"><ele>155.39</ele><time>2011-03-20T07:23:01Z</time></trkpt><trkpt lat="52.840992" lon="25.194304"><ele>154.43</ele><time>2011-03-20T07:23:19Z</time></trkpt><trkpt lat="52.841240" lon="25.193520"><ele>154.91</ele><time>2011-03-20T07:23:39Z</time></trkpt><trkpt lat="52.841530" lon="25.192686"><ele>156.35</ele><time>2011-03-20T07:23:58Z</time></trkpt><trkpt lat="52.841808" lon="25.191948"><ele>156.35</ele><time>2011-03-20T07:24:16Z</time></trkpt><trkpt lat="52.842140" lon="25.191114"><ele>157.79</ele><time>2011-03-20T07:24:36Z</time></trkpt><trkpt lat="52.842476" lon="25.190165"><ele>157.31</ele><time>2011-03-20T07:24:57Z</time></trkpt><trkpt lat="52.842751" lon="25.189398"><ele>156.83</ele><time>2011-03-20T07:25:16Z</time></trkpt><trkpt lat="52.843052" lon="25.188585"><ele>156.83</ele><time>2011-03-20T07:25:34Z</time></trkpt><trkpt lat="52.843357" lon="25.187744"><ele>155.87</ele><time>2011-03-20T07:25:52Z</time></trkpt><trkpt lat="52.843704" lon="25.186827"><ele>156.83</ele><time>2011-03-20T07:26:11Z</time></trkpt><trkpt lat="52.844055" lon="25.185928"><ele>156.83</ele><time>2011-03-20T07:26:29Z</time></trkpt><trkpt lat="52.844395" lon="25.185089"><ele>157.31</ele><time>2011-03-20T07:26:48Z</time></trkpt><trkpt lat="52.844654" lon="25.184359"><ele>157.31</ele><time>2011-03-20T07:27:05Z</time></trkpt><trkpt lat="52.844986" lon="25.183455"><ele>157.79</ele><time>2011-03-20T07:27:24Z</time></trkpt><trkpt lat="52.845318" lon="25.182610"><ele>157.79</ele><time>2011-03-20T07:27:43Z</time></trkpt><trkpt lat="52.845665" lon="25.181774"><ele>158.27</ele><time>2011-03-20T07:28:04Z</time></trkpt><trkpt lat="52.845741" lon="25.181608"><ele>158.27</ele><time>2011-03-20T07:28:16Z</time></trkpt><trkpt lat="52.845741" lon="25.181606"><ele>158.75</ele><time>2011-03-20T07:28:28Z</time></trkpt><trkpt lat="52.845741" lon="25.181606"><ele>160.20</ele><time>2011-03-20T07:28:31Z</time></trkpt><trkpt lat="52.845741" lon="25.181606"><ele>158.75</ele><time>2011-03-20T07:28:48Z</time></trkpt><trkpt lat="52.845741" lon="25.181595"><ele>158.75</ele><time>2011-03-20T07:29:11Z</time></trkpt><trkpt lat="52.845741" lon="25.181595"><ele>158.75</ele><time>2011-03-20T07:29:43Z</time></trkpt><trkpt lat="52.845745" lon="25.181585"><ele>159.24</ele><time>2011-03-20T07:30:16Z</time></trkpt><trkpt lat="52.845745" lon="25.181585"><ele>163.56</ele><time>2011-03-20T07:30:22Z</time></trkpt><trkpt lat="52.845745" lon="25.181585"><ele>159.24</ele><time>2011-03-20T07:30:23Z</time></trkpt><trkpt lat="52.845737" lon="25.181555"><ele>158.27</ele><time>2011-03-20T07:30:35Z</time></trkpt><trkpt lat="52.845726" lon="25.181355"><ele>159.72</ele><time>2011-03-20T07:30:44Z</time></trkpt><trkpt lat="52.845860" lon="25.180962"><ele>160.68</ele><time>2011-03-20T07:30:56Z</time></trkpt><trkpt lat="52.845997" lon="25.180595"><ele>157.31</ele><time>2011-03-20T07:31:06Z</time></trkpt><trkpt lat="52.846012" lon="25.180557"><ele>158.75</ele><time>2011-03-20T07:31:07Z</time></trkpt><trkpt lat="52.846035" lon="25.180485"><ele>161.64</ele><time>2011-03-20T07:31:09Z</time></trkpt><trkpt lat="52.846050" lon="25.180450"><ele>157.31</ele><time>2011-03-20T07:31:10Z</time></trkpt><trkpt lat="52.846077" lon="25.180380"><ele>160.68</ele><time>2011-03-20T07:31:12Z</time></trkpt><trkpt lat="52.846088" lon="25.180344"><ele>160.20</ele><time>2011-03-20T07:31:13Z</time></trkpt><trkpt lat="52.846184" lon="25.180090"><ele>158.27</ele><time>2011-03-20T07:31:20Z</time></trkpt><trkpt lat="52.846233" lon="25.179972"><ele>162.60</ele><time>2011-03-20T07:31:23Z</time></trkpt><trkpt lat="52.846264" lon="25.179893"><ele>158.27</ele><time>2011-03-20T07:31:25Z</time></trkpt><trkpt lat="52.846279" lon="25.179853"><ele>162.12</ele><time>2011-03-20T07:31:26Z</time></trkpt><trkpt lat="52.846310" lon="25.179775"><ele>157.79</ele><time>2011-03-20T07:31:28Z</time></trkpt><trkpt lat="52.846325" lon="25.179737"><ele>159.24</ele><time>2011-03-20T07:31:29Z</time></trkpt><trkpt lat="52.846416" lon="25.179495"><ele>158.75</ele><time>2011-03-20T07:31:35Z</time></trkpt><trkpt lat="52.846531" lon="25.179201"><ele>162.12</ele><time>2011-03-20T07:31:42Z</time></trkpt><trkpt lat="52.846546" lon="25.179159"><ele>161.64</ele><time>2011-03-20T07:31:43Z</time></trkpt><trkpt lat="52.846577" lon="25.179075"><ele>158.27</ele><time>2011-03-20T07:31:45Z</time></trkpt><trkpt lat="52.846661" lon="25.178867"><ele>157.79</ele><time>2011-03-20T07:31:50Z</time></trkpt><trkpt lat="52.846737" lon="25.178692"><ele>160.20</ele><time>2011-03-20T07:31:54Z</time></trkpt><trkpt lat="52.846996" lon="25.177990"><ele>158.75</ele><time>2011-03-20T07:32:08Z</time></trkpt><trkpt lat="52.847122" lon="25.177643"><ele>160.68</ele><time>2011-03-20T07:32:15Z</time></trkpt><trkpt lat="52.847317" lon="25.177114"><ele>156.83</ele><time>2011-03-20T07:32:26Z</time></trkpt><trkpt lat="52.847336" lon="25.177073"><ele>157.31</ele><time>2011-03-20T07:32:27Z</time></trkpt><trkpt lat="52.847523" lon="25.176531"><ele>160.20</ele><time>2011-03-20T07:32:41Z</time></trkpt><trkpt lat="52.847530" lon="25.176495"><ele>155.87</ele><time>2011-03-20T07:32:42Z</time></trkpt><trkpt lat="52.847546" lon="25.176430"><ele>158.75</ele><time>2011-03-20T07:32:44Z</time></trkpt><trkpt lat="52.847561" lon="25.176085"><ele>156.35</ele><time>2011-03-20T07:32:53Z</time></trkpt><trkpt lat="52.847549" lon="25.175949"><ele>159.24</ele><time>2011-03-20T07:32:56Z</time></trkpt><trkpt lat="52.847546" lon="25.175823"><ele>155.39</ele><time>2011-03-20T07:32:59Z</time></trkpt><trkpt lat="52.847546" lon="25.175776"><ele>156.83</ele><time>2011-03-20T07:33:00Z</time></trkpt><trkpt lat="52.847549" lon="25.175621"><ele>160.68</ele><time>2011-03-20T07:33:03Z</time></trkpt><trkpt lat="52.847553" lon="25.175570"><ele>160.20</ele><time>2011-03-20T07:33:04Z</time></trkpt><trkpt lat="52.847546" lon="25.175379"><ele>156.83</ele><time>2011-03-20T07:33:08Z</time></trkpt><trkpt lat="52.847549" lon="25.175188"><ele>160.20</ele><time>2011-03-20T07:33:12Z</time></trkpt><trkpt lat="52.847549" lon="25.175144"><ele>160.20</ele><time>2011-03-20T07:33:13Z</time></trkpt><trkpt lat="52.847546" lon="25.175098"><ele>155.39</ele><time>2011-03-20T07:33:14Z</time></trkpt><trkpt lat="52.847546" lon="25.175056"><ele>156.83</ele><time>2011-03-20T07:33:15Z</time></trkpt><trkpt lat="52.847546" lon="25.174973"><ele>160.68</ele><time>2011-03-20T07:33:17Z</time></trkpt><trkpt lat="52.847542" lon="25.174936"><ele>156.35</ele><time>2011-03-20T07:33:18Z</time></trkpt><trkpt lat="52.847538" lon="25.174894"><ele>159.72</ele><time>2011-03-20T07:33:19Z</time></trkpt><trkpt lat="52.847542" lon="25.174854"><ele>155.39</ele><time>2011-03-20T07:33:20Z</time></trkpt><trkpt lat="52.847542" lon="25.174770"><ele>160.20</ele><time>2011-03-20T07:33:22Z</time></trkpt><trkpt lat="52.847538" lon="25.174728"><ele>159.72</ele><time>2011-03-20T07:33:23Z</time></trkpt><trkpt lat="52.847534" lon="25.174686"><ele>154.91</ele><time>2011-03-20T07:33:24Z</time></trkpt><trkpt lat="52.847534" lon="25.174644"><ele>157.79</ele><time>2011-03-20T07:33:25Z</time></trkpt><trkpt lat="52.847527" lon="25.174561"><ele>159.72</ele><time>2011-03-20T07:33:27Z</time></trkpt><trkpt lat="52.847523" lon="25.174421"><ele>156.35</ele><time>2011-03-20T07:33:31Z</time></trkpt><trkpt lat="52.847519" lon="25.174391"><ele>159.72</ele><time>2011-03-20T07:33:32Z</time></trkpt><trkpt lat="52.847507" lon="25.174307"><ele>156.83</ele><time>2011-03-20T07:33:35Z</time></trkpt><trkpt lat="52.847549" lon="25.174223"><ele>159.24</ele><time>2011-03-20T07:33:39Z</time></trkpt><trkpt lat="52.847580" lon="25.174185"><ele>155.39</ele><time>2011-03-20T07:33:41Z</time></trkpt><trkpt lat="52.847595" lon="25.174160"><ele>155.87</ele><time>2011-03-20T07:33:42Z</time></trkpt><trkpt lat="52.847633" lon="25.174122"><ele>160.68</ele><time>2011-03-20T07:33:44Z</time></trkpt><trkpt lat="52.847652" lon="25.174097"><ele>155.87</ele><time>2011-03-20T07:33:45Z</time></trkpt><trkpt lat="52.847694" lon="25.174059"><ele>160.20</ele><time>2011-03-20T07:33:47Z</time></trkpt><trkpt lat="52.847717" lon="25.174042"><ele>159.72</ele><time>2011-03-20T07:33:48Z</time></trkpt><trkpt lat="52.847744" lon="25.174036"><ele>154.91</ele><time>2011-03-20T07:33:49Z</time></trkpt><trkpt lat="52.847771" lon="25.174028"><ele>158.27</ele><time>2011-03-20T07:33:50Z</time></trkpt><trkpt lat="52.847820" lon="25.174006"><ele>159.24</ele><time>2011-03-20T07:33:52Z</time></trkpt><trkpt lat="52.847843" lon="25.173996"><ele>155.39</ele><time>2011-03-20T07:33:53Z</time></trkpt><trkpt lat="52.847866" lon="25.173985"><ele>155.87</ele><time>2011-03-20T07:33:54Z</time></trkpt><trkpt lat="52.847912" lon="25.173964"><ele>159.24</ele><time>2011-03-20T07:33:56Z</time></trkpt><trkpt lat="52.848019" lon="25.173920"><ele>159.24</ele><time>2011-03-20T07:34:00Z</time></trkpt><trkpt lat="52.848190" lon="25.173847"><ele>155.87</ele><time>2011-03-20T07:34:07Z</time></trkpt><trkpt lat="52.848381" lon="25.173815"><ele>159.24</ele><time>2011-03-20T07:34:15Z</time></trkpt><trkpt lat="52.848392" lon="25.173771"><ele>156.83</ele><time>2011-03-20T07:34:28Z</time></trkpt><trkpt lat="52.848392" lon="25.173771"><ele>156.35</ele><time>2011-03-20T07:34:56Z</time></trkpt><trkpt lat="52.848396" lon="25.173775"><ele>157.79</ele><time>2011-03-20T07:35:23Z</time></trkpt><trkpt lat="52.848404" lon="25.173771"><ele>157.79</ele><time>2011-03-20T07:35:47Z</time></trkpt><trkpt lat="52.848404" lon="25.173771"><ele>157.31</ele><time>2011-03-20T07:36:06Z</time></trkpt><trkpt lat="52.848404" lon="25.173773"><ele>157.31</ele><time>2011-03-20T07:36:39Z</time></trkpt><trkpt lat="52.848404" lon="25.173773"><ele>157.31</ele><time>2011-03-20T07:37:12Z</time></trkpt><trkpt lat="52.848404" lon="25.173769"><ele>157.79</ele><time>2011-03-20T07:37:47Z</time></trkpt><trkpt lat="52.848400" lon="25.173767"><ele>157.31</ele><time>2011-03-20T07:38:26Z</time></trkpt><trkpt lat="52.848400" lon="25.173763"><ele>158.27</ele><time>2011-03-20T07:39:01Z</time></trkpt><trkpt lat="52.848400" lon="25.173763"><ele>157.79</ele><time>2011-03-20T07:39:36Z</time></trkpt><trkpt lat="52.848400" lon="25.173761"><ele>158.27</ele><time>2011-03-20T07:40:08Z</time></trkpt><trkpt lat="52.848400" lon="25.173765"><ele>158.27</ele><time>2011-03-20T07:40:28Z</time></trkpt><trkpt lat="52.848400" lon="25.173771"><ele>158.27</ele><time>2011-03-20T07:41:01Z</time></trkpt><trkpt lat="52.848400" lon="25.173771"><ele>158.75</ele><time>2011-03-20T07:41:29Z</time></trkpt><trkpt lat="52.848400" lon="25.173779"><ele>157.79</ele><time>2011-03-20T07:41:59Z</time></trkpt><trkpt lat="52.848404" lon="25.173784"><ele>158.75</ele><time>2011-03-20T07:42:20Z</time></trkpt><trkpt lat="52.848404" lon="25.173784"><ele>158.27</ele><time>2011-03-20T07:42:41Z</time></trkpt><trkpt lat="52.848400" lon="25.173796"><ele>158.75</ele><time>2011-03-20T07:43:04Z</time></trkpt><trkpt lat="52.848400" lon="25.173796"><ele>159.72</ele><time>2011-03-20T07:43:31Z</time></trkpt><trkpt lat="52.848431" lon="25.173826"><ele>159.24</ele><time>2011-03-20T07:43:37Z</time></trkpt><trkpt lat="52.848679" lon="25.173891"><ele>158.27</ele><time>2011-03-20T07:43:47Z</time></trkpt><trkpt lat="52.848953" lon="25.173779"><ele>158.75</ele><time>2011-03-20T07:44:01Z</time></trkpt><trkpt lat="52.849136" lon="25.173555"><ele>160.20</ele><time>2011-03-20T07:44:16Z</time></trkpt><trkpt lat="52.849159" lon="25.173576"><ele>159.24</ele><time>2011-03-20T07:44:19Z</time></trkpt><trkpt lat="52.849285" lon="25.173557"><ele>160.68</ele><time>2011-03-20T07:44:30Z</time></trkpt><trkpt lat="52.849308" lon="25.173532"><ele>160.20</ele><time>2011-03-20T07:44:33Z</time></trkpt><trkpt lat="52.849453" lon="25.173435"><ele>160.68</ele><time>2011-03-20T07:44:47Z</time></trkpt><trkpt lat="52.849552" lon="25.173397"><ele>160.68</ele><time>2011-03-20T07:44:55Z</time></trkpt><trkpt lat="52.849735" lon="25.173246"><ele>161.16</ele><time>2011-03-20T07:45:11Z</time></trkpt><trkpt lat="52.849903" lon="25.173124"><ele>160.68</ele><time>2011-03-20T07:45:25Z</time></trkpt><trkpt lat="52.850056" lon="25.172989"><ele>162.12</ele><time>2011-03-20T07:45:39Z</time></trkpt><trkpt lat="52.850201" lon="25.172850"><ele>161.64</ele><time>2011-03-20T07:45:52Z</time></trkpt><trkpt lat="52.850224" lon="25.172819"><ele>162.12</ele><time>2011-03-20T07:45:55Z</time></trkpt><trkpt lat="52.850300" lon="25.172720"><ele>162.12</ele><time>2011-03-20T07:46:03Z</time></trkpt><trkpt lat="52.850384" lon="25.172609"><ele>162.12</ele><time>2011-03-20T07:46:12Z</time></trkpt><trkpt lat="52.850502" lon="25.172369"><ele>162.12</ele><time>2011-03-20T07:46:26Z</time></trkpt><trkpt lat="52.850647" lon="25.172148"><ele>162.60</ele><time>2011-03-20T07:46:41Z</time></trkpt><trkpt lat="52.850800" lon="25.172012"><ele>162.12</ele><time>2011-03-20T07:46:55Z</time></trkpt><trkpt lat="52.850822" lon="25.171995"><ele>161.64</ele><time>2011-03-20T07:46:57Z</time></trkpt><trkpt lat="52.850964" lon="25.171844"><ele>161.64</ele><time>2011-03-20T07:47:10Z</time></trkpt><trkpt lat="52.851147" lon="25.171688"><ele>161.16</ele><time>2011-03-20T07:47:25Z</time></trkpt><trkpt lat="52.851303" lon="25.171570"><ele>161.64</ele><time>2011-03-20T07:47:38Z</time></trkpt><trkpt lat="52.851463" lon="25.171429"><ele>162.12</ele><time>2011-03-20T07:47:53Z</time></trkpt><trkpt lat="52.851624" lon="25.171324"><ele>162.60</ele><time>2011-03-20T07:48:05Z</time></trkpt><trkpt lat="52.851776" lon="25.171207"><ele>163.56</ele><time>2011-03-20T07:48:18Z</time></trkpt><trkpt lat="52.851883" lon="25.171062"><ele>163.56</ele><time>2011-03-20T07:48:30Z</time></trkpt><trkpt lat="52.852047" lon="25.170923"><ele>165.00</ele><time>2011-03-20T07:48:44Z</time></trkpt><trkpt lat="52.852222" lon="25.170792"><ele>165.00</ele><time>2011-03-20T07:48:58Z</time></trkpt><trkpt lat="52.852371" lon="25.170641"><ele>165.48</ele><time>2011-03-20T07:49:11Z</time></trkpt><trkpt lat="52.852432" lon="25.170593"><ele>165.48</ele><time>2011-03-20T07:49:17Z</time></trkpt><trkpt lat="52.852489" lon="25.170527"><ele>165.00</ele><time>2011-03-20T07:49:22Z</time></trkpt><trkpt lat="52.852596" lon="25.170448"><ele>165.00</ele><time>2011-03-20T07:49:37Z</time></trkpt><trkpt lat="52.852596" lon="25.170448"><ele>165.48</ele><time>2011-03-20T07:49:56Z</time></trkpt><trkpt lat="52.852596" lon="25.170448"><ele>161.64</ele><time>2011-03-20T07:50:17Z</time></trkpt><trkpt lat="52.852596" lon="25.170448"><ele>165.96</ele><time>2011-03-20T07:50:18Z</time></trkpt><trkpt lat="52.852596" lon="25.170448"><ele>165.00</ele><time>2011-03-20T07:50:28Z</time></trkpt><trkpt lat="52.852791" lon="25.170511"><ele>165.00</ele><time>2011-03-20T07:50:41Z</time></trkpt><trkpt lat="52.853020" lon="25.170565"><ele>164.52</ele><time>2011-03-20T07:50:57Z</time></trkpt><trkpt lat="52.853230" lon="25.170618"><ele>164.52</ele><time>2011-03-20T07:51:12Z</time></trkpt><trkpt lat="52.853447" lon="25.170702"><ele>164.04</ele><time>2011-03-20T07:51:28Z</time></trkpt><trkpt lat="52.853645" lon="25.170702"><ele>164.52</ele><time>2011-03-20T07:51:43Z</time></trkpt><trkpt lat="52.853870" lon="25.170715"><ele>163.56</ele><time>2011-03-20T07:51:59Z</time></trkpt><trkpt lat="52.854080" lon="25.170736"><ele>163.08</ele><time>2011-03-20T07:52:14Z</time></trkpt><trkpt lat="52.854263" lon="25.170753"><ele>164.04</ele><time>2011-03-20T07:52:28Z</time></trkpt><trkpt lat="52.854450" lon="25.170807"><ele>165.00</ele><time>2011-03-20T07:52:42Z</time></trkpt><trkpt lat="52.854641" lon="25.170849"><ele>163.56</ele><time>2011-03-20T07:52:56Z</time></trkpt><trkpt lat="52.854843" lon="25.170877"><ele>164.52</ele><time>2011-03-20T07:53:10Z</time></trkpt><trkpt lat="52.855045" lon="25.170952"><ele>165.00</ele><time>2011-03-20T07:53:25Z</time></trkpt><trkpt lat="52.855274" lon="25.171000"><ele>165.00</ele><time>2011-03-20T07:53:41Z</time></trkpt><trkpt lat="52.855488" lon="25.171087"><ele>165.00</ele><time>2011-03-20T07:53:56Z</time></trkpt><trkpt lat="52.855717" lon="25.171164"><ele>165.48</ele><time>2011-03-20T07:54:11Z</time></trkpt><trkpt lat="52.855892" lon="25.171175"><ele>165.00</ele><time>2011-03-20T07:54:23Z</time></trkpt><trkpt lat="52.856060" lon="25.171194"><ele>165.96</ele><time>2011-03-20T07:54:36Z</time></trkpt><trkpt lat="52.856255" lon="25.171228"><ele>166.45</ele><time>2011-03-20T07:54:51Z</time></trkpt><trkpt lat="52.856464" lon="25.171274"><ele>167.41</ele><time>2011-03-20T07:55:07Z</time></trkpt><trkpt lat="52.856636" lon="25.171328"><ele>167.89</ele><time>2011-03-20T07:55:20Z</time></trkpt><trkpt lat="52.856823" lon="25.171352"><ele>168.37</ele><time>2011-03-20T07:55:34Z</time></trkpt><trkpt lat="52.857018" lon="25.171381"><ele>168.85</ele><time>2011-03-20T07:55:48Z</time></trkpt><trkpt lat="52.857224" lon="25.171375"><ele>168.85</ele><time>2011-03-20T07:56:03Z</time></trkpt><trkpt lat="52.857414" lon="25.171408"><ele>169.33</ele><time>2011-03-20T07:56:17Z</time></trkpt><trkpt lat="52.857700" lon="25.171396"><ele>169.33</ele><time>2011-03-20T07:56:37Z</time></trkpt><trkpt lat="52.857960" lon="25.171379"><ele>169.33</ele><time>2011-03-20T07:56:55Z</time></trkpt><trkpt lat="52.858154" lon="25.171364"><ele>169.33</ele><time>2011-03-20T07:57:09Z</time></trkpt><trkpt lat="52.858349" lon="25.171347"><ele>169.33</ele><time>2011-03-20T07:57:24Z</time></trkpt><trkpt lat="52.858547" lon="25.171312"><ele>169.33</ele><time>2011-03-20T07:57:39Z</time></trkpt><trkpt lat="52.858749" lon="25.171251"><ele>169.33</ele><time>2011-03-20T07:57:54Z</time></trkpt><trkpt lat="52.858967" lon="25.171133"><ele>167.89</ele><time>2011-03-20T07:58:10Z</time></trkpt><trkpt lat="52.859138" lon="25.171061"><ele>167.89</ele><time>2011-03-20T07:58:24Z</time></trkpt><trkpt lat="52.859318" lon="25.170973"><ele>167.89</ele><time>2011-03-20T07:58:37Z</time></trkpt><trkpt lat="52.859558" lon="25.170818"><ele>166.93</ele><time>2011-03-20T07:58:55Z</time></trkpt><trkpt lat="52.859768" lon="25.170738"><ele>166.93</ele><time>2011-03-20T07:59:11Z</time></trkpt><trkpt lat="52.859970" lon="25.170719"><ele>165.00</ele><time>2011-03-20T07:59:26Z</time></trkpt><trkpt lat="52.860195" lon="25.170710"><ele>164.04</ele><time>2011-03-20T07:59:40Z</time></trkpt><trkpt lat="52.860386" lon="25.170654"><ele>162.60</ele><time>2011-03-20T07:59:54Z</time></trkpt><trkpt lat="52.860641" lon="25.170601"><ele>162.60</ele><time>2011-03-20T08:00:11Z</time></trkpt><trkpt lat="52.860874" lon="25.170616"><ele>161.64</ele><time>2011-03-20T08:00:27Z</time></trkpt><trkpt lat="52.861126" lon="25.170559"><ele>161.16</ele><time>2011-03-20T08:00:44Z</time></trkpt><trkpt lat="52.861336" lon="25.170547"><ele>161.16</ele><time>2011-03-20T08:00:59Z</time></trkpt><trkpt lat="52.861534" lon="25.170563"><ele>160.68</ele><time>2011-03-20T08:01:12Z</time></trkpt><trkpt lat="52.861759" lon="25.170546"><ele>161.16</ele><time>2011-03-20T08:01:27Z</time></trkpt><trkpt lat="52.862019" lon="25.170528"><ele>161.64</ele><time>2011-03-20T08:01:44Z</time></trkpt><trkpt lat="52.862251" lon="25.170544"><ele>162.12</ele><time>2011-03-20T08:02:00Z</time></trkpt><trkpt lat="52.862442" lon="25.170565"><ele>162.12</ele><time>2011-03-20T08:02:15Z</time></trkpt><trkpt lat="52.862644" lon="25.170557"><ele>164.52</ele><time>2011-03-20T08:02:30Z</time></trkpt><trkpt lat="52.862873" lon="25.170527"><ele>165.96</ele><time>2011-03-20T08:02:46Z</time></trkpt><trkpt lat="52.863117" lon="25.170525"><ele>165.96</ele><time>2011-03-20T08:03:02Z</time></trkpt><trkpt lat="52.863335" lon="25.170488"><ele>166.45</ele><time>2011-03-20T08:03:18Z</time></trkpt><trkpt lat="52.863567" lon="25.170452"><ele>167.89</ele><time>2011-03-20T08:03:35Z</time></trkpt><trkpt lat="52.863758" lon="25.170525"><ele>168.37</ele><time>2011-03-20T08:03:50Z</time></trkpt><trkpt lat="52.863926" lon="25.170645"><ele>167.89</ele><time>2011-03-20T08:04:03Z</time></trkpt><trkpt lat="52.863964" lon="25.170673"><ele>167.41</ele><time>2011-03-20T08:04:06Z</time></trkpt><trkpt lat="52.864208" lon="25.170780"><ele>167.41</ele><time>2011-03-20T08:04:25Z</time></trkpt><trkpt lat="52.864376" lon="25.170874"><ele>166.93</ele><time>2011-03-20T08:04:38Z</time></trkpt><trkpt lat="52.864414" lon="25.170900"><ele>166.45</ele><time>2011-03-20T08:04:41Z</time></trkpt><trkpt lat="52.864635" lon="25.171024"><ele>166.45</ele><time>2011-03-20T08:04:58Z</time></trkpt><trkpt lat="52.864849" lon="25.171152"><ele>165.96</ele><time>2011-03-20T08:05:13Z</time></trkpt><trkpt lat="52.865036" lon="25.171236"><ele>163.56</ele><time>2011-03-20T08:05:27Z</time></trkpt><trkpt lat="52.865299" lon="25.171326"><ele>161.64</ele><time>2011-03-20T08:05:44Z</time></trkpt><trkpt lat="52.865475" lon="25.171375"><ele>160.68</ele><time>2011-03-20T08:05:57Z</time></trkpt><trkpt lat="52.865685" lon="25.171404"><ele>160.20</ele><time>2011-03-20T08:06:12Z</time></trkpt><trkpt lat="52.865917" lon="25.171469"><ele>160.68</ele><time>2011-03-20T08:06:29Z</time></trkpt><trkpt lat="52.866112" lon="25.171652"><ele>160.20</ele><time>2011-03-20T08:06:45Z</time></trkpt><trkpt lat="52.866261" lon="25.171825"><ele>159.24</ele><time>2011-03-20T08:06:59Z</time></trkpt><trkpt lat="52.866364" lon="25.171946"><ele>159.24</ele><time>2011-03-20T08:07:08Z</time></trkpt><trkpt lat="52.866524" lon="25.172092"><ele>159.72</ele><time>2011-03-20T08:07:22Z</time></trkpt><trkpt lat="52.866547" lon="25.172134"><ele>158.75</ele><time>2011-03-20T08:07:25Z</time></trkpt><trkpt lat="52.866592" lon="25.172119"><ele>159.24</ele><time>2011-03-20T08:07:34Z</time></trkpt><trkpt lat="52.866650" lon="25.172045"><ele>159.72</ele><time>2011-03-20T08:07:39Z</time></trkpt><trkpt lat="52.866997" lon="25.171625"><ele>157.31</ele><time>2011-03-20T08:07:56Z</time></trkpt><trkpt lat="52.867332" lon="25.171385"><ele>157.79</ele><time>2011-03-20T08:08:12Z</time></trkpt><trkpt lat="52.867813" lon="25.171400"><ele>156.83</ele><time>2011-03-20T08:08:29Z</time></trkpt><trkpt lat="52.868221" lon="25.171345"><ele>156.35</ele><time>2011-03-20T08:08:44Z</time></trkpt><trkpt lat="52.868740" lon="25.171282"><ele>155.87</ele><time>2011-03-20T08:09:01Z</time></trkpt><trkpt lat="52.869232" lon="25.171236"><ele>156.83</ele><time>2011-03-20T08:09:17Z</time></trkpt><trkpt lat="52.869781" lon="25.171078"><ele>157.31</ele><time>2011-03-20T08:09:35Z</time></trkpt><trkpt lat="52.870422" lon="25.171057"><ele>159.24</ele><time>2011-03-20T08:09:55Z</time></trkpt><trkpt lat="52.870853" lon="25.171040"><ele>159.72</ele><time>2011-03-20T08:10:09Z</time></trkpt><trkpt lat="52.871407" lon="25.171043"><ele>160.20</ele><time>2011-03-20T08:10:26Z</time></trkpt><trkpt lat="52.871807" lon="25.171024"><ele>162.12</ele><time>2011-03-20T08:10:42Z</time></trkpt><trkpt lat="52.872253" lon="25.170984"><ele>163.56</ele><time>2011-03-20T08:10:58Z</time></trkpt><trkpt lat="52.872692" lon="25.171045"><ele>162.60</ele><time>2011-03-20T08:11:15Z</time></trkpt><trkpt lat="52.872723" lon="25.171503"><ele>161.16</ele><time>2011-03-20T08:11:23Z</time></trkpt><trkpt lat="52.872475" lon="25.173109"><ele>158.27</ele><time>2011-03-20T08:11:44Z</time></trkpt><trkpt lat="52.872280" lon="25.174307"><ele>157.31</ele><time>2011-03-20T08:12:00Z</time></trkpt><trkpt lat="52.872093" lon="25.175533"><ele>156.35</ele><time>2011-03-20T08:12:16Z</time></trkpt><trkpt lat="52.871975" lon="25.176735"><ele>156.35</ele><time>2011-03-20T08:12:32Z</time></trkpt><trkpt lat="52.872063" lon="25.177952"><ele>156.83</ele><time>2011-03-20T08:12:49Z</time></trkpt><trkpt lat="52.872181" lon="25.178743"><ele>156.83</ele><time>2011-03-20T08:13:03Z</time></trkpt><trkpt lat="52.872208" lon="25.178951"><ele>156.35</ele><time>2011-03-20T08:13:06Z</time></trkpt><trkpt lat="52.872330" lon="25.179771"><ele>156.35</ele><time>2011-03-20T08:13:18Z</time></trkpt><trkpt lat="52.872501" lon="25.180763"><ele>156.35</ele><time>2011-03-20T08:13:32Z</time></trkpt><trkpt lat="52.872631" lon="25.181803"><ele>156.83</ele><time>2011-03-20T08:13:47Z</time></trkpt><trkpt lat="52.872822" lon="25.182867"><ele>157.79</ele><time>2011-03-20T08:14:03Z</time></trkpt><trkpt lat="52.873184" lon="25.183353"><ele>158.27</ele><time>2011-03-20T08:14:15Z</time></trkpt><trkpt lat="52.873745" lon="25.183308"><ele>157.79</ele><time>2011-03-20T08:14:29Z</time></trkpt><trkpt lat="52.874481" lon="25.183006"><ele>157.79</ele><time>2011-03-20T08:14:47Z</time></trkpt><trkpt lat="52.875118" lon="25.182772"><ele>157.31</ele><time>2011-03-20T08:15:04Z</time></trkpt><trkpt lat="52.875866" lon="25.182524"><ele>158.27</ele><time>2011-03-20T08:15:26Z</time></trkpt><trkpt lat="52.876606" lon="25.182236"><ele>158.75</ele><time>2011-03-20T08:15:47Z</time></trkpt><trkpt lat="52.877388" lon="25.181965"><ele>159.24</ele><time>2011-03-20T08:16:07Z</time></trkpt><trkpt lat="52.878033" lon="25.181719"><ele>158.75</ele><time>2011-03-20T08:16:24Z</time></trkpt><trkpt lat="52.878361" lon="25.181585"><ele>160.68</ele><time>2011-03-20T08:16:39Z</time></trkpt><trkpt lat="52.878376" lon="25.181581"><ele>160.20</ele><time>2011-03-20T08:16:51Z</time></trkpt><trkpt lat="52.878708" lon="25.181444"><ele>160.20</ele><time>2011-03-20T08:17:05Z</time></trkpt><trkpt lat="52.879261" lon="25.181105"><ele>159.24</ele><time>2011-03-20T08:17:26Z</time></trkpt><trkpt lat="52.879799" lon="25.180567"><ele>159.24</ele><time>2011-03-20T08:17:45Z</time></trkpt><trkpt lat="52.880325" lon="25.180044"><ele>158.75</ele><time>2011-03-20T08:18:01Z</time></trkpt><trkpt lat="52.880920" lon="25.179325"><ele>158.27</ele><time>2011-03-20T08:18:20Z</time></trkpt><trkpt lat="52.881409" lon="25.178753"><ele>158.27</ele><time>2011-03-20T08:18:36Z</time></trkpt><trkpt lat="52.881996" lon="25.178116"><ele>159.24</ele><time>2011-03-20T08:18:55Z</time></trkpt><trkpt lat="52.882435" lon="25.177673"><ele>158.75</ele><time>2011-03-20T08:19:09Z</time></trkpt><trkpt lat="52.882885" lon="25.177183"><ele>159.24</ele><time>2011-03-20T08:19:27Z</time></trkpt><trkpt lat="52.883324" lon="25.176722"><ele>159.72</ele><time>2011-03-20T08:19:44Z</time></trkpt><trkpt lat="52.883770" lon="25.176247"><ele>160.20</ele><time>2011-03-20T08:20:02Z</time></trkpt><trkpt lat="52.884216" lon="25.175777"><ele>162.12</ele><time>2011-03-20T08:20:20Z</time></trkpt><trkpt lat="52.884602" lon="25.175392"><ele>163.08</ele><time>2011-03-20T08:20:37Z</time></trkpt><trkpt lat="52.884930" lon="25.175074"><ele>164.04</ele><time>2011-03-20T08:20:53Z</time></trkpt><trkpt lat="52.885353" lon="25.174614"><ele>165.00</ele><time>2011-03-20T08:21:11Z</time></trkpt><trkpt lat="52.885895" lon="25.174015"><ele>161.16</ele><time>2011-03-20T08:21:31Z</time></trkpt><trkpt lat="52.886482" lon="25.173395"><ele>159.72</ele><time>2011-03-20T08:21:48Z</time></trkpt><trkpt lat="52.887085" lon="25.173031"><ele>159.24</ele><time>2011-03-20T08:22:05Z</time></trkpt><trkpt lat="52.887547" lon="25.172541"><ele>158.27</ele><time>2011-03-20T08:22:20Z</time></trkpt><trkpt lat="52.887974" lon="25.171795"><ele>156.83</ele><time>2011-03-20T08:22:37Z</time></trkpt><trkpt lat="52.888378" lon="25.171137"><ele>158.75</ele><time>2011-03-20T08:22:55Z</time></trkpt><trkpt lat="52.888813" lon="25.170507"><ele>158.27</ele><time>2011-03-20T08:23:13Z</time></trkpt><trkpt lat="52.889065" lon="25.170086"><ele>158.75</ele><time>2011-03-20T08:23:23Z</time></trkpt><trkpt lat="52.889500" lon="25.169357"><ele>158.27</ele><time>2011-03-20T08:23:41Z</time></trkpt><trkpt lat="52.889950" lon="25.168638"><ele>158.27</ele><time>2011-03-20T08:23:59Z</time></trkpt><trkpt lat="52.890388" lon="25.167944"><ele>159.72</ele><time>2011-03-20T08:24:16Z</time></trkpt><trkpt lat="52.890636" lon="25.167545"><ele>159.24</ele><time>2011-03-20T08:24:30Z</time></trkpt><trkpt lat="52.891010" lon="25.166971"><ele>159.72</ele><time>2011-03-20T08:24:46Z</time></trkpt><trkpt lat="52.891354" lon="25.166391"><ele>159.24</ele><time>2011-03-20T08:25:02Z</time></trkpt><trkpt lat="52.891640" lon="25.165968"><ele>158.75</ele><time>2011-03-20T08:25:15Z</time></trkpt><trkpt lat="52.892025" lon="25.165304"><ele>159.72</ele><time>2011-03-20T08:25:33Z</time></trkpt><trkpt lat="52.892395" lon="25.164724"><ele>159.72</ele><time>2011-03-20T08:25:50Z</time></trkpt><trkpt lat="52.892807" lon="25.164040"><ele>159.24</ele><time>2011-03-20T08:26:08Z</time></trkpt><trkpt lat="52.893223" lon="25.163334"><ele>160.68</ele><time>2011-03-20T08:26:26Z</time></trkpt><trkpt lat="52.893665" lon="25.162615"><ele>161.16</ele><time>2011-03-20T08:26:45Z</time></trkpt><trkpt lat="52.894047" lon="25.162004"><ele>160.20</ele><time>2011-03-20T08:27:01Z</time></trkpt><trkpt lat="52.894367" lon="25.161486"><ele>160.20</ele><time>2011-03-20T08:27:15Z</time></trkpt><trkpt lat="52.894581" lon="25.161140"><ele>161.16</ele><time>2011-03-20T08:27:29Z</time></trkpt><trkpt lat="52.894581" lon="25.161140"><ele>161.16</ele><time>2011-03-20T08:28:03Z</time></trkpt><trkpt lat="52.894592" lon="25.161127"><ele>161.16</ele><time>2011-03-20T08:28:09Z</time></trkpt><trkpt lat="52.894604" lon="25.161104"><ele>160.68</ele><time>2011-03-20T08:28:10Z</time></trkpt><trkpt lat="52.894817" lon="25.160746"><ele>159.72</ele><time>2011-03-20T08:28:23Z</time></trkpt><trkpt lat="52.895306" lon="25.159941"><ele>157.79</ele><time>2011-03-20T08:28:41Z</time></trkpt><trkpt lat="52.895672" lon="25.159391"><ele>157.79</ele><time>2011-03-20T08:28:57Z</time></trkpt><trkpt lat="52.895966" lon="25.159086"><ele>158.27</ele><time>2011-03-20T08:29:14Z</time></trkpt><trkpt lat="52.896015" lon="25.158890"><ele>158.27</ele><time>2011-03-20T08:29:25Z</time></trkpt><trkpt lat="52.896038" lon="25.158880"><ele>158.27</ele><time>2011-03-20T08:29:28Z</time></trkpt><trkpt lat="52.896049" lon="25.158873"><ele>158.27</ele><time>2011-03-20T08:29:29Z</time></trkpt><trkpt lat="52.896072" lon="25.158848"><ele>159.72</ele><time>2011-03-20T08:29:45Z</time></trkpt><trkpt lat="52.896072" lon="25.158848"><ele>156.35</ele><time>2011-03-20T08:29:52Z</time></trkpt><trkpt lat="52.896072" lon="25.158848"><ele>160.20</ele><time>2011-03-20T08:29:53Z</time></trkpt><trkpt lat="52.896072" lon="25.158848"><ele>160.20</ele><time>2011-03-20T08:29:54Z</time></trkpt><trkpt lat="52.896069" lon="25.158846"><ele>159.24</ele><time>2011-03-20T08:30:21Z</time></trkpt><trkpt lat="52.896069" lon="25.158871"><ele>157.79</ele><time>2011-03-20T08:30:40Z</time></trkpt><trkpt lat="52.896069" lon="25.158871"><ele>158.75</ele><time>2011-03-20T08:30:43Z</time></trkpt><trkpt lat="52.896076" lon="25.158892"><ele>157.79</ele><time>2011-03-20T08:30:44Z</time></trkpt><trkpt lat="52.896427" lon="25.159094"><ele>156.83</ele><time>2011-03-20T08:30:59Z</time></trkpt><trkpt lat="52.896900" lon="25.159225"><ele>157.31</ele><time>2011-03-20T08:31:13Z</time></trkpt><trkpt lat="52.897514" lon="25.159410"><ele>158.27</ele><time>2011-03-20T08:31:32Z</time></trkpt><trkpt lat="52.898144" lon="25.159584"><ele>159.72</ele><time>2011-03-20T08:31:51Z</time></trkpt><trkpt lat="52.898636" lon="25.159739"><ele>160.68</ele><time>2011-03-20T08:32:05Z</time></trkpt><trkpt lat="52.899235" lon="25.159908"><ele>161.64</ele><time>2011-03-20T08:32:21Z</time></trkpt><trkpt lat="52.899357" lon="25.159945"><ele>161.64</ele><time>2011-03-20T08:32:24Z</time></trkpt><trkpt lat="52.899891" lon="25.160109"><ele>161.64</ele><time>2011-03-20T08:32:38Z</time></trkpt><trkpt lat="52.900520" lon="25.160309"><ele>161.64</ele><time>2011-03-20T08:32:54Z</time></trkpt><trkpt lat="52.900558" lon="25.160326"><ele>161.64</ele><time>2011-03-20T08:32:55Z</time></trkpt><trkpt lat="52.900604" lon="25.160339"><ele>161.64</ele><time>2011-03-20T08:32:56Z</time></trkpt><trkpt lat="52.900642" lon="25.160349"><ele>162.12</ele><time>2011-03-20T08:32:57Z</time></trkpt><trkpt lat="52.900684" lon="25.160362"><ele>161.64</ele><time>2011-03-20T08:32:58Z</time></trkpt><trkpt lat="52.901470" lon="25.160616"><ele>161.16</ele><time>2011-03-20T08:33:16Z</time></trkpt><trkpt lat="52.902145" lon="25.160824"><ele>161.16</ele><time>2011-03-20T08:33:31Z</time></trkpt><trkpt lat="52.902863" lon="25.160969"><ele>161.16</ele><time>2011-03-20T08:33:48Z</time></trkpt><trkpt lat="52.903442" lon="25.161001"><ele>162.60</ele><time>2011-03-20T08:34:04Z</time></trkpt><trkpt lat="52.903519" lon="25.161003"><ele>161.16</ele><time>2011-03-20T08:34:06Z</time></trkpt><trkpt lat="52.904140" lon="25.161001"><ele>162.12</ele><time>2011-03-20T08:34:21Z</time></trkpt><trkpt lat="52.904812" lon="25.161005"><ele>163.08</ele><time>2011-03-20T08:34:38Z</time></trkpt><trkpt lat="52.905437" lon="25.161013"><ele>161.64</ele><time>2011-03-20T08:34:53Z</time></trkpt><trkpt lat="52.905941" lon="25.160999"><ele>161.64</ele><time>2011-03-20T08:35:07Z</time></trkpt><trkpt lat="52.906574" lon="25.160990"><ele>160.20</ele><time>2011-03-20T08:35:22Z</time></trkpt><trkpt lat="52.907169" lon="25.160976"><ele>160.20</ele><time>2011-03-20T08:35:36Z</time></trkpt><trkpt lat="52.907883" lon="25.160971"><ele>158.75</ele><time>2011-03-20T08:35:52Z</time></trkpt><trkpt lat="52.908726" lon="25.161121"><ele>157.79</ele><time>2011-03-20T08:36:10Z</time></trkpt><trkpt lat="52.909374" lon="25.161285"><ele>158.75</ele><time>2011-03-20T08:36:27Z</time></trkpt><trkpt lat="52.910061" lon="25.161306"><ele>158.75</ele><time>2011-03-20T08:36:45Z</time></trkpt><trkpt lat="52.910595" lon="25.161003"><ele>158.27</ele><time>2011-03-20T08:37:00Z</time></trkpt><trkpt lat="52.911118" lon="25.160595"><ele>158.75</ele><time>2011-03-20T08:37:18Z</time></trkpt><trkpt lat="52.911663" lon="25.160355"><ele>158.75</ele><time>2011-03-20T08:37:36Z</time></trkpt><trkpt lat="52.912033" lon="25.161009"><ele>159.72</ele><time>2011-03-20T08:37:51Z</time></trkpt><trkpt lat="52.912510" lon="25.161840"><ele>160.68</ele><time>2011-03-20T08:38:09Z</time></trkpt><trkpt lat="52.912971" lon="25.162672"><ele>161.64</ele><time>2011-03-20T08:38:26Z</time></trkpt><trkpt lat="52.913361" lon="25.163363"><ele>163.08</ele><time>2011-03-20T08:38:40Z</time></trkpt><trkpt lat="52.913864" lon="25.164274"><ele>163.08</ele><time>2011-03-20T08:38:58Z</time></trkpt><trkpt lat="52.914280" lon="25.165018"><ele>164.04</ele><time>2011-03-20T08:39:12Z</time></trkpt><trkpt lat="52.914780" lon="25.165899"><ele>164.52</ele><time>2011-03-20T08:39:30Z</time></trkpt><trkpt lat="52.915173" lon="25.166618"><ele>163.56</ele><time>2011-03-20T08:39:45Z</time></trkpt><trkpt lat="52.915199" lon="25.167124"><ele>163.56</ele><time>2011-03-20T08:39:57Z</time></trkpt><trkpt lat="52.915264" lon="25.167204"><ele>163.08</ele><time>2011-03-20T08:40:02Z</time></trkpt><trkpt lat="52.915283" lon="25.167198"><ele>163.08</ele><time>2011-03-20T08:40:03Z</time></trkpt><trkpt lat="52.915302" lon="25.167192"><ele>163.56</ele><time>2011-03-20T08:40:04Z</time></trkpt><trkpt lat="52.915581" lon="25.167339"><ele>163.08</ele><time>2011-03-20T08:40:18Z</time></trkpt><trkpt lat="52.915638" lon="25.167515"><ele>163.08</ele><time>2011-03-20T08:40:34Z</time></trkpt><trkpt lat="52.915699" lon="25.167526"><ele>163.56</ele><time>2011-03-20T08:40:50Z</time></trkpt><trkpt lat="52.915783" lon="25.167646"><ele>164.04</ele><time>2011-03-20T08:41:06Z</time></trkpt><trkpt lat="52.915844" lon="25.167801"><ele>164.52</ele><time>2011-03-20T08:41:21Z</time></trkpt><trkpt lat="52.915848" lon="25.167820"><ele>164.52</ele><time>2011-03-20T08:41:46Z</time></trkpt><trkpt lat="52.915844" lon="25.167814"><ele>163.56</ele><time>2011-03-20T08:42:06Z</time></trkpt><trkpt lat="52.915852" lon="25.167784"><ele>163.56</ele><time>2011-03-20T08:42:08Z</time></trkpt><trkpt lat="52.915859" lon="25.167768"><ele>163.56</ele><time>2011-03-20T08:42:09Z</time></trkpt><trkpt lat="52.915974" lon="25.167557"><ele>163.08</ele><time>2011-03-20T08:42:24Z</time></trkpt><trkpt lat="52.916008" lon="25.167549"><ele>163.08</ele><time>2011-03-20T08:42:33Z</time></trkpt><trkpt lat="52.916019" lon="25.167540"><ele>163.08</ele><time>2011-03-20T08:42:34Z</time></trkpt><trkpt lat="52.916035" lon="25.167540"><ele>163.56</ele><time>2011-03-20T08:42:35Z</time></trkpt><trkpt lat="52.916096" lon="25.167494"><ele>163.56</ele><time>2011-03-20T08:42:49Z</time></trkpt><trkpt lat="52.916096" lon="25.167479"><ele>162.60</ele><time>2011-03-20T08:42:50Z</time></trkpt><trkpt lat="52.916088" lon="25.167383"><ele>163.08</ele><time>2011-03-20T08:43:06Z</time></trkpt><trkpt lat="52.916088" lon="25.167383"><ele>162.60</ele><time>2011-03-20T08:43:13Z</time></trkpt><trkpt lat="52.916058" lon="25.167391"><ele>163.08</ele><time>2011-03-20T08:43:16Z</time></trkpt><trkpt lat="52.915901" lon="25.167480"><ele>164.04</ele><time>2011-03-20T08:43:33Z</time></trkpt><trkpt lat="52.915794" lon="25.167500"><ele>165.48</ele><time>2011-03-20T08:43:44Z</time></trkpt><trkpt lat="52.915730" lon="25.167480"><ele>164.04</ele><time>2011-03-20T08:44:00Z</time></trkpt><trkpt lat="52.915676" lon="25.167471"><ele>164.52</ele><time>2011-03-20T08:44:14Z</time></trkpt><trkpt lat="52.915634" lon="25.167461"><ele>164.04</ele><time>2011-03-20T08:44:28Z</time></trkpt><trkpt lat="52.915630" lon="25.167477"><ele>164.04</ele><time>2011-03-20T08:44:42Z</time></trkpt><trkpt lat="52.915627" lon="25.167480"><ele>164.04</ele><time>2011-03-20T08:44:51Z</time></trkpt><trkpt lat="52.915638" lon="25.167484"><ele>164.04</ele><time>2011-03-20T08:44:52Z</time></trkpt><trkpt lat="52.915653" lon="25.167490"><ele>163.08</ele><time>2011-03-20T08:44:53Z</time></trkpt><trkpt lat="52.915665" lon="25.167498"><ele>163.56</ele><time>2011-03-20T08:44:54Z</time></trkpt><trkpt lat="52.915676" lon="25.167505"><ele>164.04</ele><time>2011-03-20T08:44:55Z</time></trkpt><trkpt lat="52.915684" lon="25.167513"><ele>164.04</ele><time>2011-03-20T08:44:56Z</time></trkpt><trkpt lat="52.915695" lon="25.167524"><ele>163.56</ele><time>2011-03-20T08:44:57Z</time></trkpt><trkpt lat="52.915718" lon="25.167572"><ele>164.04</ele><time>2011-03-20T08:45:00Z</time></trkpt><trkpt lat="52.915726" lon="25.167587"><ele>163.56</ele><time>2011-03-20T08:45:01Z</time></trkpt><trkpt lat="52.915730" lon="25.167604"><ele>163.56</ele><time>2011-03-20T08:45:02Z</time></trkpt><trkpt lat="52.915737" lon="25.167620"><ele>163.56</ele><time>2011-03-20T08:45:03Z</time></trkpt><trkpt lat="52.915752" lon="25.167698"><ele>164.52</ele><time>2011-03-20T08:45:08Z</time></trkpt><trkpt lat="52.915756" lon="25.167809"><ele>164.52</ele><time>2011-03-20T08:45:17Z</time></trkpt><trkpt lat="52.915752" lon="25.167833"><ele>165.00</ele><time>2011-03-20T08:45:18Z</time></trkpt><trkpt lat="52.915745" lon="25.167854"><ele>165.00</ele><time>2011-03-20T08:45:19Z</time></trkpt><trkpt lat="52.915737" lon="25.167875"><ele>164.52</ele><time>2011-03-20T08:45:20Z</time></trkpt><trkpt lat="52.915722" lon="25.167896"><ele>165.00</ele><time>2011-03-20T08:45:21Z</time></trkpt><trkpt lat="52.915710" lon="25.167929"><ele>165.00</ele><time>2011-03-20T08:45:22Z</time></trkpt><trkpt lat="52.915703" lon="25.167963"><ele>165.00</ele><time>2011-03-20T08:45:23Z</time></trkpt><trkpt lat="52.915489" lon="25.168650"><ele>165.48</ele><time>2011-03-20T08:45:41Z</time></trkpt><trkpt lat="52.915329" lon="25.169115"><ele>165.96</ele><time>2011-03-20T08:45:56Z</time></trkpt><trkpt lat="52.915325" lon="25.169085"><ele>165.48</ele><time>2011-03-20T08:45:58Z</time></trkpt><trkpt lat="52.915417" lon="25.168880"><ele>165.96</ele><time>2011-03-20T08:46:02Z</time></trkpt><trkpt lat="52.915741" lon="25.168039"><ele>164.04</ele><time>2011-03-20T08:46:17Z</time></trkpt><trkpt lat="52.916084" lon="25.167341"><ele>163.08</ele><time>2011-03-20T08:46:32Z</time></trkpt><trkpt lat="52.916218" lon="25.166624"><ele>163.56</ele><time>2011-03-20T08:46:44Z</time></trkpt><trkpt lat="52.916286" lon="25.165758"><ele>162.12</ele><time>2011-03-20T08:46:57Z</time></trkpt><trkpt lat="52.916393" lon="25.164602"><ele>161.64</ele><time>2011-03-20T08:47:14Z</time></trkpt><trkpt lat="52.916489" lon="25.163462"><ele>162.12</ele><time>2011-03-20T08:47:32Z</time></trkpt><trkpt lat="52.916580" lon="25.162472"><ele>161.16</ele><time>2011-03-20T08:47:50Z</time></trkpt><trkpt lat="52.916668" lon="25.162157"><ele>161.64</ele><time>2011-03-20T08:48:03Z</time></trkpt><trkpt lat="52.916683" lon="25.162165"><ele>162.12</ele><time>2011-03-20T08:48:09Z</time></trkpt><trkpt lat="52.916840" lon="25.162256"><ele>161.16</ele><time>2011-03-20T08:48:22Z</time></trkpt><trkpt lat="52.917038" lon="25.162502"><ele>160.20</ele><time>2011-03-20T08:48:35Z</time></trkpt><trkpt lat="52.917065" lon="25.162792"><ele>161.16</ele><time>2011-03-20T08:48:47Z</time></trkpt><trkpt lat="52.917011" lon="25.162806"><ele>161.16</ele><time>2011-03-20T08:48:51Z</time></trkpt><trkpt lat="52.916798" lon="25.162766"><ele>161.16</ele><time>2011-03-20T08:49:04Z</time></trkpt><trkpt lat="52.916565" lon="25.162704"><ele>161.64</ele><time>2011-03-20T08:49:20Z</time></trkpt><trkpt lat="52.916576" lon="25.162647"><ele>162.12</ele><time>2011-03-20T08:49:24Z</time></trkpt><trkpt lat="52.916553" lon="25.162651"><ele>161.64</ele><time>2011-03-20T08:49:26Z</time></trkpt><trkpt lat="52.916481" lon="25.162685"><ele>160.68</ele><time>2011-03-20T08:49:40Z</time></trkpt><trkpt lat="52.916492" lon="25.162622"><ele>162.12</ele><time>2011-03-20T08:49:54Z</time></trkpt><trkpt lat="52.916504" lon="25.162657"><ele>161.16</ele><time>2011-03-20T08:49:59Z</time></trkpt><trkpt lat="52.916496" lon="25.162672"><ele>163.08</ele><time>2011-03-20T08:50:03Z</time></trkpt><trkpt lat="52.916481" lon="25.162663"><ele>162.12</ele><time>2011-03-20T08:50:05Z</time></trkpt><trkpt lat="52.916523" lon="25.162766"><ele>161.16</ele><time>2011-03-20T08:50:19Z</time></trkpt><trkpt lat="52.916527" lon="25.162771"><ele>161.64</ele><time>2011-03-20T08:50:32Z</time></trkpt><trkpt lat="52.916531" lon="25.162758"><ele>161.64</ele><time>2011-03-20T08:50:36Z</time></trkpt><trkpt lat="52.916618" lon="25.162474"><ele>161.64</ele><time>2011-03-20T08:50:50Z</time></trkpt><trkpt lat="52.916676" lon="25.162186"><ele>161.16</ele><time>2011-03-20T08:51:03Z</time></trkpt><trkpt lat="52.916653" lon="25.162117"><ele>162.12</ele><time>2011-03-20T08:51:21Z</time></trkpt><trkpt lat="52.916630" lon="25.162119"><ele>161.64</ele><time>2011-03-20T08:51:34Z</time></trkpt><trkpt lat="52.916603" lon="25.162195"><ele>161.64</ele><time>2011-03-20T08:51:52Z</time></trkpt><trkpt lat="52.916573" lon="25.162374"><ele>161.64</ele><time>2011-03-20T08:52:07Z</time></trkpt><trkpt lat="52.916622" lon="25.162504"><ele>162.12</ele><time>2011-03-20T08:52:22Z</time></trkpt><trkpt lat="52.916599" lon="25.162512"><ele>161.64</ele><time>2011-03-20T08:52:40Z</time></trkpt><trkpt lat="52.916477" lon="25.162628"><ele>161.16</ele><time>2011-03-20T08:52:54Z</time></trkpt><trkpt lat="52.916462" lon="25.162647"><ele>163.08</ele><time>2011-03-20T08:52:56Z</time></trkpt><trkpt lat="52.916458" lon="25.162653"><ele>163.08</ele><time>2011-03-20T08:52:57Z</time></trkpt><trkpt lat="52.916458" lon="25.162653"><ele>163.08</ele><time>2011-03-20T08:53:28Z</time></trkpt><trkpt lat="52.916462" lon="25.162653"><ele>159.72</ele><time>2011-03-20T08:53:55Z</time></trkpt><trkpt lat="52.916462" lon="25.162653"><ele>163.56</ele><time>2011-03-20T08:53:56Z</time></trkpt><trkpt lat="52.916462" lon="25.162653"><ele>163.08</ele><time>2011-03-20T08:54:02Z</time></trkpt><trkpt lat="52.916462" lon="25.162653"><ele>162.12</ele><time>2011-03-20T08:54:04Z</time></trkpt><trkpt lat="52.916462" lon="25.162657"><ele>161.64</ele><time>2011-03-20T08:54:21Z</time></trkpt><trkpt lat="52.916492" lon="25.162632"><ele>161.64</ele><time>2011-03-20T08:54:26Z</time></trkpt><trkpt lat="52.916557" lon="25.162354"><ele>161.64</ele><time>2011-03-20T08:54:31Z</time></trkpt><trkpt lat="52.916645" lon="25.161684"><ele>161.64</ele><time>2011-03-20T08:54:46Z</time></trkpt><trkpt lat="52.916611" lon="25.161352"><ele>161.64</ele><time>2011-03-20T08:54:58Z</time></trkpt><trkpt lat="52.916485" lon="25.160870"><ele>161.64</ele><time>2011-03-20T08:55:12Z</time></trkpt><trkpt lat="52.916451" lon="25.160650"><ele>162.12</ele><time>2011-03-20T08:55:23Z</time></trkpt><trkpt lat="52.916451" lon="25.160650"><ele>161.16</ele><time>2011-03-20T08:55:33Z</time></trkpt><trkpt lat="52.916389" lon="25.160629"><ele>161.16</ele><time>2011-03-20T08:55:37Z</time></trkpt><trkpt lat="52.916100" lon="25.160538"><ele>160.68</ele><time>2011-03-20T08:55:52Z</time></trkpt><trkpt lat="52.915741" lon="25.160517"><ele>161.16</ele><time>2011-03-20T08:56:07Z</time></trkpt><trkpt lat="52.915405" lon="25.160475"><ele>161.16</ele><time>2011-03-20T08:56:20Z</time></trkpt><trkpt lat="52.915287" lon="25.160439"><ele>160.20</ele><time>2011-03-20T08:56:34Z</time></trkpt><trkpt lat="52.915325" lon="25.160446"><ele>160.68</ele><time>2011-03-20T08:56:35Z</time></trkpt><trkpt lat="52.915859" lon="25.160568"><ele>161.64</ele><time>2011-03-20T08:56:47Z</time></trkpt><trkpt lat="52.916290" lon="25.160885"><ele>162.60</ele><time>2011-03-20T08:57:00Z</time></trkpt><trkpt lat="52.916233" lon="25.161674"><ele>162.12</ele><time>2011-03-20T08:57:12Z</time></trkpt><trkpt lat="52.916523" lon="25.162230"><ele>162.12</ele><time>2011-03-20T08:57:24Z</time></trkpt><trkpt lat="52.916527" lon="25.162729"><ele>161.64</ele><time>2011-03-20T08:57:33Z</time></trkpt><trkpt lat="52.916481" lon="25.163111"><ele>161.64</ele><time>2011-03-20T08:57:38Z</time></trkpt><trkpt lat="52.916355" lon="25.164457"><ele>162.60</ele><time>2011-03-20T08:57:55Z</time></trkpt><trkpt lat="52.916328" lon="25.164703"><ele>162.60</ele><time>2011-03-20T08:57:59Z</time></trkpt><trkpt lat="52.916218" lon="25.165932"><ele>163.08</ele><time>2011-03-20T08:58:15Z</time></trkpt><trkpt lat="52.916138" lon="25.166880"><ele>163.08</ele><time>2011-03-20T08:58:29Z</time></trkpt><trkpt lat="52.916161" lon="25.167456"><ele>163.08</ele><time>2011-03-20T08:58:41Z</time></trkpt><trkpt lat="52.916298" lon="25.167496"><ele>163.08</ele><time>2011-03-20T08:58:45Z</time></trkpt><trkpt lat="52.916912" lon="25.167465"><ele>162.12</ele><time>2011-03-20T08:58:59Z</time></trkpt><trkpt lat="52.917534" lon="25.167429"><ele>161.16</ele><time>2011-03-20T08:59:13Z</time></trkpt><trkpt lat="52.918125" lon="25.167374"><ele>161.16</ele><time>2011-03-20T08:59:27Z</time></trkpt><trkpt lat="52.918770" lon="25.167286"><ele>162.60</ele><time>2011-03-20T08:59:43Z</time></trkpt><trkpt lat="52.919380" lon="25.167204"><ele>163.56</ele><time>2011-03-20T08:59:59Z</time></trkpt><trkpt lat="52.920189" lon="25.167110"><ele>165.96</ele><time>2011-03-20T09:00:20Z</time></trkpt><trkpt lat="52.920849" lon="25.167015"><ele>166.45</ele><time>2011-03-20T09:00:36Z</time></trkpt><trkpt lat="52.921539" lon="25.166931"><ele>167.41</ele><time>2011-03-20T09:00:52Z</time></trkpt><trkpt lat="52.922237" lon="25.166836"><ele>168.37</ele><time>2011-03-20T09:01:09Z</time></trkpt><trkpt lat="52.922905" lon="25.166740"><ele>168.37</ele><time>2011-03-20T09:01:27Z</time></trkpt><trkpt lat="52.923115" lon="25.166306"><ele>168.37</ele><time>2011-03-20T09:01:38Z</time></trkpt><trkpt lat="52.923275" lon="25.165104"><ele>168.37</ele><time>2011-03-20T09:01:56Z</time></trkpt><trkpt lat="52.923424" lon="25.163780"><ele>167.89</ele><time>2011-03-20T09:02:14Z</time></trkpt><trkpt lat="52.923569" lon="25.162331"><ele>165.00</ele><time>2011-03-20T09:02:33Z</time></trkpt><trkpt lat="52.923710" lon="25.160900"><ele>162.60</ele><time>2011-03-20T09:02:52Z</time></trkpt><trkpt lat="52.923752" lon="25.159697"><ele>161.64</ele><time>2011-03-20T09:03:09Z</time></trkpt><trkpt lat="52.923695" lon="25.158632"><ele>161.16</ele><time>2011-03-20T09:03:24Z</time></trkpt><trkpt lat="52.923668" lon="25.158075"><ele>162.12</ele><time>2011-03-20T09:03:37Z</time></trkpt><trkpt lat="52.923630" lon="25.157625"><ele>161.16</ele><time>2011-03-20T09:03:50Z</time></trkpt><trkpt lat="52.923626" lon="25.156799"><ele>160.68</ele><time>2011-03-20T09:04:05Z</time></trkpt><trkpt lat="52.923622" lon="25.155828"><ele>159.24</ele><time>2011-03-20T09:04:22Z</time></trkpt><trkpt lat="52.923763" lon="25.155054"><ele>160.20</ele><time>2011-03-20T09:04:38Z</time></trkpt><trkpt lat="52.923962" lon="25.154224"><ele>161.16</ele><time>2011-03-20T09:04:56Z</time></trkpt><trkpt lat="52.924294" lon="25.153095"><ele>162.12</ele><time>2011-03-20T09:05:21Z</time></trkpt><trkpt lat="52.924549" lon="25.152252"><ele>163.56</ele><time>2011-03-20T09:05:39Z</time></trkpt><trkpt lat="52.924751" lon="25.151636"><ele>166.93</ele><time>2011-03-20T09:05:53Z</time></trkpt><trkpt lat="52.925079" lon="25.150623"><ele>165.96</ele><time>2011-03-20T09:06:16Z</time></trkpt><trkpt lat="52.925404" lon="25.149645"><ele>167.41</ele><time>2011-03-20T09:06:37Z</time></trkpt><trkpt lat="52.925747" lon="25.148617"><ele>169.33</ele><time>2011-03-20T09:07:00Z</time></trkpt><trkpt lat="52.926060" lon="25.147654"><ele>169.81</ele><time>2011-03-20T09:07:21Z</time></trkpt><trkpt lat="52.926388" lon="25.146652"><ele>171.25</ele><time>2011-03-20T09:07:43Z</time></trkpt><trkpt lat="52.926716" lon="25.145672"><ele>169.81</ele><time>2011-03-20T09:08:03Z</time></trkpt><trkpt lat="52.927055" lon="25.144688"><ele>170.29</ele><time>2011-03-20T09:08:22Z</time></trkpt><trkpt lat="52.927364" lon="25.143898"><ele>168.85</ele><time>2011-03-20T09:08:42Z</time></trkpt><trkpt lat="52.927479" lon="25.143814"><ele>169.81</ele><time>2011-03-20T09:08:54Z</time></trkpt><trkpt lat="52.927486" lon="25.143820"><ele>169.33</ele><time>2011-03-20T09:09:09Z</time></trkpt><trkpt lat="52.927486" lon="25.143820"><ele>170.29</ele><time>2011-03-20T09:09:11Z</time></trkpt><trkpt lat="52.927479" lon="25.143820"><ele>170.29</ele><time>2011-03-20T09:09:39Z</time></trkpt><trkpt lat="52.927475" lon="25.143816"><ele>169.81</ele><time>2011-03-20T09:10:03Z</time></trkpt><trkpt lat="52.927471" lon="25.143808"><ele>163.56</ele><time>2011-03-20T09:10:15Z</time></trkpt><trkpt lat="52.927471" lon="25.143808"><ele>170.77</ele><time>2011-03-20T09:10:16Z</time></trkpt><trkpt lat="52.927471" lon="25.143808"><ele>168.85</ele><time>2011-03-20T09:10:21Z</time></trkpt><trkpt lat="52.927471" lon="25.143806"><ele>169.33</ele><time>2011-03-20T09:10:51Z</time></trkpt><trkpt lat="52.927471" lon="25.143806"><ele>169.33</ele><time>2011-03-20T09:11:17Z</time></trkpt><trkpt lat="52.927464" lon="25.143797"><ele>170.29</ele><time>2011-03-20T09:11:46Z</time></trkpt><trkpt lat="52.927464" lon="25.143797"><ele>170.29</ele><time>2011-03-20T09:12:08Z</time></trkpt><trkpt lat="52.927471" lon="25.143795"><ele>169.81</ele><time>2011-03-20T09:12:31Z</time></trkpt><trkpt lat="52.927471" lon="25.143791"><ele>170.29</ele><time>2011-03-20T09:12:49Z</time></trkpt><trkpt lat="52.927471" lon="25.143791"><ele>170.29</ele><time>2011-03-20T09:13:10Z</time></trkpt><trkpt lat="52.927475" lon="25.143812"><ele>169.81</ele><time>2011-03-20T09:13:24Z</time></trkpt><trkpt lat="52.927479" lon="25.143826"><ele>169.81</ele><time>2011-03-20T09:13:25Z</time></trkpt><trkpt lat="52.927486" lon="25.143837"><ele>169.81</ele><time>2011-03-20T09:13:26Z</time></trkpt><trkpt lat="52.927517" lon="25.143862"><ele>169.81</ele><time>2011-03-20T09:13:36Z</time></trkpt><trkpt lat="52.927547" lon="25.143879"><ele>169.81</ele><time>2011-03-20T09:13:38Z</time></trkpt><trkpt lat="52.927979" lon="25.144022"><ele>168.85</ele><time>2011-03-20T09:13:54Z</time></trkpt><trkpt lat="52.928612" lon="25.144220"><ele>168.85</ele><time>2011-03-20T09:14:15Z</time></trkpt><trkpt lat="52.929382" lon="25.144461"><ele>170.29</ele><time>2011-03-20T09:14:39Z</time></trkpt><trkpt lat="52.930004" lon="25.144648"><ele>171.25</ele><time>2011-03-20T09:14:59Z</time></trkpt><trkpt lat="52.930737" lon="25.144880"><ele>171.25</ele><time>2011-03-20T09:15:21Z</time></trkpt><trkpt lat="52.931355" lon="25.145077"><ele>171.25</ele><time>2011-03-20T09:15:39Z</time></trkpt><trkpt lat="52.932064" lon="25.145300"><ele>170.77</ele><time>2011-03-20T09:15:59Z</time></trkpt><trkpt lat="52.932560" lon="25.145445"><ele>170.77</ele><time>2011-03-20T09:16:15Z</time></trkpt><trkpt lat="52.933247" lon="25.145679"><ele>170.29</ele><time>2011-03-20T09:16:36Z</time></trkpt><trkpt lat="52.933907" lon="25.145931"><ele>168.85</ele><time>2011-03-20T09:16:54Z</time></trkpt><trkpt lat="52.934586" lon="25.146154"><ele>165.48</ele><time>2011-03-20T09:17:11Z</time></trkpt><trkpt lat="52.935356" lon="25.146441"><ele>165.00</ele><time>2011-03-20T09:17:31Z</time></trkpt><trkpt lat="52.935936" lon="25.146656"><ele>166.45</ele><time>2011-03-20T09:17:50Z</time></trkpt><trkpt lat="52.936558" lon="25.146893"><ele>167.41</ele><time>2011-03-20T09:18:11Z</time></trkpt><trkpt lat="52.937294" lon="25.147179"><ele>167.41</ele><time>2011-03-20T09:18:34Z</time></trkpt><trkpt lat="52.938011" lon="25.147457"><ele>168.37</ele><time>2011-03-20T09:18:55Z</time></trkpt><trkpt lat="52.938736" lon="25.147726"><ele>169.81</ele><time>2011-03-20T09:19:17Z</time></trkpt><trkpt lat="52.939411" lon="25.147993"><ele>171.25</ele><time>2011-03-20T09:19:39Z</time></trkpt><trkpt lat="52.939804" lon="25.148129"><ele>171.73</ele><time>2011-03-20T09:19:57Z</time></trkpt><trkpt lat="52.939804" lon="25.148129"><ele>171.73</ele><time>2011-03-20T09:20:17Z</time></trkpt><trkpt lat="52.939804" lon="25.148127"><ele>172.21</ele><time>2011-03-20T09:20:55Z</time></trkpt><trkpt lat="52.939800" lon="25.148127"><ele>172.21</ele><time>2011-03-20T09:21:29Z</time></trkpt><trkpt lat="52.939800" lon="25.148127"><ele>172.21</ele><time>2011-03-20T09:21:34Z</time></trkpt><trkpt lat="52.939823" lon="25.148146"><ele>172.21</ele><time>2011-03-20T09:21:37Z</time></trkpt><trkpt lat="52.940216" lon="25.148268"><ele>171.25</ele><time>2011-03-20T09:21:51Z</time></trkpt><trkpt lat="52.940651" lon="25.148426"><ele>170.29</ele><time>2011-03-20T09:22:05Z</time></trkpt><trkpt lat="52.941261" lon="25.148678"><ele>169.33</ele><time>2011-03-20T09:22:24Z</time></trkpt><trkpt lat="52.941792" lon="25.148901"><ele>167.41</ele><time>2011-03-20T09:22:41Z</time></trkpt><trkpt lat="52.942135" lon="25.149122"><ele>165.00</ele><time>2011-03-20T09:22:52Z</time></trkpt><trkpt lat="52.942722" lon="25.149738"><ele>162.60</ele><time>2011-03-20T09:23:08Z</time></trkpt><trkpt lat="52.943344" lon="25.150126"><ele>162.60</ele><time>2011-03-20T09:23:26Z</time></trkpt><trkpt lat="52.943882" lon="25.150419"><ele>161.16</ele><time>2011-03-20T09:23:41Z</time></trkpt><trkpt lat="52.944187" lon="25.150646"><ele>162.12</ele><time>2011-03-20T09:23:55Z</time></trkpt><trkpt lat="52.944256" lon="25.150623"><ele>162.12</ele><time>2011-03-20T09:24:08Z</time></trkpt><trkpt lat="52.944256" lon="25.150623"><ele>162.60</ele><time>2011-03-20T09:24:39Z</time></trkpt><trkpt lat="52.944233" lon="25.150618"><ele>162.12</ele><time>2011-03-20T09:24:58Z</time></trkpt><trkpt lat="52.944244" lon="25.150675"><ele>161.64</ele><time>2011-03-20T09:25:02Z</time></trkpt><trkpt lat="52.944622" lon="25.150965"><ele>163.08</ele><time>2011-03-20T09:25:17Z</time></trkpt><trkpt lat="52.944870" lon="25.151424"><ele>163.56</ele><time>2011-03-20T09:25:31Z</time></trkpt><trkpt lat="52.945011" lon="25.151951"><ele>164.04</ele><time>2011-03-20T09:25:46Z</time></trkpt><trkpt lat="52.945152" lon="25.152550"><ele>164.04</ele><time>2011-03-20T09:26:01Z</time></trkpt><trkpt lat="52.945316" lon="25.153307"><ele>163.56</ele><time>2011-03-20T09:26:18Z</time></trkpt><trkpt lat="52.945576" lon="25.153902"><ele>162.12</ele><time>2011-03-20T09:26:34Z</time></trkpt><trkpt lat="52.946072" lon="25.154484"><ele>162.60</ele><time>2011-03-20T09:26:51Z</time></trkpt><trkpt lat="52.946583" lon="25.155180"><ele>161.64</ele><time>2011-03-20T09:27:09Z</time></trkpt><trkpt lat="52.947136" lon="25.155895"><ele>161.64</ele><time>2011-03-20T09:27:27Z</time></trkpt><trkpt lat="52.947655" lon="25.156538"><ele>162.60</ele><time>2011-03-20T09:27:44Z</time></trkpt><trkpt lat="52.948124" lon="25.157118"><ele>163.56</ele><time>2011-03-20T09:28:00Z</time></trkpt><trkpt lat="52.948582" lon="25.157696"><ele>164.52</ele><time>2011-03-20T09:28:17Z</time></trkpt><trkpt lat="52.948936" lon="25.158154"><ele>165.00</ele><time>2011-03-20T09:28:33Z</time></trkpt><trkpt lat="52.949043" lon="25.158695"><ele>165.96</ele><time>2011-03-20T09:28:47Z</time></trkpt><trkpt lat="52.949059" lon="25.158810"><ele>167.41</ele><time>2011-03-20T09:28:59Z</time></trkpt><trkpt lat="52.949059" lon="25.158810"><ele>166.93</ele><time>2011-03-20T09:29:18Z</time></trkpt><trkpt lat="52.949059" lon="25.158812"><ele>166.93</ele><time>2011-03-20T09:29:43Z</time></trkpt><trkpt lat="52.949059" lon="25.158812"><ele>165.00</ele><time>2011-03-20T09:29:45Z</time></trkpt><trkpt lat="52.949059" lon="25.158813"><ele>167.41</ele><time>2011-03-20T09:30:16Z</time></trkpt><trkpt lat="52.949059" lon="25.158813"><ele>171.25</ele><time>2011-03-20T09:30:22Z</time></trkpt><trkpt lat="52.949059" lon="25.158813"><ele>166.45</ele><time>2011-03-20T09:30:23Z</time></trkpt><trkpt lat="52.949059" lon="25.158813"><ele>167.41</ele><time>2011-03-20T09:30:32Z</time></trkpt><trkpt lat="52.948814" lon="25.159184"><ele>166.93</ele><time>2011-03-20T09:30:46Z</time></trkpt><trkpt lat="52.948509" lon="25.159853"><ele>166.93</ele><time>2011-03-20T09:31:03Z</time></trkpt><trkpt lat="52.948124" lon="25.160730"><ele>166.93</ele><time>2011-03-20T09:31:23Z</time></trkpt><trkpt lat="52.947792" lon="25.161543"><ele>167.41</ele><time>2011-03-20T09:31:41Z</time></trkpt><trkpt lat="52.947460" lon="25.162344"><ele>167.41</ele><time>2011-03-20T09:31:59Z</time></trkpt><trkpt lat="52.947273" lon="25.162884"><ele>167.41</ele><time>2011-03-20T09:32:14Z</time></trkpt><trkpt lat="52.947159" lon="25.163496"><ele>166.93</ele><time>2011-03-20T09:32:32Z</time></trkpt><trkpt lat="52.947136" lon="25.163527"><ele>166.93</ele><time>2011-03-20T09:32:47Z</time></trkpt><trkpt lat="52.947136" lon="25.163527"><ele>165.96</ele><time>2011-03-20T09:32:51Z</time></trkpt><trkpt lat="52.947136" lon="25.163527"><ele>166.45</ele><time>2011-03-20T09:33:08Z</time></trkpt><trkpt lat="52.947136" lon="25.163528"><ele>166.93</ele><time>2011-03-20T09:33:35Z</time></trkpt><trkpt lat="52.947132" lon="25.163546"><ele>166.93</ele><time>2011-03-20T09:33:51Z</time></trkpt><trkpt lat="52.946957" lon="25.164171"><ele>167.41</ele><time>2011-03-20T09:34:06Z</time></trkpt><trkpt lat="52.946739" lon="25.165087"><ele>167.89</ele><time>2011-03-20T09:34:23Z</time></trkpt><trkpt lat="52.946465" lon="25.166195"><ele>169.33</ele><time>2011-03-20T09:34:44Z</time></trkpt><trkpt lat="52.946281" lon="25.167194"><ele>171.25</ele><time>2011-03-20T09:35:03Z</time></trkpt><trkpt lat="52.946228" lon="25.167828"><ele>171.73</ele><time>2011-03-20T09:35:17Z</time></trkpt><trkpt lat="52.946159" lon="25.168375"><ele>173.17</ele><time>2011-03-20T09:35:32Z</time></trkpt><trkpt lat="52.946022" lon="25.169092"><ele>175.10</ele><time>2011-03-20T09:35:49Z</time></trkpt><trkpt lat="52.945942" lon="25.169630"><ele>174.62</ele><time>2011-03-20T09:36:03Z</time></trkpt><trkpt lat="52.945873" lon="25.170189"><ele>172.21</ele><time>2011-03-20T09:36:18Z</time></trkpt><trkpt lat="52.945816" lon="25.170773"><ele>172.69</ele><time>2011-03-20T09:36:32Z</time></trkpt><trkpt lat="52.945663" lon="25.171503"><ele>171.25</ele><time>2011-03-20T09:36:50Z</time></trkpt><trkpt lat="52.945488" lon="25.172262"><ele>169.33</ele><time>2011-03-20T09:37:04Z</time></trkpt><trkpt lat="52.945225" lon="25.173557"><ele>168.37</ele><time>2011-03-20T09:37:21Z</time></trkpt><trkpt lat="52.945137" lon="25.174332"><ele>166.45</ele><time>2011-03-20T09:37:33Z</time></trkpt><trkpt lat="52.945023" lon="25.175304"><ele>166.93</ele><time>2011-03-20T09:37:48Z</time></trkpt><trkpt lat="52.944912" lon="25.176369"><ele>166.45</ele><time>2011-03-20T09:38:04Z</time></trkpt><trkpt lat="52.944820" lon="25.177214"><ele>166.45</ele><time>2011-03-20T09:38:19Z</time></trkpt><trkpt lat="52.944729" lon="25.178076"><ele>166.93</ele><time>2011-03-20T09:38:34Z</time></trkpt><trkpt lat="52.944660" lon="25.178570"><ele>168.37</ele><time>2011-03-20T09:38:42Z</time></trkpt><trkpt lat="52.944530" lon="25.179691"><ele>167.41</ele><time>2011-03-20T09:38:59Z</time></trkpt><trkpt lat="52.944492" lon="25.180138"><ele>167.89</ele><time>2011-03-20T09:39:12Z</time></trkpt><trkpt lat="52.944447" lon="25.180529"><ele>168.85</ele><time>2011-03-20T09:39:22Z</time></trkpt><trkpt lat="52.944340" lon="25.181456"><ele>167.89</ele><time>2011-03-20T09:39:39Z</time></trkpt><trkpt lat="52.944332" lon="25.181519"><ele>167.89</ele><time>2011-03-20T09:39:40Z</time></trkpt><trkpt lat="52.944305" lon="25.181772"><ele>170.29</ele><time>2011-03-20T09:39:44Z</time></trkpt><trkpt lat="52.944195" lon="25.182789"><ele>168.85</ele><time>2011-03-20T09:40:01Z</time></trkpt><trkpt lat="52.944160" lon="25.183136"><ele>172.21</ele><time>2011-03-20T09:40:08Z</time></trkpt><trkpt lat="52.944134" lon="25.183363"><ele>171.73</ele><time>2011-03-20T09:40:13Z</time></trkpt><trkpt lat="52.944038" lon="25.184195"><ele>174.14</ele><time>2011-03-20T09:40:31Z</time></trkpt><trkpt lat="52.943977" lon="25.184725"><ele>173.66</ele><time>2011-03-20T09:40:41Z</time></trkpt><trkpt lat="52.943996" lon="25.185562"><ele>173.66</ele><time>2011-03-20T09:40:57Z</time></trkpt><trkpt lat="52.944393" lon="25.186287"><ele>175.58</ele><time>2011-03-20T09:41:14Z</time></trkpt><trkpt lat="52.944778" lon="25.186987"><ele>176.06</ele><time>2011-03-20T09:41:32Z</time></trkpt><trkpt lat="52.944798" lon="25.187082"><ele>175.10</ele><time>2011-03-20T09:41:43Z</time></trkpt><trkpt lat="52.944794" lon="25.187094"><ele>175.58</ele><time>2011-03-20T09:42:01Z</time></trkpt><trkpt lat="52.944790" lon="25.187109"><ele>175.10</ele><time>2011-03-20T09:42:18Z</time></trkpt><trkpt lat="52.944782" lon="25.187115"><ele>174.62</ele><time>2011-03-20T09:42:33Z</time></trkpt><trkpt lat="52.944782" lon="25.187122"><ele>172.21</ele><time>2011-03-20T09:42:49Z</time></trkpt><trkpt lat="52.944782" lon="25.187122"><ele>174.62</ele><time>2011-03-20T09:43:19Z</time></trkpt><trkpt lat="52.944782" lon="25.187122"><ele>175.58</ele><time>2011-03-20T09:43:50Z</time></trkpt><trkpt lat="52.944775" lon="25.187130"><ele>174.62</ele><time>2011-03-20T09:44:20Z</time></trkpt><trkpt lat="52.944775" lon="25.187130"><ele>175.10</ele><time>2011-03-20T09:44:21Z</time></trkpt><trkpt lat="52.944771" lon="25.187128"><ele>175.10</ele><time>2011-03-20T09:44:34Z</time></trkpt><trkpt lat="52.944775" lon="25.187117"><ele>175.58</ele><time>2011-03-20T09:44:49Z</time></trkpt><trkpt lat="52.944778" lon="25.187103"><ele>176.54</ele><time>2011-03-20T09:45:08Z</time></trkpt><trkpt lat="52.944752" lon="25.187159"><ele>175.58</ele><time>2011-03-20T09:45:23Z</time></trkpt><trkpt lat="52.944752" lon="25.187159"><ele>175.58</ele><time>2011-03-20T09:45:52Z</time></trkpt><trkpt lat="52.944756" lon="25.187147"><ele>175.10</ele><time>2011-03-20T09:45:58Z</time></trkpt><trkpt lat="52.944767" lon="25.187088"><ele>176.06</ele><time>2011-03-20T09:46:18Z</time></trkpt><trkpt lat="52.944771" lon="25.187080"><ele>176.06</ele><time>2011-03-20T09:46:35Z</time></trkpt><trkpt lat="52.944775" lon="25.187101"><ele>175.10</ele><time>2011-03-20T09:46:55Z</time></trkpt><trkpt lat="52.944820" lon="25.187180"><ele>175.58</ele><time>2011-03-20T09:47:10Z</time></trkpt><trkpt lat="52.944805" lon="25.187164"><ele>174.62</ele><time>2011-03-20T09:47:25Z</time></trkpt><trkpt lat="52.944801" lon="25.187170"><ele>176.06</ele><time>2011-03-20T09:47:41Z</time></trkpt><trkpt lat="52.944790" lon="25.187141"><ele>176.06</ele><time>2011-03-20T09:47:57Z</time></trkpt><trkpt lat="52.944801" lon="25.187178"><ele>175.58</ele><time>2011-03-20T09:48:09Z</time></trkpt><trkpt lat="52.944786" lon="25.187151"><ele>176.06</ele><time>2011-03-20T09:48:27Z</time></trkpt><trkpt lat="52.944817" lon="25.187201"><ele>176.54</ele><time>2011-03-20T09:48:43Z</time></trkpt><trkpt lat="52.944801" lon="25.187141"><ele>176.06</ele><time>2011-03-20T09:49:00Z</time></trkpt><trkpt lat="52.944763" lon="25.187082"><ele>177.02</ele><time>2011-03-20T09:49:15Z</time></trkpt><trkpt lat="52.944759" lon="25.187084"><ele>177.02</ele><time>2011-03-20T09:49:35Z</time></trkpt><trkpt lat="52.944759" lon="25.187084"><ele>176.06</ele><time>2011-03-20T09:49:57Z</time></trkpt><trkpt lat="52.944782" lon="25.187107"><ele>175.10</ele><time>2011-03-20T09:50:12Z</time></trkpt><trkpt lat="52.944988" lon="25.187376"><ele>176.06</ele><time>2011-03-20T09:50:26Z</time></trkpt><trkpt lat="52.945461" lon="25.188173"><ele>175.58</ele><time>2011-03-20T09:50:46Z</time></trkpt><trkpt lat="52.945999" lon="25.189125"><ele>175.10</ele><time>2011-03-20T09:51:07Z</time></trkpt><trkpt lat="52.946545" lon="25.190056"><ele>175.10</ele><time>2011-03-20T09:51:28Z</time></trkpt><trkpt lat="52.947098" lon="25.191002"><ele>175.10</ele><time>2011-03-20T09:51:49Z</time></trkpt><trkpt lat="52.947742" lon="25.192129"><ele>174.62</ele><time>2011-03-20T09:52:12Z</time></trkpt><trkpt lat="52.948296" lon="25.193094"><ele>175.10</ele><time>2011-03-20T09:52:31Z</time></trkpt><trkpt lat="52.948956" lon="25.194220"><ele>174.14</ele><time>2011-03-20T09:52:53Z</time></trkpt><trkpt lat="52.949574" lon="25.195272"><ele>172.69</ele><time>2011-03-20T09:53:12Z</time></trkpt><trkpt lat="52.950321" lon="25.196579"><ele>170.77</ele><time>2011-03-20T09:53:33Z</time></trkpt><trkpt lat="52.950912" lon="25.197601"><ele>170.29</ele><time>2011-03-20T09:53:50Z</time></trkpt><trkpt lat="52.951477" lon="25.198612"><ele>170.77</ele><time>2011-03-20T09:54:08Z</time></trkpt><trkpt lat="52.952042" lon="25.199667"><ele>170.77</ele><time>2011-03-20T09:54:25Z</time></trkpt><trkpt lat="52.952560" lon="25.200651"><ele>171.25</ele><time>2011-03-20T09:54:40Z</time></trkpt><trkpt lat="52.953094" lon="25.201674"><ele>172.21</ele><time>2011-03-20T09:54:57Z</time></trkpt><trkpt lat="52.953548" lon="25.202517"><ele>172.69</ele><time>2011-03-20T09:55:11Z</time></trkpt><trkpt lat="52.954041" lon="25.203436"><ele>173.17</ele><time>2011-03-20T09:55:26Z</time></trkpt><trkpt lat="52.954403" lon="25.203978"><ele>172.69</ele><time>2011-03-20T09:55:37Z</time></trkpt><trkpt lat="52.955021" lon="25.204666"><ele>172.69</ele><time>2011-03-20T09:55:55Z</time></trkpt><trkpt lat="52.955120" lon="25.204744"><ele>172.21</ele><time>2011-03-20T09:56:00Z</time></trkpt><trkpt lat="52.955139" lon="25.204739"><ele>171.73</ele><time>2011-03-20T09:56:01Z</time></trkpt><trkpt lat="52.955147" lon="25.204508"><ele>172.21</ele><time>2011-03-20T09:56:08Z</time></trkpt><trkpt lat="52.955177" lon="25.203897"><ele>171.73</ele><time>2011-03-20T09:56:23Z</time></trkpt><trkpt lat="52.955246" lon="25.203367"><ele>171.73</ele><time>2011-03-20T09:56:39Z</time></trkpt><trkpt lat="52.955246" lon="25.203299"><ele>172.21</ele><time>2011-03-20T09:56:54Z</time></trkpt><trkpt lat="52.955246" lon="25.203299"><ele>172.69</ele><time>2011-03-20T09:57:24Z</time></trkpt><trkpt lat="52.955246" lon="25.203299"><ele>172.21</ele><time>2011-03-20T09:57:54Z</time></trkpt><trkpt lat="52.955219" lon="25.203316"><ele>171.73</ele><time>2011-03-20T09:58:09Z</time></trkpt><trkpt lat="52.955193" lon="25.203863"><ele>172.21</ele><time>2011-03-20T09:58:24Z</time></trkpt><trkpt lat="52.955154" lon="25.204481"><ele>172.21</ele><time>2011-03-20T09:58:40Z</time></trkpt><trkpt lat="52.955181" lon="25.204834"><ele>171.73</ele><time>2011-03-20T09:58:50Z</time></trkpt><trkpt lat="52.955803" lon="25.205217"><ele>171.25</ele><time>2011-03-20T09:59:08Z</time></trkpt><trkpt lat="52.956493" lon="25.205502"><ele>171.25</ele><time>2011-03-20T09:59:27Z</time></trkpt><trkpt lat="52.957142" lon="25.205563"><ele>171.25</ele><time>2011-03-20T09:59:44Z</time></trkpt><trkpt lat="52.957775" lon="25.205494"><ele>170.29</ele><time>2011-03-20T09:59:59Z</time></trkpt><trkpt lat="52.958359" lon="25.205370"><ele>169.81</ele><time>2011-03-20T10:00:13Z</time></trkpt><trkpt lat="52.958885" lon="25.205244"><ele>169.33</ele><time>2011-03-20T10:00:26Z</time></trkpt><trkpt lat="52.958923" lon="25.205236"><ele>169.81</ele><time>2011-03-20T10:00:27Z</time></trkpt><trkpt lat="52.959572" lon="25.205090"><ele>169.33</ele><time>2011-03-20T10:00:43Z</time></trkpt><trkpt lat="52.960247" lon="25.204941"><ele>169.81</ele><time>2011-03-20T10:00:59Z</time></trkpt><trkpt lat="52.960503" lon="25.204874"><ele>169.81</ele><time>2011-03-20T10:01:05Z</time></trkpt><trkpt lat="52.960762" lon="25.204803"><ele>169.33</ele><time>2011-03-20T10:01:11Z</time></trkpt><trkpt lat="52.961452" lon="25.204636"><ele>169.81</ele><time>2011-03-20T10:01:28Z</time></trkpt><trkpt lat="52.962120" lon="25.204481"><ele>170.77</ele><time>2011-03-20T10:01:44Z</time></trkpt><trkpt lat="52.962814" lon="25.204370"><ele>171.73</ele><time>2011-03-20T10:02:00Z</time></trkpt><trkpt lat="52.963444" lon="25.204393"><ele>171.25</ele><time>2011-03-20T10:02:16Z</time></trkpt><trkpt lat="52.964108" lon="25.204643"><ele>172.21</ele><time>2011-03-20T10:02:33Z</time></trkpt><trkpt lat="52.964474" lon="25.204838"><ele>172.69</ele><time>2011-03-20T10:02:42Z</time></trkpt><trkpt lat="52.965000" lon="25.205256"><ele>174.14</ele><time>2011-03-20T10:02:56Z</time></trkpt><trkpt lat="52.965595" lon="25.205910"><ele>173.66</ele><time>2011-03-20T10:03:12Z</time></trkpt><trkpt lat="52.966202" lon="25.206692"><ele>174.14</ele><time>2011-03-20T10:03:28Z</time></trkpt><trkpt lat="52.966244" lon="25.206741"><ele>174.14</ele><time>2011-03-20T10:03:29Z</time></trkpt><trkpt lat="52.966282" lon="25.206789"><ele>173.66</ele><time>2011-03-20T10:03:30Z</time></trkpt><trkpt lat="52.966320" lon="25.206839"><ele>172.69</ele><time>2011-03-20T10:03:31Z</time></trkpt><trkpt lat="52.966358" lon="25.206886"><ele>173.66</ele><time>2011-03-20T10:03:32Z</time></trkpt><trkpt lat="52.966396" lon="25.206936"><ele>173.17</ele><time>2011-03-20T10:03:33Z</time></trkpt><trkpt lat="52.966816" lon="25.207478"><ele>173.66</ele><time>2011-03-20T10:03:44Z</time></trkpt><trkpt lat="52.967411" lon="25.208248"><ele>173.17</ele><time>2011-03-20T10:03:59Z</time></trkpt><trkpt lat="52.967487" lon="25.208355"><ele>172.69</ele><time>2011-03-20T10:04:01Z</time></trkpt><trkpt lat="52.967529" lon="25.208406"><ele>174.14</ele><time>2011-03-20T10:04:02Z</time></trkpt><trkpt lat="52.968021" lon="25.209072"><ele>174.14</ele><time>2011-03-20T10:04:17Z</time></trkpt><trkpt lat="52.968086" lon="25.209154"><ele>173.66</ele><time>2011-03-20T10:04:19Z</time></trkpt><trkpt lat="52.968323" lon="25.209471"><ele>174.14</ele><time>2011-03-20T10:04:26Z</time></trkpt><trkpt lat="52.968357" lon="25.209517"><ele>174.14</ele><time>2011-03-20T10:04:27Z</time></trkpt><trkpt lat="52.968388" lon="25.209562"><ele>174.62</ele><time>2011-03-20T10:04:28Z</time></trkpt><trkpt lat="52.968918" lon="25.210255"><ele>175.10</ele><time>2011-03-20T10:04:43Z</time></trkpt><trkpt lat="52.969475" lon="25.210934"><ele>175.10</ele><time>2011-03-20T10:04:58Z</time></trkpt><trkpt lat="52.969509" lon="25.210976"><ele>175.10</ele><time>2011-03-20T10:04:59Z</time></trkpt><trkpt lat="52.970062" lon="25.211603"><ele>175.58</ele><time>2011-03-20T10:05:14Z</time></trkpt><trkpt lat="52.970623" lon="25.212202"><ele>175.58</ele><time>2011-03-20T10:05:30Z</time></trkpt><trkpt lat="52.970905" lon="25.212475"><ele>175.58</ele><time>2011-03-20T10:05:38Z</time></trkpt><trkpt lat="52.970943" lon="25.212505"><ele>175.58</ele><time>2011-03-20T10:05:39Z</time></trkpt><trkpt lat="52.971516" lon="25.213003"><ele>176.54</ele><time>2011-03-20T10:05:55Z</time></trkpt><trkpt lat="52.972073" lon="25.213446"><ele>174.62</ele><time>2011-03-20T10:06:09Z</time></trkpt><trkpt lat="52.972591" lon="25.213831"><ele>173.66</ele><time>2011-03-20T10:06:25Z</time></trkpt><trkpt lat="52.973175" lon="25.214256"><ele>173.17</ele><time>2011-03-20T10:06:42Z</time></trkpt><trkpt lat="52.973808" lon="25.214720"><ele>171.73</ele><time>2011-03-20T10:06:58Z</time></trkpt><trkpt lat="52.974464" lon="25.215216"><ele>170.77</ele><time>2011-03-20T10:07:14Z</time></trkpt><trkpt lat="52.975090" lon="25.215668"><ele>171.25</ele><time>2011-03-20T10:07:30Z</time></trkpt><trkpt lat="52.975822" lon="25.216196"><ele>170.29</ele><time>2011-03-20T10:07:48Z</time></trkpt><trkpt lat="52.976025" lon="25.216351"><ele>169.33</ele><time>2011-03-20T10:07:53Z</time></trkpt><trkpt lat="52.976494" lon="25.216604"><ele>169.33</ele><time>2011-03-20T10:08:08Z</time></trkpt><trkpt lat="52.976719" lon="25.216221"><ele>168.37</ele><time>2011-03-20T10:08:24Z</time></trkpt><trkpt lat="52.976910" lon="25.215801"><ele>167.89</ele><time>2011-03-20T10:08:38Z</time></trkpt><trkpt lat="52.977222" lon="25.215019"><ele>166.93</ele><time>2011-03-20T10:08:56Z</time></trkpt><trkpt lat="52.977589" lon="25.214113"><ele>166.93</ele><time>2011-03-20T10:09:15Z</time></trkpt><trkpt lat="52.977825" lon="25.213469"><ele>166.45</ele><time>2011-03-20T10:09:29Z</time></trkpt><trkpt lat="52.978127" lon="25.212589"><ele>166.45</ele><time>2011-03-20T10:09:47Z</time></trkpt><trkpt lat="52.978394" lon="25.211535"><ele>166.93</ele><time>2011-03-20T10:10:06Z</time></trkpt><trkpt lat="52.978508" lon="25.211103"><ele>167.41</ele><time>2011-03-20T10:10:13Z</time></trkpt><trkpt lat="52.978737" lon="25.210241"><ele>168.37</ele><time>2011-03-20T10:10:28Z</time></trkpt><trkpt lat="52.979019" lon="25.210245"><ele>168.37</ele><time>2011-03-20T10:10:39Z</time></trkpt><trkpt lat="52.979660" lon="25.210875"><ele>166.45</ele><time>2011-03-20T10:11:01Z</time></trkpt><trkpt lat="52.979996" lon="25.211208"><ele>166.45</ele><time>2011-03-20T10:11:17Z</time></trkpt><trkpt lat="52.980320" lon="25.211370"><ele>165.96</ele><time>2011-03-20T10:11:33Z</time></trkpt><trkpt lat="52.980518" lon="25.211382"><ele>164.52</ele><time>2011-03-20T10:11:47Z</time></trkpt><trkpt lat="52.980549" lon="25.211275"><ele>165.48</ele><time>2011-03-20T10:11:59Z</time></trkpt><trkpt lat="52.980549" lon="25.211275"><ele>165.48</ele><time>2011-03-20T10:12:14Z</time></trkpt><trkpt lat="52.980549" lon="25.211273"><ele>165.48</ele><time>2011-03-20T10:12:38Z</time></trkpt><trkpt lat="52.980515" lon="25.211348"><ele>165.00</ele><time>2011-03-20T10:13:06Z</time></trkpt><trkpt lat="52.980499" lon="25.211365"><ele>165.00</ele><time>2011-03-20T10:13:08Z</time></trkpt><trkpt lat="52.980450" lon="25.211441"><ele>165.48</ele><time>2011-03-20T10:13:18Z</time></trkpt><trkpt lat="52.980091" lon="25.211306"><ele>166.45</ele><time>2011-03-20T10:13:35Z</time></trkpt><trkpt lat="52.979721" lon="25.211002"><ele>166.45</ele><time>2011-03-20T10:13:51Z</time></trkpt><trkpt lat="52.979237" lon="25.210560"><ele>166.45</ele><time>2011-03-20T10:14:10Z</time></trkpt><trkpt lat="52.978817" lon="25.210182"><ele>166.45</ele><time>2011-03-20T10:14:27Z</time></trkpt><trkpt lat="52.978600" lon="25.210613"><ele>165.96</ele><time>2011-03-20T10:14:38Z</time></trkpt><trkpt lat="52.978348" lon="25.211725"><ele>166.45</ele><time>2011-03-20T10:14:54Z</time></trkpt><trkpt lat="52.978024" lon="25.212894"><ele>165.96</ele><time>2011-03-20T10:15:09Z</time></trkpt><trkpt lat="52.977631" lon="25.213913"><ele>166.45</ele><time>2011-03-20T10:15:24Z</time></trkpt><trkpt lat="52.977219" lon="25.214954"><ele>166.45</ele><time>2011-03-20T10:15:40Z</time></trkpt><trkpt lat="52.976749" lon="25.216152"><ele>167.41</ele><time>2011-03-20T10:15:57Z</time></trkpt><trkpt lat="52.976654" lon="25.216778"><ele>167.89</ele><time>2011-03-20T10:16:08Z</time></trkpt><trkpt lat="52.977051" lon="25.217075"><ele>166.93</ele><time>2011-03-20T10:16:20Z</time></trkpt><trkpt lat="52.977711" lon="25.217506"><ele>166.45</ele><time>2011-03-20T10:16:38Z</time></trkpt><trkpt lat="52.978336" lon="25.217909"><ele>165.96</ele><time>2011-03-20T10:16:55Z</time></trkpt><trkpt lat="52.978966" lon="25.218332"><ele>165.48</ele><time>2011-03-20T10:17:12Z</time></trkpt><trkpt lat="52.979630" lon="25.218805"><ele>166.93</ele><time>2011-03-20T10:17:29Z</time></trkpt><trkpt lat="52.980148" lon="25.219175"><ele>167.89</ele><time>2011-03-20T10:17:43Z</time></trkpt><trkpt lat="52.980839" lon="25.219667"><ele>169.81</ele><time>2011-03-20T10:18:02Z</time></trkpt><trkpt lat="52.981453" lon="25.220100"><ele>170.77</ele><time>2011-03-20T10:18:19Z</time></trkpt><trkpt lat="52.982105" lon="25.220570"><ele>171.73</ele><time>2011-03-20T10:18:39Z</time></trkpt><trkpt lat="52.982796" lon="25.221056"><ele>172.21</ele><time>2011-03-20T10:18:58Z</time></trkpt><trkpt lat="52.983448" lon="25.221498"><ele>172.21</ele><time>2011-03-20T10:19:15Z</time></trkpt><trkpt lat="52.984138" lon="25.221987"><ele>171.73</ele><time>2011-03-20T10:19:33Z</time></trkpt><trkpt lat="52.984715" lon="25.222401"><ele>172.21</ele><time>2011-03-20T10:19:48Z</time></trkpt><trkpt lat="52.985348" lon="25.222853"><ele>173.17</ele><time>2011-03-20T10:20:04Z</time></trkpt><trkpt lat="52.986015" lon="25.223331"><ele>173.66</ele><time>2011-03-20T10:20:20Z</time></trkpt><trkpt lat="52.986687" lon="25.223797"><ele>174.62</ele><time>2011-03-20T10:20:38Z</time></trkpt><trkpt lat="52.987297" lon="25.224228"><ele>175.58</ele><time>2011-03-20T10:20:57Z</time></trkpt><trkpt lat="52.987980" lon="25.224701"><ele>176.54</ele><time>2011-03-20T10:21:17Z</time></trkpt><trkpt lat="52.988728" lon="25.225216"><ele>176.06</ele><time>2011-03-20T10:21:36Z</time></trkpt><trkpt lat="52.989399" lon="25.225739"><ele>176.54</ele><time>2011-03-20T10:21:53Z</time></trkpt><trkpt lat="52.990013" lon="25.226284"><ele>175.10</ele><time>2011-03-20T10:22:08Z</time></trkpt><trkpt lat="52.990753" lon="25.226984"><ele>174.62</ele><time>2011-03-20T10:22:28Z</time></trkpt><trkpt lat="52.991425" lon="25.227629"><ele>174.62</ele><time>2011-03-20T10:22:45Z</time></trkpt><trkpt lat="52.992100" lon="25.228283"><ele>174.14</ele><time>2011-03-20T10:23:02Z</time></trkpt><trkpt lat="52.992737" lon="25.228905"><ele>175.58</ele><time>2011-03-20T10:23:20Z</time></trkpt><trkpt lat="52.993359" lon="25.229618"><ele>176.54</ele><time>2011-03-20T10:23:41Z</time></trkpt><trkpt lat="52.993355" lon="25.229706"><ele>176.06</ele><time>2011-03-20T10:23:44Z</time></trkpt><trkpt lat="52.993202" lon="25.230024"><ele>177.02</ele><time>2011-03-20T10:23:57Z</time></trkpt><trkpt lat="52.993114" lon="25.230114"><ele>155.87</ele><time>2011-03-20T10:28:23Z</time></trkpt><trkpt lat="52.993111" lon="25.230135"><ele>155.87</ele><time>2011-03-20T10:28:24Z</time></trkpt><trkpt lat="52.993137" lon="25.230089"><ele>159.72</ele><time>2011-03-20T10:28:34Z</time></trkpt><trkpt lat="52.993141" lon="25.230089"><ele>162.60</ele><time>2011-03-20T10:28:38Z</time></trkpt><trkpt lat="52.993134" lon="25.230082"><ele>164.52</ele><time>2011-03-20T10:28:44Z</time></trkpt><trkpt lat="52.993137" lon="25.230087"><ele>166.93</ele><time>2011-03-20T10:28:50Z</time></trkpt><trkpt lat="52.993141" lon="25.230095"><ele>168.37</ele><time>2011-03-20T10:28:59Z</time></trkpt><trkpt lat="52.993137" lon="25.230091"><ele>171.25</ele><time>2011-03-20T10:29:18Z</time></trkpt><trkpt lat="52.993160" lon="25.230062"><ele>172.69</ele><time>2011-03-20T10:29:45Z</time></trkpt><trkpt lat="52.993156" lon="25.230051"><ele>174.62</ele><time>2011-03-20T10:30:01Z</time></trkpt><trkpt lat="52.993153" lon="25.230061"><ele>175.10</ele><time>2011-03-20T10:30:21Z</time></trkpt><trkpt lat="52.993153" lon="25.230061"><ele>175.10</ele><time>2011-03-20T10:30:55Z</time></trkpt><trkpt lat="52.993141" lon="25.230095"><ele>175.58</ele><time>2011-03-20T10:31:04Z</time></trkpt><trkpt lat="52.993099" lon="25.230236"><ele>175.58</ele><time>2011-03-20T10:31:11Z</time></trkpt><trkpt lat="52.992897" lon="25.230661"><ele>175.58</ele><time>2011-03-20T10:31:29Z</time></trkpt><trkpt lat="52.992653" lon="25.231232"><ele>175.10</ele><time>2011-03-20T10:31:44Z</time></trkpt><trkpt lat="52.992619" lon="25.231302"><ele>176.06</ele><time>2011-03-20T10:31:46Z</time></trkpt><trkpt lat="52.992565" lon="25.231419"><ele>175.10</ele><time>2011-03-20T10:31:49Z</time></trkpt><trkpt lat="52.992371" lon="25.231844"><ele>175.58</ele><time>2011-03-20T10:32:00Z</time></trkpt><trkpt lat="52.992096" lon="25.232449"><ele>174.14</ele><time>2011-03-20T10:32:16Z</time></trkpt><trkpt lat="52.991768" lon="25.233149"><ele>173.66</ele><time>2011-03-20T10:32:34Z</time></trkpt><trkpt lat="52.991444" lon="25.233877"><ele>174.14</ele><time>2011-03-20T10:32:51Z</time></trkpt><trkpt lat="52.990978" lon="25.234894"><ele>172.69</ele><time>2011-03-20T10:33:12Z</time></trkpt><trkpt lat="52.990582" lon="25.235760"><ele>172.21</ele><time>2011-03-20T10:33:30Z</time></trkpt><trkpt lat="52.990330" lon="25.236303"><ele>171.73</ele><time>2011-03-20T10:33:41Z</time></trkpt><trkpt lat="52.989929" lon="25.237192"><ele>171.73</ele><time>2011-03-20T10:34:00Z</time></trkpt><trkpt lat="52.989685" lon="25.237719"><ele>172.21</ele><time>2011-03-20T10:34:15Z</time></trkpt><trkpt lat="52.989479" lon="25.238144"><ele>170.77</ele><time>2011-03-20T10:34:26Z</time></trkpt><trkpt lat="52.989304" lon="25.238459"><ele>170.77</ele><time>2011-03-20T10:34:35Z</time></trkpt><trkpt lat="52.988899" lon="25.239159"><ele>171.25</ele><time>2011-03-20T10:34:54Z</time></trkpt><trkpt lat="52.988758" lon="25.239424"><ele>170.77</ele><time>2011-03-20T10:35:01Z</time></trkpt><trkpt lat="52.988567" lon="25.239820"><ele>172.21</ele><time>2011-03-20T10:35:24Z</time></trkpt><trkpt lat="52.988308" lon="25.240211"><ele>171.25</ele><time>2011-03-20T10:35:37Z</time></trkpt><trkpt lat="52.988174" lon="25.240473"><ele>172.69</ele><time>2011-03-20T10:35:44Z</time></trkpt><trkpt lat="52.988071" lon="25.240730"><ele>172.21</ele><time>2011-03-20T10:35:51Z</time></trkpt><trkpt lat="52.987839" lon="25.241194"><ele>172.21</ele><time>2011-03-20T10:36:05Z</time></trkpt><trkpt lat="52.987755" lon="25.241371"><ele>171.73</ele><time>2011-03-20T10:36:10Z</time></trkpt><trkpt lat="52.987713" lon="25.241474"><ele>173.66</ele><time>2011-03-20T10:36:13Z</time></trkpt><trkpt lat="52.987461" lon="25.241993"><ele>174.14</ele><time>2011-03-20T10:36:30Z</time></trkpt><trkpt lat="52.987328" lon="25.242231"><ele>174.62</ele><time>2011-03-20T10:36:38Z</time></trkpt><trkpt lat="52.987057" lon="25.242769"><ele>174.14</ele><time>2011-03-20T10:36:54Z</time></trkpt><trkpt lat="52.986771" lon="25.243320"><ele>173.17</ele><time>2011-03-20T10:37:10Z</time></trkpt><trkpt lat="52.986256" lon="25.243683"><ele>173.17</ele><time>2011-03-20T10:37:24Z</time></trkpt><trkpt lat="52.985435" lon="25.244057"><ele>172.69</ele><time>2011-03-20T10:37:40Z</time></trkpt><trkpt lat="52.984993" lon="25.244520"><ele>173.17</ele><time>2011-03-20T10:37:53Z</time></trkpt><trkpt lat="52.984577" lon="25.245132"><ele>172.69</ele><time>2011-03-20T10:38:09Z</time></trkpt><trkpt lat="52.984493" lon="25.245260"><ele>171.73</ele><time>2011-03-20T10:38:12Z</time></trkpt><trkpt lat="52.984180" lon="25.245834"><ele>172.21</ele><time>2011-03-20T10:38:28Z</time></trkpt><trkpt lat="52.984032" lon="25.246193"><ele>172.21</ele><time>2011-03-20T10:38:42Z</time></trkpt><trkpt lat="52.983921" lon="25.246517"><ele>172.21</ele><time>2011-03-20T10:38:58Z</time></trkpt><trkpt lat="52.983803" lon="25.246811"><ele>172.21</ele><time>2011-03-20T10:39:11Z</time></trkpt><trkpt lat="52.983608" lon="25.247166"><ele>172.69</ele><time>2011-03-20T10:39:31Z</time></trkpt><trkpt lat="52.983444" lon="25.247465"><ele>171.73</ele><time>2011-03-20T10:39:49Z</time></trkpt><trkpt lat="52.983311" lon="25.247843"><ele>172.21</ele><time>2011-03-20T10:40:06Z</time></trkpt><trkpt lat="52.983181" lon="25.248234"><ele>172.21</ele><time>2011-03-20T10:40:22Z</time></trkpt><trkpt lat="52.983028" lon="25.248610"><ele>172.21</ele><time>2011-03-20T10:40:38Z</time></trkpt><trkpt lat="52.982960" lon="25.248913"><ele>172.69</ele><time>2011-03-20T10:40:52Z</time></trkpt><trkpt lat="52.982998" lon="25.248938"><ele>173.66</ele><time>2011-03-20T10:41:03Z</time></trkpt><trkpt lat="52.983139" lon="25.249077"><ele>174.14</ele><time>2011-03-20T10:41:12Z</time></trkpt><trkpt lat="52.983547" lon="25.249691"><ele>175.10</ele><time>2011-03-20T10:41:31Z</time></trkpt><trkpt lat="52.983921" lon="25.250359"><ele>174.14</ele><time>2011-03-20T10:41:49Z</time></trkpt><trkpt lat="52.984310" lon="25.250902"><ele>175.10</ele><time>2011-03-20T10:42:05Z</time></trkpt><trkpt lat="52.984604" lon="25.251579"><ele>177.98</ele><time>2011-03-20T10:42:23Z</time></trkpt><trkpt lat="52.984295" lon="25.251989"><ele>177.02</ele><time>2011-03-20T10:42:36Z</time></trkpt><trkpt lat="52.983906" lon="25.252596"><ele>178.94</ele><time>2011-03-20T10:42:54Z</time></trkpt><trkpt lat="52.983738" lon="25.252840"><ele>181.83</ele><time>2011-03-20T10:43:02Z</time></trkpt><trkpt lat="52.983604" lon="25.253016"><ele>179.42</ele><time>2011-03-20T10:43:07Z</time></trkpt><trkpt lat="52.983555" lon="25.253086"><ele>181.83</ele><time>2011-03-20T10:43:09Z</time></trkpt><trkpt lat="52.983208" lon="25.253654"><ele>182.31</ele><time>2011-03-20T10:43:26Z</time></trkpt><trkpt lat="52.983028" lon="25.253969"><ele>183.75</ele><time>2011-03-20T10:43:34Z</time></trkpt><trkpt lat="52.982639" lon="25.254644"><ele>182.79</ele><time>2011-03-20T10:43:51Z</time></trkpt><trkpt lat="52.982216" lon="25.255308"><ele>182.31</ele><time>2011-03-20T10:44:08Z</time></trkpt><trkpt lat="52.981880" lon="25.255997"><ele>180.87</ele><time>2011-03-20T10:44:22Z</time></trkpt><trkpt lat="52.981342" lon="25.257101"><ele>177.98</ele><time>2011-03-20T10:44:38Z</time></trkpt><trkpt lat="52.980850" lon="25.257999"><ele>176.06</ele><time>2011-03-20T10:44:52Z</time></trkpt><trkpt lat="52.980480" lon="25.258726"><ele>175.10</ele><time>2011-03-20T10:45:07Z</time></trkpt><trkpt lat="52.980221" lon="25.259115"><ele>176.54</ele><time>2011-03-20T10:45:20Z</time></trkpt><trkpt lat="52.980053" lon="25.259327"><ele>174.62</ele><time>2011-03-20T10:45:26Z</time></trkpt><trkpt lat="52.979691" lon="25.259844"><ele>175.10</ele><time>2011-03-20T10:45:39Z</time></trkpt><trkpt lat="52.979389" lon="25.260328"><ele>176.54</ele><time>2011-03-20T10:45:52Z</time></trkpt><trkpt lat="52.979004" lon="25.260971"><ele>177.50</ele><time>2011-03-20T10:46:08Z</time></trkpt><trkpt lat="52.978840" lon="25.261414"><ele>177.98</ele><time>2011-03-20T10:46:21Z</time></trkpt><trkpt lat="52.978531" lon="25.261806"><ele>178.46</ele><time>2011-03-20T10:46:24Z</time></trkpt><trkpt lat="52.978024" lon="25.262138"><ele>179.42</ele><time>2011-03-20T10:46:39Z</time></trkpt><trkpt lat="52.977608" lon="25.262560"><ele>180.38</ele><time>2011-03-20T10:46:57Z</time></trkpt><trkpt lat="52.977478" lon="25.262691"><ele>180.38</ele><time>2011-03-20T10:47:06Z</time></trkpt><trkpt lat="52.979340" lon="25.262381"><ele>180.87</ele><time>2011-03-20T10:47:20Z</time></trkpt><trkpt lat="52.979622" lon="25.261925"><ele>177.98</ele><time>2011-03-20T10:47:33Z</time></trkpt><trkpt lat="52.979885" lon="25.261528"><ele>178.46</ele><time>2011-03-20T10:47:46Z</time></trkpt><trkpt lat="52.980133" lon="25.261770"><ele>177.02</ele><time>2011-03-20T10:47:57Z</time></trkpt><trkpt lat="52.980209" lon="25.261877"><ele>176.54</ele><time>2011-03-20T10:48:02Z</time></trkpt><trkpt lat="52.980465" lon="25.262144"><ele>177.02</ele><time>2011-03-20T10:48:16Z</time></trkpt><trkpt lat="52.980789" lon="25.262495"><ele>177.02</ele><time>2011-03-20T10:48:31Z</time></trkpt><trkpt lat="52.981045" lon="25.262814"><ele>177.50</ele><time>2011-03-20T10:48:46Z</time></trkpt><trkpt lat="52.981316" lon="25.263155"><ele>176.54</ele><time>2011-03-20T10:49:00Z</time></trkpt><trkpt lat="52.981705" lon="25.263599"><ele>177.02</ele><time>2011-03-20T10:49:18Z</time></trkpt><trkpt lat="52.982090" lon="25.264078"><ele>177.50</ele><time>2011-03-20T10:49:37Z</time></trkpt><trkpt lat="52.982182" lon="25.264177"><ele>178.46</ele><time>2011-03-20T10:49:41Z</time></trkpt><trkpt lat="52.982437" lon="25.264492"><ele>179.42</ele><time>2011-03-20T10:49:56Z</time></trkpt><trkpt lat="52.982605" lon="25.264666"><ele>179.90</ele><time>2011-03-20T10:50:04Z</time></trkpt><trkpt lat="52.982647" lon="25.264700"><ele>178.94</ele><time>2011-03-20T10:50:06Z</time></trkpt><trkpt lat="52.982880" lon="25.264980"><ele>180.38</ele><time>2011-03-20T10:50:20Z</time></trkpt><trkpt lat="52.991497" lon="25.277227"><ele>172.69</ele><time>2011-03-20T11:36:43Z</time></trkpt><trkpt lat="52.991501" lon="25.277229"><ele>172.69</ele><time>2011-03-20T11:36:44Z</time></trkpt><trkpt lat="52.991501" lon="25.277315"><ele>170.77</ele><time>2011-03-20T11:37:14Z</time></trkpt><trkpt lat="52.991505" lon="25.277323"><ele>170.77</ele><time>2011-03-20T11:37:33Z</time></trkpt><trkpt lat="52.991482" lon="25.277296"><ele>169.81</ele><time>2011-03-20T11:37:47Z</time></trkpt><trkpt lat="52.991516" lon="25.277281"><ele>170.77</ele><time>2011-03-20T11:38:04Z</time></trkpt><trkpt lat="52.991459" lon="25.277264"><ele>170.77</ele><time>2011-03-20T11:38:16Z</time></trkpt><trkpt lat="52.991432" lon="25.277281"><ele>171.25</ele><time>2011-03-20T11:38:33Z</time></trkpt><trkpt lat="52.991497" lon="25.277246"><ele>171.25</ele><time>2011-03-20T11:38:49Z</time></trkpt><trkpt lat="52.991432" lon="25.277281"><ele>171.25</ele><time>2011-03-20T11:39:07Z</time></trkpt><trkpt lat="52.991470" lon="25.277470"><ele>170.77</ele><time>2011-03-20T11:39:22Z</time></trkpt><trkpt lat="52.991489" lon="25.277491"><ele>171.25</ele><time>2011-03-20T11:39:24Z</time></trkpt><trkpt lat="52.991562" lon="25.277630"><ele>171.25</ele><time>2011-03-20T11:39:38Z</time></trkpt><trkpt lat="52.991608" lon="25.277678"><ele>171.73</ele><time>2011-03-20T11:39:50Z</time></trkpt><trkpt lat="52.991707" lon="25.277849"><ele>171.73</ele><time>2011-03-20T11:40:06Z</time></trkpt><trkpt lat="52.991714" lon="25.277870"><ele>171.73</ele><time>2011-03-20T11:40:08Z</time></trkpt><trkpt lat="52.991737" lon="25.277906"><ele>171.25</ele><time>2011-03-20T11:40:11Z</time></trkpt><trkpt lat="52.991749" lon="25.277935"><ele>171.73</ele><time>2011-03-20T11:40:13Z</time></trkpt><trkpt lat="52.991840" lon="25.278090"><ele>172.69</ele><time>2011-03-20T11:40:27Z</time></trkpt><trkpt lat="52.991928" lon="25.278299"><ele>171.25</ele><time>2011-03-20T11:45:01Z</time></trkpt><trkpt lat="52.991909" lon="25.278229"><ele>171.25</ele><time>2011-03-20T11:45:02Z</time></trkpt><trkpt lat="52.991879" lon="25.278208"><ele>165.96</ele><time>2011-03-20T11:45:05Z</time></trkpt><trkpt lat="52.991879" lon="25.278208"><ele>173.66</ele><time>2011-03-20T11:45:06Z</time></trkpt><trkpt lat="52.991898" lon="25.278173"><ele>172.21</ele><time>2011-03-20T11:45:28Z</time></trkpt><trkpt lat="52.991901" lon="25.278158"><ele>171.25</ele><time>2011-03-20T11:45:49Z</time></trkpt><trkpt lat="52.991932" lon="25.278191"><ele>171.73</ele><time>2011-03-20T11:46:12Z</time></trkpt><trkpt lat="52.991947" lon="25.278240"><ele>171.25</ele><time>2011-03-20T11:46:17Z</time></trkpt><trkpt lat="52.991989" lon="25.278364"><ele>171.25</ele><time>2011-03-20T11:46:29Z</time></trkpt><trkpt lat="52.992065" lon="25.278547"><ele>171.25</ele><time>2011-03-20T11:46:44Z</time></trkpt><trkpt lat="52.992142" lon="25.278683"><ele>171.25</ele><time>2011-03-20T11:46:57Z</time></trkpt><trkpt lat="52.992203" lon="25.278833"><ele>172.21</ele><time>2011-03-20T11:47:07Z</time></trkpt><trkpt lat="52.992237" lon="25.278923"><ele>172.21</ele><time>2011-03-20T11:47:13Z</time></trkpt><trkpt lat="52.992355" lon="25.279083"><ele>172.69</ele><time>2011-03-20T11:47:26Z</time></trkpt><trkpt lat="52.992439" lon="25.279247"><ele>172.69</ele><time>2011-03-20T11:47:38Z</time></trkpt><trkpt lat="52.992474" lon="25.279308"><ele>172.69</ele><time>2011-03-20T11:47:42Z</time></trkpt><trkpt lat="52.992550" lon="25.279448"><ele>172.69</ele><time>2011-03-20T11:47:51Z</time></trkpt><trkpt lat="52.992661" lon="25.279593"><ele>173.66</ele><time>2011-03-20T11:48:05Z</time></trkpt><trkpt lat="52.992737" lon="25.279613"><ele>173.66</ele><time>2011-03-20T11:48:18Z</time></trkpt><trkpt lat="52.992783" lon="25.279594"><ele>173.66</ele><time>2011-03-20T11:48:22Z</time></trkpt><trkpt lat="52.992832" lon="25.279573"><ele>173.66</ele><time>2011-03-20T11:48:26Z</time></trkpt><trkpt lat="52.992867" lon="25.279541"><ele>174.14</ele><time>2011-03-20T11:48:29Z</time></trkpt><trkpt lat="52.993027" lon="25.279497"><ele>174.62</ele><time>2011-03-20T11:48:44Z</time></trkpt><trkpt lat="52.993160" lon="25.279449"><ele>173.66</ele><time>2011-03-20T11:48:58Z</time></trkpt><trkpt lat="52.993179" lon="25.279438"><ele>173.66</ele><time>2011-03-20T11:49:00Z</time></trkpt><trkpt lat="52.993279" lon="25.279364"><ele>175.10</ele><time>2011-03-20T11:49:15Z</time></trkpt><trkpt lat="52.993340" lon="25.279379"><ele>174.14</ele><time>2011-03-20T11:49:23Z</time></trkpt><trkpt lat="52.993477" lon="25.279335"><ele>175.58</ele><time>2011-03-20T11:49:38Z</time></trkpt><trkpt lat="52.993584" lon="25.279272"><ele>174.62</ele><time>2011-03-20T11:49:51Z</time></trkpt><trkpt lat="52.993649" lon="25.279266"><ele>176.06</ele><time>2011-03-20T11:50:00Z</time></trkpt><trkpt lat="52.993778" lon="25.279221"><ele>175.58</ele><time>2011-03-20T11:50:15Z</time></trkpt><trkpt lat="52.993893" lon="25.279184"><ele>176.06</ele><time>2011-03-20T11:50:29Z</time></trkpt><trkpt lat="52.994019" lon="25.279146"><ele>176.54</ele><time>2011-03-20T11:50:42Z</time></trkpt><trkpt lat="52.994087" lon="25.279118"><ele>176.06</ele><time>2011-03-20T11:50:48Z</time></trkpt><trkpt lat="52.994209" lon="25.279091"><ele>176.54</ele><time>2011-03-20T11:51:02Z</time></trkpt><trkpt lat="52.994305" lon="25.279078"><ele>176.54</ele><time>2011-03-20T11:51:15Z</time></trkpt><trkpt lat="52.994408" lon="25.279039"><ele>176.54</ele><time>2011-03-20T11:51:27Z</time></trkpt><trkpt lat="52.994522" lon="25.278999"><ele>177.02</ele><time>2011-03-20T11:51:41Z</time></trkpt><trkpt lat="52.994534" lon="25.278990"><ele>177.02</ele><time>2011-03-20T11:51:43Z</time></trkpt><trkpt lat="52.994572" lon="25.278984"><ele>177.02</ele><time>2011-03-20T11:51:47Z</time></trkpt><trkpt lat="52.994694" lon="25.278955"><ele>177.02</ele><time>2011-03-20T11:52:01Z</time></trkpt><trkpt lat="52.994724" lon="25.278940"><ele>177.02</ele><time>2011-03-20T11:52:04Z</time></trkpt><trkpt lat="52.994843" lon="25.278887"><ele>177.50</ele><time>2011-03-20T11:52:18Z</time></trkpt><trkpt lat="52.994965" lon="25.278870"><ele>176.54</ele><time>2011-03-20T11:52:32Z</time></trkpt><trkpt lat="52.994984" lon="25.278873"><ele>177.50</ele><time>2011-03-20T11:52:34Z</time></trkpt><trkpt lat="52.995102" lon="25.278816"><ele>177.98</ele><time>2011-03-20T11:52:47Z</time></trkpt><trkpt lat="52.995205" lon="25.278782"><ele>178.46</ele><time>2011-03-20T11:53:00Z</time></trkpt><trkpt lat="52.995296" lon="25.278820"><ele>178.46</ele><time>2011-03-20T11:53:15Z</time></trkpt><trkpt lat="52.995342" lon="25.279047"><ele>178.46</ele><time>2011-03-20T11:53:30Z</time></trkpt><trkpt lat="52.995392" lon="25.279108"><ele>178.46</ele><time>2011-03-20T11:53:38Z</time></trkpt><trkpt lat="52.995461" lon="25.279243"><ele>178.94</ele><time>2011-03-20T11:53:52Z</time></trkpt><trkpt lat="52.995468" lon="25.279253"><ele>179.42</ele><time>2011-03-20T11:53:53Z</time></trkpt><trkpt lat="52.995510" lon="25.279306"><ele>179.42</ele><time>2011-03-20T11:54:02Z</time></trkpt><trkpt lat="52.995575" lon="25.279354"><ele>179.42</ele><time>2011-03-20T11:54:14Z</time></trkpt><trkpt lat="52.995598" lon="25.279375"><ele>179.42</ele><time>2011-03-20T11:54:17Z</time></trkpt><trkpt lat="52.995731" lon="25.279318"><ele>179.42</ele><time>2011-03-20T11:54:32Z</time></trkpt><trkpt lat="52.995846" lon="25.279289"><ele>178.46</ele><time>2011-03-20T11:54:44Z</time></trkpt><trkpt lat="52.995853" lon="25.279285"><ele>178.46</ele><time>2011-03-20T11:54:45Z</time></trkpt><trkpt lat="52.995964" lon="25.279268"><ele>178.94</ele><time>2011-03-20T11:54:59Z</time></trkpt><trkpt lat="52.995972" lon="25.279270"><ele>179.42</ele><time>2011-03-20T11:55:00Z</time></trkpt><trkpt lat="52.996075" lon="25.279228"><ele>178.46</ele><time>2011-03-20T11:55:13Z</time></trkpt><trkpt lat="52.996132" lon="25.279251"><ele>178.46</ele><time>2011-03-20T11:55:24Z</time></trkpt><trkpt lat="52.996155" lon="25.279253"><ele>178.94</ele><time>2011-03-20T11:55:35Z</time></trkpt><trkpt lat="52.996277" lon="25.279207"><ele>178.46</ele><time>2011-03-20T11:55:48Z</time></trkpt><trkpt lat="52.996284" lon="25.279203"><ele>177.98</ele><time>2011-03-20T11:55:49Z</time></trkpt><trkpt lat="52.996399" lon="25.279165"><ele>177.98</ele><time>2011-03-20T11:56:01Z</time></trkpt><trkpt lat="52.996502" lon="25.279140"><ele>177.50</ele><time>2011-03-20T11:56:13Z</time></trkpt><trkpt lat="52.996502" lon="25.279135"><ele>177.98</ele><time>2011-03-20T11:56:31Z</time></trkpt><trkpt lat="52.996571" lon="25.279106"><ele>178.46</ele><time>2011-03-20T11:56:43Z</time></trkpt><trkpt lat="52.996597" lon="25.279097"><ele>177.02</ele><time>2011-03-20T11:56:46Z</time></trkpt><trkpt lat="52.996712" lon="25.279068"><ele>178.46</ele><time>2011-03-20T11:57:00Z</time></trkpt><trkpt lat="52.996815" lon="25.279030"><ele>177.50</ele><time>2011-03-20T11:57:14Z</time></trkpt><trkpt lat="52.996929" lon="25.278984"><ele>177.50</ele><time>2011-03-20T11:57:28Z</time></trkpt><trkpt lat="52.997047" lon="25.278946"><ele>177.50</ele><time>2011-03-20T11:57:42Z</time></trkpt><trkpt lat="52.997131" lon="25.278923"><ele>177.02</ele><time>2011-03-20T11:57:52Z</time></trkpt><trkpt lat="52.997211" lon="25.278908"><ele>177.02</ele><time>2011-03-20T11:58:02Z</time></trkpt><trkpt lat="52.997345" lon="25.278854"><ele>177.02</ele><time>2011-03-20T11:58:18Z</time></trkpt><trkpt lat="52.997444" lon="25.278822"><ele>176.54</ele><time>2011-03-20T11:58:33Z</time></trkpt><trkpt lat="52.997551" lon="25.278784"><ele>176.06</ele><time>2011-03-20T11:58:47Z</time></trkpt><trkpt lat="52.997581" lon="25.278769"><ele>176.54</ele><time>2011-03-20T11:58:51Z</time></trkpt><trkpt lat="53.006123" lon="25.277281"><ele>181.83</ele><time>2011-03-20T12:30:26Z</time></trkpt><trkpt lat="53.006115" lon="25.277287"><ele>181.83</ele><time>2011-03-20T12:30:27Z</time></trkpt><trkpt lat="53.006123" lon="25.277288"><ele>185.19</ele><time>2011-03-20T12:30:50Z</time></trkpt><trkpt lat="53.006134" lon="25.277298"><ele>184.71</ele><time>2011-03-20T12:31:12Z</time></trkpt><trkpt lat="53.006142" lon="25.277340"><ele>184.71</ele><time>2011-03-20T12:31:26Z</time></trkpt><trkpt lat="53.006130" lon="25.277409"><ele>185.19</ele><time>2011-03-20T12:31:36Z</time></trkpt><trkpt lat="53.006130" lon="25.277470"><ele>184.71</ele><time>2011-03-20T12:31:39Z</time></trkpt><trkpt lat="53.006130" lon="25.277702"><ele>185.19</ele><time>2011-03-20T12:31:55Z</time></trkpt><trkpt lat="53.006153" lon="25.277891"><ele>185.67</ele><time>2011-03-20T12:32:09Z</time></trkpt><trkpt lat="53.006161" lon="25.278124"><ele>186.15</ele><time>2011-03-20T12:32:24Z</time></trkpt><trkpt lat="53.006168" lon="25.278275"><ele>186.15</ele><time>2011-03-20T12:32:40Z</time></trkpt><trkpt lat="53.006256" lon="25.278265"><ele>185.67</ele><time>2011-03-20T12:32:56Z</time></trkpt><trkpt lat="53.006294" lon="25.278246"><ele>185.67</ele><time>2011-03-20T12:33:15Z</time></trkpt><trkpt lat="53.006294" lon="25.278246"><ele>185.67</ele><time>2011-03-20T12:33:19Z</time></trkpt><trkpt lat="53.006348" lon="25.278248"><ele>185.67</ele><time>2011-03-20T12:33:24Z</time></trkpt><trkpt lat="53.006401" lon="25.278236"><ele>185.19</ele><time>2011-03-20T12:33:29Z</time></trkpt><trkpt lat="53.006485" lon="25.278126"><ele>185.19</ele><time>2011-03-20T12:33:38Z</time></trkpt><trkpt lat="53.006523" lon="25.278111"><ele>185.67</ele><time>2011-03-20T12:33:53Z</time></trkpt><trkpt lat="53.006542" lon="25.278111"><ele>185.19</ele><time>2011-03-20T12:34:16Z</time></trkpt><trkpt lat="53.006561" lon="25.278111"><ele>185.67</ele><time>2011-03-20T12:34:18Z</time></trkpt><trkpt lat="53.006866" lon="25.278084"><ele>187.59</ele><time>2011-03-20T12:34:36Z</time></trkpt><trkpt lat="53.006969" lon="25.278070"><ele>184.23</ele><time>2011-03-20T12:34:44Z</time></trkpt><trkpt lat="53.007294" lon="25.278030"><ele>184.71</ele><time>2011-03-20T12:35:00Z</time></trkpt><trkpt lat="53.007565" lon="25.278019"><ele>183.27</ele><time>2011-03-20T12:35:14Z</time></trkpt><trkpt lat="53.007832" lon="25.277981"><ele>182.79</ele><time>2011-03-20T12:35:29Z</time></trkpt><trkpt lat="53.008163" lon="25.277998"><ele>182.31</ele><time>2011-03-20T12:35:45Z</time></trkpt><trkpt lat="53.008366" lon="25.278055"><ele>182.31</ele><time>2011-03-20T12:35:56Z</time></trkpt><trkpt lat="53.008663" lon="25.278025"><ele>182.79</ele><time>2011-03-20T12:36:10Z</time></trkpt><trkpt lat="53.008873" lon="25.278009"><ele>179.42</ele><time>2011-03-20T12:36:20Z</time></trkpt><trkpt lat="53.008896" lon="25.278011"><ele>180.38</ele><time>2011-03-20T12:36:21Z</time></trkpt><trkpt lat="53.008934" lon="25.278013"><ele>180.87</ele><time>2011-03-20T12:36:23Z</time></trkpt><trkpt lat="53.008961" lon="25.278019"><ele>181.35</ele><time>2011-03-20T12:36:34Z</time></trkpt><trkpt lat="53.008930" lon="25.277985"><ele>180.87</ele><time>2011-03-20T12:36:59Z</time></trkpt><trkpt lat="53.008801" lon="25.277992"><ele>182.31</ele><time>2011-03-20T12:37:07Z</time></trkpt><trkpt lat="53.008392" lon="25.278030"><ele>182.79</ele><time>2011-03-20T12:37:25Z</time></trkpt><trkpt lat="53.008129" lon="25.277950"><ele>183.75</ele><time>2011-03-20T12:37:40Z</time></trkpt><trkpt lat="53.007870" lon="25.277956"><ele>183.27</ele><time>2011-03-20T12:37:54Z</time></trkpt><trkpt lat="53.007580" lon="25.277973"><ele>184.23</ele><time>2011-03-20T12:38:08Z</time></trkpt><trkpt lat="53.007191" lon="25.278009"><ele>185.67</ele><time>2011-03-20T12:38:25Z</time></trkpt><trkpt lat="53.006882" lon="25.278034"><ele>184.71</ele><time>2011-03-20T12:38:39Z</time></trkpt><trkpt lat="53.006569" lon="25.278082"><ele>185.67</ele><time>2011-03-20T12:38:53Z</time></trkpt><trkpt lat="53.006298" lon="25.278252"><ele>185.67</ele><time>2011-03-20T12:39:05Z</time></trkpt><trkpt lat="53.006199" lon="25.278257"><ele>186.15</ele><time>2011-03-20T12:39:14Z</time></trkpt><trkpt lat="53.006165" lon="25.278336"><ele>186.63</ele><time>2011-03-20T12:39:21Z</time></trkpt><trkpt lat="53.006153" lon="25.278566"><ele>186.63</ele><time>2011-03-20T12:39:33Z</time></trkpt><trkpt lat="53.006157" lon="25.278753"><ele>187.59</ele><time>2011-03-20T12:39:39Z</time></trkpt><trkpt lat="53.006180" lon="25.279238"><ele>186.63</ele><time>2011-03-20T12:39:53Z</time></trkpt><trkpt lat="53.006184" lon="25.279291"><ele>186.63</ele><time>2011-03-20T12:39:57Z</time></trkpt><trkpt lat="53.006207" lon="25.279510"><ele>185.67</ele><time>2011-03-20T12:40:12Z</time></trkpt><trkpt lat="53.006218" lon="25.279589"><ele>186.63</ele><time>2011-03-20T12:40:19Z</time></trkpt><trkpt lat="53.006233" lon="25.279675"><ele>186.63</ele><time>2011-03-20T12:40:24Z</time></trkpt><trkpt lat="53.006264" lon="25.279915"><ele>186.63</ele><time>2011-03-20T12:40:39Z</time></trkpt><trkpt lat="53.006271" lon="25.279963"><ele>186.63</ele><time>2011-03-20T12:40:42Z</time></trkpt><trkpt lat="53.006279" lon="25.279995"><ele>187.11</ele><time>2011-03-20T12:40:44Z</time></trkpt><trkpt lat="53.006290" lon="25.280142"><ele>187.11</ele><time>2011-03-20T12:40:54Z</time></trkpt><trkpt lat="53.006294" lon="25.280369"><ele>186.15</ele><time>2011-03-20T12:41:07Z</time></trkpt><trkpt lat="53.006302" lon="25.280548"><ele>186.15</ele><time>2011-03-20T12:41:19Z</time></trkpt><trkpt lat="53.006298" lon="25.280653"><ele>187.59</ele><time>2011-03-20T12:41:26Z</time></trkpt><trkpt lat="53.006302" lon="25.280827"><ele>187.11</ele><time>2011-03-20T12:41:35Z</time></trkpt><trkpt lat="53.006306" lon="25.281075"><ele>187.11</ele><time>2011-03-20T12:41:48Z</time></trkpt><trkpt lat="53.006310" lon="25.281233"><ele>186.63</ele><time>2011-03-20T12:41:59Z</time></trkpt><trkpt lat="53.006313" lon="25.281300"><ele>186.63</ele><time>2011-03-20T12:42:03Z</time></trkpt><trkpt lat="53.006321" lon="25.281509"><ele>186.63</ele><time>2011-03-20T12:42:18Z</time></trkpt><trkpt lat="53.006355" lon="25.281719"><ele>187.11</ele><time>2011-03-20T12:42:32Z</time></trkpt><trkpt lat="53.006420" lon="25.281996"><ele>186.63</ele><time>2011-03-20T12:42:48Z</time></trkpt><trkpt lat="53.006454" lon="25.282225"><ele>187.11</ele><time>2011-03-20T12:43:04Z</time></trkpt><trkpt lat="53.006493" lon="25.282465"><ele>186.63</ele><time>2011-03-20T12:43:19Z</time></trkpt><trkpt lat="53.006512" lon="25.282700"><ele>186.63</ele><time>2011-03-20T12:43:33Z</time></trkpt><trkpt lat="53.006516" lon="25.282726"><ele>186.63</ele><time>2011-03-20T12:43:35Z</time></trkpt><trkpt lat="53.006531" lon="25.282837"><ele>187.11</ele><time>2011-03-20T12:43:42Z</time></trkpt><trkpt lat="53.006573" lon="25.283070"><ele>186.63</ele><time>2011-03-20T12:43:57Z</time></trkpt><trkpt lat="53.006584" lon="25.283104"><ele>187.11</ele><time>2011-03-20T12:43:59Z</time></trkpt><trkpt lat="53.006638" lon="25.283316"><ele>186.63</ele><time>2011-03-20T12:44:13Z</time></trkpt><trkpt lat="53.006672" lon="25.283541"><ele>186.15</ele><time>2011-03-20T12:44:26Z</time></trkpt><trkpt lat="53.006718" lon="25.283720"><ele>185.19</ele><time>2011-03-20T12:44:40Z</time></trkpt><trkpt lat="53.006721" lon="25.283737"><ele>186.63</ele><time>2011-03-20T12:44:41Z</time></trkpt><trkpt lat="53.006775" lon="25.284016"><ele>186.15</ele><time>2011-03-20T12:44:58Z</time></trkpt><trkpt lat="53.006832" lon="25.284296"><ele>186.63</ele><time>2011-03-20T12:45:14Z</time></trkpt><trkpt lat="53.006832" lon="25.284369"><ele>186.63</ele><time>2011-03-20T12:45:18Z</time></trkpt><trkpt lat="53.006840" lon="25.284489"><ele>187.11</ele><time>2011-03-20T12:45:25Z</time></trkpt><trkpt lat="53.006851" lon="25.284559"><ele>186.63</ele><time>2011-03-20T12:45:29Z</time></trkpt><trkpt lat="53.006866" lon="25.284668"><ele>186.63</ele><time>2011-03-20T12:45:36Z</time></trkpt><trkpt lat="53.006897" lon="25.284782"><ele>187.11</ele><time>2011-03-20T12:45:43Z</time></trkpt><trkpt lat="53.006927" lon="25.284962"><ele>186.63</ele><time>2011-03-20T12:45:56Z</time></trkpt><trkpt lat="53.006927" lon="25.284962"><ele>186.15</ele><time>2011-03-20T12:46:17Z</time></trkpt><trkpt lat="53.006927" lon="25.284960"><ele>187.11</ele><time>2011-03-20T12:46:38Z</time></trkpt><trkpt lat="53.006927" lon="25.284960"><ele>186.63</ele><time>2011-03-20T12:47:03Z</time></trkpt><trkpt lat="53.006927" lon="25.284964"><ele>186.15</ele><time>2011-03-20T12:47:16Z</time></trkpt><trkpt lat="53.006935" lon="25.285070"><ele>186.15</ele><time>2011-03-20T12:47:30Z</time></trkpt><trkpt lat="53.006931" lon="25.285162"><ele>186.63</ele><time>2011-03-20T12:47:47Z</time></trkpt><trkpt lat="53.006935" lon="25.285189"><ele>186.15</ele><time>2011-03-20T12:47:50Z</time></trkpt><trkpt lat="53.007019" lon="25.285809"><ele>185.19</ele><time>2011-03-20T12:48:09Z</time></trkpt><trkpt lat="53.007103" lon="25.286366"><ele>185.67</ele><time>2011-03-20T12:48:25Z</time></trkpt><trkpt lat="53.007179" lon="25.286827"><ele>185.67</ele><time>2011-03-20T12:48:39Z</time></trkpt><trkpt lat="53.007286" lon="25.287485"><ele>186.15</ele><time>2011-03-20T12:48:59Z</time></trkpt><trkpt lat="53.007351" lon="25.287827"><ele>185.67</ele><time>2011-03-20T12:49:14Z</time></trkpt><trkpt lat="53.007427" lon="25.288296"><ele>186.15</ele><time>2011-03-20T12:49:30Z</time></trkpt><trkpt lat="53.007530" lon="25.288910"><ele>185.67</ele><time>2011-03-20T12:49:48Z</time></trkpt><trkpt lat="53.007637" lon="25.289534"><ele>185.19</ele><time>2011-03-20T12:50:05Z</time></trkpt><trkpt lat="53.007755" lon="25.290266"><ele>184.23</ele><time>2011-03-20T12:50:22Z</time></trkpt><trkpt lat="53.007912" lon="25.291132"><ele>184.23</ele><time>2011-03-20T12:50:41Z</time></trkpt><trkpt lat="53.008045" lon="25.291876"><ele>184.23</ele><time>2011-03-20T12:50:58Z</time></trkpt><trkpt lat="53.008198" lon="25.292801"><ele>182.79</ele><time>2011-03-20T12:51:17Z</time></trkpt><trkpt lat="53.008293" lon="25.293388"><ele>184.23</ele><time>2011-03-20T12:51:33Z</time></trkpt><trkpt lat="53.008396" lon="25.293907"><ele>184.23</ele><time>2011-03-20T12:51:48Z</time></trkpt><trkpt lat="53.008484" lon="25.294537"><ele>184.23</ele><time>2011-03-20T12:52:04Z</time></trkpt><trkpt lat="53.008495" lon="25.294619"><ele>183.75</ele><time>2011-03-20T12:52:06Z</time></trkpt><trkpt lat="53.008614" lon="25.295258"><ele>183.27</ele><time>2011-03-20T12:52:23Z</time></trkpt><trkpt lat="53.008739" lon="25.295668"><ele>183.27</ele><time>2011-03-20T12:52:38Z</time></trkpt><trkpt lat="53.008778" lon="25.295942"><ele>183.75</ele><time>2011-03-20T12:52:49Z</time></trkpt><trkpt lat="53.008953" lon="25.296198"><ele>183.75</ele><time>2011-03-20T12:53:03Z</time></trkpt><trkpt lat="53.008919" lon="25.296608"><ele>181.83</ele><time>2011-03-20T12:53:15Z</time></trkpt><trkpt lat="53.008980" lon="25.297140"><ele>182.79</ele><time>2011-03-20T12:53:29Z</time></trkpt><trkpt lat="53.009056" lon="25.297741"><ele>182.31</ele><time>2011-03-20T12:53:45Z</time></trkpt><trkpt lat="53.009125" lon="25.298265"><ele>181.83</ele><time>2011-03-20T12:54:00Z</time></trkpt><trkpt lat="53.009254" lon="25.298758"><ele>180.87</ele><time>2011-03-20T12:54:14Z</time></trkpt><trkpt lat="53.009258" lon="25.298786"><ele>180.87</ele><time>2011-03-20T12:54:19Z</time></trkpt><trkpt lat="53.009335" lon="25.299240"><ele>180.87</ele><time>2011-03-20T12:54:34Z</time></trkpt><trkpt lat="53.009346" lon="25.299316"><ele>179.42</ele><time>2011-03-20T12:54:36Z</time></trkpt><trkpt lat="53.009426" lon="25.299841"><ele>178.46</ele><time>2011-03-20T12:54:49Z</time></trkpt><trkpt lat="53.009529" lon="25.300507"><ele>176.54</ele><time>2011-03-20T12:55:06Z</time></trkpt><trkpt lat="53.009644" lon="25.301130"><ele>175.10</ele><time>2011-03-20T12:55:22Z</time></trkpt><trkpt lat="53.009785" lon="25.301737"><ele>173.66</ele><time>2011-03-20T12:55:37Z</time></trkpt><trkpt lat="53.009823" lon="25.302359"><ele>172.69</ele><time>2011-03-20T12:55:51Z</time></trkpt><trkpt lat="53.009861" lon="25.302973"><ele>170.77</ele><time>2011-03-20T12:56:05Z</time></trkpt><trkpt lat="53.009865" lon="25.303055"><ele>170.29</ele><time>2011-03-20T12:56:10Z</time></trkpt><trkpt lat="53.009861" lon="25.303097"><ele>169.81</ele><time>2011-03-20T12:56:12Z</time></trkpt><trkpt lat="53.009861" lon="25.303375"><ele>169.81</ele><time>2011-03-20T12:56:29Z</time></trkpt><trkpt lat="53.009857" lon="25.303463"><ele>169.33</ele><time>2011-03-20T12:56:35Z</time></trkpt><trkpt lat="53.009872" lon="25.303625"><ele>168.85</ele><time>2011-03-20T12:56:45Z</time></trkpt><trkpt lat="53.009869" lon="25.303680"><ele>169.33</ele><time>2011-03-20T12:57:01Z</time></trkpt><trkpt lat="53.009869" lon="25.303680"><ele>168.85</ele><time>2011-03-20T12:57:20Z</time></trkpt><trkpt lat="53.009865" lon="25.303684"><ele>169.33</ele><time>2011-03-20T12:57:59Z</time></trkpt><trkpt lat="53.009869" lon="25.303696"><ele>168.85</ele><time>2011-03-20T12:58:30Z</time></trkpt><trkpt lat="53.009869" lon="25.303699"><ele>169.33</ele><time>2011-03-20T12:59:09Z</time></trkpt><trkpt lat="53.009869" lon="25.303701"><ele>169.81</ele><time>2011-03-20T12:59:44Z</time></trkpt><trkpt lat="53.009869" lon="25.303705"><ele>169.33</ele><time>2011-03-20T13:00:13Z</time></trkpt><trkpt lat="53.009869" lon="25.303705"><ele>169.33</ele><time>2011-03-20T13:00:32Z</time></trkpt><trkpt lat="53.009956" lon="25.303667"><ele>170.29</ele><time>2011-03-20T13:00:45Z</time></trkpt><trkpt lat="53.010063" lon="25.303589"><ele>170.77</ele><time>2011-03-20T13:01:01Z</time></trkpt><trkpt lat="53.010174" lon="25.303558"><ele>170.29</ele><time>2011-03-20T13:01:16Z</time></trkpt><trkpt lat="53.010262" lon="25.303583"><ele>169.81</ele><time>2011-03-20T13:01:28Z</time></trkpt><trkpt lat="53.010376" lon="25.303576"><ele>171.73</ele><time>2011-03-20T13:01:39Z</time></trkpt><trkpt lat="53.010471" lon="25.303545"><ele>172.21</ele><time>2011-03-20T13:01:49Z</time></trkpt><trkpt lat="53.010620" lon="25.303514"><ele>172.21</ele><time>2011-03-20T13:02:06Z</time></trkpt><trkpt lat="53.010635" lon="25.303446"><ele>173.66</ele><time>2011-03-20T13:02:23Z</time></trkpt><trkpt lat="53.010635" lon="25.303446"><ele>173.17</ele><time>2011-03-20T13:02:41Z</time></trkpt><trkpt lat="53.010593" lon="25.303530"><ele>170.29</ele><time>2011-03-20T13:03:00Z</time></trkpt><trkpt lat="53.010403" lon="25.303587"><ele>170.77</ele><time>2011-03-20T13:03:18Z</time></trkpt><trkpt lat="53.010273" lon="25.303566"><ele>171.73</ele><time>2011-03-20T13:03:34Z</time></trkpt><trkpt lat="53.010159" lon="25.303549"><ele>171.25</ele><time>2011-03-20T13:03:49Z</time></trkpt><trkpt lat="53.010151" lon="25.303551"><ele>170.29</ele><time>2011-03-20T13:03:50Z</time></trkpt><trkpt lat="53.010014" lon="25.303671"><ele>169.33</ele><time>2011-03-20T13:04:09Z</time></trkpt><trkpt lat="53.009911" lon="25.303741"><ele>169.81</ele><time>2011-03-20T13:04:24Z</time></trkpt><trkpt lat="53.009876" lon="25.303782"><ele>169.33</ele><time>2011-03-20T13:04:39Z</time></trkpt><trkpt lat="53.009861" lon="25.303940"><ele>168.37</ele><time>2011-03-20T13:04:54Z</time></trkpt><trkpt lat="53.009861" lon="25.303959"><ele>168.37</ele><time>2011-03-20T13:04:55Z</time></trkpt><trkpt lat="53.009800" lon="25.304476"><ele>167.89</ele><time>2011-03-20T13:05:15Z</time></trkpt><trkpt lat="53.009659" lon="25.305103"><ele>165.96</ele><time>2011-03-20T13:05:32Z</time></trkpt><trkpt lat="53.009537" lon="25.305765"><ele>165.48</ele><time>2011-03-20T13:05:48Z</time></trkpt><trkpt lat="53.009361" lon="25.306402"><ele>164.52</ele><time>2011-03-20T13:06:04Z</time></trkpt><trkpt lat="53.009224" lon="25.307053"><ele>164.04</ele><time>2011-03-20T13:06:22Z</time></trkpt><trkpt lat="53.009171" lon="25.307350"><ele>163.08</ele><time>2011-03-20T13:06:29Z</time></trkpt><trkpt lat="53.009129" lon="25.308090"><ele>163.08</ele><time>2011-03-20T13:06:47Z</time></trkpt><trkpt lat="53.009121" lon="25.308672"><ele>162.12</ele><time>2011-03-20T13:07:03Z</time></trkpt><trkpt lat="53.009071" lon="25.309484"><ele>161.64</ele><time>2011-03-20T13:07:21Z</time></trkpt><trkpt lat="53.009125" lon="25.310465"><ele>160.20</ele><time>2011-03-20T13:07:38Z</time></trkpt><trkpt lat="53.009182" lon="25.310982"><ele>160.68</ele><time>2011-03-20T13:07:51Z</time></trkpt><trkpt lat="53.009182" lon="25.310982"><ele>160.20</ele><time>2011-03-20T13:07:59Z</time></trkpt><trkpt lat="53.009216" lon="25.311184"><ele>160.68</ele><time>2011-03-20T13:08:14Z</time></trkpt><trkpt lat="53.009266" lon="25.311384"><ele>160.20</ele><time>2011-03-20T13:08:28Z</time></trkpt><trkpt lat="53.009308" lon="25.311544"><ele>160.20</ele><time>2011-03-20T13:08:38Z</time></trkpt><trkpt lat="53.009338" lon="25.311787"><ele>159.72</ele><time>2011-03-20T13:08:53Z</time></trkpt><trkpt lat="53.009361" lon="25.312002"><ele>160.68</ele><time>2011-03-20T13:09:07Z</time></trkpt><trkpt lat="53.009464" lon="25.312550"><ele>159.72</ele><time>2011-03-20T13:09:24Z</time></trkpt><trkpt lat="53.009636" lon="25.313118"><ele>159.24</ele><time>2011-03-20T13:09:40Z</time></trkpt><trkpt lat="53.009865" lon="25.313635"><ele>158.27</ele><time>2011-03-20T13:09:55Z</time></trkpt><trkpt lat="53.009987" lon="25.314127"><ele>158.75</ele><time>2011-03-20T13:10:10Z</time></trkpt><trkpt lat="53.010166" lon="25.314571"><ele>157.79</ele><time>2011-03-20T13:10:26Z</time></trkpt><trkpt lat="53.010334" lon="25.315172"><ele>157.79</ele><time>2011-03-20T13:10:43Z</time></trkpt><trkpt lat="53.010563" lon="25.315845"><ele>157.31</ele><time>2011-03-20T13:11:01Z</time></trkpt><trkpt lat="53.010834" lon="25.316423"><ele>156.83</ele><time>2011-03-20T13:11:17Z</time></trkpt><trkpt lat="53.011044" lon="25.317059"><ele>157.31</ele><time>2011-03-20T13:11:34Z</time></trkpt><trkpt lat="53.011211" lon="25.317644"><ele>156.35</ele><time>2011-03-20T13:11:50Z</time></trkpt><trkpt lat="53.011417" lon="25.318048"><ele>155.87</ele><time>2011-03-20T13:12:07Z</time></trkpt><trkpt lat="53.011539" lon="25.318233"><ele>155.39</ele><time>2011-03-20T13:12:20Z</time></trkpt><trkpt lat="53.011623" lon="25.318428"><ele>154.91</ele><time>2011-03-20T13:12:32Z</time></trkpt><trkpt lat="53.011829" lon="25.318727"><ele>154.91</ele><time>2011-03-20T13:12:49Z</time></trkpt><trkpt lat="53.011990" lon="25.318909"><ele>154.91</ele><time>2011-03-20T13:13:00Z</time></trkpt><trkpt lat="53.012318" lon="25.319353"><ele>155.39</ele><time>2011-03-20T13:13:16Z</time></trkpt><trkpt lat="53.012524" lon="25.320019"><ele>153.47</ele><time>2011-03-20T13:13:34Z</time></trkpt><trkpt lat="53.012573" lon="25.320623"><ele>153.95</ele><time>2011-03-20T13:13:49Z</time></trkpt><trkpt lat="53.012669" lon="25.321537"><ele>153.47</ele><time>2011-03-20T13:14:08Z</time></trkpt><trkpt lat="53.012798" lon="25.322411"><ele>152.03</ele><time>2011-03-20T13:14:27Z</time></trkpt><trkpt lat="53.012917" lon="25.323154"><ele>150.10</ele><time>2011-03-20T13:14:45Z</time></trkpt><trkpt lat="53.013062" lon="25.323950"><ele>149.14</ele><time>2011-03-20T13:15:01Z</time></trkpt><trkpt lat="53.013161" lon="25.324488"><ele>147.70</ele><time>2011-03-20T13:15:11Z</time></trkpt><trkpt lat="53.012772" lon="25.324852"><ele>146.26</ele><time>2011-03-20T13:15:21Z</time></trkpt><trkpt lat="53.012619" lon="25.325100"><ele>145.78</ele><time>2011-03-20T13:15:33Z</time></trkpt><trkpt lat="53.012524" lon="25.325224"><ele>145.30</ele><time>2011-03-20T13:15:53Z</time></trkpt><trkpt lat="53.012497" lon="25.325254"><ele>145.30</ele><time>2011-03-20T13:15:56Z</time></trkpt><trkpt lat="53.012344" lon="25.325439"><ele>145.30</ele><time>2011-03-20T13:16:13Z</time></trkpt><trkpt lat="53.012337" lon="25.325451"><ele>145.30</ele><time>2011-03-20T13:16:14Z</time></trkpt><trkpt lat="53.012306" lon="25.325483"><ele>145.30</ele><time>2011-03-20T13:16:25Z</time></trkpt><trkpt lat="53.012287" lon="25.325508"><ele>144.82</ele><time>2011-03-20T13:16:27Z</time></trkpt><trkpt lat="53.012070" lon="25.325699"><ele>146.26</ele><time>2011-03-20T13:16:45Z</time></trkpt><trkpt lat="53.011906" lon="25.325853"><ele>147.70</ele><time>2011-03-20T13:17:02Z</time></trkpt><trkpt lat="53.011780" lon="25.325991"><ele>149.14</ele><time>2011-03-20T13:17:19Z</time></trkpt><trkpt lat="53.011837" lon="25.326000"><ele>148.18</ele><time>2011-03-20T13:17:35Z</time></trkpt><trkpt lat="53.011845" lon="25.325998"><ele>147.22</ele><time>2011-03-20T13:17:49Z</time></trkpt><trkpt lat="53.011856" lon="25.325979"><ele>147.22</ele><time>2011-03-20T13:18:12Z</time></trkpt><trkpt lat="53.011856" lon="25.325979"><ele>146.26</ele><time>2011-03-20T13:18:40Z</time></trkpt><trkpt lat="53.011841" lon="25.326004"><ele>148.66</ele><time>2011-03-20T13:18:54Z</time></trkpt><trkpt lat="53.011837" lon="25.326057"><ele>148.66</ele><time>2011-03-20T13:19:11Z</time></trkpt><trkpt lat="53.011841" lon="25.326050"><ele>148.66</ele><time>2011-03-20T13:19:36Z</time></trkpt><trkpt lat="53.011921" lon="25.326061"><ele>148.18</ele><time>2011-03-20T13:19:52Z</time></trkpt><trkpt lat="53.012009" lon="25.325827"><ele>147.22</ele><time>2011-03-20T13:20:08Z</time></trkpt><trkpt lat="53.012016" lon="25.325790"><ele>147.70</ele><time>2011-03-20T13:20:10Z</time></trkpt><trkpt lat="53.012074" lon="25.325659"><ele>147.22</ele><time>2011-03-20T13:20:17Z</time></trkpt><trkpt lat="53.012108" lon="25.325575"><ele>147.22</ele><time>2011-03-20T13:20:22Z</time></trkpt><trkpt lat="53.012306" lon="25.325386"><ele>146.74</ele><time>2011-03-20T13:20:39Z</time></trkpt><trkpt lat="53.012390" lon="25.325319"><ele>146.26</ele><time>2011-03-20T13:20:54Z</time></trkpt><trkpt lat="53.012581" lon="25.325102"><ele>146.74</ele><time>2011-03-20T13:21:13Z</time></trkpt><trkpt lat="53.012592" lon="25.325087"><ele>147.22</ele><time>2011-03-20T13:21:17Z</time></trkpt><trkpt lat="53.012806" lon="25.324743"><ele>147.70</ele><time>2011-03-20T13:21:29Z</time></trkpt><trkpt lat="53.012863" lon="25.324707"><ele>148.66</ele><time>2011-03-20T13:21:31Z</time></trkpt><trkpt lat="53.013283" lon="25.324636"><ele>150.10</ele><time>2011-03-20T13:21:46Z</time></trkpt><trkpt lat="53.013336" lon="25.324669"><ele>151.06</ele><time>2011-03-20T13:21:58Z</time></trkpt><trkpt lat="53.013309" lon="25.324678"><ele>150.58</ele><time>2011-03-20T13:22:14Z</time></trkpt><trkpt lat="53.013306" lon="25.324728"><ele>150.10</ele><time>2011-03-20T13:22:16Z</time></trkpt><trkpt lat="53.013447" lon="25.325563"><ele>149.62</ele><time>2011-03-20T13:22:29Z</time></trkpt><trkpt lat="53.013645" lon="25.326532"><ele>148.66</ele><time>2011-03-20T13:22:45Z</time></trkpt><trkpt lat="53.013981" lon="25.327574"><ele>147.70</ele><time>2011-03-20T13:23:03Z</time></trkpt><trkpt lat="53.014339" lon="25.328600"><ele>147.22</ele><time>2011-03-20T13:23:22Z</time></trkpt><trkpt lat="53.014645" lon="25.329590"><ele>146.74</ele><time>2011-03-20T13:23:39Z</time></trkpt><trkpt lat="53.014896" lon="25.330229"><ele>147.22</ele><time>2011-03-20T13:23:55Z</time></trkpt><trkpt lat="53.015175" lon="25.330936"><ele>147.70</ele><time>2011-03-20T13:24:10Z</time></trkpt><trkpt lat="53.015415" lon="25.331705"><ele>147.22</ele><time>2011-03-20T13:24:25Z</time></trkpt><trkpt lat="53.015678" lon="25.332649"><ele>146.74</ele><time>2011-03-20T13:24:42Z</time></trkpt><trkpt lat="53.015987" lon="25.333668"><ele>146.74</ele><time>2011-03-20T13:24:59Z</time></trkpt><trkpt lat="53.016254" lon="25.334496"><ele>146.26</ele><time>2011-03-20T13:25:15Z</time></trkpt><trkpt lat="53.016590" lon="25.335630"><ele>145.78</ele><time>2011-03-20T13:25:35Z</time></trkpt><trkpt lat="53.016800" lon="25.336456"><ele>144.34</ele><time>2011-03-20T13:25:50Z</time></trkpt><trkpt lat="53.017078" lon="25.337357"><ele>146.74</ele><time>2011-03-20T13:26:06Z</time></trkpt><trkpt lat="53.017403" lon="25.338120"><ele>146.26</ele><time>2011-03-20T13:26:21Z</time></trkpt><trkpt lat="53.017597" lon="25.339115"><ele>147.22</ele><time>2011-03-20T13:26:37Z</time></trkpt><trkpt lat="53.017738" lon="25.340355"><ele>145.30</ele><time>2011-03-20T13:26:56Z</time></trkpt><trkpt lat="53.017849" lon="25.341541"><ele>143.37</ele><time>2011-03-20T13:27:12Z</time></trkpt><trkpt lat="53.017910" lon="25.342920"><ele>141.45</ele><time>2011-03-20T13:27:29Z</time></trkpt><trkpt lat="53.017891" lon="25.343071"><ele>140.97</ele><time>2011-03-20T13:27:31Z</time></trkpt><trkpt lat="53.017860" lon="25.343126"><ele>140.97</ele><time>2011-03-20T13:27:32Z</time></trkpt><trkpt lat="53.017822" lon="25.343161"><ele>140.97</ele><time>2011-03-20T13:27:33Z</time></trkpt><trkpt lat="53.017780" lon="25.343184"><ele>140.49</ele><time>2011-03-20T13:27:34Z</time></trkpt><trkpt lat="53.017727" lon="25.343193"><ele>140.01</ele><time>2011-03-20T13:27:35Z</time></trkpt><trkpt lat="53.017673" lon="25.343201"><ele>139.53</ele><time>2011-03-20T13:27:36Z</time></trkpt><trkpt lat="53.016865" lon="25.343357"><ele>139.05</ele><time>2011-03-20T13:27:53Z</time></trkpt><trkpt lat="53.016785" lon="25.343374"><ele>137.61</ele><time>2011-03-20T13:27:55Z</time></trkpt><trkpt lat="53.016506" lon="25.343410"><ele>137.13</ele><time>2011-03-20T13:28:02Z</time></trkpt><trkpt lat="53.016228" lon="25.343468"><ele>137.61</ele><time>2011-03-20T13:28:09Z</time></trkpt><trkpt lat="53.015694" lon="25.343590"><ele>138.09</ele><time>2011-03-20T13:28:23Z</time></trkpt><trkpt lat="53.015266" lon="25.343668"><ele>139.53</ele><time>2011-03-20T13:28:35Z</time></trkpt><trkpt lat="53.015129" lon="25.343092"><ele>140.49</ele><time>2011-03-20T13:28:48Z</time></trkpt><trkpt lat="53.015087" lon="25.342913"><ele>141.93</ele><time>2011-03-20T13:28:52Z</time></trkpt><trkpt lat="53.014942" lon="25.342363"><ele>141.93</ele><time>2011-03-20T13:29:06Z</time></trkpt><trkpt lat="53.014774" lon="25.341675"><ele>143.37</ele><time>2011-03-20T13:29:23Z</time></trkpt><trkpt lat="53.014763" lon="25.341585"><ele>143.37</ele><time>2011-03-20T13:29:26Z</time></trkpt><trkpt lat="53.014709" lon="25.341570"><ele>142.41</ele><time>2011-03-20T13:29:33Z</time></trkpt><trkpt lat="53.014854" lon="25.342144"><ele>142.89</ele><time>2011-03-20T13:29:47Z</time></trkpt><trkpt lat="53.015079" lon="25.343073"><ele>140.97</ele><time>2011-03-20T13:30:05Z</time></trkpt><trkpt lat="53.015179" lon="25.343561"><ele>140.01</ele><time>2011-03-20T13:30:13Z</time></trkpt><trkpt lat="53.015011" lon="25.343876"><ele>140.01</ele><time>2011-03-20T13:30:24Z</time></trkpt><trkpt lat="53.014557" lon="25.344105"><ele>141.45</ele><time>2011-03-20T13:30:37Z</time></trkpt><trkpt lat="53.014057" lon="25.344465"><ele>141.45</ele><time>2011-03-20T13:30:53Z</time></trkpt><trkpt lat="53.014011" lon="25.344357"><ele>140.49</ele><time>2011-03-20T13:30:56Z</time></trkpt><trkpt lat="53.013916" lon="25.344307"><ele>141.93</ele><time>2011-03-20T13:31:06Z</time></trkpt><trkpt lat="53.013924" lon="25.344303"><ele>140.97</ele><time>2011-03-20T13:31:22Z</time></trkpt><trkpt lat="53.013935" lon="25.344309"><ele>141.45</ele><time>2011-03-20T13:31:23Z</time></trkpt><trkpt lat="53.013977" lon="25.344736"><ele>140.49</ele><time>2011-03-20T13:31:33Z</time></trkpt><trkpt lat="53.013702" lon="25.344793"><ele>141.45</ele><time>2011-03-20T13:31:43Z</time></trkpt><trkpt lat="53.013458" lon="25.344896"><ele>141.45</ele><time>2011-03-20T13:31:54Z</time></trkpt><trkpt lat="53.013454" lon="25.344896"><ele>142.41</ele><time>2011-03-20T13:31:55Z</time></trkpt><trkpt lat="53.013340" lon="25.344883"><ele>142.89</ele><time>2011-03-20T13:32:07Z</time></trkpt><trkpt lat="53.013271" lon="25.344898"><ele>143.85</ele><time>2011-03-20T13:32:14Z</time></trkpt><trkpt lat="53.013214" lon="25.344877"><ele>145.30</ele><time>2011-03-20T13:32:19Z</time></trkpt><trkpt lat="53.013115" lon="25.344887"><ele>146.74</ele><time>2011-03-20T13:32:29Z</time></trkpt><trkpt lat="53.013031" lon="25.344872"><ele>147.22</ele><time>2011-03-20T13:32:38Z</time></trkpt><trkpt lat="53.012985" lon="25.344818"><ele>147.70</ele><time>2011-03-20T13:32:44Z</time></trkpt><trkpt lat="53.012959" lon="25.344725"><ele>149.14</ele><time>2011-03-20T13:32:50Z</time></trkpt><trkpt lat="53.012924" lon="25.344593"><ele>149.62</ele><time>2011-03-20T13:33:01Z</time></trkpt><trkpt lat="53.012959" lon="25.344528"><ele>150.10</ele><time>2011-03-20T13:33:17Z</time></trkpt><trkpt lat="53.012959" lon="25.344528"><ele>150.10</ele><time>2011-03-20T13:33:38Z</time></trkpt><trkpt lat="53.012955" lon="25.344528"><ele>149.62</ele><time>2011-03-20T13:34:03Z</time></trkpt><trkpt lat="53.012955" lon="25.344540"><ele>149.62</ele><time>2011-03-20T13:34:33Z</time></trkpt><trkpt lat="53.012959" lon="25.344543"><ele>149.62</ele><time>2011-03-20T13:35:11Z</time></trkpt><trkpt lat="53.012947" lon="25.344543"><ele>149.14</ele><time>2011-03-20T13:35:13Z</time></trkpt><trkpt lat="53.012863" lon="25.344357"><ele>149.62</ele><time>2011-03-20T13:35:28Z</time></trkpt><trkpt lat="53.012867" lon="25.344374"><ele>148.66</ele><time>2011-03-20T13:35:34Z</time></trkpt><trkpt lat="53.012928" lon="25.344522"><ele>149.62</ele><time>2011-03-20T13:35:48Z</time></trkpt><trkpt lat="53.012966" lon="25.344500"><ele>149.62</ele><time>2011-03-20T13:36:06Z</time></trkpt><trkpt lat="53.012966" lon="25.344500"><ele>149.62</ele><time>2011-03-20T13:36:29Z</time></trkpt><trkpt lat="53.012959" lon="25.344503"><ele>149.62</ele><time>2011-03-20T13:36:51Z</time></trkpt><trkpt lat="53.012959" lon="25.344503"><ele>149.62</ele><time>2011-03-20T13:37:08Z</time></trkpt><trkpt lat="53.012970" lon="25.344513"><ele>149.62</ele><time>2011-03-20T13:37:20Z</time></trkpt><trkpt lat="53.012970" lon="25.344513"><ele>149.62</ele><time>2011-03-20T13:37:21Z</time></trkpt><trkpt lat="53.012856" lon="25.344660"><ele>150.10</ele><time>2011-03-20T13:37:32Z</time></trkpt><trkpt lat="53.012775" lon="25.344732"><ele>150.10</ele><time>2011-03-20T13:37:37Z</time></trkpt><trkpt lat="53.012573" lon="25.345053"><ele>150.10</ele><time>2011-03-20T13:37:51Z</time></trkpt><trkpt lat="53.012394" lon="25.345142"><ele>152.03</ele><time>2011-03-20T13:38:03Z</time></trkpt><trkpt lat="53.012154" lon="25.345320"><ele>151.54</ele><time>2011-03-20T13:38:15Z</time></trkpt><trkpt lat="53.011951" lon="25.345446"><ele>148.66</ele><time>2011-03-20T13:38:27Z</time></trkpt><trkpt lat="53.011749" lon="25.345789"><ele>146.26</ele><time>2011-03-20T13:38:38Z</time></trkpt><trkpt lat="53.012035" lon="25.346214"><ele>145.78</ele><time>2011-03-20T13:38:50Z</time></trkpt><trkpt lat="53.012348" lon="25.346588"><ele>146.26</ele><time>2011-03-20T13:39:03Z</time></trkpt><trkpt lat="53.012768" lon="25.346350"><ele>145.30</ele><time>2011-03-20T13:39:16Z</time></trkpt><trkpt lat="53.013367" lon="25.345711"><ele>142.41</ele><time>2011-03-20T13:39:36Z</time></trkpt><trkpt lat="53.013863" lon="25.345018"><ele>139.05</ele><time>2011-03-20T13:39:54Z</time></trkpt><trkpt lat="53.014122" lon="25.344677"><ele>140.97</ele><time>2011-03-20T13:40:03Z</time></trkpt><trkpt lat="53.014256" lon="25.344486"><ele>139.53</ele><time>2011-03-20T13:40:08Z</time></trkpt><trkpt lat="53.014565" lon="25.344162"><ele>140.01</ele><time>2011-03-20T13:40:22Z</time></trkpt><trkpt lat="53.014568" lon="25.344162"><ele>140.49</ele><time>2011-03-20T13:40:42Z</time></trkpt><trkpt lat="53.014568" lon="25.344162"><ele>140.49</ele><time>2011-03-20T13:41:12Z</time></trkpt><trkpt lat="53.014572" lon="25.344160"><ele>141.45</ele><time>2011-03-20T13:41:40Z</time></trkpt><trkpt lat="53.014668" lon="25.344088"><ele>140.97</ele><time>2011-03-20T13:41:45Z</time></trkpt><trkpt lat="53.015137" lon="25.343834"><ele>139.53</ele><time>2011-03-20T13:41:59Z</time></trkpt><trkpt lat="53.015339" lon="25.343391"><ele>140.01</ele><time>2011-03-20T13:42:11Z</time></trkpt><trkpt lat="53.015320" lon="25.343328"><ele>139.53</ele><time>2011-03-20T13:42:13Z</time></trkpt><trkpt lat="53.015205" lon="25.343285"><ele>139.53</ele><time>2011-03-20T13:42:19Z</time></trkpt><trkpt lat="53.015347" lon="25.343748"><ele>138.09</ele><time>2011-03-20T13:42:34Z</time></trkpt><trkpt lat="53.015789" lon="25.343670"><ele>137.13</ele><time>2011-03-20T13:42:47Z</time></trkpt><trkpt lat="53.016117" lon="25.343979"><ele>137.13</ele><time>2011-03-20T13:43:03Z</time></trkpt><trkpt lat="53.016056" lon="25.344746"><ele>136.16</ele><time>2011-03-20T13:43:14Z</time></trkpt><trkpt lat="53.016052" lon="25.345690"><ele>135.68</ele><time>2011-03-20T13:43:30Z</time></trkpt><trkpt lat="53.016159" lon="25.346272"><ele>134.72</ele><time>2011-03-20T13:43:45Z</time></trkpt><trkpt lat="53.016270" lon="25.346762"><ele>135.20</ele><time>2011-03-20T13:44:00Z</time></trkpt><trkpt lat="53.016281" lon="25.347275"><ele>135.68</ele><time>2011-03-20T13:44:15Z</time></trkpt><trkpt lat="53.016270" lon="25.347620"><ele>134.72</ele><time>2011-03-20T13:44:28Z</time></trkpt><trkpt lat="53.016220" lon="25.347599"><ele>135.20</ele><time>2011-03-20T13:44:33Z</time></trkpt><trkpt lat="53.016113" lon="25.347618"><ele>135.68</ele><time>2011-03-20T13:44:49Z</time></trkpt><trkpt lat="53.016136" lon="25.347620"><ele>134.24</ele><time>2011-03-20T13:45:00Z</time></trkpt><trkpt lat="53.016308" lon="25.347527"><ele>134.72</ele><time>2011-03-20T13:45:15Z</time></trkpt><trkpt lat="53.016315" lon="25.347509"><ele>134.24</ele><time>2011-03-20T13:45:16Z</time></trkpt><trkpt lat="53.016327" lon="25.347315"><ele>134.72</ele><time>2011-03-20T13:45:30Z</time></trkpt><trkpt lat="53.016273" lon="25.346762"><ele>135.20</ele><time>2011-03-20T13:45:45Z</time></trkpt><trkpt lat="53.016266" lon="25.346682"><ele>136.16</ele><time>2011-03-20T13:45:47Z</time></trkpt><trkpt lat="53.016182" lon="25.346237"><ele>135.68</ele><time>2011-03-20T13:46:00Z</time></trkpt><trkpt lat="53.016060" lon="25.345648"><ele>136.64</ele><time>2011-03-20T13:46:16Z</time></trkpt><trkpt lat="53.016029" lon="25.345219"><ele>136.16</ele><time>2011-03-20T13:46:25Z</time></trkpt><trkpt lat="53.016056" lon="25.344366"><ele>136.16</ele><time>2011-03-20T13:46:40Z</time></trkpt><trkpt lat="53.016071" lon="25.343552"><ele>137.13</ele><time>2011-03-20T13:46:56Z</time></trkpt><trkpt lat="53.016445" lon="25.343489"><ele>137.13</ele><time>2011-03-20T13:47:05Z</time></trkpt><trkpt lat="53.016800" lon="25.343435"><ele>136.64</ele><time>2011-03-20T13:47:13Z</time></trkpt><trkpt lat="53.016888" lon="25.343412"><ele>135.68</ele><time>2011-03-20T13:47:15Z</time></trkpt><trkpt lat="53.017563" lon="25.343260"><ele>138.09</ele><time>2011-03-20T13:47:32Z</time></trkpt><trkpt lat="53.018139" lon="25.343195"><ele>141.93</ele><time>2011-03-20T13:47:49Z</time></trkpt><trkpt lat="53.018169" lon="25.343199"><ele>142.41</ele><time>2011-03-20T13:47:50Z</time></trkpt><trkpt lat="53.018623" lon="25.343227"><ele>144.34</ele><time>2011-03-20T13:48:06Z</time></trkpt><trkpt lat="53.019108" lon="25.343271"><ele>148.66</ele><time>2011-03-20T13:48:23Z</time></trkpt><trkpt lat="53.019341" lon="25.343281"><ele>148.66</ele><time>2011-03-20T13:48:31Z</time></trkpt><trkpt lat="53.019779" lon="25.343197"><ele>151.54</ele><time>2011-03-20T13:48:46Z</time></trkpt><trkpt lat="53.019951" lon="25.342720"><ele>155.39</ele><time>2011-03-20T13:48:57Z</time></trkpt><trkpt lat="53.019981" lon="25.342640"><ele>152.51</ele><time>2011-03-20T13:48:59Z</time></trkpt><trkpt lat="53.020046" lon="25.342466"><ele>156.35</ele><time>2011-03-20T13:49:04Z</time></trkpt><trkpt lat="53.020054" lon="25.342436"><ele>152.51</ele><time>2011-03-20T13:49:05Z</time></trkpt><trkpt lat="53.020065" lon="25.342411"><ele>154.91</ele><time>2011-03-20T13:49:06Z</time></trkpt><trkpt lat="53.020081" lon="25.342386"><ele>155.39</ele><time>2011-03-20T13:49:07Z</time></trkpt><trkpt lat="53.020092" lon="25.342358"><ele>153.95</ele><time>2011-03-20T13:49:08Z</time></trkpt><trkpt lat="53.020100" lon="25.342329"><ele>155.87</ele><time>2011-03-20T13:49:09Z</time></trkpt><trkpt lat="53.020111" lon="25.342299"><ele>155.87</ele><time>2011-03-20T13:49:10Z</time></trkpt><trkpt lat="53.020184" lon="25.341810"><ele>156.35</ele><time>2011-03-20T13:49:22Z</time></trkpt><trkpt lat="53.020138" lon="25.341684"><ele>157.31</ele><time>2011-03-20T13:49:25Z</time></trkpt><trkpt lat="53.019985" lon="25.341057"><ele>159.72</ele><time>2011-03-20T13:49:39Z</time></trkpt><trkpt lat="53.019875" lon="25.340612"><ele>164.52</ele><time>2011-03-20T13:49:49Z</time></trkpt><trkpt lat="53.019863" lon="25.340569"><ele>161.64</ele><time>2011-03-20T13:49:50Z</time></trkpt><trkpt lat="53.019791" lon="25.340347"><ele>163.56</ele><time>2011-03-20T13:49:55Z</time></trkpt><trkpt lat="53.019711" lon="25.340139"><ele>166.93</ele><time>2011-03-20T13:50:00Z</time></trkpt><trkpt lat="53.019691" lon="25.340099"><ele>165.96</ele><time>2011-03-20T13:50:01Z</time></trkpt><trkpt lat="53.019421" lon="25.339706"><ele>167.41</ele><time>2011-03-20T13:50:15Z</time></trkpt><trkpt lat="53.019394" lon="25.339787"><ele>166.93</ele><time>2011-03-20T13:50:19Z</time></trkpt><trkpt lat="53.019478" lon="25.340317"><ele>168.37</ele><time>2011-03-20T13:50:32Z</time></trkpt><trkpt lat="53.019531" lon="25.340813"><ele>166.45</ele><time>2011-03-20T13:50:46Z</time></trkpt><trkpt lat="53.019516" lon="25.340862"><ele>167.89</ele><time>2011-03-20T13:50:58Z</time></trkpt><trkpt lat="53.019508" lon="25.340862"><ele>168.85</ele><time>2011-03-20T13:51:04Z</time></trkpt><trkpt lat="53.019444" lon="25.340868"><ele>168.37</ele><time>2011-03-20T13:51:11Z</time></trkpt><trkpt lat="53.019436" lon="25.340935"><ele>167.89</ele><time>2011-03-20T13:51:18Z</time></trkpt><trkpt lat="53.019508" lon="25.340918"><ele>168.37</ele><time>2011-03-20T13:51:33Z</time></trkpt><trkpt lat="53.019440" lon="25.340986"><ele>168.37</ele><time>2011-03-20T13:51:44Z</time></trkpt><trkpt lat="53.019447" lon="25.341057"><ele>167.89</ele><time>2011-03-20T13:51:48Z</time></trkpt><trkpt lat="53.019424" lon="25.341366"><ele>167.41</ele><time>2011-03-20T13:52:04Z</time></trkpt><trkpt lat="53.019421" lon="25.341705"><ele>166.93</ele><time>2011-03-20T13:52:19Z</time></trkpt><trkpt lat="53.019394" lon="25.341785"><ele>167.41</ele><time>2011-03-20T13:52:24Z</time></trkpt><trkpt lat="53.019363" lon="25.342041"><ele>166.93</ele><time>2011-03-20T13:52:39Z</time></trkpt><trkpt lat="53.019333" lon="25.342083"><ele>165.96</ele><time>2011-03-20T13:52:56Z</time></trkpt><trkpt lat="53.019333" lon="25.342081"><ele>165.48</ele><time>2011-03-20T13:53:28Z</time></trkpt><trkpt lat="53.019379" lon="25.342039"><ele>165.48</ele><time>2011-03-20T13:53:55Z</time></trkpt><trkpt lat="53.019394" lon="25.341850"><ele>166.93</ele><time>2011-03-20T13:54:09Z</time></trkpt><trkpt lat="53.019409" lon="25.341766"><ele>166.45</ele><time>2011-03-20T13:54:13Z</time></trkpt><trkpt lat="53.019421" lon="25.341722"><ele>166.45</ele><time>2011-03-20T13:54:15Z</time></trkpt><trkpt lat="53.019417" lon="25.341410"><ele>167.41</ele><time>2011-03-20T13:54:33Z</time></trkpt><trkpt lat="53.019444" lon="25.341164"><ele>166.93</ele><time>2011-03-20T13:54:48Z</time></trkpt><trkpt lat="53.019444" lon="25.340921"><ele>166.93</ele><time>2011-03-20T13:55:02Z</time></trkpt><trkpt lat="53.019459" lon="25.340862"><ele>167.89</ele><time>2011-03-20T13:55:08Z</time></trkpt><trkpt lat="53.019550" lon="25.340876"><ele>166.45</ele><time>2011-03-20T13:55:24Z</time></trkpt><trkpt lat="53.019569" lon="25.340860"><ele>165.96</ele><time>2011-03-20T13:55:26Z</time></trkpt><trkpt lat="53.019600" lon="25.340742"><ele>165.96</ele><time>2011-03-20T13:55:32Z</time></trkpt><trkpt lat="53.019562" lon="25.340473"><ele>166.93</ele><time>2011-03-20T13:55:47Z</time></trkpt><trkpt lat="53.019535" lon="25.340340"><ele>166.93</ele><time>2011-03-20T13:55:57Z</time></trkpt><trkpt lat="53.019497" lon="25.340147"><ele>166.93</ele><time>2011-03-20T13:56:10Z</time></trkpt><trkpt lat="53.019432" lon="25.339800"><ele>165.48</ele><time>2011-03-20T13:56:22Z</time></trkpt><trkpt lat="53.019569" lon="25.339928"><ele>164.52</ele><time>2011-03-20T13:56:31Z</time></trkpt><trkpt lat="53.019775" lon="25.340414"><ele>161.16</ele><time>2011-03-20T13:56:38Z</time></trkpt><trkpt lat="53.019833" lon="25.340612"><ele>160.68</ele><time>2011-03-20T13:56:40Z</time></trkpt><trkpt lat="53.019947" lon="25.341066"><ele>157.79</ele><time>2011-03-20T13:56:44Z</time></trkpt><trkpt lat="53.020111" lon="25.341700"><ele>156.35</ele><time>2011-03-20T13:56:50Z</time></trkpt><trkpt lat="53.020142" lon="25.341892"><ele>155.87</ele><time>2011-03-20T13:56:52Z</time></trkpt><trkpt lat="53.020123" lon="25.342247"><ele>154.43</ele><time>2011-03-20T13:56:56Z</time></trkpt><trkpt lat="53.020096" lon="25.342310"><ele>154.43</ele><time>2011-03-20T13:56:57Z</time></trkpt><trkpt lat="53.020061" lon="25.342386"><ele>153.95</ele><time>2011-03-20T13:56:58Z</time></trkpt><trkpt lat="53.019962" lon="25.342669"><ele>151.54</ele><time>2011-03-20T13:57:01Z</time></trkpt><trkpt lat="53.019798" lon="25.343149"><ele>149.62</ele><time>2011-03-20T13:57:07Z</time></trkpt><trkpt lat="53.019794" lon="25.343220"><ele>149.14</ele><time>2011-03-20T13:57:08Z</time></trkpt><trkpt lat="53.019798" lon="25.343300"><ele>148.18</ele><time>2011-03-20T13:57:09Z</time></trkpt><trkpt lat="53.019810" lon="25.343382"><ele>148.18</ele><time>2011-03-20T13:57:10Z</time></trkpt><trkpt lat="53.019833" lon="25.343460"><ele>148.18</ele><time>2011-03-20T13:57:11Z</time></trkpt><trkpt lat="53.019863" lon="25.343527"><ele>148.18</ele><time>2011-03-20T13:57:12Z</time></trkpt><trkpt lat="53.019894" lon="25.343596"><ele>148.18</ele><time>2011-03-20T13:57:13Z</time></trkpt><trkpt lat="53.019966" lon="25.343710"><ele>148.18</ele><time>2011-03-20T13:57:15Z</time></trkpt><trkpt lat="53.020454" lon="25.344414"><ele>148.18</ele><time>2011-03-20T13:57:29Z</time></trkpt><trkpt lat="53.020912" lon="25.345078"><ele>149.14</ele><time>2011-03-20T13:57:43Z</time></trkpt><trkpt lat="53.021408" lon="25.345747"><ele>150.58</ele><time>2011-03-20T13:58:00Z</time></trkpt><trkpt lat="53.021828" lon="25.346340"><ele>149.14</ele><time>2011-03-20T13:58:17Z</time></trkpt><trkpt lat="53.022240" lon="25.346922"><ele>146.26</ele><time>2011-03-20T13:58:27Z</time></trkpt><trkpt lat="53.022736" lon="25.347610"><ele>142.89</ele><time>2011-03-20T13:58:37Z</time></trkpt><trkpt lat="53.023338" lon="25.348457"><ele>139.53</ele><time>2011-03-20T13:58:49Z</time></trkpt><trkpt lat="53.024078" lon="25.349522"><ele>136.16</ele><time>2011-03-20T13:59:06Z</time></trkpt><trkpt lat="53.024399" lon="25.350134"><ele>133.76</ele><time>2011-03-20T13:59:15Z</time></trkpt><trkpt lat="53.024414" lon="25.350199"><ele>133.28</ele><time>2011-03-20T13:59:16Z</time></trkpt><trkpt lat="53.024479" lon="25.350407"><ele>133.28</ele><time>2011-03-20T13:59:21Z</time></trkpt><trkpt lat="53.024464" lon="25.350426"><ele>133.28</ele><time>2011-03-20T13:59:22Z</time></trkpt><trkpt lat="53.024445" lon="25.350420"><ele>132.80</ele><time>2011-03-20T13:59:23Z</time></trkpt><trkpt lat="53.024422" lon="25.350410"><ele>132.80</ele><time>2011-03-20T13:59:24Z</time></trkpt><trkpt lat="53.024403" lon="25.350405"><ele>133.28</ele><time>2011-03-20T13:59:25Z</time></trkpt><trkpt lat="53.024387" lon="25.350395"><ele>133.28</ele><time>2011-03-20T13:59:26Z</time></trkpt><trkpt lat="53.024376" lon="25.350384"><ele>133.28</ele><time>2011-03-20T13:59:27Z</time></trkpt><trkpt lat="53.024345" lon="25.350351"><ele>133.76</ele><time>2011-03-20T13:59:30Z</time></trkpt><trkpt lat="53.024307" lon="25.350330"><ele>132.32</ele><time>2011-03-20T13:59:33Z</time></trkpt><trkpt lat="53.024303" lon="25.350304"><ele>133.28</ele><time>2011-03-20T13:59:34Z</time></trkpt><trkpt lat="53.024361" lon="25.350018"><ele>134.24</ele><time>2011-03-20T13:59:42Z</time></trkpt><trkpt lat="53.024391" lon="25.350151"><ele>133.76</ele><time>2011-03-20T13:59:47Z</time></trkpt><trkpt lat="53.024548" lon="25.350359"><ele>132.80</ele><time>2011-03-20T13:59:52Z</time></trkpt><trkpt lat="53.024582" lon="25.350389"><ele>132.80</ele><time>2011-03-20T13:59:53Z</time></trkpt><trkpt lat="53.024616" lon="25.350399"><ele>133.28</ele><time>2011-03-20T13:59:54Z</time></trkpt><trkpt lat="53.024654" lon="25.350401"><ele>132.80</ele><time>2011-03-20T13:59:55Z</time></trkpt><trkpt lat="53.024689" lon="25.350395"><ele>133.76</ele><time>2011-03-20T13:59:56Z</time></trkpt><trkpt lat="53.025425" lon="25.350368"><ele>132.32</ele><time>2011-03-20T14:00:14Z</time></trkpt><trkpt lat="53.026203" lon="25.350428"><ele>130.40</ele><time>2011-03-20T14:00:30Z</time></trkpt><trkpt lat="53.026917" lon="25.350521"><ele>130.88</ele><time>2011-03-20T14:00:46Z</time></trkpt><trkpt lat="53.027527" lon="25.350630"><ele>129.43</ele><time>2011-03-20T14:00:59Z</time></trkpt><trkpt lat="53.028366" lon="25.350826"><ele>130.40</ele><time>2011-03-20T14:01:16Z</time></trkpt><trkpt lat="53.028412" lon="25.350836"><ele>128.95</ele><time>2011-03-20T14:01:17Z</time></trkpt><trkpt lat="53.028461" lon="25.350845"><ele>129.92</ele><time>2011-03-20T14:01:18Z</time></trkpt><trkpt lat="53.028893" lon="25.350946"><ele>130.88</ele><time>2011-03-20T14:01:27Z</time></trkpt><trkpt lat="53.028938" lon="25.350960"><ele>128.95</ele><time>2011-03-20T14:01:28Z</time></trkpt><trkpt lat="53.029671" lon="25.351131"><ele>129.43</ele><time>2011-03-20T14:01:45Z</time></trkpt><trkpt lat="53.030018" lon="25.351217"><ele>128.95</ele><time>2011-03-20T14:01:53Z</time></trkpt><trkpt lat="53.030060" lon="25.351227"><ele>129.43</ele><time>2011-03-20T14:01:54Z</time></trkpt><trkpt lat="53.030281" lon="25.351276"><ele>130.88</ele><time>2011-03-20T14:01:59Z</time></trkpt><trkpt lat="53.030861" lon="25.351440"><ele>129.92</ele><time>2011-03-20T14:02:13Z</time></trkpt><trkpt lat="53.030895" lon="25.351486"><ele>129.92</ele><time>2011-03-20T14:02:14Z</time></trkpt><trkpt lat="53.030922" lon="25.351540"><ele>129.43</ele><time>2011-03-20T14:02:15Z</time></trkpt><trkpt lat="53.030945" lon="25.351597"><ele>129.43</ele><time>2011-03-20T14:02:16Z</time></trkpt><trkpt lat="53.030964" lon="25.351660"><ele>129.92</ele><time>2011-03-20T14:02:17Z</time></trkpt><trkpt lat="53.030975" lon="25.351727"><ele>130.40</ele><time>2011-03-20T14:02:18Z</time></trkpt><trkpt lat="53.030991" lon="25.351934"><ele>129.43</ele><time>2011-03-20T14:02:21Z</time></trkpt><trkpt lat="53.030949" lon="25.353470"><ele>130.40</ele><time>2011-03-20T14:02:40Z</time></trkpt><trkpt lat="53.030945" lon="25.353552"><ele>128.95</ele><time>2011-03-20T14:02:41Z</time></trkpt><trkpt lat="53.030910" lon="25.354906"><ele>130.40</ele><time>2011-03-20T14:02:58Z</time></trkpt><trkpt lat="53.030861" lon="25.356264"><ele>129.92</ele><time>2011-03-20T14:03:16Z</time></trkpt><trkpt lat="53.030769" lon="25.358147"><ele>127.51</ele><time>2011-03-20T14:03:38Z</time></trkpt><trkpt lat="53.030697" lon="25.359747"><ele>127.03</ele><time>2011-03-20T14:03:57Z</time></trkpt><trkpt lat="53.030647" lon="25.360950"><ele>127.99</ele><time>2011-03-20T14:04:12Z</time></trkpt><trkpt lat="53.030659" lon="25.361561"><ele>128.47</ele><time>2011-03-20T14:04:21Z</time></trkpt><trkpt lat="53.030754" lon="25.362850"><ele>127.51</ele><time>2011-03-20T14:04:38Z</time></trkpt><trkpt lat="53.030865" lon="25.364202"><ele>127.99</ele><time>2011-03-20T14:04:56Z</time></trkpt><trkpt lat="53.030930" lon="25.365038"><ele>128.47</ele><time>2011-03-20T14:05:08Z</time></trkpt><trkpt lat="53.031052" lon="25.366432"><ele>127.51</ele><time>2011-03-20T14:05:26Z</time></trkpt><trkpt lat="53.031136" lon="25.367449"><ele>127.51</ele><time>2011-03-20T14:05:42Z</time></trkpt><trkpt lat="53.031254" lon="25.368805"><ele>127.99</ele><time>2011-03-20T14:06:01Z</time></trkpt><trkpt lat="53.031273" lon="25.369009"><ele>127.99</ele><time>2011-03-20T14:06:04Z</time></trkpt><trkpt lat="53.031368" lon="25.370321"><ele>128.95</ele><time>2011-03-20T14:06:23Z</time></trkpt><trkpt lat="53.031475" lon="25.371601"><ele>131.84</ele><time>2011-03-20T14:06:43Z</time></trkpt><trkpt lat="53.031578" lon="25.372793"><ele>132.32</ele><time>2011-03-20T14:07:01Z</time></trkpt><trkpt lat="53.031666" lon="25.373827"><ele>132.32</ele><time>2011-03-20T14:07:16Z</time></trkpt><trkpt lat="53.031788" lon="25.374939"><ele>131.84</ele><time>2011-03-20T14:07:33Z</time></trkpt><trkpt lat="53.031868" lon="25.375628"><ele>131.84</ele><time>2011-03-20T14:07:48Z</time></trkpt><trkpt lat="53.031860" lon="25.375664"><ele>131.36</ele><time>2011-03-20T14:08:02Z</time></trkpt><trkpt lat="53.031895" lon="25.375704"><ele>131.84</ele><time>2011-03-20T14:08:07Z</time></trkpt><trkpt lat="53.031902" lon="25.375723"><ele>128.95</ele><time>2011-03-20T14:08:08Z</time></trkpt><trkpt lat="53.031910" lon="25.375744"><ele>129.92</ele><time>2011-03-20T14:08:09Z</time></trkpt><trkpt lat="53.031910" lon="25.375765"><ele>131.84</ele><time>2011-03-20T14:08:10Z</time></trkpt><trkpt lat="53.031910" lon="25.375784"><ele>131.36</ele><time>2011-03-20T14:08:11Z</time></trkpt><trkpt lat="53.031906" lon="25.375803"><ele>132.80</ele><time>2011-03-20T14:08:12Z</time></trkpt><trkpt lat="53.031898" lon="25.375820"><ele>131.84</ele><time>2011-03-20T14:08:13Z</time></trkpt><trkpt lat="53.031872" lon="25.375864"><ele>131.36</ele><time>2011-03-20T14:08:27Z</time></trkpt><trkpt lat="53.031872" lon="25.375864"><ele>131.84</ele><time>2011-03-20T14:08:52Z</time></trkpt><trkpt lat="53.031853" lon="25.375898"><ele>131.36</ele><time>2011-03-20T14:09:12Z</time></trkpt><trkpt lat="53.031845" lon="25.375916"><ele>131.84</ele><time>2011-03-20T14:09:13Z</time></trkpt><trkpt lat="53.031841" lon="25.375938"><ele>131.84</ele><time>2011-03-20T14:09:14Z</time></trkpt><trkpt lat="53.031837" lon="25.375969"><ele>132.80</ele><time>2011-03-20T14:09:15Z</time></trkpt><trkpt lat="53.031830" lon="25.376001"><ele>131.36</ele><time>2011-03-20T14:09:16Z</time></trkpt><trkpt lat="53.031830" lon="25.376034"><ele>132.32</ele><time>2011-03-20T14:09:17Z</time></trkpt><trkpt lat="53.031830" lon="25.376066"><ele>131.84</ele><time>2011-03-20T14:09:18Z</time></trkpt><trkpt lat="53.031673" lon="25.376402"><ele>133.28</ele><time>2011-03-20T14:09:32Z</time></trkpt><trkpt lat="53.031597" lon="25.376461"><ele>133.28</ele><time>2011-03-20T14:09:46Z</time></trkpt><trkpt lat="53.031586" lon="25.376469"><ele>133.28</ele><time>2011-03-20T14:09:50Z</time></trkpt><trkpt lat="53.031570" lon="25.376478"><ele>133.28</ele><time>2011-03-20T14:09:51Z</time></trkpt><trkpt lat="53.031559" lon="25.376497"><ele>133.28</ele><time>2011-03-20T14:09:52Z</time></trkpt><trkpt lat="53.031548" lon="25.376516"><ele>133.76</ele><time>2011-03-20T14:09:53Z</time></trkpt><trkpt lat="53.031601" lon="25.376524"><ele>133.28</ele><time>2011-03-20T14:09:59Z</time></trkpt><trkpt lat="53.031662" lon="25.376465"><ele>132.80</ele><time>2011-03-20T14:10:02Z</time></trkpt><trkpt lat="53.031685" lon="25.376446"><ele>132.80</ele><time>2011-03-20T14:10:03Z</time></trkpt><trkpt lat="53.031979" lon="25.376118"><ele>131.36</ele><time>2011-03-20T14:10:16Z</time></trkpt><trkpt lat="53.032215" lon="25.375856"><ele>131.36</ele><time>2011-03-20T14:10:29Z</time></trkpt><trkpt lat="53.032211" lon="25.375929"><ele>130.40</ele><time>2011-03-20T14:10:41Z</time></trkpt><trkpt lat="53.032230" lon="25.375921"><ele>130.88</ele><time>2011-03-20T14:10:43Z</time></trkpt><trkpt lat="53.032227" lon="25.375906"><ele>129.92</ele><time>2011-03-20T14:11:00Z</time></trkpt><trkpt lat="53.032204" lon="25.375914"><ele>130.88</ele><time>2011-03-20T14:11:13Z</time></trkpt><trkpt lat="53.032173" lon="25.375912"><ele>130.40</ele><time>2011-03-20T14:11:15Z</time></trkpt><trkpt lat="53.032158" lon="25.375906"><ele>130.40</ele><time>2011-03-20T14:11:16Z</time></trkpt><trkpt lat="53.032135" lon="25.375893"><ele>130.40</ele><time>2011-03-20T14:11:17Z</time></trkpt><trkpt lat="53.032112" lon="25.375877"><ele>130.88</ele><time>2011-03-20T14:11:18Z</time></trkpt><trkpt lat="53.032085" lon="25.375858"><ele>130.40</ele><time>2011-03-20T14:11:19Z</time></trkpt><trkpt lat="53.032055" lon="25.375835"><ele>130.40</ele><time>2011-03-20T14:11:20Z</time></trkpt><trkpt lat="53.032036" lon="25.375805"><ele>130.88</ele><time>2011-03-20T14:11:21Z</time></trkpt><trkpt lat="53.032013" lon="25.375771"><ele>130.88</ele><time>2011-03-20T14:11:22Z</time></trkpt><trkpt lat="53.031998" lon="25.375725"><ele>131.36</ele><time>2011-03-20T14:11:23Z</time></trkpt><trkpt lat="53.031979" lon="25.375671"><ele>131.36</ele><time>2011-03-20T14:11:24Z</time></trkpt><trkpt lat="53.031960" lon="25.375618"><ele>130.88</ele><time>2011-03-20T14:11:25Z</time></trkpt><trkpt lat="53.031868" lon="25.375103"><ele>130.88</ele><time>2011-03-20T14:11:34Z</time></trkpt><trkpt lat="53.031826" lon="25.374802"><ele>132.80</ele><time>2011-03-20T14:11:39Z</time></trkpt><trkpt lat="53.031738" lon="25.373852"><ele>132.80</ele><time>2011-03-20T14:11:56Z</time></trkpt><trkpt lat="53.031673" lon="25.373024"><ele>133.28</ele><time>2011-03-20T14:12:10Z</time></trkpt><trkpt lat="53.031620" lon="25.372379"><ele>131.84</ele><time>2011-03-20T14:12:20Z</time></trkpt><trkpt lat="53.031578" lon="25.371901"><ele>131.36</ele><time>2011-03-20T14:12:27Z</time></trkpt><trkpt lat="53.031452" lon="25.370531"><ele>129.43</ele><time>2011-03-20T14:12:46Z</time></trkpt><trkpt lat="53.031433" lon="25.370306"><ele>128.95</ele><time>2011-03-20T14:12:49Z</time></trkpt><trkpt lat="53.031326" lon="25.368881"><ele>127.51</ele><time>2011-03-20T14:13:07Z</time></trkpt><trkpt lat="53.031216" lon="25.367647"><ele>127.03</ele><time>2011-03-20T14:13:23Z</time></trkpt><trkpt lat="53.031097" lon="25.366354"><ele>127.03</ele><time>2011-03-20T14:13:40Z</time></trkpt><trkpt lat="53.031082" lon="25.366278"><ele>128.47</ele><time>2011-03-20T14:13:41Z</time></trkpt><trkpt lat="53.030998" lon="25.365025"><ele>127.03</ele><time>2011-03-20T14:13:57Z</time></trkpt><trkpt lat="53.030880" lon="25.363665"><ele>127.03</ele><time>2011-03-20T14:14:15Z</time></trkpt><trkpt lat="53.030758" lon="25.362228"><ele>128.47</ele><time>2011-03-20T14:14:34Z</time></trkpt><trkpt lat="53.030716" lon="25.361723"><ele>127.99</ele><time>2011-03-20T14:14:41Z</time></trkpt><trkpt lat="53.030697" lon="25.360800"><ele>126.55</ele><time>2011-03-20T14:14:54Z</time></trkpt><trkpt lat="53.030750" lon="25.359690"><ele>127.03</ele><time>2011-03-20T14:15:10Z</time></trkpt><trkpt lat="53.030762" lon="25.359484"><ele>127.99</ele><time>2011-03-20T14:15:13Z</time></trkpt><trkpt lat="53.030766" lon="25.359344"><ele>127.03</ele><time>2011-03-20T14:15:15Z</time></trkpt><trkpt lat="53.030811" lon="25.358311"><ele>128.47</ele><time>2011-03-20T14:15:31Z</time></trkpt><trkpt lat="53.030819" lon="25.358192"><ele>127.99</ele><time>2011-03-20T14:15:33Z</time></trkpt><trkpt lat="53.030846" lon="25.357531"><ele>128.95</ele><time>2011-03-20T14:15:45Z</time></trkpt><trkpt lat="53.030907" lon="25.356430"><ele>129.43</ele><time>2011-03-20T14:16:05Z</time></trkpt><trkpt lat="53.030964" lon="25.355335"><ele>129.43</ele><time>2011-03-20T14:16:24Z</time></trkpt><trkpt lat="53.030972" lon="25.354296"><ele>129.92</ele><time>2011-03-20T14:16:42Z</time></trkpt><trkpt lat="53.030994" lon="25.353220"><ele>130.40</ele><time>2011-03-20T14:16:59Z</time></trkpt><trkpt lat="53.031017" lon="25.352596"><ele>130.40</ele><time>2011-03-20T14:17:09Z</time></trkpt><trkpt lat="53.031113" lon="25.351559"><ele>127.99</ele><time>2011-03-20T14:17:26Z</time></trkpt><trkpt lat="53.031357" lon="25.351542"><ele>130.88</ele><time>2011-03-20T14:17:33Z</time></trkpt><trkpt lat="53.032101" lon="25.351778"><ele>129.92</ele><time>2011-03-20T14:17:51Z</time></trkpt><trkpt lat="53.032635" lon="25.351931"><ele>129.43</ele><time>2011-03-20T14:18:04Z</time></trkpt><trkpt lat="53.033249" lon="25.352077"><ele>130.88</ele><time>2011-03-20T14:18:19Z</time></trkpt><trkpt lat="53.033333" lon="25.352098"><ele>129.43</ele><time>2011-03-20T14:18:21Z</time></trkpt><trkpt lat="53.034069" lon="25.352289"><ele>131.84</ele><time>2011-03-20T14:18:40Z</time></trkpt><trkpt lat="53.034958" lon="25.352537"><ele>132.80</ele><time>2011-03-20T14:19:02Z</time></trkpt><trkpt lat="53.035767" lon="25.352762"><ele>131.36</ele><time>2011-03-20T14:19:21Z</time></trkpt><trkpt lat="53.036499" lon="25.352955"><ele>129.92</ele><time>2011-03-20T14:19:38Z</time></trkpt><trkpt lat="53.037052" lon="25.353231"><ele>128.47</ele><time>2011-03-20T14:19:52Z</time></trkpt><trkpt lat="53.037098" lon="25.353260"><ele>128.95</ele><time>2011-03-20T14:19:53Z</time></trkpt><trkpt lat="53.037140" lon="25.353292"><ele>130.40</ele><time>2011-03-20T14:19:54Z</time></trkpt><trkpt lat="53.037861" lon="25.353867"><ele>128.95</ele><time>2011-03-20T14:20:12Z</time></trkpt><trkpt lat="53.038139" lon="25.354095"><ele>128.47</ele><time>2011-03-20T14:20:19Z</time></trkpt><trkpt lat="53.038536" lon="25.354406"><ele>128.95</ele><time>2011-03-20T14:20:29Z</time></trkpt><trkpt lat="53.038574" lon="25.354435"><ele>129.92</ele><time>2011-03-20T14:20:30Z</time></trkpt><trkpt lat="53.038612" lon="25.354465"><ele>129.92</ele><time>2011-03-20T14:20:31Z</time></trkpt><trkpt lat="53.039181" lon="25.354916"><ele>129.43</ele><time>2011-03-20T14:20:47Z</time></trkpt><trkpt lat="53.039841" lon="25.355490"><ele>130.40</ele><time>2011-03-20T14:21:04Z</time></trkpt><trkpt lat="53.039883" lon="25.355524"><ele>128.95</ele><time>2011-03-20T14:21:05Z</time></trkpt><trkpt lat="53.040421" lon="25.355951"><ele>129.92</ele><time>2011-03-20T14:21:19Z</time></trkpt><trkpt lat="53.041000" lon="25.356430"><ele>129.92</ele><time>2011-03-20T14:21:34Z</time></trkpt><trkpt lat="53.041607" lon="25.356939"><ele>129.43</ele><time>2011-03-20T14:21:51Z</time></trkpt><trkpt lat="53.041946" lon="25.357193"><ele>131.36</ele><time>2011-03-20T14:22:06Z</time></trkpt><trkpt lat="53.042095" lon="25.357294"><ele>130.88</ele><time>2011-03-20T14:22:21Z</time></trkpt><trkpt lat="53.042095" lon="25.357294"><ele>129.92</ele><time>2011-03-20T14:22:49Z</time></trkpt><trkpt lat="53.042091" lon="25.357292"><ele>130.40</ele><time>2011-03-20T14:23:10Z</time></trkpt><trkpt lat="53.042114" lon="25.357285"><ele>130.40</ele><time>2011-03-20T14:23:13Z</time></trkpt><trkpt lat="53.042175" lon="25.357307"><ele>130.88</ele><time>2011-03-20T14:23:16Z</time></trkpt><trkpt lat="53.042549" lon="25.357492"><ele>130.40</ele><time>2011-03-20T14:23:31Z</time></trkpt><trkpt lat="53.042908" lon="25.357639"><ele>129.92</ele><time>2011-03-20T14:23:45Z</time></trkpt><trkpt lat="53.043461" lon="25.357841"><ele>129.43</ele><time>2011-03-20T14:24:03Z</time></trkpt><trkpt lat="53.044079" lon="25.358021"><ele>129.43</ele><time>2011-03-20T14:24:21Z</time></trkpt><trkpt lat="53.044777" lon="25.358204"><ele>128.47</ele><time>2011-03-20T14:24:38Z</time></trkpt><trkpt lat="53.045444" lon="25.358315"><ele>128.95</ele><time>2011-03-20T14:24:54Z</time></trkpt><trkpt lat="53.046135" lon="25.358339"><ele>129.92</ele><time>2011-03-20T14:25:11Z</time></trkpt><trkpt lat="53.046803" lon="25.358318"><ele>130.88</ele><time>2011-03-20T14:25:28Z</time></trkpt><trkpt lat="53.047287" lon="25.358263"><ele>131.36</ele><time>2011-03-20T14:25:43Z</time></trkpt><trkpt lat="53.047916" lon="25.358091"><ele>131.36</ele><time>2011-03-20T14:26:00Z</time></trkpt><trkpt lat="53.048504" lon="25.357841"><ele>130.88</ele><time>2011-03-20T14:26:17Z</time></trkpt><trkpt lat="53.048737" lon="25.357716"><ele>130.88</ele><time>2011-03-20T14:26:23Z</time></trkpt><trkpt lat="53.049324" lon="25.357378"><ele>130.88</ele><time>2011-03-20T14:26:39Z</time></trkpt><trkpt lat="53.049702" lon="25.357098"><ele>130.88</ele><time>2011-03-20T14:26:49Z</time></trkpt><trkpt lat="53.050011" lon="25.356865"><ele>131.84</ele><time>2011-03-20T14:26:57Z</time></trkpt><trkpt lat="53.050617" lon="25.356327"><ele>129.92</ele><time>2011-03-20T14:27:13Z</time></trkpt><trkpt lat="53.050919" lon="25.356009"><ele>129.92</ele><time>2011-03-20T14:27:22Z</time></trkpt><trkpt lat="53.051220" lon="25.355692"><ele>129.43</ele><time>2011-03-20T14:27:31Z</time></trkpt><trkpt lat="53.051697" lon="25.355177"><ele>129.43</ele><time>2011-03-20T14:27:45Z</time></trkpt><trkpt lat="53.052227" lon="25.354612"><ele>129.43</ele><time>2011-03-20T14:28:01Z</time></trkpt><trkpt lat="53.052666" lon="25.354153"><ele>130.40</ele><time>2011-03-20T14:28:14Z</time></trkpt><trkpt lat="53.052929" lon="25.353861"><ele>131.36</ele><time>2011-03-20T14:28:22Z</time></trkpt><trkpt lat="53.053520" lon="25.353224"><ele>131.84</ele><time>2011-03-20T14:28:40Z</time></trkpt><trkpt lat="53.054096" lon="25.352615"><ele>132.32</ele><time>2011-03-20T14:28:59Z</time></trkpt><trkpt lat="53.054398" lon="25.352297"><ele>133.28</ele><time>2011-03-20T14:29:09Z</time></trkpt><trkpt lat="53.054928" lon="25.351763"><ele>133.28</ele><time>2011-03-20T14:29:30Z</time></trkpt><trkpt lat="53.054958" lon="25.351774"><ele>132.80</ele><time>2011-03-20T14:29:32Z</time></trkpt><trkpt lat="53.054970" lon="25.351788"><ele>132.80</ele><time>2011-03-20T14:29:33Z</time></trkpt><trkpt lat="53.054977" lon="25.351797"><ele>134.72</ele><time>2011-03-20T14:29:34Z</time></trkpt><trkpt lat="53.055000" lon="25.351776"><ele>133.76</ele><time>2011-03-20T14:29:44Z</time></trkpt><trkpt lat="53.055004" lon="25.351795"><ele>133.76</ele><time>2011-03-20T14:29:45Z</time></trkpt><trkpt lat="53.055023" lon="25.351851"><ele>133.76</ele><time>2011-03-20T14:29:49Z</time></trkpt><trkpt lat="53.055038" lon="25.351860"><ele>133.76</ele><time>2011-03-20T14:30:03Z</time></trkpt><trkpt lat="53.055038" lon="25.351856"><ele>132.80</ele><time>2011-03-20T14:30:16Z</time></trkpt><trkpt lat="53.055038" lon="25.351856"><ele>133.28</ele><time>2011-03-20T14:30:49Z</time></trkpt><trkpt lat="53.055038" lon="25.351856"><ele>133.28</ele><time>2011-03-20T14:31:24Z</time></trkpt><trkpt lat="53.055038" lon="25.351854"><ele>133.28</ele><time>2011-03-20T14:31:53Z</time></trkpt><trkpt lat="53.055042" lon="25.351843"><ele>133.28</ele><time>2011-03-20T14:32:15Z</time></trkpt><trkpt lat="53.055042" lon="25.351843"><ele>133.28</ele><time>2011-03-20T14:32:59Z</time></trkpt><trkpt lat="53.055042" lon="25.351841"><ele>133.76</ele><time>2011-03-20T14:33:33Z</time></trkpt><trkpt lat="53.055042" lon="25.351839"><ele>133.28</ele><time>2011-03-20T14:34:10Z</time></trkpt><trkpt lat="53.055042" lon="25.351839"><ele>133.28</ele><time>2011-03-20T14:34:37Z</time></trkpt><trkpt lat="53.055042" lon="25.351845"><ele>133.76</ele><time>2011-03-20T14:35:12Z</time></trkpt><trkpt lat="53.055042" lon="25.351845"><ele>134.24</ele><time>2011-03-20T14:35:44Z</time></trkpt><trkpt lat="53.055042" lon="25.351847"><ele>134.72</ele><time>2011-03-20T14:36:02Z</time></trkpt><trkpt lat="53.055042" lon="25.351849"><ele>134.24</ele><time>2011-03-20T14:36:36Z</time></trkpt><trkpt lat="53.055042" lon="25.351858"><ele>133.76</ele><time>2011-03-20T14:37:01Z</time></trkpt><trkpt lat="53.055012" lon="25.351843"><ele>134.24</ele><time>2011-03-20T14:37:07Z</time></trkpt><trkpt lat="53.055004" lon="25.351826"><ele>133.28</ele><time>2011-03-20T14:37:08Z</time></trkpt><trkpt lat="53.055000" lon="25.351799"><ele>133.76</ele><time>2011-03-20T14:37:09Z</time></trkpt><trkpt lat="53.054996" lon="25.351765"><ele>133.28</ele><time>2011-03-20T14:37:10Z</time></trkpt><trkpt lat="53.054996" lon="25.351723"><ele>133.76</ele><time>2011-03-20T14:37:11Z</time></trkpt><trkpt lat="53.055004" lon="25.351681"><ele>133.76</ele><time>2011-03-20T14:37:12Z</time></trkpt><trkpt lat="53.055016" lon="25.351643"><ele>133.28</ele><time>2011-03-20T14:37:13Z</time></trkpt><trkpt lat="53.055027" lon="25.351612"><ele>133.76</ele><time>2011-03-20T14:37:14Z</time></trkpt><trkpt lat="53.055042" lon="25.351585"><ele>133.76</ele><time>2011-03-20T14:37:15Z</time></trkpt><trkpt lat="53.055065" lon="25.351559"><ele>133.76</ele><time>2011-03-20T14:37:16Z</time></trkpt><trkpt lat="53.055092" lon="25.351532"><ele>133.76</ele><time>2011-03-20T14:37:17Z</time></trkpt><trkpt lat="53.055122" lon="25.351503"><ele>133.76</ele><time>2011-03-20T14:37:18Z</time></trkpt><trkpt lat="53.055695" lon="25.350910"><ele>133.76</ele><time>2011-03-20T14:37:37Z</time></trkpt><trkpt lat="53.056145" lon="25.350447"><ele>133.28</ele><time>2011-03-20T14:37:52Z</time></trkpt><trkpt lat="53.056805" lon="25.349735"><ele>132.32</ele><time>2011-03-20T14:38:11Z</time></trkpt><trkpt lat="53.057377" lon="25.349138"><ele>132.32</ele><time>2011-03-20T14:38:27Z</time></trkpt><trkpt lat="53.058041" lon="25.348421"><ele>131.36</ele><time>2011-03-20T14:38:45Z</time></trkpt><trkpt lat="53.058659" lon="25.347752"><ele>131.36</ele><time>2011-03-20T14:39:03Z</time></trkpt><trkpt lat="53.058949" lon="25.347450"><ele>131.36</ele><time>2011-03-20T14:39:11Z</time></trkpt><trkpt lat="53.059399" lon="25.347040"><ele>130.88</ele><time>2011-03-20T14:39:25Z</time></trkpt><trkpt lat="53.059952" lon="25.346449"><ele>131.36</ele><time>2011-03-20T14:39:42Z</time></trkpt><trkpt lat="53.060440" lon="25.345921"><ele>130.40</ele><time>2011-03-20T14:39:56Z</time></trkpt><trkpt lat="53.060616" lon="25.345732"><ele>130.88</ele><time>2011-03-20T14:40:01Z</time></trkpt><trkpt lat="53.061150" lon="25.345181"><ele>130.40</ele><time>2011-03-20T14:40:16Z</time></trkpt><trkpt lat="53.061550" lon="25.344736"><ele>130.40</ele><time>2011-03-20T14:40:29Z</time></trkpt><trkpt lat="53.062126" lon="25.344130"><ele>129.92</ele><time>2011-03-20T14:40:47Z</time></trkpt><trkpt lat="53.062668" lon="25.343548"><ele>129.43</ele><time>2011-03-20T14:41:04Z</time></trkpt><trkpt lat="53.063263" lon="25.342892"><ele>129.43</ele><time>2011-03-20T14:41:23Z</time></trkpt><trkpt lat="53.063702" lon="25.342386"><ele>129.92</ele><time>2011-03-20T14:41:37Z</time></trkpt><trkpt lat="53.064217" lon="25.341722"><ele>128.95</ele><time>2011-03-20T14:41:55Z</time></trkpt><trkpt lat="53.064507" lon="25.341154"><ele>129.92</ele><time>2011-03-20T14:42:08Z</time></trkpt><trkpt lat="53.064987" lon="25.340336"><ele>129.92</ele><time>2011-03-20T14:42:26Z</time></trkpt><trkpt lat="53.065510" lon="25.339386"><ele>128.95</ele><time>2011-03-20T14:42:44Z</time></trkpt><trkpt lat="53.065914" lon="25.338755"><ele>129.92</ele><time>2011-03-20T14:42:58Z</time></trkpt><trkpt lat="53.066334" lon="25.338089"><ele>129.43</ele><time>2011-03-20T14:43:14Z</time></trkpt><trkpt lat="53.066738" lon="25.337547"><ele>129.92</ele><time>2011-03-20T14:43:28Z</time></trkpt><trkpt lat="53.067268" lon="25.336916"><ele>129.43</ele><time>2011-03-20T14:43:45Z</time></trkpt><trkpt lat="53.067795" lon="25.336275"><ele>129.43</ele><time>2011-03-20T14:44:02Z</time></trkpt><trkpt lat="53.068188" lon="25.335808"><ele>130.40</ele><time>2011-03-20T14:44:16Z</time></trkpt><trkpt lat="53.068699" lon="25.335157"><ele>130.40</ele><time>2011-03-20T14:44:32Z</time></trkpt><trkpt lat="53.069016" lon="25.334785"><ele>130.40</ele><time>2011-03-20T14:44:44Z</time></trkpt><trkpt lat="53.069389" lon="25.334162"><ele>129.92</ele><time>2011-03-20T14:44:59Z</time></trkpt><trkpt lat="53.069691" lon="25.333677"><ele>129.43</ele><time>2011-03-20T14:45:11Z</time></trkpt><trkpt lat="53.070202" lon="25.332893"><ele>128.47</ele><time>2011-03-20T14:45:27Z</time></trkpt><trkpt lat="53.070713" lon="25.332108"><ele>129.92</ele><time>2011-03-20T14:45:44Z</time></trkpt><trkpt lat="53.071171" lon="25.331465"><ele>128.95</ele><time>2011-03-20T14:45:59Z</time></trkpt><trkpt lat="53.071507" lon="25.330889"><ele>128.47</ele><time>2011-03-20T14:46:14Z</time></trkpt><trkpt lat="53.072010" lon="25.330088"><ele>128.95</ele><time>2011-03-20T14:46:31Z</time></trkpt><trkpt lat="53.072437" lon="25.329466"><ele>127.03</ele><time>2011-03-20T14:46:46Z</time></trkpt><trkpt lat="53.072720" lon="25.329025"><ele>127.51</ele><time>2011-03-20T14:46:55Z</time></trkpt><trkpt lat="53.072758" lon="25.328985"><ele>127.99</ele><time>2011-03-20T14:46:56Z</time></trkpt><trkpt lat="53.072792" lon="25.328941"><ele>127.51</ele><time>2011-03-20T14:46:57Z</time></trkpt><trkpt lat="53.073315" lon="25.328295"><ele>127.51</ele><time>2011-03-20T14:47:13Z</time></trkpt><trkpt lat="53.073906" lon="25.327892"><ele>127.99</ele><time>2011-03-20T14:47:28Z</time></trkpt><trkpt lat="53.073948" lon="25.327877"><ele>127.99</ele><time>2011-03-20T14:47:29Z</time></trkpt><trkpt lat="53.074348" lon="25.327688"><ele>128.95</ele><time>2011-03-20T14:47:40Z</time></trkpt><trkpt lat="53.074928" lon="25.327324"><ele>127.99</ele><time>2011-03-20T14:47:56Z</time></trkpt><trkpt lat="53.075527" lon="25.327005"><ele>128.95</ele><time>2011-03-20T14:48:11Z</time></trkpt><trkpt lat="53.075905" lon="25.326817"><ele>129.92</ele><time>2011-03-20T14:48:20Z</time></trkpt><trkpt lat="53.076412" lon="25.326584"><ele>128.95</ele><time>2011-03-20T14:48:33Z</time></trkpt><trkpt lat="53.076450" lon="25.326572"><ele>129.43</ele><time>2011-03-20T14:48:34Z</time></trkpt><trkpt lat="53.077145" lon="25.326275"><ele>129.43</ele><time>2011-03-20T14:48:51Z</time></trkpt><trkpt lat="53.077744" lon="25.326008"><ele>129.92</ele><time>2011-03-20T14:49:06Z</time></trkpt><trkpt lat="53.078381" lon="25.325777"><ele>128.95</ele><time>2011-03-20T14:49:21Z</time></trkpt><trkpt lat="53.078941" lon="25.325533"><ele>128.95</ele><time>2011-03-20T14:49:34Z</time></trkpt><trkpt lat="53.079029" lon="25.325487"><ele>129.92</ele><time>2011-03-20T14:49:36Z</time></trkpt><trkpt lat="53.079765" lon="25.325123"><ele>128.95</ele><time>2011-03-20T14:49:53Z</time></trkpt><trkpt lat="53.080509" lon="25.324778"><ele>128.95</ele><time>2011-03-20T14:50:11Z</time></trkpt><trkpt lat="53.080841" lon="25.324614"><ele>129.43</ele><time>2011-03-20T14:50:19Z</time></trkpt><trkpt lat="53.081295" lon="25.324427"><ele>129.43</ele><time>2011-03-20T14:50:29Z</time></trkpt><trkpt lat="53.081753" lon="25.324215"><ele>129.43</ele><time>2011-03-20T14:50:39Z</time></trkpt><trkpt lat="53.082455" lon="25.323835"><ele>129.92</ele><time>2011-03-20T14:50:55Z</time></trkpt><trkpt lat="53.083111" lon="25.323418"><ele>129.92</ele><time>2011-03-20T14:51:10Z</time></trkpt><trkpt lat="53.083340" lon="25.323326"><ele>128.95</ele><time>2011-03-20T14:51:15Z</time></trkpt><trkpt lat="53.083382" lon="25.323301"><ele>129.92</ele><time>2011-03-20T14:51:16Z</time></trkpt><trkpt lat="53.084148" lon="25.322914"><ele>129.92</ele><time>2011-03-20T14:51:33Z</time></trkpt><trkpt lat="53.084785" lon="25.322649"><ele>129.43</ele><time>2011-03-20T14:51:49Z</time></trkpt><trkpt lat="53.085411" lon="25.322422"><ele>128.95</ele><time>2011-03-20T14:52:05Z</time></trkpt><trkpt lat="53.086060" lon="25.322271"><ele>129.92</ele><time>2011-03-20T14:52:21Z</time></trkpt><trkpt lat="53.086674" lon="25.322180"><ele>128.47</ele><time>2011-03-20T14:52:38Z</time></trkpt><trkpt lat="53.087025" lon="25.322104"><ele>129.92</ele><time>2011-03-20T14:52:51Z</time></trkpt><trkpt lat="53.087589" lon="25.321913"><ele>129.43</ele><time>2011-03-20T14:53:08Z</time></trkpt><trkpt lat="53.088161" lon="25.321712"><ele>128.95</ele><time>2011-03-20T14:53:24Z</time></trkpt><trkpt lat="53.088264" lon="25.321669"><ele>129.92</ele><time>2011-03-20T14:53:27Z</time></trkpt><trkpt lat="53.088814" lon="25.321369"><ele>130.88</ele><time>2011-03-20T14:53:42Z</time></trkpt><trkpt lat="53.089527" lon="25.320887"><ele>130.88</ele><time>2011-03-20T14:54:02Z</time></trkpt><trkpt lat="53.090134" lon="25.320299"><ele>132.32</ele><time>2011-03-20T14:54:20Z</time></trkpt><trkpt lat="53.090794" lon="25.319618"><ele>132.80</ele><time>2011-03-20T14:54:40Z</time></trkpt><trkpt lat="53.091522" lon="25.319181"><ele>134.24</ele><time>2011-03-20T14:55:00Z</time></trkpt><trkpt lat="53.091957" lon="25.318968"><ele>134.24</ele><time>2011-03-20T14:55:15Z</time></trkpt><trkpt lat="53.092319" lon="25.319408"><ele>135.20</ele><time>2011-03-20T14:55:28Z</time></trkpt><trkpt lat="53.092598" lon="25.319956"><ele>137.13</ele><time>2011-03-20T14:55:44Z</time></trkpt><trkpt lat="53.092632" lon="25.320004"><ele>136.64</ele><time>2011-03-20T14:55:47Z</time></trkpt><trkpt lat="53.092640" lon="25.320024"><ele>137.13</ele><time>2011-03-20T14:55:48Z</time></trkpt><trkpt lat="53.092640" lon="25.320049"><ele>137.13</ele><time>2011-03-20T14:55:49Z</time></trkpt><trkpt lat="53.092640" lon="25.320074"><ele>137.13</ele><time>2011-03-20T14:55:50Z</time></trkpt><trkpt lat="53.092636" lon="25.320103"><ele>137.13</ele><time>2011-03-20T14:55:51Z</time></trkpt><trkpt lat="53.092628" lon="25.320131"><ele>137.61</ele><time>2011-03-20T14:55:52Z</time></trkpt><trkpt lat="53.092602" lon="25.320183"><ele>137.13</ele><time>2011-03-20T14:55:53Z</time></trkpt><trkpt lat="53.092579" lon="25.320210"><ele>137.13</ele><time>2011-03-20T14:55:54Z</time></trkpt><trkpt lat="53.092560" lon="25.320240"><ele>137.13</ele><time>2011-03-20T14:55:55Z</time></trkpt><trkpt lat="53.092442" lon="25.320534"><ele>137.13</ele><time>2011-03-20T14:56:05Z</time></trkpt><trkpt lat="53.092426" lon="25.320551"><ele>137.13</ele><time>2011-03-20T14:56:06Z</time></trkpt><trkpt lat="53.092415" lon="25.320576"><ele>137.13</ele><time>2011-03-20T14:56:07Z</time></trkpt><trkpt lat="53.092411" lon="25.320601"><ele>137.61</ele><time>2011-03-20T14:56:08Z</time></trkpt><trkpt lat="53.092407" lon="25.320631"><ele>136.64</ele><time>2011-03-20T14:56:09Z</time></trkpt><trkpt lat="53.092411" lon="25.320660"><ele>137.13</ele><time>2011-03-20T14:56:10Z</time></trkpt><trkpt lat="53.092415" lon="25.320684"><ele>136.64</ele><time>2011-03-20T14:56:11Z</time></trkpt><trkpt lat="53.092422" lon="25.320696"><ele>137.13</ele><time>2011-03-20T14:56:12Z</time></trkpt><trkpt lat="53.092438" lon="25.320694"><ele>137.13</ele><time>2011-03-20T14:56:13Z</time></trkpt><trkpt lat="53.092487" lon="25.320595"><ele>137.13</ele><time>2011-03-20T14:56:16Z</time></trkpt><trkpt lat="53.092499" lon="25.320555"><ele>137.61</ele><time>2011-03-20T14:56:17Z</time></trkpt><trkpt lat="53.092510" lon="25.320515"><ele>137.13</ele><time>2011-03-20T14:56:18Z</time></trkpt><trkpt lat="53.092522" lon="25.320477"><ele>137.13</ele><time>2011-03-20T14:56:19Z</time></trkpt><trkpt lat="53.092537" lon="25.320440"><ele>137.61</ele><time>2011-03-20T14:56:20Z</time></trkpt><trkpt lat="53.092548" lon="25.320410"><ele>137.13</ele><time>2011-03-20T14:56:21Z</time></trkpt><trkpt lat="53.092609" lon="25.320261"><ele>137.61</ele><time>2011-03-20T14:56:27Z</time></trkpt><trkpt lat="53.092678" lon="25.319986"><ele>137.61</ele><time>2011-03-20T14:56:38Z</time></trkpt><trkpt lat="53.092693" lon="25.319977"><ele>137.61</ele><time>2011-03-20T14:56:39Z</time></trkpt><trkpt lat="53.092709" lon="25.319981"><ele>137.61</ele><time>2011-03-20T14:56:41Z</time></trkpt><trkpt lat="53.092720" lon="25.319986"><ele>137.61</ele><time>2011-03-20T14:56:42Z</time></trkpt><trkpt lat="53.092735" lon="25.319994"><ele>137.61</ele><time>2011-03-20T14:56:43Z</time></trkpt><trkpt lat="53.093010" lon="25.320107"><ele>139.05</ele><time>2011-03-20T14:56:55Z</time></trkpt><trkpt lat="53.093075" lon="25.320116"><ele>139.05</ele><time>2011-03-20T14:57:08Z</time></trkpt><trkpt lat="53.093090" lon="25.320112"><ele>139.53</ele><time>2011-03-20T14:57:18Z</time></trkpt><trkpt lat="53.093105" lon="25.320112"><ele>139.05</ele><time>2011-03-20T14:57:19Z</time></trkpt><trkpt lat="53.093109" lon="25.320131"><ele>139.05</ele><time>2011-03-20T14:57:20Z</time></trkpt><trkpt lat="53.093075" lon="25.320152"><ele>139.05</ele><time>2011-03-20T14:57:25Z</time></trkpt><trkpt lat="53.093044" lon="25.320150"><ele>139.05</ele><time>2011-03-20T14:57:26Z</time></trkpt><trkpt lat="53.093021" lon="25.320150"><ele>138.57</ele><time>2011-03-20T14:57:27Z</time></trkpt><trkpt lat="53.093006" lon="25.320143"><ele>138.09</ele><time>2011-03-20T14:57:28Z</time></trkpt><trkpt lat="53.092987" lon="25.320061"><ele>138.57</ele><time>2011-03-20T14:57:30Z</time></trkpt><trkpt lat="53.092979" lon="25.320028"><ele>138.57</ele><time>2011-03-20T14:57:31Z</time></trkpt><trkpt lat="53.092987" lon="25.319489"><ele>138.09</ele><time>2011-03-20T14:57:42Z</time></trkpt><trkpt lat="53.093246" lon="25.319298"><ele>138.57</ele><time>2011-03-20T14:57:54Z</time></trkpt><trkpt lat="53.093700" lon="25.319157"><ele>139.53</ele><time>2011-03-20T14:58:08Z</time></trkpt><trkpt lat="53.094013" lon="25.319010"><ele>140.01</ele><time>2011-03-20T14:58:19Z</time></trkpt><trkpt lat="53.094296" lon="25.318930"><ele>139.53</ele><time>2011-03-20T14:58:30Z</time></trkpt><trkpt lat="53.094635" lon="25.318762"><ele>140.49</ele><time>2011-03-20T14:58:44Z</time></trkpt><trkpt lat="53.094955" lon="25.318682"><ele>140.97</ele><time>2011-03-20T14:58:57Z</time></trkpt><trkpt lat="53.095333" lon="25.318581"><ele>141.45</ele><time>2011-03-20T14:59:10Z</time></trkpt><trkpt lat="53.095646" lon="25.318468"><ele>140.97</ele><time>2011-03-20T14:59:25Z</time></trkpt><trkpt lat="53.095783" lon="25.318413"><ele>140.49</ele><time>2011-03-20T14:59:33Z</time></trkpt><trkpt lat="53.095791" lon="25.318394"><ele>140.49</ele><time>2011-03-20T14:59:34Z</time></trkpt><trkpt lat="53.095711" lon="25.318388"><ele>140.49</ele><time>2011-03-20T14:59:40Z</time></trkpt><trkpt lat="53.095654" lon="25.318409"><ele>140.49</ele><time>2011-03-20T14:59:43Z</time></trkpt><trkpt lat="53.095642" lon="25.318419"><ele>140.49</ele><time>2011-03-20T14:59:44Z</time></trkpt><trkpt lat="53.095631" lon="25.318438"><ele>140.49</ele><time>2011-03-20T14:59:45Z</time></trkpt><trkpt lat="53.095619" lon="25.318478"><ele>140.49</ele><time>2011-03-20T14:59:46Z</time></trkpt><trkpt lat="53.095608" lon="25.318523"><ele>140.97</ele><time>2011-03-20T14:59:47Z</time></trkpt><trkpt lat="53.095604" lon="25.318565"><ele>140.49</ele><time>2011-03-20T14:59:48Z</time></trkpt><trkpt lat="53.095604" lon="25.318607"><ele>140.97</ele><time>2011-03-20T14:59:49Z</time></trkpt><trkpt lat="53.095612" lon="25.318651"><ele>140.49</ele><time>2011-03-20T14:59:50Z</time></trkpt><trkpt lat="53.095623" lon="25.318695"><ele>140.49</ele><time>2011-03-20T14:59:51Z</time></trkpt><trkpt lat="53.095642" lon="25.318714"><ele>140.01</ele><time>2011-03-20T14:59:52Z</time></trkpt><trkpt lat="53.095669" lon="25.318832"><ele>139.53</ele><time>2011-03-20T14:59:56Z</time></trkpt><trkpt lat="53.095657" lon="25.318857"><ele>139.53</ele><time>2011-03-20T15:00:11Z</time></trkpt><trkpt lat="53.095657" lon="25.318874"><ele>139.05</ele><time>2011-03-20T15:00:35Z</time></trkpt><trkpt lat="53.095692" lon="25.318989"><ele>138.57</ele><time>2011-03-20T15:00:41Z</time></trkpt><trkpt lat="53.095699" lon="25.319019"><ele>138.09</ele><time>2011-03-20T15:00:42Z</time></trkpt><trkpt lat="53.095707" lon="25.319056"><ele>139.05</ele><time>2011-03-20T15:00:43Z</time></trkpt><trkpt lat="53.095711" lon="25.319088"><ele>139.05</ele><time>2011-03-20T15:00:44Z</time></trkpt><trkpt lat="53.095722" lon="25.319115"><ele>138.57</ele><time>2011-03-20T15:00:45Z</time></trkpt><trkpt lat="53.095734" lon="25.319136"><ele>139.05</ele><time>2011-03-20T15:00:46Z</time></trkpt><trkpt lat="53.095745" lon="25.319157"><ele>138.57</ele><time>2011-03-20T15:00:47Z</time></trkpt><trkpt lat="53.095863" lon="25.319571"><ele>137.13</ele><time>2011-03-20T15:01:00Z</time></trkpt><trkpt lat="53.095879" lon="25.319588"><ele>137.13</ele><time>2011-03-20T15:01:17Z</time></trkpt><trkpt lat="53.095882" lon="25.319567"><ele>137.13</ele><time>2011-03-20T15:01:20Z</time></trkpt><trkpt lat="53.095890" lon="25.319538"><ele>137.13</ele><time>2011-03-20T15:01:21Z</time></trkpt><trkpt lat="53.095901" lon="25.319500"><ele>137.13</ele><time>2011-03-20T15:01:22Z</time></trkpt><trkpt lat="53.095909" lon="25.319458"><ele>137.13</ele><time>2011-03-20T15:01:23Z</time></trkpt><trkpt lat="53.095921" lon="25.319416"><ele>137.61</ele><time>2011-03-20T15:01:24Z</time></trkpt><trkpt lat="53.095928" lon="25.319374"><ele>138.09</ele><time>2011-03-20T15:01:25Z</time></trkpt><trkpt lat="53.095932" lon="25.319334"><ele>137.61</ele><time>2011-03-20T15:01:26Z</time></trkpt><trkpt lat="53.095932" lon="25.319300"><ele>137.61</ele><time>2011-03-20T15:01:27Z</time></trkpt><trkpt lat="53.095928" lon="25.319258"><ele>138.09</ele><time>2011-03-20T15:01:28Z</time></trkpt><trkpt lat="53.095924" lon="25.319210"><ele>138.09</ele><time>2011-03-20T15:01:29Z</time></trkpt><trkpt lat="53.095928" lon="25.318819"><ele>136.64</ele><time>2011-03-20T15:01:41Z</time></trkpt><trkpt lat="53.095959" lon="25.318815"><ele>136.16</ele><time>2011-03-20T15:01:43Z</time></trkpt><trkpt lat="53.095982" lon="25.318817"><ele>135.20</ele><time>2011-03-20T15:01:44Z</time></trkpt><trkpt lat="53.096004" lon="25.318830"><ele>135.20</ele><time>2011-03-20T15:01:45Z</time></trkpt><trkpt lat="53.096634" lon="25.319319"><ele>134.24</ele><time>2011-03-20T15:01:50Z</time></trkpt><trkpt lat="53.096684" lon="25.319412"><ele>133.28</ele><time>2011-03-20T15:01:51Z</time></trkpt><trkpt lat="53.096725" lon="25.319567"><ele>132.80</ele><time>2011-03-20T15:01:54Z</time></trkpt><trkpt lat="53.097195" lon="25.320480"><ele>129.92</ele><time>2011-03-20T15:02:05Z</time></trkpt><trkpt lat="53.097363" lon="25.320889"><ele>128.95</ele><time>2011-03-20T15:02:10Z</time></trkpt><trkpt lat="53.097382" lon="25.320972"><ele>129.43</ele><time>2011-03-20T15:02:11Z</time></trkpt><trkpt lat="53.097393" lon="25.321053"><ele>128.95</ele><time>2011-03-20T15:02:12Z</time></trkpt><trkpt lat="53.097443" lon="25.321886"><ele>129.92</ele><time>2011-03-20T15:02:25Z</time></trkpt><trkpt lat="53.097496" lon="25.322491"><ele>132.80</ele><time>2011-03-20T15:02:39Z</time></trkpt><trkpt lat="53.097561" lon="25.323122"><ele>133.28</ele><time>2011-03-20T15:02:54Z</time></trkpt><trkpt lat="53.097633" lon="25.323832"><ele>132.80</ele><time>2011-03-20T15:03:10Z</time></trkpt><trkpt lat="53.097702" lon="25.324484"><ele>130.40</ele><time>2011-03-20T15:03:22Z</time></trkpt><trkpt lat="53.097809" lon="25.325573"><ele>128.47</ele><time>2011-03-20T15:03:37Z</time></trkpt><trkpt lat="53.097862" lon="25.326166"><ele>129.92</ele><time>2011-03-20T15:03:46Z</time></trkpt><trkpt lat="53.097992" lon="25.327379"><ele>130.88</ele><time>2011-03-20T15:04:04Z</time></trkpt><trkpt lat="53.098122" lon="25.328793"><ele>128.95</ele><time>2011-03-20T15:04:23Z</time></trkpt><trkpt lat="53.098175" lon="25.329918"><ele>128.47</ele><time>2011-03-20T15:04:39Z</time></trkpt><trkpt lat="53.097958" lon="25.330608"><ele>129.43</ele><time>2011-03-20T15:04:52Z</time></trkpt><trkpt lat="53.097378" lon="25.330971"><ele>130.40</ele><time>2011-03-20T15:05:06Z</time></trkpt><trkpt lat="53.097157" lon="25.331133"><ele>129.92</ele><time>2011-03-20T15:05:11Z</time></trkpt><trkpt lat="53.097118" lon="25.331160"><ele>130.88</ele><time>2011-03-20T15:05:12Z</time></trkpt><trkpt lat="53.096447" lon="25.331617"><ele>131.36</ele><time>2011-03-20T15:05:27Z</time></trkpt><trkpt lat="53.095840" lon="25.332001"><ele>130.88</ele><time>2011-03-20T15:05:40Z</time></trkpt><trkpt lat="53.095757" lon="25.332052"><ele>129.43</ele><time>2011-03-20T15:05:42Z</time></trkpt><trkpt lat="53.095379" lon="25.332455"><ele>130.40</ele><time>2011-03-20T15:05:51Z</time></trkpt><trkpt lat="53.095348" lon="25.332512"><ele>129.92</ele><time>2011-03-20T15:05:52Z</time></trkpt><trkpt lat="53.095318" lon="25.332575"><ele>128.47</ele><time>2011-03-20T15:05:53Z</time></trkpt><trkpt lat="53.095234" lon="25.332771"><ele>129.43</ele><time>2011-03-20T15:05:56Z</time></trkpt><trkpt lat="53.094975" lon="25.333611"><ele>129.43</ele><time>2011-03-20T15:06:07Z</time></trkpt><trkpt lat="53.094963" lon="25.333681"><ele>128.95</ele><time>2011-03-20T15:06:08Z</time></trkpt><trkpt lat="53.094959" lon="25.333754"><ele>128.95</ele><time>2011-03-20T15:06:09Z</time></trkpt><trkpt lat="53.094860" lon="25.334984"><ele>128.47</ele><time>2011-03-20T15:06:24Z</time></trkpt><trkpt lat="53.094799" lon="25.336288"><ele>128.47</ele><time>2011-03-20T15:06:37Z</time></trkpt><trkpt lat="53.094761" lon="25.336903"><ele>127.99</ele><time>2011-03-20T15:06:44Z</time></trkpt><trkpt lat="53.094757" lon="25.336994"><ele>128.95</ele><time>2011-03-20T15:06:45Z</time></trkpt><trkpt lat="53.094658" lon="25.338493"><ele>128.95</ele><time>2011-03-20T15:07:01Z</time></trkpt><trkpt lat="53.094616" lon="25.339075"><ele>128.47</ele><time>2011-03-20T15:07:08Z</time></trkpt><trkpt lat="53.094608" lon="25.339161"><ele>128.95</ele><time>2011-03-20T15:07:09Z</time></trkpt><trkpt lat="53.094559" lon="25.340036"><ele>129.92</ele><time>2011-03-20T15:07:19Z</time></trkpt><trkpt lat="53.094490" lon="25.341257"><ele>129.43</ele><time>2011-03-20T15:07:33Z</time></trkpt><trkpt lat="53.094406" lon="25.342306"><ele>129.92</ele><time>2011-03-20T15:07:46Z</time></trkpt><trkpt lat="53.094357" lon="25.342461"><ele>129.92</ele><time>2011-03-20T15:07:48Z</time></trkpt><trkpt lat="53.093960" lon="25.343571"><ele>130.40</ele><time>2011-03-20T15:08:03Z</time></trkpt><trkpt lat="53.093594" lon="25.344631"><ele>129.92</ele><time>2011-03-20T15:08:17Z</time></trkpt><trkpt lat="53.093250" lon="25.345625"><ele>129.92</ele><time>2011-03-20T15:08:31Z</time></trkpt><trkpt lat="53.093227" lon="25.345699"><ele>129.92</ele><time>2011-03-20T15:08:32Z</time></trkpt><trkpt lat="53.093204" lon="25.345770"><ele>129.92</ele><time>2011-03-20T15:08:33Z</time></trkpt><trkpt lat="53.093178" lon="25.345844"><ele>129.43</ele><time>2011-03-20T15:08:34Z</time></trkpt><trkpt lat="53.093151" lon="25.345917"><ele>130.40</ele><time>2011-03-20T15:08:35Z</time></trkpt><trkpt lat="53.093128" lon="25.345993"><ele>129.92</ele><time>2011-03-20T15:08:36Z</time></trkpt><trkpt lat="53.093102" lon="25.346071"><ele>129.92</ele><time>2011-03-20T15:08:37Z</time></trkpt><trkpt lat="53.092773" lon="25.347029"><ele>130.40</ele><time>2011-03-20T15:08:50Z</time></trkpt><trkpt lat="53.092747" lon="25.347082"><ele>130.40</ele><time>2011-03-20T15:08:51Z</time></trkpt><trkpt lat="53.092716" lon="25.347124"><ele>129.92</ele><time>2011-03-20T15:08:52Z</time></trkpt><trkpt lat="53.092678" lon="25.347141"><ele>129.92</ele><time>2011-03-20T15:08:53Z</time></trkpt><trkpt lat="53.092640" lon="25.347145"><ele>129.92</ele><time>2011-03-20T15:08:54Z</time></trkpt><trkpt lat="53.092598" lon="25.347139"><ele>130.40</ele><time>2011-03-20T15:08:55Z</time></trkpt><trkpt lat="53.092560" lon="25.347120"><ele>130.40</ele><time>2011-03-20T15:08:56Z</time></trkpt><trkpt lat="53.092518" lon="25.347095"><ele>130.40</ele><time>2011-03-20T15:08:57Z</time></trkpt><trkpt lat="53.092480" lon="25.347067"><ele>129.43</ele><time>2011-03-20T15:08:58Z</time></trkpt><trkpt lat="53.092361" lon="25.346975"><ele>130.40</ele><time>2011-03-20T15:09:01Z</time></trkpt><trkpt lat="53.092316" lon="25.346945"><ele>130.40</ele><time>2011-03-20T15:09:02Z</time></trkpt><trkpt lat="53.092274" lon="25.346918"><ele>129.92</ele><time>2011-03-20T15:09:03Z</time></trkpt><trkpt lat="53.092148" lon="25.346830"><ele>129.43</ele><time>2011-03-20T15:09:06Z</time></trkpt><trkpt lat="53.092106" lon="25.346806"><ele>130.40</ele><time>2011-03-20T15:09:07Z</time></trkpt><trkpt lat="53.091900" lon="25.346706"><ele>129.43</ele><time>2011-03-20T15:09:12Z</time></trkpt><trkpt lat="53.091854" lon="25.346714"><ele>130.40</ele><time>2011-03-20T15:09:13Z</time></trkpt><trkpt lat="53.091812" lon="25.346743"><ele>129.43</ele><time>2011-03-20T15:09:14Z</time></trkpt><trkpt lat="53.091778" lon="25.346794"><ele>129.92</ele><time>2011-03-20T15:09:15Z</time></trkpt><trkpt lat="53.091751" lon="25.346869"><ele>130.40</ele><time>2011-03-20T15:09:16Z</time></trkpt><trkpt lat="53.091728" lon="25.346951"><ele>129.92</ele><time>2011-03-20T15:09:17Z</time></trkpt><trkpt lat="53.091461" lon="25.348265"><ele>131.36</ele><time>2011-03-20T15:09:32Z</time></trkpt><trkpt lat="53.091225" lon="25.349426"><ele>130.88</ele><time>2011-03-20T15:09:45Z</time></trkpt><trkpt lat="53.090878" lon="25.350512"><ele>130.40</ele><time>2011-03-20T15:09:59Z</time></trkpt><trkpt lat="53.090595" lon="25.351387"><ele>130.88</ele><time>2011-03-20T15:10:11Z</time></trkpt><trkpt lat="53.090229" lon="25.352436"><ele>130.88</ele><time>2011-03-20T15:10:25Z</time></trkpt><trkpt lat="53.089863" lon="25.353472"><ele>130.88</ele><time>2011-03-20T15:10:40Z</time></trkpt><trkpt lat="53.089558" lon="25.354317"><ele>130.88</ele><time>2011-03-20T15:10:52Z</time></trkpt><trkpt lat="53.089153" lon="25.355429"><ele>131.36</ele><time>2011-03-20T15:11:08Z</time></trkpt><trkpt lat="53.088741" lon="25.356585"><ele>131.36</ele><time>2011-03-20T15:11:24Z</time></trkpt><trkpt lat="53.088573" lon="25.357048"><ele>131.84</ele><time>2011-03-20T15:11:30Z</time></trkpt><trkpt lat="53.088543" lon="25.357124"><ele>130.88</ele><time>2011-03-20T15:11:31Z</time></trkpt><trkpt lat="53.088516" lon="25.357203"><ele>131.84</ele><time>2011-03-20T15:11:32Z</time></trkpt><trkpt lat="53.088120" lon="25.358376"><ele>130.88</ele><time>2011-03-20T15:11:47Z</time></trkpt><trkpt lat="53.088097" lon="25.358448"><ele>131.36</ele><time>2011-03-20T15:11:48Z</time></trkpt><trkpt lat="53.088024" lon="25.358654"><ele>131.36</ele><time>2011-03-20T15:11:51Z</time></trkpt><trkpt lat="53.088001" lon="25.358725"><ele>130.88</ele><time>2011-03-20T15:11:52Z</time></trkpt><trkpt lat="53.087662" lon="25.359673"><ele>131.84</ele><time>2011-03-20T15:12:05Z</time></trkpt><trkpt lat="53.087360" lon="25.360550"><ele>131.84</ele><time>2011-03-20T15:12:18Z</time></trkpt><trkpt lat="53.087055" lon="25.361435"><ele>131.36</ele><time>2011-03-20T15:12:34Z</time></trkpt><trkpt lat="53.086704" lon="25.362453"><ele>131.36</ele><time>2011-03-20T15:12:50Z</time></trkpt><trkpt lat="53.086365" lon="25.363514"><ele>132.32</ele><time>2011-03-20T15:13:05Z</time></trkpt><trkpt lat="53.086040" lon="25.364605"><ele>132.32</ele><time>2011-03-20T15:13:19Z</time></trkpt><trkpt lat="53.085960" lon="25.364878"><ele>131.84</ele><time>2011-03-20T15:13:23Z</time></trkpt><trkpt lat="53.085938" lon="25.364937"><ele>132.32</ele><time>2011-03-20T15:13:24Z</time></trkpt><trkpt lat="53.085773" lon="25.365387"><ele>132.32</ele><time>2011-03-20T15:13:31Z</time></trkpt><trkpt lat="53.085415" lon="25.366329"><ele>132.32</ele><time>2011-03-20T15:13:46Z</time></trkpt><trkpt lat="53.085175" lon="25.366943"><ele>132.80</ele><time>2011-03-20T15:14:02Z</time></trkpt><trkpt lat="53.085133" lon="25.367018"><ele>134.24</ele><time>2011-03-20T15:14:15Z</time></trkpt><trkpt lat="53.085133" lon="25.367022"><ele>132.80</ele><time>2011-03-20T15:14:30Z</time></trkpt><trkpt lat="53.085129" lon="25.367022"><ele>133.28</ele><time>2011-03-20T15:14:44Z</time></trkpt><trkpt lat="53.085129" lon="25.367022"><ele>132.32</ele><time>2011-03-20T15:14:49Z</time></trkpt><trkpt lat="53.085114" lon="25.367107"><ele>133.28</ele><time>2011-03-20T15:14:52Z</time></trkpt><trkpt lat="53.084850" lon="25.367718"><ele>132.32</ele><time>2011-03-20T15:15:04Z</time></trkpt><trkpt lat="53.084309" lon="25.368271"><ele>132.32</ele><time>2011-03-20T15:15:18Z</time></trkpt><trkpt lat="53.083656" lon="25.368673"><ele>132.32</ele><time>2011-03-20T15:15:32Z</time></trkpt><trkpt lat="53.083313" lon="25.368944"><ele>132.80</ele><time>2011-03-20T15:15:40Z</time></trkpt><trkpt lat="53.083275" lon="25.368992"><ele>132.80</ele><time>2011-03-20T15:15:41Z</time></trkpt><trkpt lat="53.083241" lon="25.369043"><ele>132.80</ele><time>2011-03-20T15:15:42Z</time></trkpt><trkpt lat="53.082882" lon="25.369841"><ele>133.28</ele><time>2011-03-20T15:15:54Z</time></trkpt><trkpt lat="53.082699" lon="25.370831"><ele>133.28</ele><time>2011-03-20T15:16:06Z</time></trkpt><trkpt lat="53.082687" lon="25.370905"><ele>132.80</ele><time>2011-03-20T15:16:07Z</time></trkpt><trkpt lat="53.082531" lon="25.371916"><ele>132.80</ele><time>2011-03-20T15:16:19Z</time></trkpt><trkpt lat="53.082436" lon="25.372494"><ele>133.28</ele><time>2011-03-20T15:16:26Z</time></trkpt><trkpt lat="53.082241" lon="25.373587"><ele>133.76</ele><time>2011-03-20T15:16:39Z</time></trkpt><trkpt lat="53.082031" lon="25.374926"><ele>133.28</ele><time>2011-03-20T15:16:55Z</time></trkpt><trkpt lat="53.081921" lon="25.375587"><ele>132.80</ele><time>2011-03-20T15:17:03Z</time></trkpt><trkpt lat="53.081757" lon="25.376661"><ele>133.28</ele><time>2011-03-20T15:17:16Z</time></trkpt><trkpt lat="53.081573" lon="25.378006"><ele>133.76</ele><time>2011-03-20T15:17:31Z</time></trkpt><trkpt lat="53.081524" lon="25.378605"><ele>133.76</ele><time>2011-03-20T15:17:38Z</time></trkpt><trkpt lat="53.081516" lon="25.378696"><ele>133.76</ele><time>2011-03-20T15:17:39Z</time></trkpt><trkpt lat="53.081402" lon="25.380016"><ele>133.28</ele><time>2011-03-20T15:17:54Z</time></trkpt><trkpt lat="53.081387" lon="25.380196"><ele>133.28</ele><time>2011-03-20T15:17:56Z</time></trkpt><trkpt lat="53.081245" lon="25.381372"><ele>134.72</ele><time>2011-03-20T15:18:09Z</time></trkpt><trkpt lat="53.081230" lon="25.381460"><ele>134.72</ele><time>2011-03-20T15:18:10Z</time></trkpt><trkpt lat="53.081219" lon="25.381548"><ele>134.24</ele><time>2011-03-20T15:18:11Z</time></trkpt><trkpt lat="53.081070" lon="25.382635"><ele>135.20</ele><time>2011-03-20T15:18:24Z</time></trkpt><trkpt lat="53.080944" lon="25.383482"><ele>134.72</ele><time>2011-03-20T15:18:34Z</time></trkpt><trkpt lat="53.080933" lon="25.383568"><ele>134.72</ele><time>2011-03-20T15:18:35Z</time></trkpt><trkpt lat="53.080776" lon="25.384769"><ele>134.24</ele><time>2011-03-20T15:18:49Z</time></trkpt><trkpt lat="53.080727" lon="25.385113"><ele>135.20</ele><time>2011-03-20T15:18:53Z</time></trkpt><trkpt lat="53.080685" lon="25.385452"><ele>135.20</ele><time>2011-03-20T15:18:57Z</time></trkpt><trkpt lat="53.080669" lon="25.385532"><ele>135.20</ele><time>2011-03-20T15:18:58Z</time></trkpt><trkpt lat="53.080517" lon="25.386656"><ele>134.72</ele><time>2011-03-20T15:19:12Z</time></trkpt><trkpt lat="53.080410" lon="25.387161"><ele>135.20</ele><time>2011-03-20T15:19:19Z</time></trkpt><trkpt lat="53.080311" lon="25.387650"><ele>136.16</ele><time>2011-03-20T15:19:26Z</time></trkpt><trkpt lat="53.080303" lon="25.387720"><ele>135.68</ele><time>2011-03-20T15:19:27Z</time></trkpt><trkpt lat="53.080288" lon="25.387865"><ele>137.61</ele><time>2011-03-20T15:19:29Z</time></trkpt><trkpt lat="53.080280" lon="25.387939"><ele>136.64</ele><time>2011-03-20T15:19:30Z</time></trkpt><trkpt lat="53.080276" lon="25.388016"><ele>136.64</ele><time>2011-03-20T15:19:31Z</time></trkpt><trkpt lat="53.080273" lon="25.388168"><ele>136.64</ele><time>2011-03-20T15:19:33Z</time></trkpt><trkpt lat="53.080299" lon="25.388556"><ele>137.61</ele><time>2011-03-20T15:19:38Z</time></trkpt><trkpt lat="53.080303" lon="25.388628"><ele>137.61</ele><time>2011-03-20T15:19:39Z</time></trkpt><trkpt lat="53.080303" lon="25.388700"><ele>137.13</ele><time>2011-03-20T15:19:40Z</time></trkpt><trkpt lat="53.080341" lon="25.389198"><ele>137.13</ele><time>2011-03-20T15:19:47Z</time></trkpt><trkpt lat="53.080402" lon="25.390158"><ele>137.13</ele><time>2011-03-20T15:20:01Z</time></trkpt><trkpt lat="53.080437" lon="25.390360"><ele>137.13</ele><time>2011-03-20T15:20:04Z</time></trkpt><trkpt lat="53.080494" lon="25.390734"><ele>137.61</ele><time>2011-03-20T15:20:15Z</time></trkpt><trkpt lat="53.080498" lon="25.390738"><ele>138.09</ele><time>2011-03-20T15:20:40Z</time></trkpt><trkpt lat="53.080498" lon="25.390738"><ele>137.13</ele><time>2011-03-20T15:21:02Z</time></trkpt><trkpt lat="53.080498" lon="25.390739"><ele>137.61</ele><time>2011-03-20T15:21:24Z</time></trkpt><trkpt lat="53.080509" lon="25.390709"><ele>137.61</ele><time>2011-03-20T15:21:25Z</time></trkpt><trkpt lat="53.080524" lon="25.390697"><ele>137.61</ele><time>2011-03-20T15:21:26Z</time></trkpt><trkpt lat="53.080551" lon="25.390690"><ele>137.13</ele><time>2011-03-20T15:21:27Z</time></trkpt><trkpt lat="53.080582" lon="25.390684"><ele>137.13</ele><time>2011-03-20T15:21:28Z</time></trkpt><trkpt lat="53.080612" lon="25.390682"><ele>137.13</ele><time>2011-03-20T15:21:29Z</time></trkpt><trkpt lat="53.080738" lon="25.390684"><ele>137.13</ele><time>2011-03-20T15:21:33Z</time></trkpt><trkpt lat="53.081108" lon="25.390680"><ele>135.68</ele><time>2011-03-20T15:21:45Z</time></trkpt><trkpt lat="53.081566" lon="25.390661"><ele>134.24</ele><time>2011-03-20T15:21:53Z</time></trkpt><trkpt lat="53.082558" lon="25.390608"><ele>134.24</ele><time>2011-03-20T15:22:10Z</time></trkpt><trkpt lat="53.082672" lon="25.390614"><ele>133.76</ele><time>2011-03-20T15:22:12Z</time></trkpt><trkpt lat="53.082733" lon="25.390602"><ele>134.24</ele><time>2011-03-20T15:22:13Z</time></trkpt><trkpt lat="53.082844" lon="25.390587"><ele>133.76</ele><time>2011-03-20T15:22:15Z</time></trkpt><trkpt lat="53.083614" lon="25.390366"><ele>134.24</ele><time>2011-03-20T15:22:29Z</time></trkpt><trkpt lat="53.083775" lon="25.390301"><ele>133.76</ele><time>2011-03-20T15:22:32Z</time></trkpt><trkpt lat="53.083832" lon="25.390276"><ele>133.28</ele><time>2011-03-20T15:22:33Z</time></trkpt><trkpt lat="53.083885" lon="25.390251"><ele>134.24</ele><time>2011-03-20T15:22:34Z</time></trkpt><trkpt lat="53.084103" lon="25.390162"><ele>131.84</ele><time>2011-03-20T15:22:38Z</time></trkpt><trkpt lat="53.084908" lon="25.389816"><ele>132.80</ele><time>2011-03-20T15:22:53Z</time></trkpt><trkpt lat="53.085773" lon="25.389444"><ele>133.76</ele><time>2011-03-20T15:23:09Z</time></trkpt><trkpt lat="53.086491" lon="25.389153"><ele>132.32</ele><time>2011-03-20T15:23:23Z</time></trkpt><trkpt lat="53.087204" lon="25.389061"><ele>133.76</ele><time>2011-03-20T15:23:37Z</time></trkpt><trkpt lat="53.087353" lon="25.389088"><ele>134.24</ele><time>2011-03-20T15:23:40Z</time></trkpt><trkpt lat="53.087490" lon="25.389137"><ele>134.24</ele><time>2011-03-20T15:23:43Z</time></trkpt><trkpt lat="53.087582" lon="25.389177"><ele>134.24</ele><time>2011-03-20T15:23:45Z</time></trkpt><trkpt lat="53.087673" lon="25.389208"><ele>133.76</ele><time>2011-03-20T15:23:47Z</time></trkpt><trkpt lat="53.087715" lon="25.389229"><ele>133.76</ele><time>2011-03-20T15:23:48Z</time></trkpt><trkpt lat="53.088158" lon="25.389414"><ele>134.24</ele><time>2011-03-20T15:23:58Z</time></trkpt><trkpt lat="53.088242" lon="25.389446"><ele>134.24</ele><time>2011-03-20T15:24:00Z</time></trkpt><trkpt lat="53.088280" lon="25.389465"><ele>134.24</ele><time>2011-03-20T15:24:01Z</time></trkpt><trkpt lat="53.088539" lon="25.389591"><ele>133.76</ele><time>2011-03-20T15:24:07Z</time></trkpt><trkpt lat="53.088585" lon="25.389606"><ele>133.76</ele><time>2011-03-20T15:24:08Z</time></trkpt><trkpt lat="53.088627" lon="25.389624"><ele>133.76</ele><time>2011-03-20T15:24:09Z</time></trkpt><trkpt lat="53.088711" lon="25.389664"><ele>134.72</ele><time>2011-03-20T15:24:11Z</time></trkpt><trkpt lat="53.088753" lon="25.389683"><ele>134.72</ele><time>2011-03-20T15:24:12Z</time></trkpt><trkpt lat="53.088940" lon="25.389822"><ele>134.24</ele><time>2011-03-20T15:24:17Z</time></trkpt><trkpt lat="53.088978" lon="25.389851"><ele>134.24</ele><time>2011-03-20T15:24:18Z</time></trkpt><trkpt lat="53.089329" lon="25.390091"><ele>135.20</ele><time>2011-03-20T15:24:27Z</time></trkpt><trkpt lat="53.089455" lon="25.390179"><ele>136.64</ele><time>2011-03-20T15:24:30Z</time></trkpt><trkpt lat="53.089760" lon="25.390451"><ele>140.01</ele><time>2011-03-20T15:24:38Z</time></trkpt><trkpt lat="53.090271" lon="25.390894"><ele>143.37</ele><time>2011-03-20T15:24:52Z</time></trkpt><trkpt lat="53.090618" lon="25.391197"><ele>146.74</ele><time>2011-03-20T15:25:04Z</time></trkpt><trkpt lat="53.091007" lon="25.391541"><ele>150.10</ele><time>2011-03-20T15:25:20Z</time></trkpt><trkpt lat="53.091228" lon="25.391726"><ele>152.99</ele><time>2011-03-20T15:25:29Z</time></trkpt><trkpt lat="53.091362" lon="25.391844"><ele>152.51</ele><time>2011-03-20T15:25:34Z</time></trkpt><trkpt lat="53.091602" lon="25.392088"><ele>154.43</ele><time>2011-03-20T15:25:46Z</time></trkpt><trkpt lat="53.092045" lon="25.392149"><ele>152.99</ele><time>2011-03-20T15:25:59Z</time></trkpt><trkpt lat="53.092087" lon="25.392138"><ele>153.47</ele><time>2011-03-20T15:26:00Z</time></trkpt><trkpt lat="53.092911" lon="25.391928"><ele>151.06</ele><time>2011-03-20T15:26:20Z</time></trkpt><trkpt lat="53.093403" lon="25.391773"><ele>152.51</ele><time>2011-03-20T15:26:34Z</time></trkpt><trkpt lat="53.093479" lon="25.391647"><ele>153.47</ele><time>2011-03-20T15:26:38Z</time></trkpt><trkpt lat="53.093494" lon="25.391603"><ele>152.51</ele><time>2011-03-20T15:26:39Z</time></trkpt><trkpt lat="53.093502" lon="25.391556"><ele>151.54</ele><time>2011-03-20T15:26:40Z</time></trkpt><trkpt lat="53.093506" lon="25.391499"><ele>151.54</ele><time>2011-03-20T15:26:41Z</time></trkpt><trkpt lat="53.093510" lon="25.391441"><ele>152.03</ele><time>2011-03-20T15:26:42Z</time></trkpt><trkpt lat="53.093460" lon="25.390678"><ele>151.06</ele><time>2011-03-20T15:26:55Z</time></trkpt><trkpt lat="53.093437" lon="25.390064"><ele>151.06</ele><time>2011-03-20T15:27:06Z</time></trkpt><trkpt lat="53.093418" lon="25.389393"><ele>151.54</ele><time>2011-03-20T15:27:19Z</time></trkpt><trkpt lat="53.093681" lon="25.389240"><ele>152.03</ele><time>2011-03-20T15:27:29Z</time></trkpt><trkpt lat="53.093891" lon="25.389170"><ele>151.54</ele><time>2011-03-20T15:27:34Z</time></trkpt><trkpt lat="53.094589" lon="25.388845"><ele>152.03</ele><time>2011-03-20T15:27:50Z</time></trkpt><trkpt lat="53.095169" lon="25.388622"><ele>154.43</ele><time>2011-03-20T15:28:04Z</time></trkpt><trkpt lat="53.095196" lon="25.388659"><ele>154.43</ele><time>2011-03-20T15:28:05Z</time></trkpt><trkpt lat="53.095249" lon="25.389435"><ele>153.95</ele><time>2011-03-20T15:28:15Z</time></trkpt><trkpt lat="53.095341" lon="25.390560"><ele>155.39</ele><time>2011-03-20T15:28:28Z</time></trkpt><trkpt lat="53.095436" lon="25.391907"><ele>156.35</ele><time>2011-03-20T15:28:44Z</time></trkpt><trkpt lat="53.095528" lon="25.393000"><ele>156.83</ele><time>2011-03-20T15:28:57Z</time></trkpt><trkpt lat="53.095612" lon="25.394100"><ele>158.27</ele><time>2011-03-20T15:29:10Z</time></trkpt><trkpt lat="53.095715" lon="25.395399"><ele>160.20</ele><time>2011-03-20T15:29:26Z</time></trkpt><trkpt lat="53.095783" lon="25.396471"><ele>162.12</ele><time>2011-03-20T15:29:41Z</time></trkpt><trkpt lat="53.095871" lon="25.397631"><ele>164.04</ele><time>2011-03-20T15:29:57Z</time></trkpt><trkpt lat="53.095932" lon="25.398376"><ele>167.41</ele><time>2011-03-20T15:30:08Z</time></trkpt><trkpt lat="53.096004" lon="25.399433"><ele>170.29</ele><time>2011-03-20T15:30:24Z</time></trkpt><trkpt lat="53.096043" lon="25.400316"><ele>173.66</ele><time>2011-03-20T15:30:38Z</time></trkpt><trkpt lat="53.096039" lon="25.400377"><ele>173.66</ele><time>2011-03-20T15:30:39Z</time></trkpt><trkpt lat="53.096088" lon="25.401424"><ele>177.02</ele><time>2011-03-20T15:30:56Z</time></trkpt><trkpt lat="53.096279" lon="25.402422"><ele>179.90</ele><time>2011-03-20T15:31:12Z</time></trkpt><trkpt lat="53.096294" lon="25.402546"><ele>180.87</ele><time>2011-03-20T15:31:14Z</time></trkpt><trkpt lat="53.096348" lon="25.403555"><ele>182.79</ele><time>2011-03-20T15:31:31Z</time></trkpt><trkpt lat="53.096386" lon="25.404524"><ele>183.75</ele><time>2011-03-20T15:31:46Z</time></trkpt><trkpt lat="53.096397" lon="25.404665"><ele>184.71</ele><time>2011-03-20T15:31:48Z</time></trkpt><trkpt lat="53.096481" lon="25.405901"><ele>185.67</ele><time>2011-03-20T15:32:05Z</time></trkpt><trkpt lat="53.096539" lon="25.407202"><ele>186.63</ele><time>2011-03-20T15:32:22Z</time></trkpt><trkpt lat="53.096607" lon="25.407921"><ele>187.11</ele><time>2011-03-20T15:32:31Z</time></trkpt><trkpt lat="53.096714" lon="25.408789"><ele>185.67</ele><time>2011-03-20T15:32:45Z</time></trkpt><trkpt lat="53.096706" lon="25.408827"><ele>185.19</ele><time>2011-03-20T15:32:48Z</time></trkpt><trkpt lat="53.096672" lon="25.408796"><ele>185.67</ele><time>2011-03-20T15:32:52Z</time></trkpt><trkpt lat="53.096645" lon="25.408783"><ele>185.67</ele><time>2011-03-20T15:33:06Z</time></trkpt><trkpt lat="53.096699" lon="25.408743"><ele>185.67</ele><time>2011-03-20T15:33:29Z</time></trkpt><trkpt lat="53.096710" lon="25.408745"><ele>186.63</ele><time>2011-03-20T15:33:35Z</time></trkpt><trkpt lat="53.096710" lon="25.408745"><ele>184.23</ele><time>2011-03-20T15:33:53Z</time></trkpt><trkpt lat="53.096722" lon="25.408823"><ele>184.71</ele><time>2011-03-20T15:33:57Z</time></trkpt><trkpt lat="53.096729" lon="25.408861"><ele>185.19</ele><time>2011-03-20T15:33:58Z</time></trkpt><trkpt lat="53.096821" lon="25.409735"><ele>182.31</ele><time>2011-03-20T15:34:11Z</time></trkpt><trkpt lat="53.096897" lon="25.411108"><ele>179.90</ele><time>2011-03-20T15:34:25Z</time></trkpt><trkpt lat="53.096931" lon="25.411785"><ele>176.54</ele><time>2011-03-20T15:34:32Z</time></trkpt><trkpt lat="53.096989" lon="25.412903"><ele>173.17</ele><time>2011-03-20T15:34:42Z</time></trkpt><trkpt lat="53.097023" lon="25.414200"><ele>170.77</ele><time>2011-03-20T15:34:53Z</time></trkpt><trkpt lat="53.097027" lon="25.414309"><ele>170.77</ele><time>2011-03-20T15:34:54Z</time></trkpt><trkpt lat="53.097069" lon="25.415516"><ele>170.29</ele><time>2011-03-20T15:35:06Z</time></trkpt><trkpt lat="53.097088" lon="25.416658"><ele>172.21</ele><time>2011-03-20T15:35:20Z</time></trkpt><trkpt lat="53.097107" lon="25.417120"><ele>172.69</ele><time>2011-03-20T15:35:26Z</time></trkpt><trkpt lat="53.097145" lon="25.418110"><ele>174.14</ele><time>2011-03-20T15:35:39Z</time></trkpt><trkpt lat="53.097176" lon="25.418907"><ele>174.62</ele><time>2011-03-20T15:35:50Z</time></trkpt><trkpt lat="53.097179" lon="25.420053"><ele>173.66</ele><time>2011-03-20T15:36:04Z</time></trkpt><trkpt lat="53.097111" lon="25.421202"><ele>173.66</ele><time>2011-03-20T15:36:17Z</time></trkpt><trkpt lat="53.096977" lon="25.422535"><ele>174.14</ele><time>2011-03-20T15:36:33Z</time></trkpt><trkpt lat="53.096897" lon="25.423260"><ele>174.62</ele><time>2011-03-20T15:36:42Z</time></trkpt><trkpt lat="53.096821" lon="25.423979"><ele>175.58</ele><time>2011-03-20T15:36:51Z</time></trkpt><trkpt lat="53.096771" lon="25.424578"><ele>176.54</ele><time>2011-03-20T15:36:59Z</time></trkpt><trkpt lat="53.096764" lon="25.424648"><ele>177.02</ele><time>2011-03-20T15:37:00Z</time></trkpt><trkpt lat="53.096645" lon="25.425722"><ele>176.54</ele><time>2011-03-20T15:37:14Z</time></trkpt><trkpt lat="53.096622" lon="25.425972"><ele>176.54</ele><time>2011-03-20T15:37:17Z</time></trkpt><trkpt lat="53.096615" lon="25.426056"><ele>176.54</ele><time>2011-03-20T15:37:18Z</time></trkpt><trkpt lat="53.096493" lon="25.427267"><ele>175.58</ele><time>2011-03-20T15:37:32Z</time></trkpt><trkpt lat="53.096386" lon="25.428423"><ele>174.62</ele><time>2011-03-20T15:37:46Z</time></trkpt><trkpt lat="53.096367" lon="25.428612"><ele>174.62</ele><time>2011-03-20T15:37:48Z</time></trkpt><trkpt lat="53.096252" lon="25.429789"><ele>174.62</ele><time>2011-03-20T15:38:02Z</time></trkpt><trkpt lat="53.096142" lon="25.430847"><ele>175.58</ele><time>2011-03-20T15:38:16Z</time></trkpt><trkpt lat="53.096138" lon="25.430922"><ele>175.58</ele><time>2011-03-20T15:38:17Z</time></trkpt><trkpt lat="53.096130" lon="25.430998"><ele>175.58</ele><time>2011-03-20T15:38:18Z</time></trkpt><trkpt lat="53.096123" lon="25.431072"><ele>176.06</ele><time>2011-03-20T15:38:19Z</time></trkpt><trkpt lat="53.096111" lon="25.431149"><ele>176.54</ele><time>2011-03-20T15:38:20Z</time></trkpt><trkpt lat="53.096016" lon="25.432152"><ele>177.98</ele><time>2011-03-20T15:38:34Z</time></trkpt><trkpt lat="53.095932" lon="25.432949"><ele>180.38</ele><time>2011-03-20T15:38:48Z</time></trkpt><trkpt lat="53.095932" lon="25.432949"><ele>180.38</ele><time>2011-03-20T15:39:09Z</time></trkpt><trkpt lat="53.095932" lon="25.432949"><ele>180.38</ele><time>2011-03-20T15:39:12Z</time></trkpt><trkpt lat="53.095932" lon="25.432980"><ele>180.38</ele><time>2011-03-20T15:39:13Z</time></trkpt><trkpt lat="53.095932" lon="25.433016"><ele>179.90</ele><time>2011-03-20T15:39:14Z</time></trkpt><trkpt lat="53.095856" lon="25.433777"><ele>180.87</ele><time>2011-03-20T15:39:27Z</time></trkpt><trkpt lat="53.095699" lon="25.435263"><ele>180.38</ele><time>2011-03-20T15:39:47Z</time></trkpt><trkpt lat="53.095566" lon="25.436552"><ele>178.46</ele><time>2011-03-20T15:40:02Z</time></trkpt><trkpt lat="53.095493" lon="25.437237"><ele>177.50</ele><time>2011-03-20T15:40:10Z</time></trkpt><trkpt lat="53.095394" lon="25.438295"><ele>177.98</ele><time>2011-03-20T15:40:23Z</time></trkpt><trkpt lat="53.095257" lon="25.439722"><ele>179.90</ele><time>2011-03-20T15:40:41Z</time></trkpt><trkpt lat="53.095127" lon="25.441133"><ele>181.35</ele><time>2011-03-20T15:40:59Z</time></trkpt><trkpt lat="53.095001" lon="25.442535"><ele>181.83</ele><time>2011-03-20T15:41:16Z</time></trkpt><trkpt lat="53.094830" lon="25.444208"><ele>183.27</ele><time>2011-03-20T15:41:36Z</time></trkpt><trkpt lat="53.094719" lon="25.445375"><ele>184.23</ele><time>2011-03-20T15:41:51Z</time></trkpt><trkpt lat="53.094555" lon="25.446676"><ele>184.71</ele><time>2011-03-20T15:42:08Z</time></trkpt><trkpt lat="53.094269" lon="25.448185"><ele>183.27</ele><time>2011-03-20T15:42:25Z</time></trkpt><trkpt lat="53.093929" lon="25.449642"><ele>180.38</ele><time>2011-03-20T15:42:42Z</time></trkpt><trkpt lat="53.093716" lon="25.450405"><ele>177.98</ele><time>2011-03-20T15:42:52Z</time></trkpt><trkpt lat="53.093555" lon="25.450926"><ele>177.50</ele><time>2011-03-20T15:42:59Z</time></trkpt><trkpt lat="53.093479" lon="25.451162"><ele>177.98</ele><time>2011-03-20T15:43:02Z</time></trkpt><trkpt lat="53.093315" lon="25.451910"><ele>177.02</ele><time>2011-03-20T15:43:11Z</time></trkpt><trkpt lat="53.093296" lon="25.451990"><ele>177.02</ele><time>2011-03-20T15:43:12Z</time></trkpt><trkpt lat="53.093010" lon="25.453165"><ele>176.06</ele><time>2011-03-20T15:43:27Z</time></trkpt><trkpt lat="53.092934" lon="25.453495"><ele>176.54</ele><time>2011-03-20T15:43:31Z</time></trkpt><trkpt lat="53.092922" lon="25.453575"><ele>176.06</ele><time>2011-03-20T15:43:32Z</time></trkpt><trkpt lat="53.092754" lon="25.454321"><ele>177.50</ele><time>2011-03-20T15:43:42Z</time></trkpt><trkpt lat="53.092594" lon="25.454988"><ele>178.46</ele><time>2011-03-20T15:43:52Z</time></trkpt><trkpt lat="53.092323" lon="25.455873"><ele>179.42</ele><time>2011-03-20T15:44:06Z</time></trkpt><trkpt lat="53.092251" lon="25.456120"><ele>179.42</ele><time>2011-03-20T15:44:17Z</time></trkpt><trkpt lat="53.092251" lon="25.456120"><ele>183.27</ele><time>2011-03-20T15:44:27Z</time></trkpt><trkpt lat="53.092251" lon="25.456120"><ele>179.42</ele><time>2011-03-20T15:44:29Z</time></trkpt><trkpt lat="53.092251" lon="25.456120"><ele>179.42</ele><time>2011-03-20T15:44:40Z</time></trkpt><trkpt lat="53.092232" lon="25.456202"><ele>179.42</ele><time>2011-03-20T15:44:43Z</time></trkpt><trkpt lat="53.092049" lon="25.456915"><ele>181.35</ele><time>2011-03-20T15:44:57Z</time></trkpt><trkpt lat="53.091785" lon="25.458036"><ele>182.31</ele><time>2011-03-20T15:45:15Z</time></trkpt><trkpt lat="53.091511" lon="25.459131"><ele>183.75</ele><time>2011-03-20T15:45:31Z</time></trkpt><trkpt lat="53.091244" lon="25.460184"><ele>182.79</ele><time>2011-03-20T15:45:45Z</time></trkpt><trkpt lat="53.091003" lon="25.461180"><ele>181.35</ele><time>2011-03-20T15:45:58Z</time></trkpt><trkpt lat="53.090862" lon="25.461750"><ele>180.87</ele><time>2011-03-20T15:46:05Z</time></trkpt><trkpt lat="53.090836" lon="25.461819"><ele>179.42</ele><time>2011-03-20T15:46:06Z</time></trkpt><trkpt lat="53.090813" lon="25.461887"><ele>180.38</ele><time>2011-03-20T15:46:07Z</time></trkpt><trkpt lat="53.090790" lon="25.461962"><ele>179.90</ele><time>2011-03-20T15:46:08Z</time></trkpt><trkpt lat="53.090771" lon="25.462040"><ele>180.38</ele><time>2011-03-20T15:46:09Z</time></trkpt><trkpt lat="53.090496" lon="25.463234"><ele>177.50</ele><time>2011-03-20T15:46:23Z</time></trkpt><trkpt lat="53.090244" lon="25.464249"><ele>174.14</ele><time>2011-03-20T15:46:33Z</time></trkpt><trkpt lat="53.089947" lon="25.465462"><ele>170.77</ele><time>2011-03-20T15:46:45Z</time></trkpt><trkpt lat="53.089897" lon="25.465666"><ele>170.29</ele><time>2011-03-20T15:46:47Z</time></trkpt><trkpt lat="53.089775" lon="25.466187"><ele>168.37</ele><time>2011-03-20T15:46:52Z</time></trkpt><trkpt lat="53.089470" lon="25.467361"><ele>165.00</ele><time>2011-03-20T15:47:04Z</time></trkpt><trkpt lat="53.089447" lon="25.467455"><ele>165.48</ele><time>2011-03-20T15:47:05Z</time></trkpt><trkpt lat="53.089157" lon="25.468693"><ele>163.56</ele><time>2011-03-20T15:47:18Z</time></trkpt><trkpt lat="53.089046" lon="25.469147"><ele>163.08</ele><time>2011-03-20T15:47:24Z</time></trkpt><trkpt lat="53.089024" lon="25.469219"><ele>163.56</ele><time>2011-03-20T15:47:25Z</time></trkpt><trkpt lat="53.088734" lon="25.470335"><ele>164.52</ele><time>2011-03-20T15:47:41Z</time></trkpt><trkpt lat="53.088516" lon="25.471272"><ele>165.48</ele><time>2011-03-20T15:47:55Z</time></trkpt><trkpt lat="53.088242" lon="25.472555"><ele>165.48</ele><time>2011-03-20T15:48:12Z</time></trkpt><trkpt lat="53.088001" lon="25.473783"><ele>162.12</ele><time>2011-03-20T15:48:27Z</time></trkpt><trkpt lat="53.087799" lon="25.474804"><ele>159.24</ele><time>2011-03-20T15:48:39Z</time></trkpt><trkpt lat="53.087601" lon="25.475786"><ele>155.39</ele><time>2011-03-20T15:48:49Z</time></trkpt><trkpt lat="53.087582" lon="25.475893"><ele>155.39</ele><time>2011-03-20T15:48:50Z</time></trkpt><trkpt lat="53.087395" lon="25.476992"><ele>152.03</ele><time>2011-03-20T15:49:00Z</time></trkpt><trkpt lat="53.087280" lon="25.478424"><ele>148.66</ele><time>2011-03-20T15:49:13Z</time></trkpt><trkpt lat="53.087276" lon="25.478771"><ele>147.22</ele><time>2011-03-20T15:49:16Z</time></trkpt><trkpt lat="53.087296" lon="25.480341"><ele>143.85</ele><time>2011-03-20T15:49:30Z</time></trkpt><trkpt lat="53.087318" lon="25.481960"><ele>141.93</ele><time>2011-03-20T15:49:46Z</time></trkpt><trkpt lat="53.087334" lon="25.483070"><ele>141.93</ele><time>2011-03-20T15:50:01Z</time></trkpt><trkpt lat="53.087357" lon="25.483704"><ele>141.93</ele><time>2011-03-20T15:50:13Z</time></trkpt><trkpt lat="53.087421" lon="25.484444"><ele>142.89</ele><time>2011-03-20T15:50:25Z</time></trkpt><trkpt lat="53.087532" lon="25.485497"><ele>141.45</ele><time>2011-03-20T15:50:39Z</time></trkpt><trkpt lat="53.087509" lon="25.486002"><ele>141.45</ele><time>2011-03-20T15:50:49Z</time></trkpt><trkpt lat="53.087090" lon="25.486576"><ele>140.49</ele><time>2011-03-20T15:51:03Z</time></trkpt><trkpt lat="53.086590" lon="25.487234"><ele>141.45</ele><time>2011-03-20T15:51:19Z</time></trkpt><trkpt lat="53.086437" lon="25.487408"><ele>141.93</ele><time>2011-03-20T15:51:31Z</time></trkpt><trkpt lat="53.086273" lon="25.487999"><ele>141.93</ele><time>2011-03-20T15:51:44Z</time></trkpt><trkpt lat="53.085945" lon="25.488354"><ele>141.93</ele><time>2011-03-20T15:51:55Z</time></trkpt><trkpt lat="53.085518" lon="25.488852"><ele>142.41</ele><time>2011-03-20T15:52:09Z</time></trkpt><trkpt lat="53.085140" lon="25.489790"><ele>142.41</ele><time>2011-03-20T15:52:27Z</time></trkpt><trkpt lat="53.085049" lon="25.490540"><ele>143.37</ele><time>2011-03-20T15:52:40Z</time></trkpt><trkpt lat="53.084572" lon="25.490917"><ele>143.37</ele><time>2011-03-20T15:52:54Z</time></trkpt><trkpt lat="53.084358" lon="25.490822"><ele>142.89</ele><time>2011-03-20T15:53:06Z</time></trkpt><trkpt lat="53.083881" lon="25.491074"><ele>143.37</ele><time>2011-03-20T15:53:21Z</time></trkpt><trkpt lat="53.083309" lon="25.491278"><ele>143.85</ele><time>2011-03-20T15:53:36Z</time></trkpt><trkpt lat="53.082771" lon="25.491432"><ele>143.85</ele><time>2011-03-20T15:53:51Z</time></trkpt><trkpt lat="53.082249" lon="25.491541"><ele>144.34</ele><time>2011-03-20T15:54:05Z</time></trkpt><trkpt lat="53.081631" lon="25.491688"><ele>144.34</ele><time>2011-03-20T15:54:20Z</time></trkpt><trkpt lat="53.080914" lon="25.491602"><ele>143.85</ele><time>2011-03-20T15:54:37Z</time></trkpt><trkpt lat="53.080360" lon="25.491503"><ele>141.45</ele><time>2011-03-20T15:54:52Z</time></trkpt><trkpt lat="53.079784" lon="25.491449"><ele>142.89</ele><time>2011-03-20T15:55:09Z</time></trkpt><trkpt lat="53.079247" lon="25.491327"><ele>143.37</ele><time>2011-03-20T15:55:24Z</time></trkpt><trkpt lat="53.078873" lon="25.490812"><ele>142.89</ele><time>2011-03-20T15:55:37Z</time></trkpt><trkpt lat="53.078827" lon="25.490019"><ele>143.37</ele><time>2011-03-20T15:55:50Z</time></trkpt><trkpt lat="53.078751" lon="25.489199"><ele>144.82</ele><time>2011-03-20T15:56:04Z</time></trkpt><trkpt lat="53.078697" lon="25.488392"><ele>143.37</ele><time>2011-03-20T15:56:18Z</time></trkpt><trkpt lat="53.078655" lon="25.487513"><ele>142.41</ele><time>2011-03-20T15:56:33Z</time></trkpt><trkpt lat="53.078609" lon="25.486816"><ele>142.41</ele><time>2011-03-20T15:56:47Z</time></trkpt><trkpt lat="53.078503" lon="25.486097"><ele>140.97</ele><time>2011-03-20T15:57:01Z</time></trkpt><trkpt lat="53.078285" lon="25.485340"><ele>140.97</ele><time>2011-03-20T15:57:15Z</time></trkpt><trkpt lat="53.078152" lon="25.484516"><ele>140.97</ele><time>2011-03-20T15:57:28Z</time></trkpt><trkpt lat="53.078033" lon="25.483456"><ele>140.49</ele><time>2011-03-20T15:57:44Z</time></trkpt><trkpt lat="53.077904" lon="25.482409"><ele>140.49</ele><time>2011-03-20T15:57:59Z</time></trkpt><trkpt lat="53.077805" lon="25.481470"><ele>140.97</ele><time>2011-03-20T15:58:13Z</time></trkpt><trkpt lat="53.077682" lon="25.480541"><ele>141.45</ele><time>2011-03-20T15:58:28Z</time></trkpt><trkpt lat="53.077591" lon="25.479628"><ele>140.49</ele><time>2011-03-20T15:58:43Z</time></trkpt><trkpt lat="53.077503" lon="25.478800"><ele>140.97</ele><time>2011-03-20T15:58:57Z</time></trkpt><trkpt lat="53.077408" lon="25.477882"><ele>140.97</ele><time>2011-03-20T15:59:12Z</time></trkpt><trkpt lat="53.077305" lon="25.476973"><ele>140.01</ele><time>2011-03-20T15:59:27Z</time></trkpt><trkpt lat="53.077236" lon="25.476360"><ele>140.97</ele><time>2011-03-20T15:59:41Z</time></trkpt><trkpt lat="53.077213" lon="25.475576"><ele>138.57</ele><time>2011-03-20T15:59:55Z</time></trkpt><trkpt lat="53.077183" lon="25.475321"><ele>139.53</ele><time>2011-03-20T16:00:06Z</time></trkpt><trkpt lat="53.077183" lon="25.475321"><ele>138.57</ele><time>2011-03-20T16:00:31Z</time></trkpt><trkpt lat="53.077183" lon="25.475309"><ele>140.01</ele><time>2011-03-20T16:00:56Z</time></trkpt><trkpt lat="53.077099" lon="25.475286"><ele>141.45</ele><time>2011-03-20T16:01:14Z</time></trkpt><trkpt lat="53.077057" lon="25.475286"><ele>141.93</ele><time>2011-03-20T16:01:27Z</time></trkpt><trkpt lat="53.077057" lon="25.475286"><ele>142.41</ele><time>2011-03-20T16:01:54Z</time></trkpt><trkpt lat="53.077057" lon="25.475286"><ele>140.97</ele><time>2011-03-20T16:01:56Z</time></trkpt><trkpt lat="53.077049" lon="25.475096"><ele>141.93</ele><time>2011-03-20T16:02:04Z</time></trkpt><trkpt lat="53.077007" lon="25.474752"><ele>141.45</ele><time>2011-03-20T16:02:19Z</time></trkpt><trkpt lat="53.076977" lon="25.474449"><ele>140.49</ele><time>2011-03-20T16:02:34Z</time></trkpt><trkpt lat="53.076942" lon="25.474112"><ele>140.97</ele><time>2011-03-20T16:02:49Z</time></trkpt><trkpt lat="53.076908" lon="25.473808"><ele>140.97</ele><time>2011-03-20T16:03:03Z</time></trkpt><trkpt lat="53.076885" lon="25.473463"><ele>140.97</ele><time>2011-03-20T16:03:19Z</time></trkpt><trkpt lat="53.076870" lon="25.473356"><ele>141.45</ele><time>2011-03-20T16:03:31Z</time></trkpt><trkpt lat="53.076832" lon="25.473101"><ele>140.97</ele><time>2011-03-20T16:03:47Z</time></trkpt><trkpt lat="53.076782" lon="25.472740"><ele>141.45</ele><time>2011-03-20T16:04:04Z</time></trkpt><trkpt lat="53.076744" lon="25.472462"><ele>140.97</ele><time>2011-03-20T16:04:19Z</time></trkpt><trkpt lat="53.076797" lon="25.472445"><ele>140.49</ele><time>2011-03-20T16:04:27Z</time></trkpt><trkpt lat="53.076893" lon="25.472471"><ele>140.49</ele><time>2011-03-20T16:04:37Z</time></trkpt><trkpt lat="53.076950" lon="25.472765"><ele>142.89</ele><time>2011-03-20T16:04:52Z</time></trkpt><trkpt lat="53.077007" lon="25.473185"><ele>142.41</ele><time>2011-03-20T16:05:08Z</time></trkpt><trkpt lat="53.077057" lon="25.473530"><ele>139.05</ele><time>2011-03-20T16:05:15Z</time></trkpt><trkpt lat="53.077282" lon="25.474304"><ele>138.09</ele><time>2011-03-20T16:05:28Z</time></trkpt><trkpt lat="53.077290" lon="25.474918"><ele>139.05</ele><time>2011-03-20T16:05:41Z</time></trkpt><trkpt lat="53.077209" lon="25.475611"><ele>139.53</ele><time>2011-03-20T16:05:55Z</time></trkpt><trkpt lat="53.077225" lon="25.476320"><ele>140.97</ele><time>2011-03-20T16:06:11Z</time></trkpt><trkpt lat="53.077278" lon="25.477049"><ele>140.01</ele><time>2011-03-20T16:06:26Z</time></trkpt><trkpt lat="53.077347" lon="25.477688"><ele>139.53</ele><time>2011-03-20T16:06:40Z</time></trkpt><trkpt lat="53.077427" lon="25.478403"><ele>140.01</ele><time>2011-03-20T16:06:55Z</time></trkpt><trkpt lat="53.077515" lon="25.479033"><ele>141.45</ele><time>2011-03-20T16:07:10Z</time></trkpt><trkpt lat="53.077579" lon="25.479574"><ele>141.45</ele><time>2011-03-20T16:07:24Z</time></trkpt><trkpt lat="53.077625" lon="25.480207"><ele>140.49</ele><time>2011-03-20T16:07:40Z</time></trkpt><trkpt lat="53.077679" lon="25.480747"><ele>140.97</ele><time>2011-03-20T16:07:55Z</time></trkpt><trkpt lat="53.077717" lon="25.481058"><ele>140.49</ele><time>2011-03-20T16:08:07Z</time></trkpt><trkpt lat="53.077717" lon="25.481058"><ele>136.16</ele><time>2011-03-20T16:08:24Z</time></trkpt><trkpt lat="53.077717" lon="25.481058"><ele>142.89</ele><time>2011-03-20T16:08:25Z</time></trkpt><trkpt lat="53.077717" lon="25.481058"><ele>141.45</ele><time>2011-03-20T16:08:53Z</time></trkpt><trkpt lat="53.077717" lon="25.481058"><ele>140.01</ele><time>2011-03-20T16:09:13Z</time></trkpt><trkpt lat="53.077709" lon="25.481100"><ele>141.45</ele><time>2011-03-20T16:09:16Z</time></trkpt><trkpt lat="53.077694" lon="25.481163"><ele>141.93</ele><time>2011-03-20T16:09:33Z</time></trkpt><trkpt lat="53.077698" lon="25.481178"><ele>141.45</ele><time>2011-03-20T16:09:37Z</time></trkpt><trkpt lat="53.077744" lon="25.481489"><ele>141.45</ele><time>2011-03-20T16:09:52Z</time></trkpt><trkpt lat="53.077747" lon="25.481506"><ele>141.93</ele><time>2011-03-20T16:09:53Z</time></trkpt><trkpt lat="53.077782" lon="25.481579"><ele>140.49</ele><time>2011-03-20T16:09:57Z</time></trkpt><trkpt lat="53.077805" lon="25.481668"><ele>141.45</ele><time>2011-03-20T16:10:01Z</time></trkpt><trkpt lat="53.077812" lon="25.481760"><ele>141.45</ele><time>2011-03-20T16:10:05Z</time></trkpt><trkpt lat="53.077858" lon="25.482145"><ele>140.49</ele><time>2011-03-20T16:10:22Z</time></trkpt><trkpt lat="53.077896" lon="25.482494"><ele>140.49</ele><time>2011-03-20T16:10:38Z</time></trkpt><trkpt lat="53.077942" lon="25.482855"><ele>140.97</ele><time>2011-03-20T16:10:54Z</time></trkpt><trkpt lat="53.078003" lon="25.483280"><ele>140.97</ele><time>2011-03-20T16:11:10Z</time></trkpt><trkpt lat="53.078030" lon="25.483694"><ele>140.49</ele><time>2011-03-20T16:11:27Z</time></trkpt><trkpt lat="53.078091" lon="25.484163"><ele>140.97</ele><time>2011-03-20T16:11:46Z</time></trkpt><trkpt lat="53.078125" lon="25.484552"><ele>140.97</ele><time>2011-03-20T16:12:02Z</time></trkpt><trkpt lat="53.078167" lon="25.484966"><ele>140.97</ele><time>2011-03-20T16:12:19Z</time></trkpt><trkpt lat="53.078239" lon="25.485384"><ele>140.49</ele><time>2011-03-20T16:12:36Z</time></trkpt><trkpt lat="53.078270" lon="25.485630"><ele>140.49</ele><time>2011-03-20T16:12:46Z</time></trkpt><trkpt lat="53.078293" lon="25.485720"><ele>140.49</ele><time>2011-03-20T16:12:54Z</time></trkpt><trkpt lat="53.078476" lon="25.486229"><ele>142.41</ele><time>2011-03-20T16:13:09Z</time></trkpt><trkpt lat="53.078571" lon="25.486818"><ele>142.89</ele><time>2011-03-20T16:13:25Z</time></trkpt><trkpt lat="53.078636" lon="25.487446"><ele>142.41</ele><time>2011-03-20T16:13:41Z</time></trkpt><trkpt lat="53.078629" lon="25.487587"><ele>142.89</ele><time>2011-03-20T16:13:54Z</time></trkpt><trkpt lat="53.078629" lon="25.487619"><ele>142.41</ele><time>2011-03-20T16:14:02Z</time></trkpt><trkpt lat="53.078651" lon="25.488194"><ele>141.93</ele><time>2011-03-20T16:14:17Z</time></trkpt><trkpt lat="53.078686" lon="25.488890"><ele>142.41</ele><time>2011-03-20T16:14:32Z</time></trkpt><trkpt lat="53.078678" lon="25.489258"><ele>143.37</ele><time>2011-03-20T16:14:44Z</time></trkpt><trkpt lat="53.078739" lon="25.489532"><ele>141.93</ele><time>2011-03-20T16:14:52Z</time></trkpt><trkpt lat="53.078850" lon="25.490414"><ele>141.45</ele><time>2011-03-20T16:15:10Z</time></trkpt><trkpt lat="53.078930" lon="25.491047"><ele>141.45</ele><time>2011-03-20T16:15:26Z</time></trkpt><trkpt lat="53.078941" lon="25.491039"><ele>141.45</ele><time>2011-03-20T16:15:37Z</time></trkpt><trkpt lat="53.078941" lon="25.491039"><ele>141.93</ele><time>2011-03-20T16:16:07Z</time></trkpt><trkpt lat="53.078941" lon="25.491039"><ele>140.97</ele><time>2011-03-20T16:16:33Z</time></trkpt><trkpt lat="53.078941" lon="25.491039"><ele>141.45</ele><time>2011-03-20T16:16:40Z</time></trkpt><trkpt lat="53.078979" lon="25.491098"><ele>140.49</ele><time>2011-03-20T16:16:46Z</time></trkpt><trkpt lat="53.079086" lon="25.491199"><ele>141.93</ele><time>2011-03-20T16:16:52Z</time></trkpt><trkpt lat="53.079483" lon="25.491484"><ele>141.45</ele><time>2011-03-20T16:17:07Z</time></trkpt><trkpt lat="53.079903" lon="25.491512"><ele>140.97</ele><time>2011-03-20T16:17:23Z</time></trkpt><trkpt lat="53.080273" lon="25.491522"><ele>140.97</ele><time>2011-03-20T16:17:37Z</time></trkpt><trkpt lat="53.080441" lon="25.491543"><ele>140.01</ele><time>2011-03-20T16:17:43Z</time></trkpt><trkpt lat="53.080814" lon="25.491602"><ele>140.97</ele><time>2011-03-20T16:17:59Z</time></trkpt><trkpt lat="53.081318" lon="25.491688"><ele>140.97</ele><time>2011-03-20T16:18:17Z</time></trkpt><trkpt lat="53.081806" lon="25.491673"><ele>141.45</ele><time>2011-03-20T16:18:31Z</time></trkpt><trkpt lat="53.082287" lon="25.491617"><ele>141.45</ele><time>2011-03-20T16:18:47Z</time></trkpt><trkpt lat="53.082706" lon="25.491514"><ele>140.97</ele><time>2011-03-20T16:19:03Z</time></trkpt><trkpt lat="53.083218" lon="25.491369"><ele>140.97</ele><time>2011-03-20T16:19:17Z</time></trkpt><trkpt lat="53.083775" lon="25.491192"><ele>140.01</ele><time>2011-03-20T16:19:33Z</time></trkpt><trkpt lat="53.084179" lon="25.490993"><ele>140.49</ele><time>2011-03-20T16:19:49Z</time></trkpt><trkpt lat="53.084602" lon="25.490898"><ele>139.53</ele><time>2011-03-20T16:20:04Z</time></trkpt><trkpt lat="53.084911" lon="25.490742"><ele>139.53</ele><time>2011-03-20T16:20:17Z</time></trkpt><trkpt lat="53.085129" lon="25.490145"><ele>139.53</ele><time>2011-03-20T16:20:31Z</time></trkpt><trkpt lat="53.085232" lon="25.489431"><ele>140.01</ele><time>2011-03-20T16:20:45Z</time></trkpt><trkpt lat="53.085526" lon="25.488798"><ele>138.57</ele><time>2011-03-20T16:21:00Z</time></trkpt><trkpt lat="53.085907" lon="25.488401"><ele>138.57</ele><time>2011-03-20T16:21:14Z</time></trkpt><trkpt lat="53.086220" lon="25.487888"><ele>139.05</ele><time>2011-03-20T16:21:26Z</time></trkpt><trkpt lat="53.086441" lon="25.487370"><ele>138.57</ele><time>2011-03-20T16:21:39Z</time></trkpt><trkpt lat="53.086765" lon="25.486942"><ele>137.13</ele><time>2011-03-20T16:21:54Z</time></trkpt><trkpt lat="53.087238" lon="25.486305"><ele>137.61</ele><time>2011-03-20T16:22:10Z</time></trkpt><trkpt lat="53.087555" lon="25.486000"><ele>139.05</ele><time>2011-03-20T16:22:24Z</time></trkpt><trkpt lat="53.087597" lon="25.486280"><ele>137.61</ele><time>2011-03-20T16:22:33Z</time></trkpt><trkpt lat="53.087589" lon="25.486294"><ele>139.05</ele><time>2011-03-20T16:23:03Z</time></trkpt><trkpt lat="53.087585" lon="25.486359"><ele>139.05</ele><time>2011-03-20T16:23:25Z</time></trkpt><trkpt lat="53.087643" lon="25.487076"><ele>139.05</ele><time>2011-03-20T16:23:40Z</time></trkpt><trkpt lat="53.087723" lon="25.487972"><ele>139.05</ele><time>2011-03-20T16:23:55Z</time></trkpt><trkpt lat="53.087898" lon="25.488983"><ele>139.53</ele><time>2011-03-20T16:24:12Z</time></trkpt><trkpt lat="53.088146" lon="25.489834"><ele>140.49</ele><time>2011-03-20T16:24:27Z</time></trkpt><trkpt lat="53.088284" lon="25.490849"><ele>140.01</ele><time>2011-03-20T16:24:43Z</time></trkpt><trkpt lat="53.088451" lon="25.492004"><ele>140.49</ele><time>2011-03-20T16:25:00Z</time></trkpt><trkpt lat="53.088737" lon="25.493160"><ele>139.53</ele><time>2011-03-20T16:25:17Z</time></trkpt><trkpt lat="53.088936" lon="25.493954"><ele>139.53</ele><time>2011-03-20T16:25:28Z</time></trkpt><trkpt lat="53.089188" lon="25.495039"><ele>139.53</ele><time>2011-03-20T16:25:44Z</time></trkpt><trkpt lat="53.089237" lon="25.495317"><ele>140.01</ele><time>2011-03-20T16:25:48Z</time></trkpt><trkpt lat="53.089478" lon="25.496323"><ele>140.49</ele><time>2011-03-20T16:26:03Z</time></trkpt><trkpt lat="53.089703" lon="25.497284"><ele>140.01</ele><time>2011-03-20T16:26:18Z</time></trkpt><trkpt lat="53.089931" lon="25.498308"><ele>140.49</ele><time>2011-03-20T16:26:34Z</time></trkpt><trkpt lat="53.090157" lon="25.499249"><ele>140.49</ele><time>2011-03-20T16:26:49Z</time></trkpt><trkpt lat="53.090374" lon="25.500259"><ele>140.49</ele><time>2011-03-20T16:27:05Z</time></trkpt><trkpt lat="53.090462" lon="25.500668"><ele>140.49</ele><time>2011-03-20T16:27:12Z</time></trkpt><trkpt lat="53.090477" lon="25.500734"><ele>140.49</ele><time>2011-03-20T16:27:13Z</time></trkpt><trkpt lat="53.090618" lon="25.501411"><ele>141.45</ele><time>2011-03-20T16:27:23Z</time></trkpt><trkpt lat="53.090824" lon="25.502373"><ele>140.97</ele><time>2011-03-20T16:27:39Z</time></trkpt><trkpt lat="53.090996" lon="25.503191"><ele>140.97</ele><time>2011-03-20T16:27:53Z</time></trkpt><trkpt lat="53.091217" lon="25.504156"><ele>141.45</ele><time>2011-03-20T16:28:10Z</time></trkpt><trkpt lat="53.091358" lon="25.504972"><ele>142.41</ele><time>2011-03-20T16:28:25Z</time></trkpt><trkpt lat="53.091476" lon="25.505880"><ele>142.41</ele><time>2011-03-20T16:28:39Z</time></trkpt><trkpt lat="53.091599" lon="25.506851"><ele>142.89</ele><time>2011-03-20T16:28:54Z</time></trkpt><trkpt lat="53.091763" lon="25.507656"><ele>143.85</ele><time>2011-03-20T16:29:08Z</time></trkpt><trkpt lat="53.091915" lon="25.508493"><ele>145.30</ele><time>2011-03-20T16:29:23Z</time></trkpt><trkpt lat="53.092018" lon="25.509298"><ele>147.22</ele><time>2011-03-20T16:29:38Z</time></trkpt><trkpt lat="53.092209" lon="25.510223"><ele>150.10</ele><time>2011-03-20T16:29:56Z</time></trkpt><trkpt lat="53.092304" lon="25.510536"><ele>151.06</ele><time>2011-03-20T16:30:02Z</time></trkpt><trkpt lat="53.092480" lon="25.511345"><ele>152.99</ele><time>2011-03-20T16:30:19Z</time></trkpt><trkpt lat="53.092575" lon="25.512043"><ele>155.87</ele><time>2011-03-20T16:30:34Z</time></trkpt><trkpt lat="53.092674" lon="25.512690"><ele>159.24</ele><time>2011-03-20T16:30:48Z</time></trkpt><trkpt lat="53.092804" lon="25.513506"><ele>159.24</ele><time>2011-03-20T16:31:04Z</time></trkpt><trkpt lat="53.092911" lon="25.514406"><ele>160.20</ele><time>2011-03-20T16:31:20Z</time></trkpt><trkpt lat="53.092937" lon="25.515348"><ele>159.24</ele><time>2011-03-20T16:31:35Z</time></trkpt><trkpt lat="53.093025" lon="25.516447"><ele>162.12</ele><time>2011-03-20T16:31:51Z</time></trkpt><trkpt lat="53.093079" lon="25.517042"><ele>163.56</ele><time>2011-03-20T16:32:01Z</time></trkpt><trkpt lat="53.093109" lon="25.517323"><ele>165.48</ele><time>2011-03-20T16:32:06Z</time></trkpt><trkpt lat="53.093178" lon="25.518093"><ele>166.45</ele><time>2011-03-20T16:32:20Z</time></trkpt><trkpt lat="53.093250" lon="25.518909"><ele>167.89</ele><time>2011-03-20T16:32:37Z</time></trkpt><trkpt lat="53.093246" lon="25.519325"><ele>168.37</ele><time>2011-03-20T16:32:50Z</time></trkpt><trkpt lat="53.093239" lon="25.519762"><ele>169.33</ele><time>2011-03-20T16:33:08Z</time></trkpt><trkpt lat="53.093250" lon="25.519821"><ele>169.33</ele><time>2011-03-20T16:33:11Z</time></trkpt><trkpt lat="53.093323" lon="25.520323"><ele>169.81</ele><time>2011-03-20T16:33:31Z</time></trkpt><trkpt lat="53.093349" lon="25.520657"><ele>169.81</ele><time>2011-03-20T16:33:46Z</time></trkpt><trkpt lat="53.093407" lon="25.520977"><ele>169.81</ele><time>2011-03-20T16:33:59Z</time></trkpt><trkpt lat="53.093578" lon="25.522001"><ele>170.29</ele><time>2011-03-20T16:34:19Z</time></trkpt><trkpt lat="53.093727" lon="25.522997"><ele>170.29</ele><time>2011-03-20T16:34:36Z</time></trkpt><trkpt lat="53.093933" lon="25.524168"><ele>169.81</ele><time>2011-03-20T16:34:54Z</time></trkpt><trkpt lat="53.094070" lon="25.525455"><ele>168.85</ele><time>2011-03-20T16:35:13Z</time></trkpt><trkpt lat="53.094166" lon="25.526367"><ele>171.25</ele><time>2011-03-20T16:35:32Z</time></trkpt><trkpt lat="53.094204" lon="25.526917"><ele>171.73</ele><time>2011-03-20T16:35:47Z</time></trkpt><trkpt lat="53.094269" lon="25.527506"><ele>173.17</ele><time>2011-03-20T16:36:02Z</time></trkpt><trkpt lat="53.094345" lon="25.528265"><ele>173.66</ele><time>2011-03-20T16:36:19Z</time></trkpt><trkpt lat="53.094498" lon="25.529039"><ele>174.14</ele><time>2011-03-20T16:36:36Z</time></trkpt><trkpt lat="53.094650" lon="25.529940"><ele>174.14</ele><time>2011-03-20T16:36:52Z</time></trkpt><trkpt lat="53.094860" lon="25.531027"><ele>171.73</ele><time>2011-03-20T16:37:08Z</time></trkpt><trkpt lat="53.095116" lon="25.532452"><ele>171.25</ele><time>2011-03-20T16:37:25Z</time></trkpt><trkpt lat="53.095325" lon="25.533522"><ele>169.81</ele><time>2011-03-20T16:37:40Z</time></trkpt><trkpt lat="53.095505" lon="25.534864"><ele>168.85</ele><time>2011-03-20T16:37:57Z</time></trkpt><trkpt lat="53.095615" lon="25.536264"><ele>169.81</ele><time>2011-03-20T16:38:14Z</time></trkpt><trkpt lat="53.095772" lon="25.537476"><ele>168.85</ele><time>2011-03-20T16:38:30Z</time></trkpt><trkpt lat="53.095901" lon="25.538649"><ele>168.37</ele><time>2011-03-20T16:38:46Z</time></trkpt><trkpt lat="53.095997" lon="25.539440"><ele>169.33</ele><time>2011-03-20T16:38:58Z</time></trkpt><trkpt lat="53.096149" lon="25.540451"><ele>169.33</ele><time>2011-03-20T16:39:14Z</time></trkpt><trkpt lat="53.096195" lon="25.541613"><ele>170.77</ele><time>2011-03-20T16:39:31Z</time></trkpt><trkpt lat="53.096363" lon="25.542807"><ele>170.77</ele><time>2011-03-20T16:39:48Z</time></trkpt><trkpt lat="53.096535" lon="25.544142"><ele>170.29</ele><time>2011-03-20T16:40:05Z</time></trkpt><trkpt lat="53.096786" lon="25.545269"><ele>170.77</ele><time>2011-03-20T16:40:19Z</time></trkpt><trkpt lat="53.096813" lon="25.545433"><ele>170.29</ele><time>2011-03-20T16:40:21Z</time></trkpt><trkpt lat="53.096996" lon="25.546156"><ele>170.29</ele><time>2011-03-20T16:40:30Z</time></trkpt><trkpt lat="53.097225" lon="25.547321"><ele>169.81</ele><time>2011-03-20T16:40:45Z</time></trkpt><trkpt lat="53.097343" lon="25.548042"><ele>168.85</ele><time>2011-03-20T16:40:59Z</time></trkpt><trkpt lat="53.097404" lon="25.548285"><ele>168.37</ele><time>2011-03-20T16:41:03Z</time></trkpt><trkpt lat="53.097660" lon="25.549389"><ele>167.41</ele><time>2011-03-20T16:41:20Z</time></trkpt><trkpt lat="53.097809" lon="25.550774"><ele>164.04</ele><time>2011-03-20T16:41:37Z</time></trkpt><trkpt lat="53.098164" lon="25.552008"><ele>161.16</ele><time>2011-03-20T16:41:53Z</time></trkpt><trkpt lat="53.098267" lon="25.552357"><ele>159.72</ele><time>2011-03-20T16:41:58Z</time></trkpt><trkpt lat="53.098637" lon="25.553457"><ele>159.24</ele><time>2011-03-20T16:42:14Z</time></trkpt><trkpt lat="53.098927" lon="25.554359"><ele>158.75</ele><time>2011-03-20T16:42:29Z</time></trkpt><trkpt lat="53.099228" lon="25.555283"><ele>159.24</ele><time>2011-03-20T16:42:44Z</time></trkpt><trkpt lat="53.099514" lon="25.556463"><ele>158.27</ele><time>2011-03-20T16:43:01Z</time></trkpt><trkpt lat="53.099834" lon="25.557438"><ele>160.20</ele><time>2011-03-20T16:43:17Z</time></trkpt><trkpt lat="53.099907" lon="25.557627"><ele>161.16</ele><time>2011-03-20T16:43:21Z</time></trkpt><trkpt lat="53.100151" lon="25.558289"><ele>163.08</ele><time>2011-03-20T16:43:38Z</time></trkpt><trkpt lat="53.100483" lon="25.559153"><ele>165.00</ele><time>2011-03-20T16:43:55Z</time></trkpt><trkpt lat="53.100666" lon="25.559841"><ele>165.48</ele><time>2011-03-20T16:44:09Z</time></trkpt><trkpt lat="53.100994" lon="25.560768"><ele>165.96</ele><time>2011-03-20T16:44:24Z</time></trkpt><trkpt lat="53.101353" lon="25.561771"><ele>166.45</ele><time>2011-03-20T16:44:42Z</time></trkpt></trkseg></trk></gpx>